<?xml version="1.0" encoding="UTF-8" standalone="no" ?>
<gpx xmlns="http://www.topografix.com/GPX/1/1" xmlns:xsi="http://www.w3.org/2001/XMLSchema-instance" xsi:schemaLocation="http://www.topografix.com/GPX/1/1 http://www.topografix.com/GPX/1/1/gpx.xsd" version="1.1" creator="VisuGPX - https://www.visugpx.com">
  <metadata>
    <name>Boucle dans le bois de la grange et sur les rives de L'Yerres</name>
    <desc><![CDATA[Le RCY marche avec le téléthon - édition 2018

Des petites boucles de 4 km autour du centre-ville sans aucune difficultés]]></desc>
  </metadata>
  <trk>
    <name><![CDATA[Boucle dans le bois de la grange et sur les rives de L'Yerres_1]]></name>
    <trkseg>
      <trkpt lat="48.71224" lon="2.48723">
        <ele>45.9</ele>
        <time>2018-12-08T11:33:48Z</time>
      </trkpt>
      <trkpt lat="48.71224" lon="2.48723">
        <ele>101.54</ele>
        <time>2018-12-08T11:33:50Z</time>
      </trkpt>
      <trkpt lat="48.7123" lon="2.48727">
        <ele>93.5537</ele>
        <time>2018-12-08T11:34:48Z</time>
      </trkpt>
      <trkpt lat="48.71235" lon="2.48725">
        <ele>94.2248</ele>
        <time>2018-12-08T11:35:00Z</time>
      </trkpt>
      <trkpt lat="48.71236" lon="2.48736">
        <ele>94.6433</ele>
        <time>2018-12-08T11:35:09Z</time>
      </trkpt>
      <trkpt lat="48.71236" lon="2.48744">
        <ele>94.3514</ele>
        <time>2018-12-08T11:35:21Z</time>
      </trkpt>
      <trkpt lat="48.71237" lon="2.48753">
        <ele>94.0989</ele>
        <time>2018-12-08T11:35:23Z</time>
      </trkpt>
      <trkpt lat="48.7124" lon="2.48759">
        <ele>93.6361</ele>
        <time>2018-12-08T11:35:26Z</time>
      </trkpt>
      <trkpt lat="48.71243" lon="2.48763">
        <ele>93.2982</ele>
        <time>2018-12-08T11:35:28Z</time>
      </trkpt>
      <trkpt lat="48.71248" lon="2.48768">
        <ele>92.8176</ele>
        <time>2018-12-08T11:35:31Z</time>
      </trkpt>
      <trkpt lat="48.71251" lon="2.48775">
        <ele>91.938</ele>
        <time>2018-12-08T11:35:35Z</time>
      </trkpt>
      <trkpt lat="48.71251" lon="2.48775">
        <ele>91.938</ele>
        <time>2018-12-08T11:35:43Z</time>
      </trkpt>
      <trkpt lat="48.71251" lon="2.48775">
        <ele>46</ele>
        <time>2018-12-08T11:35:43Z</time>
      </trkpt>
      <trkpt lat="48.71251" lon="2.48775">
        <ele>46</ele>
        <time>2018-12-08T11:35:50Z</time>
      </trkpt>
      <trkpt lat="48.71267" lon="2.48779">
        <ele>89.7409</ele>
        <time>2018-12-08T11:35:50Z</time>
      </trkpt>
      <trkpt lat="48.71269" lon="2.48781">
        <ele>89.6756</ele>
        <time>2018-12-08T11:35:51Z</time>
      </trkpt>
      <trkpt lat="48.71272" lon="2.48783">
        <ele>89.5021</ele>
        <time>2018-12-08T11:35:54Z</time>
      </trkpt>
      <trkpt lat="48.71272" lon="2.48783">
        <ele>45</ele>
        <time>2018-12-08T11:36:01Z</time>
      </trkpt>
      <trkpt lat="48.71272" lon="2.48783">
        <ele>45</ele>
        <time>2018-12-08T11:36:04Z</time>
      </trkpt>
      <trkpt lat="48.71275" lon="2.4879">
        <ele>89.1931</ele>
        <time>2018-12-08T11:36:04Z</time>
      </trkpt>
      <trkpt lat="48.71276" lon="2.48798">
        <ele>89.1147</ele>
        <time>2018-12-08T11:36:09Z</time>
      </trkpt>
      <trkpt lat="48.71278" lon="2.48805">
        <ele>89.0997</ele>
        <time>2018-12-08T11:36:14Z</time>
      </trkpt>
      <trkpt lat="48.7128" lon="2.48812">
        <ele>89.0992</ele>
        <time>2018-12-08T11:36:16Z</time>
      </trkpt>
      <trkpt lat="48.71285" lon="2.48815">
        <ele>89.0876</ele>
        <time>2018-12-08T11:36:21Z</time>
      </trkpt>
      <trkpt lat="48.7129" lon="2.48816">
        <ele>89.0414</ele>
        <time>2018-12-08T11:36:26Z</time>
      </trkpt>
      <trkpt lat="48.71295" lon="2.48817">
        <ele>88.9767</ele>
        <time>2018-12-08T11:36:33Z</time>
      </trkpt>
      <trkpt lat="48.71295" lon="2.48817">
        <ele>42.8</ele>
        <time>2018-12-08T11:36:40Z</time>
      </trkpt>
      <trkpt lat="48.71295" lon="2.48817">
        <ele>42.8</ele>
        <time>2018-12-08T11:36:55Z</time>
      </trkpt>
      <trkpt lat="48.71311" lon="2.48836">
        <ele>88.8724</ele>
        <time>2018-12-08T11:36:55Z</time>
      </trkpt>
      <trkpt lat="48.71315" lon="2.48839">
        <ele>88.8941</ele>
        <time>2018-12-08T11:36:57Z</time>
      </trkpt>
      <trkpt lat="48.71318" lon="2.48841">
        <ele>88.9159</ele>
        <time>2018-12-08T11:36:59Z</time>
      </trkpt>
      <trkpt lat="48.71322" lon="2.48846">
        <ele>88.945</ele>
        <time>2018-12-08T11:37:02Z</time>
      </trkpt>
      <trkpt lat="48.71326" lon="2.48852">
        <ele>88.9887</ele>
        <time>2018-12-08T11:37:07Z</time>
      </trkpt>
      <trkpt lat="48.71331" lon="2.4885">
        <ele>89.07</ele>
        <time>2018-12-08T11:37:15Z</time>
      </trkpt>
      <trkpt lat="48.71334" lon="2.48847">
        <ele>89.1125</ele>
        <time>2018-12-08T11:37:22Z</time>
      </trkpt>
      <trkpt lat="48.71339" lon="2.48844">
        <ele>89.1034</ele>
        <time>2018-12-08T11:37:26Z</time>
      </trkpt>
      <trkpt lat="48.71343" lon="2.48839">
        <ele>89.071</ele>
        <time>2018-12-08T11:37:30Z</time>
      </trkpt>
      <trkpt lat="48.71345" lon="2.48837">
        <ele>89.0521</ele>
        <time>2018-12-08T11:37:32Z</time>
      </trkpt>
      <trkpt lat="48.7135" lon="2.48831">
        <ele>89.0045</ele>
        <time>2018-12-08T11:37:35Z</time>
      </trkpt>
      <trkpt lat="48.71352" lon="2.48828">
        <ele>88.9582</ele>
        <time>2018-12-08T11:37:37Z</time>
      </trkpt>
      <trkpt lat="48.71354" lon="2.48821">
        <ele>88.8783</ele>
        <time>2018-12-08T11:37:40Z</time>
      </trkpt>
      <trkpt lat="48.71358" lon="2.48816">
        <ele>88.7941</ele>
        <time>2018-12-08T11:37:43Z</time>
      </trkpt>
      <trkpt lat="48.71361" lon="2.48808">
        <ele>88.7127</ele>
        <time>2018-12-08T11:37:46Z</time>
      </trkpt>
      <trkpt lat="48.71363" lon="2.48801">
        <ele>88.636</ele>
        <time>2018-12-08T11:37:49Z</time>
      </trkpt>
      <trkpt lat="48.71363" lon="2.48792">
        <ele>88.5454</ele>
        <time>2018-12-08T11:37:53Z</time>
      </trkpt>
      <trkpt lat="48.71363" lon="2.48785">
        <ele>88.4842</ele>
        <time>2018-12-08T11:37:56Z</time>
      </trkpt>
      <trkpt lat="48.71363" lon="2.48778">
        <ele>88.4126</ele>
        <time>2018-12-08T11:38:00Z</time>
      </trkpt>
      <trkpt lat="48.71363" lon="2.48771">
        <ele>88.3429</ele>
        <time>2018-12-08T11:38:04Z</time>
      </trkpt>
      <trkpt lat="48.71363" lon="2.48763">
        <ele>88.2697</ele>
        <time>2018-12-08T11:38:09Z</time>
      </trkpt>
      <trkpt lat="48.71364" lon="2.48757">
        <ele>88.1944</ele>
        <time>2018-12-08T11:38:15Z</time>
      </trkpt>
      <trkpt lat="48.71364" lon="2.48752">
        <ele>88.1678</ele>
        <time>2018-12-08T11:38:17Z</time>
      </trkpt>
      <trkpt lat="48.71364" lon="2.48748">
        <ele>88.1467</ele>
        <time>2018-12-08T11:38:19Z</time>
      </trkpt>
      <trkpt lat="48.71365" lon="2.48742">
        <ele>88.119</ele>
        <time>2018-12-08T11:38:22Z</time>
      </trkpt>
      <trkpt lat="48.71367" lon="2.48735">
        <ele>88.085</ele>
        <time>2018-12-08T11:38:26Z</time>
      </trkpt>
      <trkpt lat="48.71368" lon="2.48727">
        <ele>88.0631</ele>
        <time>2018-12-08T11:38:28Z</time>
      </trkpt>
      <trkpt lat="48.71369" lon="2.48722">
        <ele>88.0366</ele>
        <time>2018-12-08T11:38:30Z</time>
      </trkpt>
      <trkpt lat="48.71371" lon="2.48715">
        <ele>87.9698</ele>
        <time>2018-12-08T11:38:34Z</time>
      </trkpt>
      <trkpt lat="48.71372" lon="2.48707">
        <ele>87.9024</ele>
        <time>2018-12-08T11:38:38Z</time>
      </trkpt>
      <trkpt lat="48.71373" lon="2.48699">
        <ele>87.8666</ele>
        <time>2018-12-08T11:38:42Z</time>
      </trkpt>
      <trkpt lat="48.71372" lon="2.48691">
        <ele>87.878</ele>
        <time>2018-12-08T11:38:45Z</time>
      </trkpt>
      <trkpt lat="48.71371" lon="2.48687">
        <ele>87.8816</ele>
        <time>2018-12-08T11:38:48Z</time>
      </trkpt>
      <trkpt lat="48.7137" lon="2.48681">
        <ele>87.8725</ele>
        <time>2018-12-08T11:38:51Z</time>
      </trkpt>
      <trkpt lat="48.7137" lon="2.48677">
        <ele>87.8572</ele>
        <time>2018-12-08T11:38:54Z</time>
      </trkpt>
      <trkpt lat="48.71369" lon="2.48673">
        <ele>87.8368</ele>
        <time>2018-12-08T11:38:57Z</time>
      </trkpt>
      <trkpt lat="48.71369" lon="2.48666">
        <ele>87.8026</ele>
        <time>2018-12-08T11:39:02Z</time>
      </trkpt>
      <trkpt lat="48.71369" lon="2.48658">
        <ele>87.7846</ele>
        <time>2018-12-08T11:39:05Z</time>
      </trkpt>
      <trkpt lat="48.71368" lon="2.48653">
        <ele>87.7759</ele>
        <time>2018-12-08T11:39:07Z</time>
      </trkpt>
      <trkpt lat="48.71368" lon="2.48644">
        <ele>87.7658</ele>
        <time>2018-12-08T11:39:10Z</time>
      </trkpt>
      <trkpt lat="48.71369" lon="2.48637">
        <ele>87.7613</ele>
        <time>2018-12-08T11:39:13Z</time>
      </trkpt>
      <trkpt lat="48.7137" lon="2.48633">
        <ele>87.7591</ele>
        <time>2018-12-08T11:39:15Z</time>
      </trkpt>
      <trkpt lat="48.71369" lon="2.48626">
        <ele>87.7577</ele>
        <time>2018-12-08T11:39:17Z</time>
      </trkpt>
      <trkpt lat="48.71369" lon="2.48619">
        <ele>87.7558</ele>
        <time>2018-12-08T11:39:20Z</time>
      </trkpt>
      <trkpt lat="48.7137" lon="2.48611">
        <ele>87.7581</ele>
        <time>2018-12-08T11:39:23Z</time>
      </trkpt>
      <trkpt lat="48.71369" lon="2.48604">
        <ele>87.7557</ele>
        <time>2018-12-08T11:39:28Z</time>
      </trkpt>
      <trkpt lat="48.71369" lon="2.48595">
        <ele>87.752</ele>
        <time>2018-12-08T11:39:32Z</time>
      </trkpt>
      <trkpt lat="48.71368" lon="2.48589">
        <ele>87.7504</ele>
        <time>2018-12-08T11:39:34Z</time>
      </trkpt>
      <trkpt lat="48.71369" lon="2.48582">
        <ele>87.7495</ele>
        <time>2018-12-08T11:39:38Z</time>
      </trkpt>
      <trkpt lat="48.71369" lon="2.48576">
        <ele>87.7556</ele>
        <time>2018-12-08T11:39:42Z</time>
      </trkpt>
      <trkpt lat="48.71369" lon="2.48568">
        <ele>87.7729</ele>
        <time>2018-12-08T11:39:46Z</time>
      </trkpt>
      <trkpt lat="48.7137" lon="2.4856">
        <ele>87.7868</ele>
        <time>2018-12-08T11:39:50Z</time>
      </trkpt>
      <trkpt lat="48.71369" lon="2.48551">
        <ele>87.7966</ele>
        <time>2018-12-08T11:39:54Z</time>
      </trkpt>
      <trkpt lat="48.71371" lon="2.48545">
        <ele>87.8087</ele>
        <time>2018-12-08T11:40:01Z</time>
      </trkpt>
      <trkpt lat="48.71372" lon="2.48537">
        <ele>87.8058</ele>
        <time>2018-12-08T11:40:04Z</time>
      </trkpt>
      <trkpt lat="48.71374" lon="2.48528">
        <ele>87.7982</ele>
        <time>2018-12-08T11:40:07Z</time>
      </trkpt>
      <trkpt lat="48.71375" lon="2.48523">
        <ele>87.7905</ele>
        <time>2018-12-08T11:40:09Z</time>
      </trkpt>
      <trkpt lat="48.71378" lon="2.48515">
        <ele>87.7801</ele>
        <time>2018-12-08T11:40:12Z</time>
      </trkpt>
      <trkpt lat="48.71381" lon="2.48509">
        <ele>87.7706</ele>
        <time>2018-12-08T11:40:15Z</time>
      </trkpt>
      <trkpt lat="48.71385" lon="2.48505">
        <ele>87.7636</ele>
        <time>2018-12-08T11:40:19Z</time>
      </trkpt>
      <trkpt lat="48.71388" lon="2.48501">
        <ele>87.7602</ele>
        <time>2018-12-08T11:40:23Z</time>
      </trkpt>
      <trkpt lat="48.7139" lon="2.48495">
        <ele>87.7577</ele>
        <time>2018-12-08T11:40:28Z</time>
      </trkpt>
      <trkpt lat="48.71391" lon="2.48491">
        <ele>87.7584</ele>
        <time>2018-12-08T11:40:33Z</time>
      </trkpt>
      <trkpt lat="48.71395" lon="2.48485">
        <ele>87.769</ele>
        <time>2018-12-08T11:40:39Z</time>
      </trkpt>
      <trkpt lat="48.71397" lon="2.48478">
        <ele>87.7756</ele>
        <time>2018-12-08T11:40:42Z</time>
      </trkpt>
      <trkpt lat="48.71402" lon="2.48474">
        <ele>87.771</ele>
        <time>2018-12-08T11:40:46Z</time>
      </trkpt>
      <trkpt lat="48.71405" lon="2.4847">
        <ele>87.7565</ele>
        <time>2018-12-08T11:40:50Z</time>
      </trkpt>
      <trkpt lat="48.7141" lon="2.48473">
        <ele>87.7219</ele>
        <time>2018-12-08T11:40:55Z</time>
      </trkpt>
      <trkpt lat="48.71416" lon="2.48473">
        <ele>87.6582</ele>
        <time>2018-12-08T11:41:02Z</time>
      </trkpt>
      <trkpt lat="48.7142" lon="2.48477">
        <ele>87.6308</ele>
        <time>2018-12-08T11:41:06Z</time>
      </trkpt>
      <trkpt lat="48.7142" lon="2.48477">
        <ele>36</ele>
        <time>2018-12-08T11:41:14Z</time>
      </trkpt>
      <trkpt lat="48.7142" lon="2.48477">
        <ele>36</ele>
        <time>2018-12-08T11:41:18Z</time>
      </trkpt>
      <trkpt lat="48.71428" lon="2.48469">
        <ele>87.5797</ele>
        <time>2018-12-08T11:41:18Z</time>
      </trkpt>
      <trkpt lat="48.71433" lon="2.48468">
        <ele>87.5738</ele>
        <time>2018-12-08T11:41:20Z</time>
      </trkpt>
      <trkpt lat="48.7144" lon="2.48465">
        <ele>87.5704</ele>
        <time>2018-12-08T11:41:22Z</time>
      </trkpt>
      <trkpt lat="48.71445" lon="2.48463">
        <ele>87.5675</ele>
        <time>2018-12-08T11:41:24Z</time>
      </trkpt>
      <trkpt lat="48.7145" lon="2.48463">
        <ele>87.5702</ele>
        <time>2018-12-08T11:41:26Z</time>
      </trkpt>
      <trkpt lat="48.7145" lon="2.48463">
        <ele>87.5702</ele>
        <time>2018-12-08T11:41:32Z</time>
      </trkpt>
      <trkpt lat="48.7145" lon="2.48463">
        <ele>36</ele>
        <time>2018-12-08T11:41:32Z</time>
      </trkpt>
      <trkpt lat="48.7145" lon="2.48463">
        <ele>36</ele>
        <time>2018-12-08T11:41:48Z</time>
      </trkpt>
      <trkpt lat="48.71467" lon="2.48469">
        <ele>87.6812</ele>
        <time>2018-12-08T11:41:48Z</time>
      </trkpt>
      <trkpt lat="48.71467" lon="2.48469">
        <ele>87.6812</ele>
        <time>2018-12-08T11:41:53Z</time>
      </trkpt>
      <trkpt lat="48.71467" lon="2.48469">
        <ele>36</ele>
        <time>2018-12-08T11:41:53Z</time>
      </trkpt>
      <trkpt lat="48.71467" lon="2.48469">
        <ele>36</ele>
        <time>2018-12-08T11:41:56Z</time>
      </trkpt>
      <trkpt lat="48.71485" lon="2.48471">
        <ele>87.7193</ele>
        <time>2018-12-08T11:41:56Z</time>
      </trkpt>
      <trkpt lat="48.71501" lon="2.48463">
        <ele>87.7387</ele>
        <time>2018-12-08T11:41:58Z</time>
      </trkpt>
      <trkpt lat="48.71507" lon="2.48462">
        <ele>87.7776</ele>
        <time>2018-12-08T11:42:01Z</time>
      </trkpt>
      <trkpt lat="48.71507" lon="2.48462">
        <ele>87.7776</ele>
        <time>2018-12-08T11:42:07Z</time>
      </trkpt>
      <trkpt lat="48.71507" lon="2.48462">
        <ele>35.9</ele>
        <time>2018-12-08T11:42:07Z</time>
      </trkpt>
      <trkpt lat="48.71507" lon="2.48462">
        <ele>35.9</ele>
        <time>2018-12-08T11:42:28Z</time>
      </trkpt>
      <trkpt lat="48.71517" lon="2.48438">
        <ele>88.0628</ele>
        <time>2018-12-08T11:42:28Z</time>
      </trkpt>
      <trkpt lat="48.7152" lon="2.48435">
        <ele>88.0732</ele>
        <time>2018-12-08T11:42:30Z</time>
      </trkpt>
      <trkpt lat="48.71527" lon="2.48433">
        <ele>88.0881</ele>
        <time>2018-12-08T11:42:33Z</time>
      </trkpt>
      <trkpt lat="48.71532" lon="2.48429">
        <ele>88.1044</ele>
        <time>2018-12-08T11:42:36Z</time>
      </trkpt>
      <trkpt lat="48.71534" lon="2.48428">
        <ele>88.1108</ele>
        <time>2018-12-08T11:42:37Z</time>
      </trkpt>
      <trkpt lat="48.71539" lon="2.48423">
        <ele>88.1293</ele>
        <time>2018-12-08T11:42:40Z</time>
      </trkpt>
      <trkpt lat="48.71543" lon="2.48419">
        <ele>88.1473</ele>
        <time>2018-12-08T11:42:43Z</time>
      </trkpt>
      <trkpt lat="48.71546" lon="2.48416">
        <ele>88.1651</ele>
        <time>2018-12-08T11:42:46Z</time>
      </trkpt>
      <trkpt lat="48.7155" lon="2.4841">
        <ele>88.1843</ele>
        <time>2018-12-08T11:42:49Z</time>
      </trkpt>
      <trkpt lat="48.71553" lon="2.48406">
        <ele>88.212</ele>
        <time>2018-12-08T11:42:53Z</time>
      </trkpt>
      <trkpt lat="48.71554" lon="2.484">
        <ele>88.2372</ele>
        <time>2018-12-08T11:42:57Z</time>
      </trkpt>
      <trkpt lat="48.71555" lon="2.48396">
        <ele>88.2502</ele>
        <time>2018-12-08T11:42:59Z</time>
      </trkpt>
      <trkpt lat="48.71559" lon="2.4839">
        <ele>88.278</ele>
        <time>2018-12-08T11:43:04Z</time>
      </trkpt>
      <trkpt lat="48.71561" lon="2.48383">
        <ele>88.2892</ele>
        <time>2018-12-08T11:43:07Z</time>
      </trkpt>
      <trkpt lat="48.71562" lon="2.48379">
        <ele>88.293</ele>
        <time>2018-12-08T11:43:08Z</time>
      </trkpt>
      <trkpt lat="48.71563" lon="2.48373">
        <ele>88.3007</ele>
        <time>2018-12-08T11:43:10Z</time>
      </trkpt>
      <trkpt lat="48.71564" lon="2.48369">
        <ele>88.3085</ele>
        <time>2018-12-08T11:43:12Z</time>
      </trkpt>
      <trkpt lat="48.71568" lon="2.48362">
        <ele>88.3252</ele>
        <time>2018-12-08T11:43:16Z</time>
      </trkpt>
      <trkpt lat="48.7157" lon="2.48353">
        <ele>88.3507</ele>
        <time>2018-12-08T11:43:22Z</time>
      </trkpt>
      <trkpt lat="48.7157" lon="2.48346">
        <ele>88.3623</ele>
        <time>2018-12-08T11:43:25Z</time>
      </trkpt>
      <trkpt lat="48.71572" lon="2.4834">
        <ele>88.3891</ele>
        <time>2018-12-08T11:43:32Z</time>
      </trkpt>
      <trkpt lat="48.71571" lon="2.48332">
        <ele>88.417</ele>
        <time>2018-12-08T11:43:37Z</time>
      </trkpt>
      <trkpt lat="48.71572" lon="2.48325">
        <ele>88.4265</ele>
        <time>2018-12-08T11:43:40Z</time>
      </trkpt>
      <trkpt lat="48.71573" lon="2.48321">
        <ele>88.4306</ele>
        <time>2018-12-08T11:43:43Z</time>
      </trkpt>
      <trkpt lat="48.71577" lon="2.48314">
        <ele>88.4288</ele>
        <time>2018-12-08T11:43:47Z</time>
      </trkpt>
      <trkpt lat="48.71581" lon="2.48309">
        <ele>88.4221</ele>
        <time>2018-12-08T11:43:50Z</time>
      </trkpt>
      <trkpt lat="48.7158" lon="2.48301">
        <ele>88.3867</ele>
        <time>2018-12-08T11:43:58Z</time>
      </trkpt>
      <trkpt lat="48.7158" lon="2.48301">
        <ele>35</ele>
        <time>2018-12-08T11:44:05Z</time>
      </trkpt>
      <trkpt lat="48.7158" lon="2.48301">
        <ele>35</ele>
        <time>2018-12-08T11:44:09Z</time>
      </trkpt>
      <trkpt lat="48.71576" lon="2.48292">
        <ele>88.338</ele>
        <time>2018-12-08T11:44:09Z</time>
      </trkpt>
      <trkpt lat="48.71574" lon="2.48283">
        <ele>88.3169</ele>
        <time>2018-12-08T11:44:12Z</time>
      </trkpt>
      <trkpt lat="48.71574" lon="2.48279">
        <ele>88.2983</ele>
        <time>2018-12-08T11:44:15Z</time>
      </trkpt>
      <trkpt lat="48.71575" lon="2.48269">
        <ele>88.2725</ele>
        <time>2018-12-08T11:44:18Z</time>
      </trkpt>
      <trkpt lat="48.71573" lon="2.48258">
        <ele>88.236</ele>
        <time>2018-12-08T11:44:21Z</time>
      </trkpt>
      <trkpt lat="48.71576" lon="2.48251">
        <ele>88.1603</ele>
        <time>2018-12-08T11:44:28Z</time>
      </trkpt>
      <trkpt lat="48.71578" lon="2.48244">
        <ele>88.1309</ele>
        <time>2018-12-08T11:44:30Z</time>
      </trkpt>
      <trkpt lat="48.71582" lon="2.48239">
        <ele>88.0994</ele>
        <time>2018-12-08T11:44:32Z</time>
      </trkpt>
      <trkpt lat="48.71585" lon="2.48231">
        <ele>88.0126</ele>
        <time>2018-12-08T11:44:37Z</time>
      </trkpt>
      <trkpt lat="48.71586" lon="2.48224">
        <ele>87.9194</ele>
        <time>2018-12-08T11:44:43Z</time>
      </trkpt>
      <trkpt lat="48.71586" lon="2.48213">
        <ele>87.8715</ele>
        <time>2018-12-08T11:44:48Z</time>
      </trkpt>
      <trkpt lat="48.71584" lon="2.48205">
        <ele>87.7759</ele>
        <time>2018-12-08T11:44:55Z</time>
      </trkpt>
      <trkpt lat="48.71581" lon="2.48199">
        <ele>87.7617</ele>
        <time>2018-12-08T11:44:56Z</time>
      </trkpt>
      <trkpt lat="48.71579" lon="2.48196">
        <ele>87.7464</ele>
        <time>2018-12-08T11:44:57Z</time>
      </trkpt>
      <trkpt lat="48.71578" lon="2.48189">
        <ele>87.7084</ele>
        <time>2018-12-08T11:45:00Z</time>
      </trkpt>
      <trkpt lat="48.71577" lon="2.48178">
        <ele>87.6457</ele>
        <time>2018-12-08T11:45:04Z</time>
      </trkpt>
      <trkpt lat="48.71577" lon="2.48174">
        <ele>87.5828</ele>
        <time>2018-12-08T11:45:07Z</time>
      </trkpt>
      <trkpt lat="48.71576" lon="2.48165">
        <ele>87.4437</ele>
        <time>2018-12-08T11:45:14Z</time>
      </trkpt>
      <trkpt lat="48.71574" lon="2.48159">
        <ele>87.3842</ele>
        <time>2018-12-08T11:45:17Z</time>
      </trkpt>
      <trkpt lat="48.71571" lon="2.48151">
        <ele>87.326</ele>
        <time>2018-12-08T11:45:20Z</time>
      </trkpt>
      <trkpt lat="48.71569" lon="2.48141">
        <ele>87.2864</ele>
        <time>2018-12-08T11:45:22Z</time>
      </trkpt>
      <trkpt lat="48.71567" lon="2.48138">
        <ele>87.266</ele>
        <time>2018-12-08T11:45:23Z</time>
      </trkpt>
      <trkpt lat="48.7157" lon="2.48126">
        <ele>87.2279</ele>
        <time>2018-12-08T11:45:25Z</time>
      </trkpt>
      <trkpt lat="48.71569" lon="2.48117">
        <ele>87.1899</ele>
        <time>2018-12-08T11:45:27Z</time>
      </trkpt>
      <trkpt lat="48.71568" lon="2.48111">
        <ele>87.1711</ele>
        <time>2018-12-08T11:45:28Z</time>
      </trkpt>
      <trkpt lat="48.71569" lon="2.48102">
        <ele>87.1165</ele>
        <time>2018-12-08T11:45:31Z</time>
      </trkpt>
      <trkpt lat="48.71569" lon="2.48094">
        <ele>87.0613</ele>
        <time>2018-12-08T11:45:34Z</time>
      </trkpt>
      <trkpt lat="48.71569" lon="2.48085">
        <ele>86.9917</ele>
        <time>2018-12-08T11:45:38Z</time>
      </trkpt>
      <trkpt lat="48.71568" lon="2.48078">
        <ele>86.9259</ele>
        <time>2018-12-08T11:45:42Z</time>
      </trkpt>
      <trkpt lat="48.71569" lon="2.48071">
        <ele>86.8792</ele>
        <time>2018-12-08T11:45:45Z</time>
      </trkpt>
      <trkpt lat="48.7157" lon="2.48065">
        <ele>86.8343</ele>
        <time>2018-12-08T11:45:48Z</time>
      </trkpt>
      <trkpt lat="48.7157" lon="2.48057">
        <ele>86.7914</ele>
        <time>2018-12-08T11:45:51Z</time>
      </trkpt>
      <trkpt lat="48.71568" lon="2.48049">
        <ele>86.7511</ele>
        <time>2018-12-08T11:45:54Z</time>
      </trkpt>
      <trkpt lat="48.71568" lon="2.48041">
        <ele>86.6976</ele>
        <time>2018-12-08T11:45:59Z</time>
      </trkpt>
      <trkpt lat="48.71567" lon="2.48034">
        <ele>86.648</ele>
        <time>2018-12-08T11:46:06Z</time>
      </trkpt>
      <trkpt lat="48.71564" lon="2.48028">
        <ele>86.6243</ele>
        <time>2018-12-08T11:46:10Z</time>
      </trkpt>
      <trkpt lat="48.71562" lon="2.48023">
        <ele>86.6143</ele>
        <time>2018-12-08T11:46:12Z</time>
      </trkpt>
      <trkpt lat="48.71558" lon="2.48019">
        <ele>86.5999</ele>
        <time>2018-12-08T11:46:15Z</time>
      </trkpt>
      <trkpt lat="48.71555" lon="2.48013">
        <ele>86.584</ele>
        <time>2018-12-08T11:46:18Z</time>
      </trkpt>
      <trkpt lat="48.71554" lon="2.48006">
        <ele>86.5625</ele>
        <time>2018-12-08T11:46:22Z</time>
      </trkpt>
      <trkpt lat="48.71553" lon="2.48002">
        <ele>86.5506</ele>
        <time>2018-12-08T11:46:24Z</time>
      </trkpt>
      <trkpt lat="48.71552" lon="2.47997">
        <ele>86.5289</ele>
        <time>2018-12-08T11:46:28Z</time>
      </trkpt>
      <trkpt lat="48.71552" lon="2.47992">
        <ele>86.5237</ele>
        <time>2018-12-08T11:46:29Z</time>
      </trkpt>
      <trkpt lat="48.71549" lon="2.47983">
        <ele>86.4967</ele>
        <time>2018-12-08T11:46:33Z</time>
      </trkpt>
      <trkpt lat="48.71549" lon="2.47975">
        <ele>86.4709</ele>
        <time>2018-12-08T11:46:36Z</time>
      </trkpt>
      <trkpt lat="48.71547" lon="2.47968">
        <ele>86.4419</ele>
        <time>2018-12-08T11:46:39Z</time>
      </trkpt>
      <trkpt lat="48.71546" lon="2.47963">
        <ele>86.4132</ele>
        <time>2018-12-08T11:46:42Z</time>
      </trkpt>
      <trkpt lat="48.71543" lon="2.47954">
        <ele>86.3815</ele>
        <time>2018-12-08T11:46:46Z</time>
      </trkpt>
      <trkpt lat="48.71542" lon="2.47946">
        <ele>86.3797</ele>
        <time>2018-12-08T11:46:49Z</time>
      </trkpt>
      <trkpt lat="48.7154" lon="2.4794">
        <ele>86.392</ele>
        <time>2018-12-08T11:46:52Z</time>
      </trkpt>
      <trkpt lat="48.71537" lon="2.47932">
        <ele>86.4084</ele>
        <time>2018-12-08T11:46:57Z</time>
      </trkpt>
      <trkpt lat="48.71534" lon="2.47926">
        <ele>86.4184</ele>
        <time>2018-12-08T11:47:00Z</time>
      </trkpt>
      <trkpt lat="48.71533" lon="2.4792">
        <ele>86.4253</ele>
        <time>2018-12-08T11:47:03Z</time>
      </trkpt>
      <trkpt lat="48.71532" lon="2.47915">
        <ele>86.4285</ele>
        <time>2018-12-08T11:47:05Z</time>
      </trkpt>
      <trkpt lat="48.71532" lon="2.4791">
        <ele>86.4316</ele>
        <time>2018-12-08T11:47:07Z</time>
      </trkpt>
      <trkpt lat="48.7153" lon="2.47902">
        <ele>86.4313</ele>
        <time>2018-12-08T11:47:12Z</time>
      </trkpt>
      <trkpt lat="48.71529" lon="2.47896">
        <ele>86.4269</ele>
        <time>2018-12-08T11:47:15Z</time>
      </trkpt>
      <trkpt lat="48.71528" lon="2.47892">
        <ele>86.4227</ele>
        <time>2018-12-08T11:47:17Z</time>
      </trkpt>
      <trkpt lat="48.71524" lon="2.47887">
        <ele>86.4111</ele>
        <time>2018-12-08T11:47:21Z</time>
      </trkpt>
      <trkpt lat="48.71522" lon="2.47885">
        <ele>86.4039</ele>
        <time>2018-12-08T11:47:24Z</time>
      </trkpt>
      <trkpt lat="48.71521" lon="2.47878">
        <ele>86.391</ele>
        <time>2018-12-08T11:47:31Z</time>
      </trkpt>
      <trkpt lat="48.71524" lon="2.47872">
        <ele>86.3659</ele>
        <time>2018-12-08T11:47:37Z</time>
      </trkpt>
      <trkpt lat="48.7153" lon="2.47873">
        <ele>86.3372</ele>
        <time>2018-12-08T11:47:42Z</time>
      </trkpt>
      <trkpt lat="48.71534" lon="2.47873">
        <ele>86.3243</ele>
        <time>2018-12-08T11:47:46Z</time>
      </trkpt>
      <trkpt lat="48.7154" lon="2.47871">
        <ele>86.3315</ele>
        <time>2018-12-08T11:47:50Z</time>
      </trkpt>
      <trkpt lat="48.71545" lon="2.47868">
        <ele>86.3653</ele>
        <time>2018-12-08T11:47:55Z</time>
      </trkpt>
      <trkpt lat="48.71548" lon="2.47866">
        <ele>86.3961</ele>
        <time>2018-12-08T11:47:58Z</time>
      </trkpt>
      <trkpt lat="48.71552" lon="2.47864">
        <ele>86.4175</ele>
        <time>2018-12-08T11:48:00Z</time>
      </trkpt>
      <trkpt lat="48.71556" lon="2.47863">
        <ele>86.452</ele>
        <time>2018-12-08T11:48:03Z</time>
      </trkpt>
      <trkpt lat="48.71559" lon="2.47862">
        <ele>86.4746</ele>
        <time>2018-12-08T11:48:05Z</time>
      </trkpt>
      <trkpt lat="48.71562" lon="2.47862">
        <ele>86.4863</ele>
        <time>2018-12-08T11:48:06Z</time>
      </trkpt>
      <trkpt lat="48.71565" lon="2.47861">
        <ele>86.5082</ele>
        <time>2018-12-08T11:48:08Z</time>
      </trkpt>
      <trkpt lat="48.71568" lon="2.4786">
        <ele>86.5429</ele>
        <time>2018-12-08T11:48:11Z</time>
      </trkpt>
      <trkpt lat="48.71572" lon="2.4786">
        <ele>86.5789</ele>
        <time>2018-12-08T11:48:14Z</time>
      </trkpt>
      <trkpt lat="48.71577" lon="2.47863">
        <ele>86.6322</ele>
        <time>2018-12-08T11:48:19Z</time>
      </trkpt>
      <trkpt lat="48.71581" lon="2.47863">
        <ele>86.6782</ele>
        <time>2018-12-08T11:48:24Z</time>
      </trkpt>
      <trkpt lat="48.71585" lon="2.47859">
        <ele>86.7288</ele>
        <time>2018-12-08T11:48:29Z</time>
      </trkpt>
      <trkpt lat="48.7159" lon="2.47857">
        <ele>86.761</ele>
        <time>2018-12-08T11:48:32Z</time>
      </trkpt>
      <trkpt lat="48.71594" lon="2.47857">
        <ele>86.804</ele>
        <time>2018-12-08T11:48:36Z</time>
      </trkpt>
      <trkpt lat="48.71597" lon="2.47857">
        <ele>86.8364</ele>
        <time>2018-12-08T11:48:39Z</time>
      </trkpt>
      <trkpt lat="48.71601" lon="2.47856">
        <ele>86.8688</ele>
        <time>2018-12-08T11:48:42Z</time>
      </trkpt>
      <trkpt lat="48.71606" lon="2.47855">
        <ele>86.9125</ele>
        <time>2018-12-08T11:48:46Z</time>
      </trkpt>
      <trkpt lat="48.71611" lon="2.47854">
        <ele>86.9548</ele>
        <time>2018-12-08T11:48:50Z</time>
      </trkpt>
      <trkpt lat="48.71613" lon="2.47853">
        <ele>86.9741</ele>
        <time>2018-12-08T11:48:52Z</time>
      </trkpt>
      <trkpt lat="48.71618" lon="2.47851">
        <ele>87.0186</ele>
        <time>2018-12-08T11:48:57Z</time>
      </trkpt>
      <trkpt lat="48.71624" lon="2.47849">
        <ele>87.0753</ele>
        <time>2018-12-08T11:49:03Z</time>
      </trkpt>
      <trkpt lat="48.71627" lon="2.47848">
        <ele>87.0967</ele>
        <time>2018-12-08T11:49:05Z</time>
      </trkpt>
      <trkpt lat="48.7163" lon="2.47847">
        <ele>87.1078</ele>
        <time>2018-12-08T11:49:06Z</time>
      </trkpt>
      <trkpt lat="48.71635" lon="2.47846">
        <ele>87.1518</ele>
        <time>2018-12-08T11:49:10Z</time>
      </trkpt>
      <trkpt lat="48.7164" lon="2.47844">
        <ele>87.2092</ele>
        <time>2018-12-08T11:49:15Z</time>
      </trkpt>
      <trkpt lat="48.71644" lon="2.47842">
        <ele>87.2553</ele>
        <time>2018-12-08T11:49:19Z</time>
      </trkpt>
      <trkpt lat="48.71649" lon="2.47839">
        <ele>87.3107</ele>
        <time>2018-12-08T11:49:24Z</time>
      </trkpt>
      <trkpt lat="48.71653" lon="2.47837">
        <ele>87.3706</ele>
        <time>2018-12-08T11:49:29Z</time>
      </trkpt>
      <trkpt lat="48.71656" lon="2.47836">
        <ele>87.3992</ele>
        <time>2018-12-08T11:49:31Z</time>
      </trkpt>
      <trkpt lat="48.71659" lon="2.47835">
        <ele>87.4326</ele>
        <time>2018-12-08T11:49:33Z</time>
      </trkpt>
      <trkpt lat="48.71659" lon="2.47835">
        <ele>46.7</ele>
        <time>2018-12-08T11:49:39Z</time>
      </trkpt>
      <trkpt lat="48.71659" lon="2.47835">
        <ele>46.7</ele>
        <time>2018-12-08T11:49:44Z</time>
      </trkpt>
      <trkpt lat="48.71668" lon="2.47835">
        <ele>87.6394</ele>
        <time>2018-12-08T11:49:44Z</time>
      </trkpt>
      <trkpt lat="48.71673" lon="2.47833">
        <ele>87.722</ele>
        <time>2018-12-08T11:49:48Z</time>
      </trkpt>
      <trkpt lat="48.71676" lon="2.47832">
        <ele>87.7911</ele>
        <time>2018-12-08T11:49:51Z</time>
      </trkpt>
      <trkpt lat="48.71679" lon="2.47831">
        <ele>87.8634</ele>
        <time>2018-12-08T11:49:54Z</time>
      </trkpt>
      <trkpt lat="48.71679" lon="2.47831">
        <ele>50.6</ele>
        <time>2018-12-08T11:50:01Z</time>
      </trkpt>
      <trkpt lat="48.71679" lon="2.47831">
        <ele>50.6</ele>
        <time>2018-12-08T11:50:05Z</time>
      </trkpt>
      <trkpt lat="48.71689" lon="2.47826">
        <ele>88.1594</ele>
        <time>2018-12-08T11:50:05Z</time>
      </trkpt>
      <trkpt lat="48.71692" lon="2.47825">
        <ele>88.2534</ele>
        <time>2018-12-08T11:50:08Z</time>
      </trkpt>
      <trkpt lat="48.71698" lon="2.47823">
        <ele>88.3892</ele>
        <time>2018-12-08T11:50:12Z</time>
      </trkpt>
      <trkpt lat="48.71702" lon="2.47821">
        <ele>88.501</ele>
        <time>2018-12-08T11:50:15Z</time>
      </trkpt>
      <trkpt lat="48.71704" lon="2.4782">
        <ele>88.5786</ele>
        <time>2018-12-08T11:50:17Z</time>
      </trkpt>
      <trkpt lat="48.71707" lon="2.47819">
        <ele>88.6581</ele>
        <time>2018-12-08T11:50:19Z</time>
      </trkpt>
      <trkpt lat="48.71711" lon="2.47816">
        <ele>88.8666</ele>
        <time>2018-12-08T11:50:24Z</time>
      </trkpt>
      <trkpt lat="48.71714" lon="2.47809">
        <ele>89.0804</ele>
        <time>2018-12-08T11:50:29Z</time>
      </trkpt>
      <trkpt lat="48.71714" lon="2.47801">
        <ele>89.3747</ele>
        <time>2018-12-08T11:50:36Z</time>
      </trkpt>
      <trkpt lat="48.71714" lon="2.47792">
        <ele>89.5747</ele>
        <time>2018-12-08T11:50:41Z</time>
      </trkpt>
      <trkpt lat="48.71715" lon="2.47784">
        <ele>89.6961</ele>
        <time>2018-12-08T11:50:44Z</time>
      </trkpt>
      <trkpt lat="48.71715" lon="2.47776">
        <ele>89.8588</ele>
        <time>2018-12-08T11:50:48Z</time>
      </trkpt>
      <trkpt lat="48.71714" lon="2.47768">
        <ele>90.0207</ele>
        <time>2018-12-08T11:50:52Z</time>
      </trkpt>
      <trkpt lat="48.71715" lon="2.47761">
        <ele>90.1809</ele>
        <time>2018-12-08T11:50:56Z</time>
      </trkpt>
      <trkpt lat="48.71713" lon="2.47753">
        <ele>90.3364</ele>
        <time>2018-12-08T11:51:00Z</time>
      </trkpt>
      <trkpt lat="48.71711" lon="2.47746">
        <ele>90.5231</ele>
        <time>2018-12-08T11:51:05Z</time>
      </trkpt>
      <trkpt lat="48.71708" lon="2.47739">
        <ele>90.7069</ele>
        <time>2018-12-08T11:51:10Z</time>
      </trkpt>
      <trkpt lat="48.71707" lon="2.47736">
        <ele>90.7439</ele>
        <time>2018-12-08T11:51:11Z</time>
      </trkpt>
      <trkpt lat="48.71703" lon="2.47729">
        <ele>90.856</ele>
        <time>2018-12-08T11:51:14Z</time>
      </trkpt>
      <trkpt lat="48.71702" lon="2.47723">
        <ele>90.9686</ele>
        <time>2018-12-08T11:51:17Z</time>
      </trkpt>
      <trkpt lat="48.717" lon="2.47719">
        <ele>91.0434</ele>
        <time>2018-12-08T11:51:19Z</time>
      </trkpt>
      <trkpt lat="48.717" lon="2.47712">
        <ele>91.1905</ele>
        <time>2018-12-08T11:51:23Z</time>
      </trkpt>
      <trkpt lat="48.717" lon="2.47708">
        <ele>91.2653</ele>
        <time>2018-12-08T11:51:25Z</time>
      </trkpt>
      <trkpt lat="48.71699" lon="2.477">
        <ele>91.4436</ele>
        <time>2018-12-08T11:51:30Z</time>
      </trkpt>
      <trkpt lat="48.71698" lon="2.47693">
        <ele>91.5745</ele>
        <time>2018-12-08T11:51:34Z</time>
      </trkpt>
      <trkpt lat="48.71694" lon="2.47688">
        <ele>91.7314</ele>
        <time>2018-12-08T11:51:39Z</time>
      </trkpt>
      <trkpt lat="48.71691" lon="2.47681">
        <ele>91.8232</ele>
        <time>2018-12-08T11:51:42Z</time>
      </trkpt>
      <trkpt lat="48.7169" lon="2.47677">
        <ele>91.8852</ele>
        <time>2018-12-08T11:51:44Z</time>
      </trkpt>
      <trkpt lat="48.71689" lon="2.47669">
        <ele>92.0438</ele>
        <time>2018-12-08T11:51:49Z</time>
      </trkpt>
      <trkpt lat="48.71689" lon="2.47665">
        <ele>92.111</ele>
        <time>2018-12-08T11:51:51Z</time>
      </trkpt>
      <trkpt lat="48.71687" lon="2.47659">
        <ele>92.2155</ele>
        <time>2018-12-08T11:51:54Z</time>
      </trkpt>
      <trkpt lat="48.71685" lon="2.47651">
        <ele>92.3613</ele>
        <time>2018-12-08T11:51:58Z</time>
      </trkpt>
      <trkpt lat="48.71684" lon="2.47648">
        <ele>92.4366</ele>
        <time>2018-12-08T11:52:00Z</time>
      </trkpt>
      <trkpt lat="48.71682" lon="2.47641">
        <ele>92.5526</ele>
        <time>2018-12-08T11:52:03Z</time>
      </trkpt>
      <trkpt lat="48.7168" lon="2.47634">
        <ele>92.7118</ele>
        <time>2018-12-08T11:52:07Z</time>
      </trkpt>
      <trkpt lat="48.71679" lon="2.47631">
        <ele>92.7933</ele>
        <time>2018-12-08T11:52:09Z</time>
      </trkpt>
      <trkpt lat="48.71677" lon="2.47623">
        <ele>93.0859</ele>
        <time>2018-12-08T11:52:17Z</time>
      </trkpt>
      <trkpt lat="48.71677" lon="2.47616">
        <ele>93.2112</ele>
        <time>2018-12-08T11:52:20Z</time>
      </trkpt>
      <trkpt lat="48.71674" lon="2.4761">
        <ele>93.3771</ele>
        <time>2018-12-08T11:52:24Z</time>
      </trkpt>
      <trkpt lat="48.71672" lon="2.47603">
        <ele>93.5403</ele>
        <time>2018-12-08T11:52:28Z</time>
      </trkpt>
      <trkpt lat="48.71679" lon="2.47597">
        <ele>93.8163</ele>
        <time>2018-12-08T11:52:35Z</time>
      </trkpt>
      <trkpt lat="48.71683" lon="2.47595">
        <ele>93.929</ele>
        <time>2018-12-08T11:52:38Z</time>
      </trkpt>
      <trkpt lat="48.71686" lon="2.47594">
        <ele>94.0025</ele>
        <time>2018-12-08T11:52:40Z</time>
      </trkpt>
      <trkpt lat="48.7169" lon="2.47588">
        <ele>94.1517</ele>
        <time>2018-12-08T11:52:44Z</time>
      </trkpt>
      <trkpt lat="48.71692" lon="2.47584">
        <ele>94.2291</ele>
        <time>2018-12-08T11:52:46Z</time>
      </trkpt>
      <trkpt lat="48.71695" lon="2.47579">
        <ele>94.4558</ele>
        <time>2018-12-08T11:52:52Z</time>
      </trkpt>
      <trkpt lat="48.71699" lon="2.47574">
        <ele>94.6984</ele>
        <time>2018-12-08T11:52:58Z</time>
      </trkpt>
      <trkpt lat="48.71702" lon="2.4757">
        <ele>94.8832</ele>
        <time>2018-12-08T11:53:03Z</time>
      </trkpt>
      <trkpt lat="48.71704" lon="2.47567">
        <ele>95.0275</ele>
        <time>2018-12-08T11:53:06Z</time>
      </trkpt>
      <trkpt lat="48.71704" lon="2.47567">
        <ele>68.9</ele>
        <time>2018-12-08T11:53:14Z</time>
      </trkpt>
      <trkpt lat="48.71704" lon="2.47567">
        <ele>68.9</ele>
        <time>2018-12-08T11:53:18Z</time>
      </trkpt>
      <trkpt lat="48.7171" lon="2.47563">
        <ele>95.6485</ele>
        <time>2018-12-08T11:53:18Z</time>
      </trkpt>
      <trkpt lat="48.71715" lon="2.47559">
        <ele>95.9268</ele>
        <time>2018-12-08T11:53:23Z</time>
      </trkpt>
      <trkpt lat="48.71718" lon="2.47556">
        <ele>96.0917</ele>
        <time>2018-12-08T11:53:26Z</time>
      </trkpt>
      <trkpt lat="48.71721" lon="2.47553">
        <ele>96.2526</ele>
        <time>2018-12-08T11:53:29Z</time>
      </trkpt>
      <trkpt lat="48.71724" lon="2.47551">
        <ele>96.4123</ele>
        <time>2018-12-08T11:53:32Z</time>
      </trkpt>
      <trkpt lat="48.71727" lon="2.4755">
        <ele>96.5182</ele>
        <time>2018-12-08T11:53:34Z</time>
      </trkpt>
      <trkpt lat="48.71731" lon="2.47545">
        <ele>96.7812</ele>
        <time>2018-12-08T11:53:39Z</time>
      </trkpt>
      <trkpt lat="48.71733" lon="2.47542">
        <ele>96.938</ele>
        <time>2018-12-08T11:53:42Z</time>
      </trkpt>
      <trkpt lat="48.71738" lon="2.4754">
        <ele>97.2611</ele>
        <time>2018-12-08T11:53:48Z</time>
      </trkpt>
      <trkpt lat="48.71738" lon="2.4754">
        <ele>97.2611</ele>
        <time>2018-12-08T11:53:55Z</time>
      </trkpt>
      <trkpt lat="48.71738" lon="2.4754">
        <ele>78.3</ele>
        <time>2018-12-08T11:53:55Z</time>
      </trkpt>
      <trkpt lat="48.71738" lon="2.4754">
        <ele>78.3</ele>
        <time>2018-12-08T11:54:09Z</time>
      </trkpt>
      <trkpt lat="48.71751" lon="2.47534">
        <ele>98.4904</ele>
        <time>2018-12-08T11:54:09Z</time>
      </trkpt>
      <trkpt lat="48.71755" lon="2.47532">
        <ele>99.2981</ele>
        <time>2018-12-08T11:54:15Z</time>
      </trkpt>
      <trkpt lat="48.7176" lon="2.4753">
        <ele>100.118</ele>
        <time>2018-12-08T11:54:20Z</time>
      </trkpt>
      <trkpt lat="48.71765" lon="2.47529">
        <ele>100.486</ele>
        <time>2018-12-08T11:54:22Z</time>
      </trkpt>
      <trkpt lat="48.71769" lon="2.47528">
        <ele>100.878</ele>
        <time>2018-12-08T11:54:24Z</time>
      </trkpt>
      <trkpt lat="48.71773" lon="2.47527">
        <ele>101.292</ele>
        <time>2018-12-08T11:54:26Z</time>
      </trkpt>
      <trkpt lat="48.71777" lon="2.47527">
        <ele>101.938</ele>
        <time>2018-12-08T11:54:29Z</time>
      </trkpt>
      <trkpt lat="48.7178" lon="2.47526">
        <ele>102.607</ele>
        <time>2018-12-08T11:54:32Z</time>
      </trkpt>
      <trkpt lat="48.71785" lon="2.47528">
        <ele>103.525</ele>
        <time>2018-12-08T11:54:36Z</time>
      </trkpt>
      <trkpt lat="48.71787" lon="2.47529">
        <ele>103.99</ele>
        <time>2018-12-08T11:54:38Z</time>
      </trkpt>
      <trkpt lat="48.71792" lon="2.47532">
        <ele>104.943</ele>
        <time>2018-12-08T11:54:42Z</time>
      </trkpt>
      <trkpt lat="48.71797" lon="2.47535">
        <ele>105.908</ele>
        <time>2018-12-08T11:54:46Z</time>
      </trkpt>
      <trkpt lat="48.718" lon="2.47536">
        <ele>106.397</ele>
        <time>2018-12-08T11:54:48Z</time>
      </trkpt>
      <trkpt lat="48.71805" lon="2.47538">
        <ele>107.866</ele>
        <time>2018-12-08T11:54:54Z</time>
      </trkpt>
      <trkpt lat="48.71808" lon="2.47539">
        <ele>108.589</ele>
        <time>2018-12-08T11:54:57Z</time>
      </trkpt>
      <trkpt lat="48.71813" lon="2.47543">
        <ele>109.307</ele>
        <time>2018-12-08T11:55:00Z</time>
      </trkpt>
      <trkpt lat="48.7182" lon="2.47542">
        <ele>110.013</ele>
        <time>2018-12-08T11:55:03Z</time>
      </trkpt>
      <trkpt lat="48.71825" lon="2.47541">
        <ele>110.723</ele>
        <time>2018-12-08T11:55:06Z</time>
      </trkpt>
      <trkpt lat="48.7183" lon="2.47543">
        <ele>111.667</ele>
        <time>2018-12-08T11:55:10Z</time>
      </trkpt>
      <trkpt lat="48.7183" lon="2.47543">
        <ele>85.9</ele>
        <time>2018-12-08T11:55:17Z</time>
      </trkpt>
      <trkpt lat="48.7183" lon="2.47543">
        <ele>85.9</ele>
        <time>2018-12-08T11:55:21Z</time>
      </trkpt>
      <trkpt lat="48.71838" lon="2.47549">
        <ele>114.123</ele>
        <time>2018-12-08T11:55:21Z</time>
      </trkpt>
      <trkpt lat="48.71843" lon="2.47552">
        <ele>114.983</ele>
        <time>2018-12-08T11:55:25Z</time>
      </trkpt>
      <trkpt lat="48.71849" lon="2.47555">
        <ele>116.247</ele>
        <time>2018-12-08T11:55:31Z</time>
      </trkpt>
      <trkpt lat="48.71854" lon="2.47559">
        <ele>116.659</ele>
        <time>2018-12-08T11:55:33Z</time>
      </trkpt>
      <trkpt lat="48.71859" lon="2.4756">
        <ele>117.858</ele>
        <time>2018-12-08T11:55:39Z</time>
      </trkpt>
      <trkpt lat="48.71864" lon="2.47564">
        <ele>118.818</ele>
        <time>2018-12-08T11:55:44Z</time>
      </trkpt>
      <trkpt lat="48.71868" lon="2.47566">
        <ele>119.7</ele>
        <time>2018-12-08T11:55:49Z</time>
      </trkpt>
      <trkpt lat="48.71874" lon="2.47567">
        <ele>120.196</ele>
        <time>2018-12-08T11:55:52Z</time>
      </trkpt>
      <trkpt lat="48.71878" lon="2.47567">
        <ele>120.517</ele>
        <time>2018-12-08T11:55:54Z</time>
      </trkpt>
      <trkpt lat="48.71883" lon="2.47568">
        <ele>121.139</ele>
        <time>2018-12-08T11:55:58Z</time>
      </trkpt>
      <trkpt lat="48.71888" lon="2.47569">
        <ele>121.899</ele>
        <time>2018-12-08T11:56:03Z</time>
      </trkpt>
      <trkpt lat="48.71893" lon="2.47571">
        <ele>122.787</ele>
        <time>2018-12-08T11:56:09Z</time>
      </trkpt>
      <trkpt lat="48.71897" lon="2.47576">
        <ele>123.493</ele>
        <time>2018-12-08T11:56:14Z</time>
      </trkpt>
      <trkpt lat="48.71902" lon="2.47578">
        <ele>124.035</ele>
        <time>2018-12-08T11:56:18Z</time>
      </trkpt>
      <trkpt lat="48.71908" lon="2.47583">
        <ele>124.43</ele>
        <time>2018-12-08T11:56:21Z</time>
      </trkpt>
      <trkpt lat="48.71913" lon="2.47586">
        <ele>125.187</ele>
        <time>2018-12-08T11:56:27Z</time>
      </trkpt>
      <trkpt lat="48.71918" lon="2.47588">
        <ele>125.549</ele>
        <time>2018-12-08T11:56:30Z</time>
      </trkpt>
      <trkpt lat="48.71923" lon="2.47587">
        <ele>125.908</ele>
        <time>2018-12-08T11:56:33Z</time>
      </trkpt>
      <trkpt lat="48.71928" lon="2.47589">
        <ele>126.592</ele>
        <time>2018-12-08T11:56:39Z</time>
      </trkpt>
      <trkpt lat="48.7193" lon="2.4759">
        <ele>126.808</ele>
        <time>2018-12-08T11:56:41Z</time>
      </trkpt>
      <trkpt lat="48.71934" lon="2.47592">
        <ele>127.226</ele>
        <time>2018-12-08T11:56:45Z</time>
      </trkpt>
      <trkpt lat="48.71938" lon="2.47595">
        <ele>127.534</ele>
        <time>2018-12-08T11:56:48Z</time>
      </trkpt>
      <trkpt lat="48.71943" lon="2.47599">
        <ele>127.934</ele>
        <time>2018-12-08T11:56:52Z</time>
      </trkpt>
      <trkpt lat="48.7195" lon="2.47594">
        <ele>128.415</ele>
        <time>2018-12-08T11:56:58Z</time>
      </trkpt>
      <trkpt lat="48.71956" lon="2.47595">
        <ele>128.595</ele>
        <time>2018-12-08T11:57:00Z</time>
      </trkpt>
      <trkpt lat="48.71958" lon="2.47595">
        <ele>128.772</ele>
        <time>2018-12-08T11:57:02Z</time>
      </trkpt>
      <trkpt lat="48.7196" lon="2.47595">
        <ele>128.957</ele>
        <time>2018-12-08T11:57:05Z</time>
      </trkpt>
      <trkpt lat="48.71964" lon="2.47595">
        <ele>129.132</ele>
        <time>2018-12-08T11:57:07Z</time>
      </trkpt>
      <trkpt lat="48.71969" lon="2.47597">
        <ele>129.389</ele>
        <time>2018-12-08T11:57:10Z</time>
      </trkpt>
      <trkpt lat="48.71973" lon="2.47601">
        <ele>129.724</ele>
        <time>2018-12-08T11:57:14Z</time>
      </trkpt>
      <trkpt lat="48.71976" lon="2.47603">
        <ele>129.967</ele>
        <time>2018-12-08T11:57:17Z</time>
      </trkpt>
      <trkpt lat="48.7198" lon="2.47607">
        <ele>130.281</ele>
        <time>2018-12-08T11:57:21Z</time>
      </trkpt>
      <trkpt lat="48.71983" lon="2.47611">
        <ele>130.433</ele>
        <time>2018-12-08T11:57:23Z</time>
      </trkpt>
      <trkpt lat="48.71986" lon="2.47613">
        <ele>130.579</ele>
        <time>2018-12-08T11:57:25Z</time>
      </trkpt>
      <trkpt lat="48.7199" lon="2.47619">
        <ele>130.924</ele>
        <time>2018-12-08T11:57:30Z</time>
      </trkpt>
      <trkpt lat="48.71994" lon="2.47623">
        <ele>131.251</ele>
        <time>2018-12-08T11:57:35Z</time>
      </trkpt>
      <trkpt lat="48.71996" lon="2.4763">
        <ele>131.503</ele>
        <time>2018-12-08T11:57:39Z</time>
      </trkpt>
      <trkpt lat="48.71998" lon="2.47637">
        <ele>131.747</ele>
        <time>2018-12-08T11:57:44Z</time>
      </trkpt>
      <trkpt lat="48.72" lon="2.47643">
        <ele>131.805</ele>
        <time>2018-12-08T11:57:45Z</time>
      </trkpt>
      <trkpt lat="48.72003" lon="2.47648">
        <ele>131.982</ele>
        <time>2018-12-08T11:57:49Z</time>
      </trkpt>
      <trkpt lat="48.72008" lon="2.4765">
        <ele>132.199</ele>
        <time>2018-12-08T11:57:53Z</time>
      </trkpt>
      <trkpt lat="48.72013" lon="2.47654">
        <ele>132.359</ele>
        <time>2018-12-08T11:57:57Z</time>
      </trkpt>
      <trkpt lat="48.72016" lon="2.47656">
        <ele>132.459</ele>
        <time>2018-12-08T11:57:59Z</time>
      </trkpt>
      <trkpt lat="48.7202" lon="2.47662">
        <ele>132.648</ele>
        <time>2018-12-08T11:58:03Z</time>
      </trkpt>
      <trkpt lat="48.72022" lon="2.47665">
        <ele>132.738</ele>
        <time>2018-12-08T11:58:05Z</time>
      </trkpt>
      <trkpt lat="48.72026" lon="2.47669">
        <ele>132.869</ele>
        <time>2018-12-08T11:58:08Z</time>
      </trkpt>
      <trkpt lat="48.72029" lon="2.47675">
        <ele>133.075</ele>
        <time>2018-12-08T11:58:13Z</time>
      </trkpt>
      <trkpt lat="48.72029" lon="2.47675">
        <ele>93</ele>
        <time>2018-12-08T11:58:19Z</time>
      </trkpt>
      <trkpt lat="48.72029" lon="2.47675">
        <ele>93</ele>
        <time>2018-12-08T11:58:24Z</time>
      </trkpt>
      <trkpt lat="48.72039" lon="2.47683">
        <ele>133.468</ele>
        <time>2018-12-08T11:58:24Z</time>
      </trkpt>
      <trkpt lat="48.72045" lon="2.47689">
        <ele>133.595</ele>
        <time>2018-12-08T11:58:28Z</time>
      </trkpt>
      <trkpt lat="48.72047" lon="2.47691">
        <ele>133.655</ele>
        <time>2018-12-08T11:58:30Z</time>
      </trkpt>
      <trkpt lat="48.72051" lon="2.47698">
        <ele>133.77</ele>
        <time>2018-12-08T11:58:34Z</time>
      </trkpt>
      <trkpt lat="48.72055" lon="2.47703">
        <ele>133.852</ele>
        <time>2018-12-08T11:58:37Z</time>
      </trkpt>
      <trkpt lat="48.72058" lon="2.47706">
        <ele>133.928</ele>
        <time>2018-12-08T11:58:40Z</time>
      </trkpt>
      <trkpt lat="48.72058" lon="2.47706">
        <ele>93.5</ele>
        <time>2018-12-08T11:58:47Z</time>
      </trkpt>
      <trkpt lat="48.72058" lon="2.47706">
        <ele>93.5</ele>
        <time>2018-12-08T11:58:52Z</time>
      </trkpt>
      <trkpt lat="48.72064" lon="2.47717">
        <ele>134.165</ele>
        <time>2018-12-08T11:58:52Z</time>
      </trkpt>
      <trkpt lat="48.72066" lon="2.47723">
        <ele>134.207</ele>
        <time>2018-12-08T11:58:54Z</time>
      </trkpt>
      <trkpt lat="48.72068" lon="2.47727">
        <ele>134.249</ele>
        <time>2018-12-08T11:58:56Z</time>
      </trkpt>
      <trkpt lat="48.72071" lon="2.47733">
        <ele>134.311</ele>
        <time>2018-12-08T11:58:59Z</time>
      </trkpt>
      <trkpt lat="48.72073" lon="2.47737">
        <ele>134.353</ele>
        <time>2018-12-08T11:59:01Z</time>
      </trkpt>
      <trkpt lat="48.72078" lon="2.47743">
        <ele>134.436</ele>
        <time>2018-12-08T11:59:05Z</time>
      </trkpt>
      <trkpt lat="48.7208" lon="2.47745">
        <ele>134.477</ele>
        <time>2018-12-08T11:59:07Z</time>
      </trkpt>
      <trkpt lat="48.72082" lon="2.47748">
        <ele>134.518</ele>
        <time>2018-12-08T11:59:09Z</time>
      </trkpt>
      <trkpt lat="48.72085" lon="2.47751">
        <ele>134.58</ele>
        <time>2018-12-08T11:59:13Z</time>
      </trkpt>
      <trkpt lat="48.72087" lon="2.47753">
        <ele>134.62</ele>
        <time>2018-12-08T11:59:15Z</time>
      </trkpt>
      <trkpt lat="48.72088" lon="2.47762">
        <ele>134.681</ele>
        <time>2018-12-08T11:59:19Z</time>
      </trkpt>
      <trkpt lat="48.72092" lon="2.47767">
        <ele>134.823</ele>
        <time>2018-12-08T11:59:26Z</time>
      </trkpt>
      <trkpt lat="48.72095" lon="2.4777">
        <ele>134.905</ele>
        <time>2018-12-08T11:59:30Z</time>
      </trkpt>
      <trkpt lat="48.72097" lon="2.47774">
        <ele>134.965</ele>
        <time>2018-12-08T11:59:33Z</time>
      </trkpt>
      <trkpt lat="48.72101" lon="2.47778">
        <ele>135.044</ele>
        <time>2018-12-08T11:59:37Z</time>
      </trkpt>
      <trkpt lat="48.72104" lon="2.47784">
        <ele>135.142</ele>
        <time>2018-12-08T11:59:42Z</time>
      </trkpt>
      <trkpt lat="48.72108" lon="2.47789">
        <ele>135.219</ele>
        <time>2018-12-08T11:59:46Z</time>
      </trkpt>
      <trkpt lat="48.72111" lon="2.47792">
        <ele>135.274</ele>
        <time>2018-12-08T11:59:49Z</time>
      </trkpt>
      <trkpt lat="48.72114" lon="2.47794">
        <ele>135.325</ele>
        <time>2018-12-08T11:59:52Z</time>
      </trkpt>
      <trkpt lat="48.72117" lon="2.47797">
        <ele>135.374</ele>
        <time>2018-12-08T11:59:55Z</time>
      </trkpt>
      <trkpt lat="48.72121" lon="2.47802">
        <ele>135.436</ele>
        <time>2018-12-08T11:59:59Z</time>
      </trkpt>
      <trkpt lat="48.72125" lon="2.47806">
        <ele>135.497</ele>
        <time>2018-12-08T12:00:03Z</time>
      </trkpt>
      <trkpt lat="48.72127" lon="2.47811">
        <ele>135.542</ele>
        <time>2018-12-08T12:00:06Z</time>
      </trkpt>
      <trkpt lat="48.72132" lon="2.47817">
        <ele>135.611</ele>
        <time>2018-12-08T12:00:11Z</time>
      </trkpt>
      <trkpt lat="48.72134" lon="2.47825">
        <ele>135.662</ele>
        <time>2018-12-08T12:00:15Z</time>
      </trkpt>
      <trkpt lat="48.72139" lon="2.47832">
        <ele>135.701</ele>
        <time>2018-12-08T12:00:18Z</time>
      </trkpt>
      <trkpt lat="48.72141" lon="2.47835">
        <ele>135.727</ele>
        <time>2018-12-08T12:00:20Z</time>
      </trkpt>
      <trkpt lat="48.72146" lon="2.47838">
        <ele>135.78</ele>
        <time>2018-12-08T12:00:24Z</time>
      </trkpt>
      <trkpt lat="48.72149" lon="2.47844">
        <ele>135.819</ele>
        <time>2018-12-08T12:00:27Z</time>
      </trkpt>
      <trkpt lat="48.72152" lon="2.47847">
        <ele>135.844</ele>
        <time>2018-12-08T12:00:29Z</time>
      </trkpt>
      <trkpt lat="48.72154" lon="2.4785">
        <ele>135.896</ele>
        <time>2018-12-08T12:00:33Z</time>
      </trkpt>
      <trkpt lat="48.72158" lon="2.47854">
        <ele>135.951</ele>
        <time>2018-12-08T12:00:37Z</time>
      </trkpt>
      <trkpt lat="48.72162" lon="2.47858">
        <ele>136.006</ele>
        <time>2018-12-08T12:00:41Z</time>
      </trkpt>
      <trkpt lat="48.72167" lon="2.47864">
        <ele>136.061</ele>
        <time>2018-12-08T12:00:45Z</time>
      </trkpt>
      <trkpt lat="48.7217" lon="2.47869">
        <ele>136.102</ele>
        <time>2018-12-08T12:00:48Z</time>
      </trkpt>
      <trkpt lat="48.72173" lon="2.47872">
        <ele>136.13</ele>
        <time>2018-12-08T12:00:50Z</time>
      </trkpt>
      <trkpt lat="48.72176" lon="2.47878">
        <ele>136.174</ele>
        <time>2018-12-08T12:00:53Z</time>
      </trkpt>
      <trkpt lat="48.7218" lon="2.47883">
        <ele>136.25</ele>
        <time>2018-12-08T12:00:58Z</time>
      </trkpt>
      <trkpt lat="48.72182" lon="2.47885">
        <ele>136.28</ele>
        <time>2018-12-08T12:01:00Z</time>
      </trkpt>
      <trkpt lat="48.72184" lon="2.47887">
        <ele>136.311</ele>
        <time>2018-12-08T12:01:02Z</time>
      </trkpt>
      <trkpt lat="48.72187" lon="2.47893">
        <ele>136.392</ele>
        <time>2018-12-08T12:01:07Z</time>
      </trkpt>
      <trkpt lat="48.72191" lon="2.47897">
        <ele>136.455</ele>
        <time>2018-12-08T12:01:11Z</time>
      </trkpt>
      <trkpt lat="48.72195" lon="2.47902">
        <ele>136.503</ele>
        <time>2018-12-08T12:01:14Z</time>
      </trkpt>
      <trkpt lat="48.72198" lon="2.47908">
        <ele>136.581</ele>
        <time>2018-12-08T12:01:19Z</time>
      </trkpt>
      <trkpt lat="48.72202" lon="2.47915">
        <ele>136.645</ele>
        <time>2018-12-08T12:01:23Z</time>
      </trkpt>
      <trkpt lat="48.72204" lon="2.47922">
        <ele>136.711</ele>
        <time>2018-12-08T12:01:27Z</time>
      </trkpt>
      <trkpt lat="48.72207" lon="2.47928">
        <ele>136.781</ele>
        <time>2018-12-08T12:01:31Z</time>
      </trkpt>
      <trkpt lat="48.72208" lon="2.47932">
        <ele>136.835</ele>
        <time>2018-12-08T12:01:34Z</time>
      </trkpt>
      <trkpt lat="48.7221" lon="2.47935">
        <ele>136.873</ele>
        <time>2018-12-08T12:01:36Z</time>
      </trkpt>
      <trkpt lat="48.7221" lon="2.47935">
        <ele>136.873</ele>
        <time>2018-12-08T12:01:41Z</time>
      </trkpt>
      <trkpt lat="48.7221" lon="2.47935">
        <ele>103.5</ele>
        <time>2018-12-08T12:01:41Z</time>
      </trkpt>
      <trkpt lat="48.7221" lon="2.47935">
        <ele>103.5</ele>
        <time>2018-12-08T12:01:47Z</time>
      </trkpt>
      <trkpt lat="48.72209" lon="2.4795">
        <ele>137.092</ele>
        <time>2018-12-08T12:01:47Z</time>
      </trkpt>
      <trkpt lat="48.72211" lon="2.47959">
        <ele>137.178</ele>
        <time>2018-12-08T12:01:51Z</time>
      </trkpt>
      <trkpt lat="48.72212" lon="2.47966">
        <ele>137.263</ele>
        <time>2018-12-08T12:01:55Z</time>
      </trkpt>
      <trkpt lat="48.72213" lon="2.47973">
        <ele>137.349</ele>
        <time>2018-12-08T12:01:59Z</time>
      </trkpt>
      <trkpt lat="48.72213" lon="2.47981">
        <ele>137.432</ele>
        <time>2018-12-08T12:02:03Z</time>
      </trkpt>
      <trkpt lat="48.72214" lon="2.47987">
        <ele>137.495</ele>
        <time>2018-12-08T12:02:06Z</time>
      </trkpt>
      <trkpt lat="48.72214" lon="2.47992">
        <ele>137.536</ele>
        <time>2018-12-08T12:02:08Z</time>
      </trkpt>
      <trkpt lat="48.72212" lon="2.47999">
        <ele>137.625</ele>
        <time>2018-12-08T12:02:12Z</time>
      </trkpt>
      <trkpt lat="48.72211" lon="2.48005">
        <ele>137.722</ele>
        <time>2018-12-08T12:02:16Z</time>
      </trkpt>
      <trkpt lat="48.7221" lon="2.48013">
        <ele>137.821</ele>
        <time>2018-12-08T12:02:20Z</time>
      </trkpt>
      <trkpt lat="48.7221" lon="2.4802">
        <ele>137.896</ele>
        <time>2018-12-08T12:02:23Z</time>
      </trkpt>
      <trkpt lat="48.72209" lon="2.48025">
        <ele>137.969</ele>
        <time>2018-12-08T12:02:26Z</time>
      </trkpt>
      <trkpt lat="48.72208" lon="2.48032">
        <ele>138.062</ele>
        <time>2018-12-08T12:02:30Z</time>
      </trkpt>
      <trkpt lat="48.72209" lon="2.4804">
        <ele>138.159</ele>
        <time>2018-12-08T12:02:34Z</time>
      </trkpt>
      <trkpt lat="48.72209" lon="2.48047">
        <ele>138.259</ele>
        <time>2018-12-08T12:02:38Z</time>
      </trkpt>
      <trkpt lat="48.72209" lon="2.4805">
        <ele>138.284</ele>
        <time>2018-12-08T12:02:39Z</time>
      </trkpt>
      <trkpt lat="48.7221" lon="2.48056">
        <ele>138.334</ele>
        <time>2018-12-08T12:02:41Z</time>
      </trkpt>
      <trkpt lat="48.72209" lon="2.48063">
        <ele>138.46</ele>
        <time>2018-12-08T12:02:46Z</time>
      </trkpt>
      <trkpt lat="48.72209" lon="2.48067">
        <ele>138.534</ele>
        <time>2018-12-08T12:02:49Z</time>
      </trkpt>
      <trkpt lat="48.72208" lon="2.48073">
        <ele>138.63</ele>
        <time>2018-12-08T12:02:53Z</time>
      </trkpt>
      <trkpt lat="48.72207" lon="2.48079">
        <ele>138.701</ele>
        <time>2018-12-08T12:02:56Z</time>
      </trkpt>
      <trkpt lat="48.72208" lon="2.48087">
        <ele>138.799</ele>
        <time>2018-12-08T12:03:00Z</time>
      </trkpt>
      <trkpt lat="48.72209" lon="2.48094">
        <ele>138.875</ele>
        <time>2018-12-08T12:03:03Z</time>
      </trkpt>
      <trkpt lat="48.7221" lon="2.48097">
        <ele>138.927</ele>
        <time>2018-12-08T12:03:05Z</time>
      </trkpt>
      <trkpt lat="48.7221" lon="2.48105">
        <ele>139.058</ele>
        <time>2018-12-08T12:03:10Z</time>
      </trkpt>
      <trkpt lat="48.72209" lon="2.48111">
        <ele>139.186</ele>
        <time>2018-12-08T12:03:15Z</time>
      </trkpt>
      <trkpt lat="48.72208" lon="2.48118">
        <ele>139.263</ele>
        <time>2018-12-08T12:03:18Z</time>
      </trkpt>
      <trkpt lat="48.72207" lon="2.48126">
        <ele>139.366</ele>
        <time>2018-12-08T12:03:22Z</time>
      </trkpt>
      <trkpt lat="48.72207" lon="2.48131">
        <ele>139.441</ele>
        <time>2018-12-08T12:03:25Z</time>
      </trkpt>
      <trkpt lat="48.72209" lon="2.48139">
        <ele>139.543</ele>
        <time>2018-12-08T12:03:29Z</time>
      </trkpt>
      <trkpt lat="48.72209" lon="2.48147">
        <ele>139.646</ele>
        <time>2018-12-08T12:03:33Z</time>
      </trkpt>
      <trkpt lat="48.7221" lon="2.48156">
        <ele>139.795</ele>
        <time>2018-12-08T12:03:39Z</time>
      </trkpt>
      <trkpt lat="48.72208" lon="2.48163">
        <ele>139.9</ele>
        <time>2018-12-08T12:03:43Z</time>
      </trkpt>
      <trkpt lat="48.72207" lon="2.48168">
        <ele>140.041</ele>
        <time>2018-12-08T12:03:49Z</time>
      </trkpt>
      <trkpt lat="48.72207" lon="2.48176">
        <ele>140.258</ele>
        <time>2018-12-08T12:03:56Z</time>
      </trkpt>
      <trkpt lat="48.72207" lon="2.48183">
        <ele>140.351</ele>
        <time>2018-12-08T12:03:59Z</time>
      </trkpt>
      <trkpt lat="48.72207" lon="2.48191">
        <ele>140.448</ele>
        <time>2018-12-08T12:04:02Z</time>
      </trkpt>
      <trkpt lat="48.72208" lon="2.48195">
        <ele>140.513</ele>
        <time>2018-12-08T12:04:04Z</time>
      </trkpt>
      <trkpt lat="48.72209" lon="2.48202">
        <ele>140.647</ele>
        <time>2018-12-08T12:04:08Z</time>
      </trkpt>
      <trkpt lat="48.72207" lon="2.4821">
        <ele>140.782</ele>
        <time>2018-12-08T12:04:12Z</time>
      </trkpt>
      <trkpt lat="48.72206" lon="2.48217">
        <ele>140.883</ele>
        <time>2018-12-08T12:04:15Z</time>
      </trkpt>
      <trkpt lat="48.72206" lon="2.48225">
        <ele>141.018</ele>
        <time>2018-12-08T12:04:19Z</time>
      </trkpt>
      <trkpt lat="48.72206" lon="2.48234">
        <ele>141.157</ele>
        <time>2018-12-08T12:04:23Z</time>
      </trkpt>
      <trkpt lat="48.72206" lon="2.48238">
        <ele>141.262</ele>
        <time>2018-12-08T12:04:26Z</time>
      </trkpt>
      <trkpt lat="48.72206" lon="2.48245">
        <ele>141.437</ele>
        <time>2018-12-08T12:04:31Z</time>
      </trkpt>
      <trkpt lat="48.72207" lon="2.48252">
        <ele>141.611</ele>
        <time>2018-12-08T12:04:36Z</time>
      </trkpt>
      <trkpt lat="48.72208" lon="2.48257">
        <ele>141.679</ele>
        <time>2018-12-08T12:04:38Z</time>
      </trkpt>
      <trkpt lat="48.72211" lon="2.48265">
        <ele>141.855</ele>
        <time>2018-12-08T12:04:43Z</time>
      </trkpt>
      <trkpt lat="48.72212" lon="2.48274">
        <ele>142.043</ele>
        <time>2018-12-08T12:04:50Z</time>
      </trkpt>
      <trkpt lat="48.72211" lon="2.48281">
        <ele>142.187</ele>
        <time>2018-12-08T12:04:54Z</time>
      </trkpt>
      <trkpt lat="48.7221" lon="2.48284">
        <ele>142.259</ele>
        <time>2018-12-08T12:04:56Z</time>
      </trkpt>
      <trkpt lat="48.72211" lon="2.48291">
        <ele>142.365</ele>
        <time>2018-12-08T12:04:59Z</time>
      </trkpt>
      <trkpt lat="48.72212" lon="2.48299">
        <ele>142.509</ele>
        <time>2018-12-08T12:05:03Z</time>
      </trkpt>
      <trkpt lat="48.72212" lon="2.48305">
        <ele>142.648</ele>
        <time>2018-12-08T12:05:07Z</time>
      </trkpt>
      <trkpt lat="48.72212" lon="2.4831">
        <ele>142.718</ele>
        <time>2018-12-08T12:05:09Z</time>
      </trkpt>
      <trkpt lat="48.72212" lon="2.48318">
        <ele>142.855</ele>
        <time>2018-12-08T12:05:13Z</time>
      </trkpt>
      <trkpt lat="48.72213" lon="2.48325">
        <ele>142.956</ele>
        <time>2018-12-08T12:05:16Z</time>
      </trkpt>
      <trkpt lat="48.72212" lon="2.48332">
        <ele>143.088</ele>
        <time>2018-12-08T12:05:20Z</time>
      </trkpt>
      <trkpt lat="48.72212" lon="2.48339">
        <ele>143.187</ele>
        <time>2018-12-08T12:05:23Z</time>
      </trkpt>
      <trkpt lat="48.72212" lon="2.48339">
        <ele>143.187</ele>
        <time>2018-12-08T12:05:28Z</time>
      </trkpt>
      <trkpt lat="48.72212" lon="2.48339">
        <ele>112.4</ele>
        <time>2018-12-08T12:05:28Z</time>
      </trkpt>
      <trkpt lat="48.72212" lon="2.48339">
        <ele>112.4</ele>
        <time>2018-12-08T12:05:33Z</time>
      </trkpt>
      <trkpt lat="48.72212" lon="2.48355">
        <ele>143.485</ele>
        <time>2018-12-08T12:05:33Z</time>
      </trkpt>
      <trkpt lat="48.72214" lon="2.48362">
        <ele>143.614</ele>
        <time>2018-12-08T12:05:37Z</time>
      </trkpt>
      <trkpt lat="48.72213" lon="2.4837">
        <ele>143.737</ele>
        <time>2018-12-08T12:05:41Z</time>
      </trkpt>
      <trkpt lat="48.72213" lon="2.48376">
        <ele>143.826</ele>
        <time>2018-12-08T12:05:44Z</time>
      </trkpt>
      <trkpt lat="48.72214" lon="2.48384">
        <ele>143.914</ele>
        <time>2018-12-08T12:05:47Z</time>
      </trkpt>
      <trkpt lat="48.72214" lon="2.48388">
        <ele>143.971</ele>
        <time>2018-12-08T12:05:49Z</time>
      </trkpt>
      <trkpt lat="48.72216" lon="2.48398">
        <ele>144.141</ele>
        <time>2018-12-08T12:05:55Z</time>
      </trkpt>
      <trkpt lat="48.72216" lon="2.48406">
        <ele>144.328</ele>
        <time>2018-12-08T12:06:02Z</time>
      </trkpt>
      <trkpt lat="48.72215" lon="2.48412">
        <ele>144.378</ele>
        <time>2018-12-08T12:06:04Z</time>
      </trkpt>
      <trkpt lat="48.72216" lon="2.48421">
        <ele>144.427</ele>
        <time>2018-12-08T12:06:06Z</time>
      </trkpt>
      <trkpt lat="48.72216" lon="2.48425">
        <ele>144.475</ele>
        <time>2018-12-08T12:06:08Z</time>
      </trkpt>
      <trkpt lat="48.72213" lon="2.48431">
        <ele>144.569</ele>
        <time>2018-12-08T12:06:12Z</time>
      </trkpt>
      <trkpt lat="48.72212" lon="2.48438">
        <ele>144.661</ele>
        <time>2018-12-08T12:06:16Z</time>
      </trkpt>
      <trkpt lat="48.72212" lon="2.48445">
        <ele>144.756</ele>
        <time>2018-12-08T12:06:20Z</time>
      </trkpt>
      <trkpt lat="48.72211" lon="2.48453">
        <ele>144.871</ele>
        <time>2018-12-08T12:06:25Z</time>
      </trkpt>
      <trkpt lat="48.72211" lon="2.48456">
        <ele>144.914</ele>
        <time>2018-12-08T12:06:27Z</time>
      </trkpt>
      <trkpt lat="48.72213" lon="2.48468">
        <ele>144.996</ele>
        <time>2018-12-08T12:06:31Z</time>
      </trkpt>
      <trkpt lat="48.72215" lon="2.48475">
        <ele>145.076</ele>
        <time>2018-12-08T12:06:35Z</time>
      </trkpt>
      <trkpt lat="48.72215" lon="2.48484">
        <ele>145.155</ele>
        <time>2018-12-08T12:06:39Z</time>
      </trkpt>
      <trkpt lat="48.72214" lon="2.48492">
        <ele>145.235</ele>
        <time>2018-12-08T12:06:43Z</time>
      </trkpt>
      <trkpt lat="48.72213" lon="2.48498">
        <ele>145.313</ele>
        <time>2018-12-08T12:06:47Z</time>
      </trkpt>
      <trkpt lat="48.72215" lon="2.48504">
        <ele>145.405</ele>
        <time>2018-12-08T12:06:52Z</time>
      </trkpt>
      <trkpt lat="48.72214" lon="2.48512">
        <ele>145.46</ele>
        <time>2018-12-08T12:06:55Z</time>
      </trkpt>
      <trkpt lat="48.72212" lon="2.4852">
        <ele>145.535</ele>
        <time>2018-12-08T12:06:59Z</time>
      </trkpt>
      <trkpt lat="48.72212" lon="2.48528">
        <ele>145.589</ele>
        <time>2018-12-08T12:07:02Z</time>
      </trkpt>
      <trkpt lat="48.72212" lon="2.48533">
        <ele>145.623</ele>
        <time>2018-12-08T12:07:04Z</time>
      </trkpt>
      <trkpt lat="48.72213" lon="2.4854">
        <ele>145.69</ele>
        <time>2018-12-08T12:07:08Z</time>
      </trkpt>
      <trkpt lat="48.72213" lon="2.48544">
        <ele>145.721</ele>
        <time>2018-12-08T12:07:10Z</time>
      </trkpt>
      <trkpt lat="48.72214" lon="2.48552">
        <ele>145.78</ele>
        <time>2018-12-08T12:07:14Z</time>
      </trkpt>
      <trkpt lat="48.72213" lon="2.48559">
        <ele>145.808</ele>
        <time>2018-12-08T12:07:16Z</time>
      </trkpt>
      <trkpt lat="48.72213" lon="2.48568">
        <ele>145.879</ele>
        <time>2018-12-08T12:07:21Z</time>
      </trkpt>
      <trkpt lat="48.72214" lon="2.48571">
        <ele>145.92</ele>
        <time>2018-12-08T12:07:24Z</time>
      </trkpt>
      <trkpt lat="48.72213" lon="2.48579">
        <ele>145.971</ele>
        <time>2018-12-08T12:07:28Z</time>
      </trkpt>
      <trkpt lat="48.72214" lon="2.48587">
        <ele>145.994</ele>
        <time>2018-12-08T12:07:30Z</time>
      </trkpt>
      <trkpt lat="48.72216" lon="2.48595">
        <ele>146.027</ele>
        <time>2018-12-08T12:07:33Z</time>
      </trkpt>
      <trkpt lat="48.72216" lon="2.48602">
        <ele>146.059</ele>
        <time>2018-12-08T12:07:36Z</time>
      </trkpt>
      <trkpt lat="48.72215" lon="2.48608">
        <ele>146.09</ele>
        <time>2018-12-08T12:07:39Z</time>
      </trkpt>
      <trkpt lat="48.72214" lon="2.48613">
        <ele>146.111</ele>
        <time>2018-12-08T12:07:41Z</time>
      </trkpt>
      <trkpt lat="48.72213" lon="2.48621">
        <ele>146.149</ele>
        <time>2018-12-08T12:07:45Z</time>
      </trkpt>
      <trkpt lat="48.72214" lon="2.48629">
        <ele>146.206</ele>
        <time>2018-12-08T12:07:51Z</time>
      </trkpt>
      <trkpt lat="48.72215" lon="2.48632">
        <ele>146.215</ele>
        <time>2018-12-08T12:07:52Z</time>
      </trkpt>
      <trkpt lat="48.72215" lon="2.4864">
        <ele>146.263</ele>
        <time>2018-12-08T12:07:57Z</time>
      </trkpt>
      <trkpt lat="48.72213" lon="2.48646">
        <ele>146.319</ele>
        <time>2018-12-08T12:08:03Z</time>
      </trkpt>
      <trkpt lat="48.72214" lon="2.48653">
        <ele>146.349</ele>
        <time>2018-12-08T12:08:06Z</time>
      </trkpt>
      <trkpt lat="48.72214" lon="2.48658">
        <ele>146.368</ele>
        <time>2018-12-08T12:08:08Z</time>
      </trkpt>
      <trkpt lat="48.72214" lon="2.48662">
        <ele>146.389</ele>
        <time>2018-12-08T12:08:10Z</time>
      </trkpt>
      <trkpt lat="48.72214" lon="2.48666">
        <ele>146.419</ele>
        <time>2018-12-08T12:08:13Z</time>
      </trkpt>
      <trkpt lat="48.72211" lon="2.48674">
        <ele>146.457</ele>
        <time>2018-12-08T12:08:17Z</time>
      </trkpt>
      <trkpt lat="48.72211" lon="2.48685">
        <ele>146.503</ele>
        <time>2018-12-08T12:08:22Z</time>
      </trkpt>
      <trkpt lat="48.7221" lon="2.48694">
        <ele>146.532</ele>
        <time>2018-12-08T12:08:25Z</time>
      </trkpt>
      <trkpt lat="48.7221" lon="2.48701">
        <ele>146.562</ele>
        <time>2018-12-08T12:08:28Z</time>
      </trkpt>
      <trkpt lat="48.7221" lon="2.48707">
        <ele>146.583</ele>
        <time>2018-12-08T12:08:30Z</time>
      </trkpt>
      <trkpt lat="48.7221" lon="2.48714">
        <ele>146.62</ele>
        <time>2018-12-08T12:08:34Z</time>
      </trkpt>
      <trkpt lat="48.7221" lon="2.48719">
        <ele>146.636</ele>
        <time>2018-12-08T12:08:36Z</time>
      </trkpt>
      <trkpt lat="48.7221" lon="2.48725">
        <ele>146.661</ele>
        <time>2018-12-08T12:08:39Z</time>
      </trkpt>
      <trkpt lat="48.72212" lon="2.48734">
        <ele>146.686</ele>
        <time>2018-12-08T12:08:42Z</time>
      </trkpt>
      <trkpt lat="48.72212" lon="2.48741">
        <ele>146.709</ele>
        <time>2018-12-08T12:08:45Z</time>
      </trkpt>
      <trkpt lat="48.72211" lon="2.48748">
        <ele>146.744</ele>
        <time>2018-12-08T12:08:50Z</time>
      </trkpt>
      <trkpt lat="48.7221" lon="2.48752">
        <ele>146.757</ele>
        <time>2018-12-08T12:08:52Z</time>
      </trkpt>
      <trkpt lat="48.72211" lon="2.48759">
        <ele>146.779</ele>
        <time>2018-12-08T12:08:56Z</time>
      </trkpt>
      <trkpt lat="48.72211" lon="2.48764">
        <ele>146.791</ele>
        <time>2018-12-08T12:08:59Z</time>
      </trkpt>
      <trkpt lat="48.72211" lon="2.48771">
        <ele>146.806</ele>
        <time>2018-12-08T12:09:03Z</time>
      </trkpt>
      <trkpt lat="48.7221" lon="2.4878">
        <ele>146.819</ele>
        <time>2018-12-08T12:09:07Z</time>
      </trkpt>
      <trkpt lat="48.72209" lon="2.48786">
        <ele>146.824</ele>
        <time>2018-12-08T12:09:09Z</time>
      </trkpt>
      <trkpt lat="48.72207" lon="2.48793">
        <ele>146.831</ele>
        <time>2018-12-08T12:09:12Z</time>
      </trkpt>
      <trkpt lat="48.72208" lon="2.48802">
        <ele>146.847</ele>
        <time>2018-12-08T12:09:17Z</time>
      </trkpt>
      <trkpt lat="48.72207" lon="2.48809">
        <ele>146.859</ele>
        <time>2018-12-08T12:09:20Z</time>
      </trkpt>
      <trkpt lat="48.72207" lon="2.48815">
        <ele>146.867</ele>
        <time>2018-12-08T12:09:22Z</time>
      </trkpt>
      <trkpt lat="48.72206" lon="2.48821">
        <ele>146.876</ele>
        <time>2018-12-08T12:09:24Z</time>
      </trkpt>
      <trkpt lat="48.72206" lon="2.48821">
        <ele>94</ele>
        <time>2018-12-08T12:09:32Z</time>
      </trkpt>
      <trkpt lat="48.72206" lon="2.48821">
        <ele>94</ele>
        <time>2018-12-08T12:09:39Z</time>
      </trkpt>
      <trkpt lat="48.72201" lon="2.48828">
        <ele>146.965</ele>
        <time>2018-12-08T12:09:39Z</time>
      </trkpt>
      <trkpt lat="48.72197" lon="2.48834">
        <ele>146.993</ele>
        <time>2018-12-08T12:09:43Z</time>
      </trkpt>
      <trkpt lat="48.72194" lon="2.48838">
        <ele>147.029</ele>
        <time>2018-12-08T12:09:49Z</time>
      </trkpt>
      <trkpt lat="48.72189" lon="2.48842">
        <ele>147.062</ele>
        <time>2018-12-08T12:09:54Z</time>
      </trkpt>
      <trkpt lat="48.72185" lon="2.48844">
        <ele>147.078</ele>
        <time>2018-12-08T12:09:57Z</time>
      </trkpt>
      <trkpt lat="48.72179" lon="2.48847">
        <ele>147.091</ele>
        <time>2018-12-08T12:10:00Z</time>
      </trkpt>
      <trkpt lat="48.72175" lon="2.48849">
        <ele>147.11</ele>
        <time>2018-12-08T12:10:05Z</time>
      </trkpt>
      <trkpt lat="48.7217" lon="2.48851">
        <ele>147.125</ele>
        <time>2018-12-08T12:10:10Z</time>
      </trkpt>
      <trkpt lat="48.72166" lon="2.48855">
        <ele>147.133</ele>
        <time>2018-12-08T12:10:15Z</time>
      </trkpt>
      <trkpt lat="48.72161" lon="2.48857">
        <ele>147.136</ele>
        <time>2018-12-08T12:10:19Z</time>
      </trkpt>
      <trkpt lat="48.72158" lon="2.48859">
        <ele>147.14</ele>
        <time>2018-12-08T12:10:22Z</time>
      </trkpt>
      <trkpt lat="48.72152" lon="2.4886">
        <ele>147.15</ele>
        <time>2018-12-08T12:10:26Z</time>
      </trkpt>
      <trkpt lat="48.72147" lon="2.48862">
        <ele>147.16</ele>
        <time>2018-12-08T12:10:30Z</time>
      </trkpt>
      <trkpt lat="48.72143" lon="2.48864">
        <ele>147.167</ele>
        <time>2018-12-08T12:10:33Z</time>
      </trkpt>
      <trkpt lat="48.72137" lon="2.48865">
        <ele>147.171</ele>
        <time>2018-12-08T12:10:36Z</time>
      </trkpt>
      <trkpt lat="48.72132" lon="2.48868">
        <ele>147.174</ele>
        <time>2018-12-08T12:10:41Z</time>
      </trkpt>
      <trkpt lat="48.72127" lon="2.48868">
        <ele>147.176</ele>
        <time>2018-12-08T12:10:44Z</time>
      </trkpt>
      <trkpt lat="48.72122" lon="2.48866">
        <ele>147.177</ele>
        <time>2018-12-08T12:10:48Z</time>
      </trkpt>
      <trkpt lat="48.72118" lon="2.48865">
        <ele>147.176</ele>
        <time>2018-12-08T12:10:51Z</time>
      </trkpt>
      <trkpt lat="48.72113" lon="2.48865">
        <ele>147.176</ele>
        <time>2018-12-08T12:10:56Z</time>
      </trkpt>
      <trkpt lat="48.72107" lon="2.48866">
        <ele>147.177</ele>
        <time>2018-12-08T12:11:00Z</time>
      </trkpt>
      <trkpt lat="48.72101" lon="2.48858">
        <ele>147.177</ele>
        <time>2018-12-08T12:11:02Z</time>
      </trkpt>
      <trkpt lat="48.72096" lon="2.48855">
        <ele>147.178</ele>
        <time>2018-12-08T12:11:04Z</time>
      </trkpt>
      <trkpt lat="48.7209" lon="2.48855">
        <ele>147.171</ele>
        <time>2018-12-08T12:11:09Z</time>
      </trkpt>
      <trkpt lat="48.72085" lon="2.48856">
        <ele>147.163</ele>
        <time>2018-12-08T12:11:14Z</time>
      </trkpt>
      <trkpt lat="48.72081" lon="2.48856">
        <ele>147.157</ele>
        <time>2018-12-08T12:11:17Z</time>
      </trkpt>
      <trkpt lat="48.72076" lon="2.48856">
        <ele>147.143</ele>
        <time>2018-12-08T12:11:21Z</time>
      </trkpt>
      <trkpt lat="48.72071" lon="2.48857">
        <ele>147.13</ele>
        <time>2018-12-08T12:11:24Z</time>
      </trkpt>
      <trkpt lat="48.72068" lon="2.48857">
        <ele>147.121</ele>
        <time>2018-12-08T12:11:26Z</time>
      </trkpt>
      <trkpt lat="48.72063" lon="2.48859">
        <ele>147.101</ele>
        <time>2018-12-08T12:11:30Z</time>
      </trkpt>
      <trkpt lat="48.72059" lon="2.48861">
        <ele>147.086</ele>
        <time>2018-12-08T12:11:33Z</time>
      </trkpt>
      <trkpt lat="48.72056" lon="2.48862">
        <ele>147.073</ele>
        <time>2018-12-08T12:11:36Z</time>
      </trkpt>
      <trkpt lat="48.7205" lon="2.48862">
        <ele>147.046</ele>
        <time>2018-12-08T12:11:43Z</time>
      </trkpt>
      <trkpt lat="48.72045" lon="2.48861">
        <ele>147.03</ele>
        <time>2018-12-08T12:11:46Z</time>
      </trkpt>
      <trkpt lat="48.72041" lon="2.4886">
        <ele>147.013</ele>
        <time>2018-12-08T12:11:49Z</time>
      </trkpt>
      <trkpt lat="48.72036" lon="2.48858">
        <ele>146.994</ele>
        <time>2018-12-08T12:11:52Z</time>
      </trkpt>
      <trkpt lat="48.72031" lon="2.48858">
        <ele>146.96</ele>
        <time>2018-12-08T12:11:57Z</time>
      </trkpt>
      <trkpt lat="48.72026" lon="2.48856">
        <ele>146.934</ele>
        <time>2018-12-08T12:12:01Z</time>
      </trkpt>
      <trkpt lat="48.7202" lon="2.48855">
        <ele>146.907</ele>
        <time>2018-12-08T12:12:05Z</time>
      </trkpt>
      <trkpt lat="48.72015" lon="2.48856">
        <ele>146.879</ele>
        <time>2018-12-08T12:12:09Z</time>
      </trkpt>
      <trkpt lat="48.7201" lon="2.48856">
        <ele>146.85</ele>
        <time>2018-12-08T12:12:13Z</time>
      </trkpt>
      <trkpt lat="48.72006" lon="2.48853">
        <ele>146.828</ele>
        <time>2018-12-08T12:12:16Z</time>
      </trkpt>
      <trkpt lat="48.72" lon="2.48851">
        <ele>146.791</ele>
        <time>2018-12-08T12:12:20Z</time>
      </trkpt>
      <trkpt lat="48.71996" lon="2.48852">
        <ele>146.75</ele>
        <time>2018-12-08T12:12:24Z</time>
      </trkpt>
      <trkpt lat="48.71991" lon="2.4885">
        <ele>146.709</ele>
        <time>2018-12-08T12:12:28Z</time>
      </trkpt>
      <trkpt lat="48.71988" lon="2.48849">
        <ele>146.678</ele>
        <time>2018-12-08T12:12:31Z</time>
      </trkpt>
      <trkpt lat="48.71983" lon="2.48848">
        <ele>146.636</ele>
        <time>2018-12-08T12:12:35Z</time>
      </trkpt>
      <trkpt lat="48.71979" lon="2.48848">
        <ele>146.605</ele>
        <time>2018-12-08T12:12:38Z</time>
      </trkpt>
      <trkpt lat="48.71973" lon="2.48847">
        <ele>146.546</ele>
        <time>2018-12-08T12:12:43Z</time>
      </trkpt>
      <trkpt lat="48.71967" lon="2.48845">
        <ele>146.509</ele>
        <time>2018-12-08T12:12:46Z</time>
      </trkpt>
      <trkpt lat="48.71963" lon="2.48844">
        <ele>146.471</ele>
        <time>2018-12-08T12:12:49Z</time>
      </trkpt>
      <trkpt lat="48.71959" lon="2.48842">
        <ele>146.411</ele>
        <time>2018-12-08T12:12:53Z</time>
      </trkpt>
      <trkpt lat="48.71954" lon="2.48844">
        <ele>146.345</ele>
        <time>2018-12-08T12:12:57Z</time>
      </trkpt>
      <trkpt lat="48.71948" lon="2.48842">
        <ele>146.279</ele>
        <time>2018-12-08T12:13:01Z</time>
      </trkpt>
      <trkpt lat="48.71944" lon="2.48842">
        <ele>146.23</ele>
        <time>2018-12-08T12:13:04Z</time>
      </trkpt>
      <trkpt lat="48.71941" lon="2.48842">
        <ele>146.196</ele>
        <time>2018-12-08T12:13:06Z</time>
      </trkpt>
      <trkpt lat="48.71935" lon="2.48841">
        <ele>146.127</ele>
        <time>2018-12-08T12:13:10Z</time>
      </trkpt>
      <trkpt lat="48.71931" lon="2.4884">
        <ele>146.074</ele>
        <time>2018-12-08T12:13:13Z</time>
      </trkpt>
      <trkpt lat="48.71924" lon="2.4884">
        <ele>145.985</ele>
        <time>2018-12-08T12:13:18Z</time>
      </trkpt>
      <trkpt lat="48.71921" lon="2.4884">
        <ele>145.949</ele>
        <time>2018-12-08T12:13:20Z</time>
      </trkpt>
      <trkpt lat="48.71921" lon="2.4884">
        <ele>145.949</ele>
        <time>2018-12-08T12:13:25Z</time>
      </trkpt>
      <trkpt lat="48.71921" lon="2.4884">
        <ele>72.7</ele>
        <time>2018-12-08T12:13:25Z</time>
      </trkpt>
      <trkpt lat="48.71921" lon="2.4884">
        <ele>72.7</ele>
        <time>2018-12-08T12:13:29Z</time>
      </trkpt>
      <trkpt lat="48.71912" lon="2.48841">
        <ele>145.788</ele>
        <time>2018-12-08T12:13:29Z</time>
      </trkpt>
      <trkpt lat="48.71912" lon="2.48841">
        <ele>145.788</ele>
        <time>2018-12-08T12:13:37Z</time>
      </trkpt>
      <trkpt lat="48.71912" lon="2.48841">
        <ele>71.8</ele>
        <time>2018-12-08T12:13:37Z</time>
      </trkpt>
      <trkpt lat="48.71912" lon="2.48841">
        <ele>71.8</ele>
        <time>2018-12-08T12:13:46Z</time>
      </trkpt>
      <trkpt lat="48.71892" lon="2.4885">
        <ele>145.44</ele>
        <time>2018-12-08T12:13:46Z</time>
      </trkpt>
      <trkpt lat="48.71887" lon="2.48848">
        <ele>145.328</ele>
        <time>2018-12-08T12:13:50Z</time>
      </trkpt>
      <trkpt lat="48.71882" lon="2.48847">
        <ele>145.204</ele>
        <time>2018-12-08T12:13:54Z</time>
      </trkpt>
      <trkpt lat="48.71879" lon="2.48847">
        <ele>145.138</ele>
        <time>2018-12-08T12:13:56Z</time>
      </trkpt>
      <trkpt lat="48.71874" lon="2.4885">
        <ele>144.999</ele>
        <time>2018-12-08T12:14:00Z</time>
      </trkpt>
      <trkpt lat="48.71869" lon="2.4885">
        <ele>144.858</ele>
        <time>2018-12-08T12:14:04Z</time>
      </trkpt>
      <trkpt lat="48.71867" lon="2.48851">
        <ele>144.747</ele>
        <time>2018-12-08T12:14:07Z</time>
      </trkpt>
      <trkpt lat="48.71862" lon="2.48846">
        <ele>144.512</ele>
        <time>2018-12-08T12:14:13Z</time>
      </trkpt>
      <trkpt lat="48.71855" lon="2.48844">
        <ele>144.352</ele>
        <time>2018-12-08T12:14:17Z</time>
      </trkpt>
      <trkpt lat="48.71852" lon="2.48838">
        <ele>144.138</ele>
        <time>2018-12-08T12:14:22Z</time>
      </trkpt>
      <trkpt lat="48.71849" lon="2.48832">
        <ele>143.946</ele>
        <time>2018-12-08T12:14:26Z</time>
      </trkpt>
      <trkpt lat="48.71849" lon="2.48832">
        <ele>66.2</ele>
        <time>2018-12-08T12:14:33Z</time>
      </trkpt>
      <trkpt lat="48.71849" lon="2.48832">
        <ele>66.2</ele>
        <time>2018-12-08T12:14:52Z</time>
      </trkpt>
      <trkpt lat="48.71835" lon="2.48857">
        <ele>142.004</ele>
        <time>2018-12-08T12:14:52Z</time>
      </trkpt>
      <trkpt lat="48.71831" lon="2.48855">
        <ele>141.666</ele>
        <time>2018-12-08T12:14:56Z</time>
      </trkpt>
      <trkpt lat="48.71827" lon="2.48853">
        <ele>141.417</ele>
        <time>2018-12-08T12:14:59Z</time>
      </trkpt>
      <trkpt lat="48.71824" lon="2.48852">
        <ele>141.252</ele>
        <time>2018-12-08T12:15:01Z</time>
      </trkpt>
      <trkpt lat="48.71819" lon="2.48851">
        <ele>141.009</ele>
        <time>2018-12-08T12:15:04Z</time>
      </trkpt>
      <trkpt lat="48.71815" lon="2.48851">
        <ele>140.771</ele>
        <time>2018-12-08T12:15:07Z</time>
      </trkpt>
      <trkpt lat="48.71812" lon="2.4885">
        <ele>140.615</ele>
        <time>2018-12-08T12:15:09Z</time>
      </trkpt>
      <trkpt lat="48.7181" lon="2.48851">
        <ele>140.461</ele>
        <time>2018-12-08T12:15:11Z</time>
      </trkpt>
      <trkpt lat="48.71807" lon="2.48851">
        <ele>140.309</ele>
        <time>2018-12-08T12:15:13Z</time>
      </trkpt>
      <trkpt lat="48.71803" lon="2.48849">
        <ele>140.085</ele>
        <time>2018-12-08T12:15:16Z</time>
      </trkpt>
      <trkpt lat="48.71798" lon="2.48848">
        <ele>139.791</ele>
        <time>2018-12-08T12:15:20Z</time>
      </trkpt>
      <trkpt lat="48.71795" lon="2.48848">
        <ele>139.569</ele>
        <time>2018-12-08T12:15:23Z</time>
      </trkpt>
      <trkpt lat="48.71793" lon="2.48847">
        <ele>139.42</ele>
        <time>2018-12-08T12:15:25Z</time>
      </trkpt>
      <trkpt lat="48.71788" lon="2.48848">
        <ele>139.121</ele>
        <time>2018-12-08T12:15:29Z</time>
      </trkpt>
      <trkpt lat="48.71783" lon="2.48847">
        <ele>138.898</ele>
        <time>2018-12-08T12:15:32Z</time>
      </trkpt>
      <trkpt lat="48.71778" lon="2.48848">
        <ele>138.607</ele>
        <time>2018-12-08T12:15:36Z</time>
      </trkpt>
      <trkpt lat="48.71776" lon="2.48848">
        <ele>138.536</ele>
        <time>2018-12-08T12:15:37Z</time>
      </trkpt>
      <trkpt lat="48.71773" lon="2.48848">
        <ele>138.464</ele>
        <time>2018-12-08T12:15:38Z</time>
      </trkpt>
      <trkpt lat="48.71769" lon="2.48848">
        <ele>138.324</ele>
        <time>2018-12-08T12:15:40Z</time>
      </trkpt>
      <trkpt lat="48.71765" lon="2.48848">
        <ele>138.184</ele>
        <time>2018-12-08T12:15:42Z</time>
      </trkpt>
      <trkpt lat="48.7176" lon="2.48847">
        <ele>137.911</ele>
        <time>2018-12-08T12:15:46Z</time>
      </trkpt>
      <trkpt lat="48.71757" lon="2.48847">
        <ele>137.776</ele>
        <time>2018-12-08T12:15:48Z</time>
      </trkpt>
      <trkpt lat="48.71755" lon="2.48846">
        <ele>137.643</ele>
        <time>2018-12-08T12:15:50Z</time>
      </trkpt>
      <trkpt lat="48.7175" lon="2.48846">
        <ele>137.446</ele>
        <time>2018-12-08T12:15:53Z</time>
      </trkpt>
      <trkpt lat="48.71745" lon="2.4885">
        <ele>137.253</ele>
        <time>2018-12-08T12:15:56Z</time>
      </trkpt>
      <trkpt lat="48.71742" lon="2.48857">
        <ele>137.062</ele>
        <time>2018-12-08T12:15:59Z</time>
      </trkpt>
      <trkpt lat="48.71739" lon="2.48862">
        <ele>136.877</ele>
        <time>2018-12-08T12:16:02Z</time>
      </trkpt>
      <trkpt lat="48.71738" lon="2.4887">
        <ele>136.632</ele>
        <time>2018-12-08T12:16:06Z</time>
      </trkpt>
      <trkpt lat="48.71738" lon="2.48875">
        <ele>136.504</ele>
        <time>2018-12-08T12:16:08Z</time>
      </trkpt>
      <trkpt lat="48.71734" lon="2.4888">
        <ele>136.243</ele>
        <time>2018-12-08T12:16:12Z</time>
      </trkpt>
      <trkpt lat="48.7173" lon="2.48884">
        <ele>135.986</ele>
        <time>2018-12-08T12:16:16Z</time>
      </trkpt>
      <trkpt lat="48.71726" lon="2.4889">
        <ele>135.67</ele>
        <time>2018-12-08T12:16:21Z</time>
      </trkpt>
      <trkpt lat="48.71724" lon="2.48892">
        <ele>135.545</ele>
        <time>2018-12-08T12:16:23Z</time>
      </trkpt>
      <trkpt lat="48.71719" lon="2.48895">
        <ele>135.359</ele>
        <time>2018-12-08T12:16:26Z</time>
      </trkpt>
      <trkpt lat="48.71715" lon="2.48896">
        <ele>135.176</ele>
        <time>2018-12-08T12:16:29Z</time>
      </trkpt>
      <trkpt lat="48.71709" lon="2.48895">
        <ele>134.933</ele>
        <time>2018-12-08T12:16:33Z</time>
      </trkpt>
      <trkpt lat="48.71706" lon="2.48894">
        <ele>134.751</ele>
        <time>2018-12-08T12:16:36Z</time>
      </trkpt>
      <trkpt lat="48.71702" lon="2.48894">
        <ele>134.508</ele>
        <time>2018-12-08T12:16:40Z</time>
      </trkpt>
      <trkpt lat="48.71697" lon="2.48894">
        <ele>134.268</ele>
        <time>2018-12-08T12:16:44Z</time>
      </trkpt>
      <trkpt lat="48.71692" lon="2.48897">
        <ele>133.974</ele>
        <time>2018-12-08T12:16:49Z</time>
      </trkpt>
      <trkpt lat="48.7169" lon="2.48899">
        <ele>133.798</ele>
        <time>2018-12-08T12:16:52Z</time>
      </trkpt>
      <trkpt lat="48.71687" lon="2.48901">
        <ele>133.624</ele>
        <time>2018-12-08T12:16:55Z</time>
      </trkpt>
      <trkpt lat="48.71685" lon="2.48909">
        <ele>133.448</ele>
        <time>2018-12-08T12:16:58Z</time>
      </trkpt>
      <trkpt lat="48.71683" lon="2.48917">
        <ele>133.264</ele>
        <time>2018-12-08T12:17:01Z</time>
      </trkpt>
      <trkpt lat="48.71682" lon="2.48922">
        <ele>133.134</ele>
        <time>2018-12-08T12:17:03Z</time>
      </trkpt>
      <trkpt lat="48.71681" lon="2.48926">
        <ele>133</ele>
        <time>2018-12-08T12:17:05Z</time>
      </trkpt>
      <trkpt lat="48.7168" lon="2.48933">
        <ele>132.792</ele>
        <time>2018-12-08T12:17:08Z</time>
      </trkpt>
      <trkpt lat="48.7168" lon="2.4894">
        <ele>132.58</ele>
        <time>2018-12-08T12:17:11Z</time>
      </trkpt>
      <trkpt lat="48.71678" lon="2.48948">
        <ele>132.294</ele>
        <time>2018-12-08T12:17:15Z</time>
      </trkpt>
      <trkpt lat="48.71677" lon="2.48951">
        <ele>132.151</ele>
        <time>2018-12-08T12:17:17Z</time>
      </trkpt>
      <trkpt lat="48.71675" lon="2.4896">
        <ele>131.937</ele>
        <time>2018-12-08T12:17:20Z</time>
      </trkpt>
      <trkpt lat="48.71673" lon="2.48968">
        <ele>131.721</ele>
        <time>2018-12-08T12:17:23Z</time>
      </trkpt>
      <trkpt lat="48.71671" lon="2.48977">
        <ele>131.431</ele>
        <time>2018-12-08T12:17:27Z</time>
      </trkpt>
      <trkpt lat="48.71671" lon="2.48981">
        <ele>131.285</ele>
        <time>2018-12-08T12:17:29Z</time>
      </trkpt>
      <trkpt lat="48.71669" lon="2.48988">
        <ele>131.067</ele>
        <time>2018-12-08T12:17:32Z</time>
      </trkpt>
      <trkpt lat="48.71668" lon="2.48992">
        <ele>130.922</ele>
        <time>2018-12-08T12:17:34Z</time>
      </trkpt>
      <trkpt lat="48.71667" lon="2.48997">
        <ele>130.777</ele>
        <time>2018-12-08T12:17:36Z</time>
      </trkpt>
      <trkpt lat="48.71665" lon="2.49002">
        <ele>130.561</ele>
        <time>2018-12-08T12:17:39Z</time>
      </trkpt>
      <trkpt lat="48.71664" lon="2.49007">
        <ele>130.206</ele>
        <time>2018-12-08T12:17:44Z</time>
      </trkpt>
      <trkpt lat="48.71662" lon="2.49013">
        <ele>129.992</ele>
        <time>2018-12-08T12:17:47Z</time>
      </trkpt>
      <trkpt lat="48.7166" lon="2.49019">
        <ele>129.697</ele>
        <time>2018-12-08T12:17:51Z</time>
      </trkpt>
      <trkpt lat="48.71658" lon="2.49023">
        <ele>129.549</ele>
        <time>2018-12-08T12:17:53Z</time>
      </trkpt>
      <trkpt lat="48.71656" lon="2.4903">
        <ele>129.187</ele>
        <time>2018-12-08T12:17:58Z</time>
      </trkpt>
      <trkpt lat="48.71655" lon="2.49037">
        <ele>128.903</ele>
        <time>2018-12-08T12:18:02Z</time>
      </trkpt>
      <trkpt lat="48.71654" lon="2.49042">
        <ele>128.76</ele>
        <time>2018-12-08T12:18:04Z</time>
      </trkpt>
      <trkpt lat="48.71652" lon="2.49049">
        <ele>128.479</ele>
        <time>2018-12-08T12:18:08Z</time>
      </trkpt>
      <trkpt lat="48.71651" lon="2.49056">
        <ele>128.269</ele>
        <time>2018-12-08T12:18:11Z</time>
      </trkpt>
      <trkpt lat="48.7165" lon="2.4906">
        <ele>128.127</ele>
        <time>2018-12-08T12:18:13Z</time>
      </trkpt>
      <trkpt lat="48.71649" lon="2.49064">
        <ele>127.982</ele>
        <time>2018-12-08T12:18:15Z</time>
      </trkpt>
      <trkpt lat="48.71648" lon="2.49072">
        <ele>127.763</ele>
        <time>2018-12-08T12:18:18Z</time>
      </trkpt>
      <trkpt lat="48.71647" lon="2.49078">
        <ele>127.34</ele>
        <time>2018-12-08T12:18:25Z</time>
      </trkpt>
      <trkpt lat="48.71645" lon="2.49096">
        <ele>126.91</ele>
        <time>2018-12-08T12:18:32Z</time>
      </trkpt>
      <trkpt lat="48.71641" lon="2.49103">
        <ele>126.737</ele>
        <time>2018-12-08T12:18:35Z</time>
      </trkpt>
      <trkpt lat="48.71636" lon="2.491">
        <ele>126.407</ele>
        <time>2018-12-08T12:18:41Z</time>
      </trkpt>
      <trkpt lat="48.71631" lon="2.491">
        <ele>126.146</ele>
        <time>2018-12-08T12:18:46Z</time>
      </trkpt>
      <trkpt lat="48.71631" lon="2.491">
        <ele>48.4</ele>
        <time>2018-12-08T12:18:53Z</time>
      </trkpt>
      <trkpt lat="48.71631" lon="2.491">
        <ele>48.4</ele>
        <time>2018-12-08T12:19:01Z</time>
      </trkpt>
      <trkpt lat="48.71627" lon="2.4909">
        <ele>125.358</ele>
        <time>2018-12-08T12:19:01Z</time>
      </trkpt>
      <trkpt lat="48.71623" lon="2.49086">
        <ele>125.19</ele>
        <time>2018-12-08T12:19:04Z</time>
      </trkpt>
      <trkpt lat="48.71618" lon="2.49082">
        <ele>124.962</ele>
        <time>2018-12-08T12:19:08Z</time>
      </trkpt>
      <trkpt lat="48.71613" lon="2.4908">
        <ele>124.731</ele>
        <time>2018-12-08T12:19:12Z</time>
      </trkpt>
      <trkpt lat="48.71613" lon="2.49071">
        <ele>124.318</ele>
        <time>2018-12-08T12:19:19Z</time>
      </trkpt>
      <trkpt lat="48.71613" lon="2.49065">
        <ele>124.119</ele>
        <time>2018-12-08T12:19:23Z</time>
      </trkpt>
      <trkpt lat="48.71614" lon="2.4906">
        <ele>123.861</ele>
        <time>2018-12-08T12:19:27Z</time>
      </trkpt>
      <trkpt lat="48.71612" lon="2.49054">
        <ele>123.53</ele>
        <time>2018-12-08T12:19:32Z</time>
      </trkpt>
      <trkpt lat="48.71608" lon="2.49049">
        <ele>123.255</ele>
        <time>2018-12-08T12:19:36Z</time>
      </trkpt>
      <trkpt lat="48.71603" lon="2.49051">
        <ele>122.918</ele>
        <time>2018-12-08T12:19:41Z</time>
      </trkpt>
      <trkpt lat="48.71599" lon="2.49052">
        <ele>122.785</ele>
        <time>2018-12-08T12:19:43Z</time>
      </trkpt>
      <trkpt lat="48.71594" lon="2.49052">
        <ele>122.518</ele>
        <time>2018-12-08T12:19:47Z</time>
      </trkpt>
      <trkpt lat="48.7159" lon="2.49047">
        <ele>122.32</ele>
        <time>2018-12-08T12:19:50Z</time>
      </trkpt>
      <trkpt lat="48.71586" lon="2.49047">
        <ele>122.06</ele>
        <time>2018-12-08T12:19:54Z</time>
      </trkpt>
      <trkpt lat="48.71583" lon="2.49046">
        <ele>121.93</ele>
        <time>2018-12-08T12:19:56Z</time>
      </trkpt>
      <trkpt lat="48.71577" lon="2.49043">
        <ele>121.666</ele>
        <time>2018-12-08T12:20:00Z</time>
      </trkpt>
      <trkpt lat="48.71573" lon="2.49039">
        <ele>121.471</ele>
        <time>2018-12-08T12:20:03Z</time>
      </trkpt>
      <trkpt lat="48.71569" lon="2.49034">
        <ele>121.216</ele>
        <time>2018-12-08T12:20:07Z</time>
      </trkpt>
      <trkpt lat="48.71567" lon="2.4903">
        <ele>121.032</ele>
        <time>2018-12-08T12:20:10Z</time>
      </trkpt>
      <trkpt lat="48.71562" lon="2.49028">
        <ele>120.737</ele>
        <time>2018-12-08T12:20:15Z</time>
      </trkpt>
      <trkpt lat="48.71558" lon="2.49024">
        <ele>120.464</ele>
        <time>2018-12-08T12:20:20Z</time>
      </trkpt>
      <trkpt lat="48.71553" lon="2.49021">
        <ele>120.26</ele>
        <time>2018-12-08T12:20:24Z</time>
      </trkpt>
      <trkpt lat="48.71551" lon="2.4902">
        <ele>120.116</ele>
        <time>2018-12-08T12:20:27Z</time>
      </trkpt>
      <trkpt lat="48.71548" lon="2.49018">
        <ele>119.969</ele>
        <time>2018-12-08T12:20:30Z</time>
      </trkpt>
      <trkpt lat="48.71543" lon="2.49016">
        <ele>119.814</ele>
        <time>2018-12-08T12:20:33Z</time>
      </trkpt>
      <trkpt lat="48.7154" lon="2.4901">
        <ele>119.653</ele>
        <time>2018-12-08T12:20:36Z</time>
      </trkpt>
      <trkpt lat="48.71538" lon="2.49008">
        <ele>119.598</ele>
        <time>2018-12-08T12:20:37Z</time>
      </trkpt>
      <trkpt lat="48.71535" lon="2.49001">
        <ele>119.385</ele>
        <time>2018-12-08T12:20:41Z</time>
      </trkpt>
      <trkpt lat="48.71529" lon="2.48997">
        <ele>119.181</ele>
        <time>2018-12-08T12:20:45Z</time>
      </trkpt>
      <trkpt lat="48.71525" lon="2.48994">
        <ele>119.032</ele>
        <time>2018-12-08T12:20:48Z</time>
      </trkpt>
      <trkpt lat="48.71522" lon="2.48992">
        <ele>118.781</ele>
        <time>2018-12-08T12:20:53Z</time>
      </trkpt>
      <trkpt lat="48.71518" lon="2.48991">
        <ele>118.519</ele>
        <time>2018-12-08T12:20:58Z</time>
      </trkpt>
      <trkpt lat="48.71513" lon="2.48988">
        <ele>118.081</ele>
        <time>2018-12-08T12:21:06Z</time>
      </trkpt>
      <trkpt lat="48.71508" lon="2.48985">
        <ele>117.906</ele>
        <time>2018-12-08T12:21:09Z</time>
      </trkpt>
      <trkpt lat="48.71504" lon="2.48982">
        <ele>117.732</ele>
        <time>2018-12-08T12:21:12Z</time>
      </trkpt>
      <trkpt lat="48.715" lon="2.48975">
        <ele>117.498</ele>
        <time>2018-12-08T12:21:16Z</time>
      </trkpt>
      <trkpt lat="48.71496" lon="2.4897">
        <ele>117.321</ele>
        <time>2018-12-08T12:21:19Z</time>
      </trkpt>
      <trkpt lat="48.71494" lon="2.48968">
        <ele>117.089</ele>
        <time>2018-12-08T12:21:23Z</time>
      </trkpt>
      <trkpt lat="48.71489" lon="2.48965">
        <ele>116.744</ele>
        <time>2018-12-08T12:21:29Z</time>
      </trkpt>
      <trkpt lat="48.71485" lon="2.48961">
        <ele>116.52</ele>
        <time>2018-12-08T12:21:33Z</time>
      </trkpt>
      <trkpt lat="48.71483" lon="2.48959">
        <ele>116.409</ele>
        <time>2018-12-08T12:21:35Z</time>
      </trkpt>
      <trkpt lat="48.7148" lon="2.48956">
        <ele>116.299</ele>
        <time>2018-12-08T12:21:37Z</time>
      </trkpt>
      <trkpt lat="48.71477" lon="2.48954">
        <ele>116.189</ele>
        <time>2018-12-08T12:21:39Z</time>
      </trkpt>
      <trkpt lat="48.71472" lon="2.48953">
        <ele>115.967</ele>
        <time>2018-12-08T12:21:43Z</time>
      </trkpt>
      <trkpt lat="48.71467" lon="2.48952">
        <ele>115.802</ele>
        <time>2018-12-08T12:21:46Z</time>
      </trkpt>
      <trkpt lat="48.71464" lon="2.48951">
        <ele>115.695</ele>
        <time>2018-12-08T12:21:48Z</time>
      </trkpt>
      <trkpt lat="48.7146" lon="2.48947">
        <ele>115.488</ele>
        <time>2018-12-08T12:21:52Z</time>
      </trkpt>
      <trkpt lat="48.71455" lon="2.48944">
        <ele>115.336</ele>
        <time>2018-12-08T12:21:55Z</time>
      </trkpt>
      <trkpt lat="48.71451" lon="2.48942">
        <ele>115.141</ele>
        <time>2018-12-08T12:21:59Z</time>
      </trkpt>
      <trkpt lat="48.71448" lon="2.4894">
        <ele>115.045</ele>
        <time>2018-12-08T12:22:01Z</time>
      </trkpt>
      <trkpt lat="48.71443" lon="2.48938">
        <ele>114.855</ele>
        <time>2018-12-08T12:22:05Z</time>
      </trkpt>
      <trkpt lat="48.71438" lon="2.48935">
        <ele>114.667</ele>
        <time>2018-12-08T12:22:09Z</time>
      </trkpt>
      <trkpt lat="48.71435" lon="2.48934">
        <ele>114.575</ele>
        <time>2018-12-08T12:22:11Z</time>
      </trkpt>
      <trkpt lat="48.7143" lon="2.48932">
        <ele>114.39</ele>
        <time>2018-12-08T12:22:15Z</time>
      </trkpt>
      <trkpt lat="48.71425" lon="2.4893">
        <ele>114.207</ele>
        <time>2018-12-08T12:22:19Z</time>
      </trkpt>
      <trkpt lat="48.71422" lon="2.48928">
        <ele>114.068</ele>
        <time>2018-12-08T12:22:22Z</time>
      </trkpt>
      <trkpt lat="48.71417" lon="2.48926">
        <ele>113.929</ele>
        <time>2018-12-08T12:22:25Z</time>
      </trkpt>
      <trkpt lat="48.71412" lon="2.48924">
        <ele>113.793</ele>
        <time>2018-12-08T12:22:28Z</time>
      </trkpt>
      <trkpt lat="48.71409" lon="2.48921">
        <ele>113.659</ele>
        <time>2018-12-08T12:22:31Z</time>
      </trkpt>
      <trkpt lat="48.71404" lon="2.48917">
        <ele>113.526</ele>
        <time>2018-12-08T12:22:34Z</time>
      </trkpt>
      <trkpt lat="48.71399" lon="2.48922">
        <ele>113.345</ele>
        <time>2018-12-08T12:22:38Z</time>
      </trkpt>
      <trkpt lat="48.71394" lon="2.48921">
        <ele>113.157</ele>
        <time>2018-12-08T12:22:42Z</time>
      </trkpt>
      <trkpt lat="48.71389" lon="2.48916">
        <ele>112.967</ele>
        <time>2018-12-08T12:22:46Z</time>
      </trkpt>
      <trkpt lat="48.71384" lon="2.48913">
        <ele>112.825</ele>
        <time>2018-12-08T12:22:49Z</time>
      </trkpt>
      <trkpt lat="48.7138" lon="2.48907">
        <ele>112.685</ele>
        <time>2018-12-08T12:22:52Z</time>
      </trkpt>
      <trkpt lat="48.71378" lon="2.48905">
        <ele>112.593</ele>
        <time>2018-12-08T12:22:54Z</time>
      </trkpt>
      <trkpt lat="48.71373" lon="2.48902">
        <ele>112.414</ele>
        <time>2018-12-08T12:22:58Z</time>
      </trkpt>
      <trkpt lat="48.71367" lon="2.489">
        <ele>112.24</ele>
        <time>2018-12-08T12:23:02Z</time>
      </trkpt>
      <trkpt lat="48.71361" lon="2.48893">
        <ele>112.072</ele>
        <time>2018-12-08T12:23:06Z</time>
      </trkpt>
      <trkpt lat="48.71357" lon="2.4889">
        <ele>111.913</ele>
        <time>2018-12-08T12:23:10Z</time>
      </trkpt>
      <trkpt lat="48.71352" lon="2.48886">
        <ele>111.76</ele>
        <time>2018-12-08T12:23:14Z</time>
      </trkpt>
      <trkpt lat="48.71347" lon="2.48884">
        <ele>111.577</ele>
        <time>2018-12-08T12:23:19Z</time>
      </trkpt>
      <trkpt lat="48.71343" lon="2.48881">
        <ele>111.434</ele>
        <time>2018-12-08T12:23:23Z</time>
      </trkpt>
      <trkpt lat="48.71339" lon="2.48876">
        <ele>111.297</ele>
        <time>2018-12-08T12:23:27Z</time>
      </trkpt>
      <trkpt lat="48.71333" lon="2.48867">
        <ele>111.131</ele>
        <time>2018-12-08T12:23:32Z</time>
      </trkpt>
      <trkpt lat="48.71329" lon="2.48862">
        <ele>111.035</ele>
        <time>2018-12-08T12:23:35Z</time>
      </trkpt>
      <trkpt lat="48.71324" lon="2.48858">
        <ele>110.907</ele>
        <time>2018-12-08T12:23:39Z</time>
      </trkpt>
      <trkpt lat="48.71322" lon="2.48855">
        <ele>110.844</ele>
        <time>2018-12-08T12:23:41Z</time>
      </trkpt>
      <trkpt lat="48.71319" lon="2.4885">
        <ele>110.723</ele>
        <time>2018-12-08T12:23:45Z</time>
      </trkpt>
      <trkpt lat="48.71315" lon="2.48844">
        <ele>110.578</ele>
        <time>2018-12-08T12:23:50Z</time>
      </trkpt>
      <trkpt lat="48.71312" lon="2.48837">
        <ele>110.467</ele>
        <time>2018-12-08T12:23:54Z</time>
      </trkpt>
      <trkpt lat="48.71311" lon="2.48833">
        <ele>110.386</ele>
        <time>2018-12-08T12:23:57Z</time>
      </trkpt>
      <trkpt lat="48.7131" lon="2.48828">
        <ele>110.307</ele>
        <time>2018-12-08T12:24:00Z</time>
      </trkpt>
      <trkpt lat="48.71309" lon="2.48824">
        <ele>110.227</ele>
        <time>2018-12-08T12:24:03Z</time>
      </trkpt>
      <trkpt lat="48.71307" lon="2.48819">
        <ele>110.122</ele>
        <time>2018-12-08T12:24:07Z</time>
      </trkpt>
      <trkpt lat="48.71306" lon="2.48811">
        <ele>110.021</ele>
        <time>2018-12-08T12:24:11Z</time>
      </trkpt>
      <trkpt lat="48.71305" lon="2.48807">
        <ele>109.972</ele>
        <time>2018-12-08T12:24:13Z</time>
      </trkpt>
      <trkpt lat="48.71304" lon="2.48802">
        <ele>109.924</ele>
        <time>2018-12-08T12:24:15Z</time>
      </trkpt>
      <trkpt lat="48.71303" lon="2.48795">
        <ele>109.854</ele>
        <time>2018-12-08T12:24:18Z</time>
      </trkpt>
      <trkpt lat="48.71302" lon="2.48788">
        <ele>109.761</ele>
        <time>2018-12-08T12:24:22Z</time>
      </trkpt>
      <trkpt lat="48.71302" lon="2.48779">
        <ele>109.649</ele>
        <time>2018-12-08T12:24:27Z</time>
      </trkpt>
      <trkpt lat="48.71302" lon="2.48775">
        <ele>109.604</ele>
        <time>2018-12-08T12:24:29Z</time>
      </trkpt>
      <trkpt lat="48.713" lon="2.48768">
        <ele>109.51</ele>
        <time>2018-12-08T12:24:33Z</time>
      </trkpt>
      <trkpt lat="48.71299" lon="2.48761">
        <ele>109.41</ele>
        <time>2018-12-08T12:24:37Z</time>
      </trkpt>
      <trkpt lat="48.71298" lon="2.48752">
        <ele>109.286</ele>
        <time>2018-12-08T12:24:42Z</time>
      </trkpt>
      <trkpt lat="48.71295" lon="2.48746">
        <ele>109.219</ele>
        <time>2018-12-08T12:24:45Z</time>
      </trkpt>
      <trkpt lat="48.71289" lon="2.48744">
        <ele>109.157</ele>
        <time>2018-12-08T12:24:48Z</time>
      </trkpt>
      <trkpt lat="48.71283" lon="2.48744">
        <ele>109.098</ele>
        <time>2018-12-08T12:24:51Z</time>
      </trkpt>
      <trkpt lat="48.71279" lon="2.48744">
        <ele>109.061</ele>
        <time>2018-12-08T12:24:53Z</time>
      </trkpt>
      <trkpt lat="48.71275" lon="2.48744">
        <ele>109.005</ele>
        <time>2018-12-08T12:24:56Z</time>
      </trkpt>
      <trkpt lat="48.7127" lon="2.4874">
        <ele>108.931</ele>
        <time>2018-12-08T12:25:00Z</time>
      </trkpt>
      <trkpt lat="48.71265" lon="2.48736">
        <ele>108.84</ele>
        <time>2018-12-08T12:25:06Z</time>
      </trkpt>
      <trkpt lat="48.71261" lon="2.48734">
        <ele>108.771</ele>
        <time>2018-12-08T12:25:10Z</time>
      </trkpt>
      <trkpt lat="48.71256" lon="2.48733">
        <ele>108.705</ele>
        <time>2018-12-08T12:25:14Z</time>
      </trkpt>
      <trkpt lat="48.7125" lon="2.48731">
        <ele>108.64</ele>
        <time>2018-12-08T12:25:18Z</time>
      </trkpt>
      <trkpt lat="48.71245" lon="2.48732">
        <ele>108.574</ele>
        <time>2018-12-08T12:25:22Z</time>
      </trkpt>
      <trkpt lat="48.7124" lon="2.48729">
        <ele>108.511</ele>
        <time>2018-12-08T12:25:26Z</time>
      </trkpt>
      <trkpt lat="48.71235" lon="2.48726">
        <ele>108.45</ele>
        <time>2018-12-08T12:25:30Z</time>
      </trkpt>
      <trkpt lat="48.71232" lon="2.48725">
        <ele>108.42</ele>
        <time>2018-12-08T12:25:32Z</time>
      </trkpt>
      <trkpt lat="48.7123" lon="2.48723">
        <ele>108.39</ele>
        <time>2018-12-08T12:25:34Z</time>
      </trkpt>
      <trkpt lat="48.71227" lon="2.48721">
        <ele>108.347</ele>
        <time>2018-12-08T12:25:37Z</time>
      </trkpt>
      <trkpt lat="48.71225" lon="2.48719">
        <ele>108.275</ele>
        <time>2018-12-08T12:25:44Z</time>
      </trkpt>
      <trkpt lat="48.71225" lon="2.48719">
        <ele>45.8</ele>
        <time>2018-12-08T12:25:51Z</time>
      </trkpt>
      <trkpt lat="48.71225" lon="2.48719">
        <ele>45.8</ele>
        <time>2018-12-08T12:28:15Z</time>
      </trkpt>
      <trkpt lat="48.71238" lon="2.48743">
        <ele>107.464</ele>
        <time>2018-12-08T12:28:15Z</time>
      </trkpt>
      <trkpt lat="48.71238" lon="2.48743">
        <ele>107.464</ele>
        <time>2018-12-08T12:28:21Z</time>
      </trkpt>
      <trkpt lat="48.71238" lon="2.48743">
        <ele>45.9</ele>
        <time>2018-12-08T12:28:21Z</time>
      </trkpt>
      <trkpt lat="48.71238" lon="2.48743">
        <ele>45.9</ele>
        <time>2018-12-08T12:29:04Z</time>
      </trkpt>
      <trkpt lat="48.71264" lon="2.48767">
        <ele>107.132</ele>
        <time>2018-12-08T12:29:04Z</time>
      </trkpt>
      <trkpt lat="48.71264" lon="2.48767">
        <ele>107.132</ele>
        <time>2018-12-08T12:31:04Z</time>
      </trkpt>
      <trkpt lat="48.71263" lon="2.48751">
        <ele>106.412</ele>
        <time>2018-12-08T12:31:05Z</time>
      </trkpt>
      <trkpt lat="48.71273" lon="2.48752">
        <ele>106.447</ele>
        <time>2018-12-08T12:31:13Z</time>
      </trkpt>
      <trkpt lat="48.71271" lon="2.48733">
        <ele>106.511</ele>
        <time>2018-12-08T12:31:23Z</time>
      </trkpt>
      <trkpt lat="48.71264" lon="2.48734">
        <ele>106.53</ele>
        <time>2018-12-08T12:31:29Z</time>
      </trkpt>
      <trkpt lat="48.71264" lon="2.48734">
        <ele>45.2</ele>
        <time>2018-12-08T12:31:37Z</time>
      </trkpt>
      <trkpt lat="48.71264" lon="2.48734">
        <ele>45.2</ele>
        <time>2018-12-08T12:32:18Z</time>
      </trkpt>
      <trkpt lat="48.71254" lon="2.48729">
        <ele>106.259</ele>
        <time>2018-12-08T12:32:18Z</time>
      </trkpt>
      <trkpt lat="48.7125" lon="2.48725">
        <ele>106.299</ele>
        <time>2018-12-08T12:32:22Z</time>
      </trkpt>
      <trkpt lat="48.71245" lon="2.48721">
        <ele>106.339</ele>
        <time>2018-12-08T12:32:25Z</time>
      </trkpt>
      <trkpt lat="48.71241" lon="2.48719">
        <ele>106.387</ele>
        <time>2018-12-08T12:32:28Z</time>
      </trkpt>
      <trkpt lat="48.71237" lon="2.48717">
        <ele>106.421</ele>
        <time>2018-12-08T12:32:30Z</time>
      </trkpt>
      <trkpt lat="48.71235" lon="2.48716">
        <ele>106.453</ele>
        <time>2018-12-08T12:32:32Z</time>
      </trkpt>
      <trkpt lat="48.71232" lon="2.48715">
        <ele>106.499</ele>
        <time>2018-12-08T12:32:35Z</time>
      </trkpt>
      <trkpt lat="48.71232" lon="2.48715">
        <ele>106.499</ele>
        <time>2018-12-08T12:39:38Z</time>
      </trkpt>
      <trkpt lat="48.71231" lon="2.48728">
        <ele>103.657</ele>
        <time>2018-12-08T12:39:39Z</time>
      </trkpt>
      <trkpt lat="48.71237" lon="2.48732">
        <ele>103.46</ele>
        <time>2018-12-08T12:39:51Z</time>
      </trkpt>
      <trkpt lat="48.71241" lon="2.48737">
        <ele>103.357</ele>
        <time>2018-12-08T12:39:56Z</time>
      </trkpt>
      <trkpt lat="48.71245" lon="2.48741">
        <ele>103.265</ele>
        <time>2018-12-08T12:40:01Z</time>
      </trkpt>
      <trkpt lat="48.71245" lon="2.48741">
        <ele>45.7</ele>
        <time>2018-12-08T12:40:09Z</time>
      </trkpt>
      <trkpt lat="48.71245" lon="2.48741">
        <ele>45.7</ele>
        <time>2018-12-08T12:40:49Z</time>
      </trkpt>
      <trkpt lat="48.71254" lon="2.48754">
        <ele>102.943</ele>
        <time>2018-12-08T12:40:49Z</time>
      </trkpt>
      <trkpt lat="48.71258" lon="2.48759">
        <ele>102.873</ele>
        <time>2018-12-08T12:40:53Z</time>
      </trkpt>
      <trkpt lat="48.71261" lon="2.48761">
        <ele>102.804</ele>
        <time>2018-12-08T12:40:57Z</time>
      </trkpt>
      <trkpt lat="48.71263" lon="2.48764">
        <ele>102.77</ele>
        <time>2018-12-08T12:40:59Z</time>
      </trkpt>
      <trkpt lat="48.71265" lon="2.48768">
        <ele>102.736</ele>
        <time>2018-12-08T12:41:01Z</time>
      </trkpt>
      <trkpt lat="48.71268" lon="2.48771">
        <ele>102.685</ele>
        <time>2018-12-08T12:41:04Z</time>
      </trkpt>
      <trkpt lat="48.71268" lon="2.48778">
        <ele>102.587</ele>
        <time>2018-12-08T12:41:10Z</time>
      </trkpt>
      <trkpt lat="48.71268" lon="2.48782">
        <ele>102.552</ele>
        <time>2018-12-08T12:41:12Z</time>
      </trkpt>
      <trkpt lat="48.71269" lon="2.48787">
        <ele>102.516</ele>
        <time>2018-12-08T12:41:14Z</time>
      </trkpt>
      <trkpt lat="48.71269" lon="2.48795">
        <ele>102.416</ele>
        <time>2018-12-08T12:41:19Z</time>
      </trkpt>
      <trkpt lat="48.71273" lon="2.48798">
        <ele>102.318</ele>
        <time>2018-12-08T12:41:24Z</time>
      </trkpt>
      <trkpt lat="48.71278" lon="2.48801">
        <ele>102.27</ele>
        <time>2018-12-08T12:41:27Z</time>
      </trkpt>
      <trkpt lat="48.71281" lon="2.48804">
        <ele>102.213</ele>
        <time>2018-12-08T12:41:31Z</time>
      </trkpt>
      <trkpt lat="48.71284" lon="2.48806">
        <ele>102.173</ele>
        <time>2018-12-08T12:41:34Z</time>
      </trkpt>
      <trkpt lat="48.71289" lon="2.4881">
        <ele>102.127</ele>
        <time>2018-12-08T12:41:38Z</time>
      </trkpt>
      <trkpt lat="48.71292" lon="2.48812">
        <ele>102.086</ele>
        <time>2018-12-08T12:41:42Z</time>
      </trkpt>
      <trkpt lat="48.71294" lon="2.48813">
        <ele>102.066</ele>
        <time>2018-12-08T12:41:44Z</time>
      </trkpt>
      <trkpt lat="48.71297" lon="2.48816">
        <ele>102.045</ele>
        <time>2018-12-08T12:41:46Z</time>
      </trkpt>
      <trkpt lat="48.71299" lon="2.48817">
        <ele>102.023</ele>
        <time>2018-12-08T12:41:48Z</time>
      </trkpt>
      <trkpt lat="48.71302" lon="2.4882">
        <ele>101.989</ele>
        <time>2018-12-08T12:41:51Z</time>
      </trkpt>
      <trkpt lat="48.71307" lon="2.48824">
        <ele>101.926</ele>
        <time>2018-12-08T12:41:56Z</time>
      </trkpt>
      <trkpt lat="48.7131" lon="2.48831">
        <ele>101.86</ele>
        <time>2018-12-08T12:42:01Z</time>
      </trkpt>
      <trkpt lat="48.71312" lon="2.48838">
        <ele>101.806</ele>
        <time>2018-12-08T12:42:05Z</time>
      </trkpt>
      <trkpt lat="48.71313" lon="2.48845">
        <ele>101.724</ele>
        <time>2018-12-08T12:42:11Z</time>
      </trkpt>
      <trkpt lat="48.71315" lon="2.48852">
        <ele>101.673</ele>
        <time>2018-12-08T12:42:15Z</time>
      </trkpt>
      <trkpt lat="48.71319" lon="2.48857">
        <ele>101.639</ele>
        <time>2018-12-08T12:42:18Z</time>
      </trkpt>
      <trkpt lat="48.71322" lon="2.4886">
        <ele>101.617</ele>
        <time>2018-12-08T12:42:20Z</time>
      </trkpt>
      <trkpt lat="48.71327" lon="2.48863">
        <ele>101.567</ele>
        <time>2018-12-08T12:42:25Z</time>
      </trkpt>
      <trkpt lat="48.71331" lon="2.48867">
        <ele>101.539</ele>
        <time>2018-12-08T12:42:28Z</time>
      </trkpt>
      <trkpt lat="48.71336" lon="2.48869">
        <ele>101.502</ele>
        <time>2018-12-08T12:42:32Z</time>
      </trkpt>
      <trkpt lat="48.7134" lon="2.48874">
        <ele>101.462</ele>
        <time>2018-12-08T12:42:37Z</time>
      </trkpt>
      <trkpt lat="48.71343" lon="2.48876">
        <ele>101.441</ele>
        <time>2018-12-08T12:42:40Z</time>
      </trkpt>
      <trkpt lat="48.71347" lon="2.48882">
        <ele>101.416</ele>
        <time>2018-12-08T12:42:44Z</time>
      </trkpt>
      <trkpt lat="48.71349" lon="2.48884">
        <ele>101.401</ele>
        <time>2018-12-08T12:42:46Z</time>
      </trkpt>
      <trkpt lat="48.7135" lon="2.48886">
        <ele>101.384</ele>
        <time>2018-12-08T12:42:48Z</time>
      </trkpt>
      <trkpt lat="48.71353" lon="2.4889">
        <ele>101.343</ele>
        <time>2018-12-08T12:42:52Z</time>
      </trkpt>
      <trkpt lat="48.71357" lon="2.48897">
        <ele>101.28</ele>
        <time>2018-12-08T12:42:57Z</time>
      </trkpt>
      <trkpt lat="48.71362" lon="2.48901">
        <ele>101.228</ele>
        <time>2018-12-08T12:43:01Z</time>
      </trkpt>
      <trkpt lat="48.71367" lon="2.48906">
        <ele>101.181</ele>
        <time>2018-12-08T12:43:05Z</time>
      </trkpt>
      <trkpt lat="48.71373" lon="2.48911">
        <ele>101.135</ele>
        <time>2018-12-08T12:43:09Z</time>
      </trkpt>
      <trkpt lat="48.71376" lon="2.48917">
        <ele>101.101</ele>
        <time>2018-12-08T12:43:12Z</time>
      </trkpt>
      <trkpt lat="48.7138" lon="2.48922">
        <ele>101.068</ele>
        <time>2018-12-08T12:43:15Z</time>
      </trkpt>
      <trkpt lat="48.71383" lon="2.48926">
        <ele>101.023</ele>
        <time>2018-12-08T12:43:19Z</time>
      </trkpt>
      <trkpt lat="48.71388" lon="2.48929">
        <ele>100.969</ele>
        <time>2018-12-08T12:43:24Z</time>
      </trkpt>
      <trkpt lat="48.71393" lon="2.48929">
        <ele>100.926</ele>
        <time>2018-12-08T12:43:28Z</time>
      </trkpt>
      <trkpt lat="48.71398" lon="2.48929">
        <ele>100.879</ele>
        <time>2018-12-08T12:43:33Z</time>
      </trkpt>
      <trkpt lat="48.714" lon="2.4893">
        <ele>100.862</ele>
        <time>2018-12-08T12:43:35Z</time>
      </trkpt>
      <trkpt lat="48.71405" lon="2.48932">
        <ele>100.828</ele>
        <time>2018-12-08T12:43:39Z</time>
      </trkpt>
      <trkpt lat="48.7141" lon="2.48936">
        <ele>100.797</ele>
        <time>2018-12-08T12:43:43Z</time>
      </trkpt>
      <trkpt lat="48.71412" lon="2.48939">
        <ele>100.767</ele>
        <time>2018-12-08T12:43:47Z</time>
      </trkpt>
      <trkpt lat="48.71416" lon="2.48942">
        <ele>100.724</ele>
        <time>2018-12-08T12:43:52Z</time>
      </trkpt>
      <trkpt lat="48.71423" lon="2.48943">
        <ele>100.68</ele>
        <time>2018-12-08T12:43:56Z</time>
      </trkpt>
      <trkpt lat="48.71426" lon="2.48944">
        <ele>100.658</ele>
        <time>2018-12-08T12:43:58Z</time>
      </trkpt>
      <trkpt lat="48.7143" lon="2.48947">
        <ele>100.614</ele>
        <time>2018-12-08T12:44:02Z</time>
      </trkpt>
      <trkpt lat="48.71435" lon="2.48948">
        <ele>100.578</ele>
        <time>2018-12-08T12:44:05Z</time>
      </trkpt>
      <trkpt lat="48.71437" lon="2.48949">
        <ele>100.554</ele>
        <time>2018-12-08T12:44:07Z</time>
      </trkpt>
      <trkpt lat="48.71442" lon="2.48951">
        <ele>100.507</ele>
        <time>2018-12-08T12:44:11Z</time>
      </trkpt>
      <trkpt lat="48.71445" lon="2.48953">
        <ele>100.46</ele>
        <time>2018-12-08T12:44:15Z</time>
      </trkpt>
      <trkpt lat="48.71448" lon="2.48954">
        <ele>100.436</ele>
        <time>2018-12-08T12:44:17Z</time>
      </trkpt>
      <trkpt lat="48.71453" lon="2.48954">
        <ele>100.4</ele>
        <time>2018-12-08T12:44:20Z</time>
      </trkpt>
      <trkpt lat="48.71458" lon="2.48956">
        <ele>100.353</ele>
        <time>2018-12-08T12:44:24Z</time>
      </trkpt>
      <trkpt lat="48.71462" lon="2.48958">
        <ele>100.308</ele>
        <time>2018-12-08T12:44:28Z</time>
      </trkpt>
      <trkpt lat="48.71464" lon="2.48959">
        <ele>100.275</ele>
        <time>2018-12-08T12:44:31Z</time>
      </trkpt>
      <trkpt lat="48.71467" lon="2.48961">
        <ele>100.253</ele>
        <time>2018-12-08T12:44:33Z</time>
      </trkpt>
      <trkpt lat="48.7147" lon="2.48963">
        <ele>100.233</ele>
        <time>2018-12-08T12:44:35Z</time>
      </trkpt>
      <trkpt lat="48.71474" lon="2.48966">
        <ele>100.175</ele>
        <time>2018-12-08T12:44:41Z</time>
      </trkpt>
      <trkpt lat="48.71478" lon="2.48956">
        <ele>100.122</ele>
        <time>2018-12-08T12:44:47Z</time>
      </trkpt>
      <trkpt lat="48.71478" lon="2.48948">
        <ele>100.059</ele>
        <time>2018-12-08T12:44:52Z</time>
      </trkpt>
      <trkpt lat="48.71474" lon="2.48943">
        <ele>99.9758</ele>
        <time>2018-12-08T12:44:58Z</time>
      </trkpt>
      <trkpt lat="48.71472" lon="2.48939">
        <ele>99.9336</ele>
        <time>2018-12-08T12:45:01Z</time>
      </trkpt>
      <trkpt lat="48.71468" lon="2.48936">
        <ele>99.8794</ele>
        <time>2018-12-08T12:45:05Z</time>
      </trkpt>
      <trkpt lat="48.71464" lon="2.48929">
        <ele>99.8162</ele>
        <time>2018-12-08T12:45:10Z</time>
      </trkpt>
      <trkpt lat="48.71459" lon="2.4893">
        <ele>99.7479</ele>
        <time>2018-12-08T12:45:16Z</time>
      </trkpt>
      <trkpt lat="48.71455" lon="2.48934">
        <ele>99.7026</ele>
        <time>2018-12-08T12:45:20Z</time>
      </trkpt>
      <trkpt lat="48.71444" lon="2.48943">
        <ele>99.4341</ele>
        <time>2018-12-08T12:45:33Z</time>
      </trkpt>
      <trkpt lat="48.71446" lon="2.48957">
        <ele>99.4225</ele>
        <time>2018-12-08T12:45:35Z</time>
      </trkpt>
      <trkpt lat="48.7145" lon="2.48964">
        <ele>99.4102</ele>
        <time>2018-12-08T12:45:37Z</time>
      </trkpt>
      <trkpt lat="48.71451" lon="2.48968">
        <ele>99.4037</ele>
        <time>2018-12-08T12:45:38Z</time>
      </trkpt>
      <trkpt lat="48.71451" lon="2.48975">
        <ele>99.3891</ele>
        <time>2018-12-08T12:45:40Z</time>
      </trkpt>
      <trkpt lat="48.71451" lon="2.48978">
        <ele>99.3723</ele>
        <time>2018-12-08T12:45:42Z</time>
      </trkpt>
      <trkpt lat="48.71451" lon="2.48985">
        <ele>99.3426</ele>
        <time>2018-12-08T12:45:45Z</time>
      </trkpt>
      <trkpt lat="48.71451" lon="2.48985">
        <ele>35.8</ele>
        <time>2018-12-08T12:45:50Z</time>
      </trkpt>
      <trkpt lat="48.71451" lon="2.48985">
        <ele>35.8</ele>
        <time>2018-12-08T12:45:54Z</time>
      </trkpt>
      <trkpt lat="48.71452" lon="2.48996">
        <ele>99.2419</ele>
        <time>2018-12-08T12:45:54Z</time>
      </trkpt>
      <trkpt lat="48.71453" lon="2.49">
        <ele>99.2212</ele>
        <time>2018-12-08T12:45:56Z</time>
      </trkpt>
      <trkpt lat="48.71454" lon="2.4901">
        <ele>99.1906</ele>
        <time>2018-12-08T12:45:59Z</time>
      </trkpt>
      <trkpt lat="48.71453" lon="2.49017">
        <ele>99.1396</ele>
        <time>2018-12-08T12:46:05Z</time>
      </trkpt>
      <trkpt lat="48.71453" lon="2.49017">
        <ele>35.8</ele>
        <time>2018-12-08T12:46:12Z</time>
      </trkpt>
      <trkpt lat="48.71453" lon="2.49017">
        <ele>35.8</ele>
        <time>2018-12-08T12:46:52Z</time>
      </trkpt>
      <trkpt lat="48.71439" lon="2.49062">
        <ele>98.7667</ele>
        <time>2018-12-08T12:46:52Z</time>
      </trkpt>
      <trkpt lat="48.71436" lon="2.49068">
        <ele>98.7353</ele>
        <time>2018-12-08T12:46:55Z</time>
      </trkpt>
      <trkpt lat="48.71434" lon="2.49077">
        <ele>98.7152</ele>
        <time>2018-12-08T12:46:57Z</time>
      </trkpt>
      <trkpt lat="48.71431" lon="2.49082">
        <ele>98.685</ele>
        <time>2018-12-08T12:47:01Z</time>
      </trkpt>
      <trkpt lat="48.71429" lon="2.4909">
        <ele>98.6291</ele>
        <time>2018-12-08T12:47:07Z</time>
      </trkpt>
      <trkpt lat="48.71428" lon="2.49095">
        <ele>98.6024</ele>
        <time>2018-12-08T12:47:10Z</time>
      </trkpt>
      <trkpt lat="48.71427" lon="2.49099">
        <ele>98.5857</ele>
        <time>2018-12-08T12:47:12Z</time>
      </trkpt>
      <trkpt lat="48.71426" lon="2.49103">
        <ele>98.5696</ele>
        <time>2018-12-08T12:47:14Z</time>
      </trkpt>
      <trkpt lat="48.71423" lon="2.49109">
        <ele>98.5296</ele>
        <time>2018-12-08T12:47:19Z</time>
      </trkpt>
      <trkpt lat="48.7142" lon="2.49116">
        <ele>98.4921</ele>
        <time>2018-12-08T12:47:24Z</time>
      </trkpt>
      <trkpt lat="48.71419" lon="2.49119">
        <ele>98.4642</ele>
        <time>2018-12-08T12:47:28Z</time>
      </trkpt>
      <trkpt lat="48.71416" lon="2.49127">
        <ele>98.4353</ele>
        <time>2018-12-08T12:47:32Z</time>
      </trkpt>
      <trkpt lat="48.71412" lon="2.49132">
        <ele>98.4021</ele>
        <time>2018-12-08T12:47:36Z</time>
      </trkpt>
      <trkpt lat="48.71409" lon="2.49137">
        <ele>98.3631</ele>
        <time>2018-12-08T12:47:40Z</time>
      </trkpt>
      <trkpt lat="48.71406" lon="2.49143">
        <ele>98.3042</ele>
        <time>2018-12-08T12:47:45Z</time>
      </trkpt>
      <trkpt lat="48.71403" lon="2.4915">
        <ele>98.2415</ele>
        <time>2018-12-08T12:47:50Z</time>
      </trkpt>
      <trkpt lat="48.71401" lon="2.49153">
        <ele>98.2039</ele>
        <time>2018-12-08T12:47:53Z</time>
      </trkpt>
      <trkpt lat="48.71396" lon="2.49159">
        <ele>98.1225</ele>
        <time>2018-12-08T12:47:59Z</time>
      </trkpt>
      <trkpt lat="48.71392" lon="2.4917">
        <ele>98.0561</ele>
        <time>2018-12-08T12:48:04Z</time>
      </trkpt>
      <trkpt lat="48.71388" lon="2.49173">
        <ele>98.0156</ele>
        <time>2018-12-08T12:48:07Z</time>
      </trkpt>
      <trkpt lat="48.71385" lon="2.4918">
        <ele>97.9508</ele>
        <time>2018-12-08T12:48:12Z</time>
      </trkpt>
      <trkpt lat="48.71384" lon="2.49188">
        <ele>97.9108</ele>
        <time>2018-12-08T12:48:15Z</time>
      </trkpt>
      <trkpt lat="48.71383" lon="2.49193">
        <ele>97.8811</ele>
        <time>2018-12-08T12:48:17Z</time>
      </trkpt>
      <trkpt lat="48.71382" lon="2.49197">
        <ele>97.849</ele>
        <time>2018-12-08T12:48:19Z</time>
      </trkpt>
      <trkpt lat="48.71382" lon="2.49205">
        <ele>97.7638</ele>
        <time>2018-12-08T12:48:24Z</time>
      </trkpt>
      <trkpt lat="48.71381" lon="2.49212">
        <ele>97.7083</ele>
        <time>2018-12-08T12:48:29Z</time>
      </trkpt>
      <trkpt lat="48.71379" lon="2.49219">
        <ele>97.6467</ele>
        <time>2018-12-08T12:48:33Z</time>
      </trkpt>
      <trkpt lat="48.71379" lon="2.49226">
        <ele>97.5854</ele>
        <time>2018-12-08T12:48:36Z</time>
      </trkpt>
      <trkpt lat="48.71379" lon="2.4923">
        <ele>97.543</ele>
        <time>2018-12-08T12:48:38Z</time>
      </trkpt>
      <trkpt lat="48.71378" lon="2.49238">
        <ele>97.4576</ele>
        <time>2018-12-08T12:48:42Z</time>
      </trkpt>
      <trkpt lat="48.71379" lon="2.49246">
        <ele>97.3694</ele>
        <time>2018-12-08T12:48:46Z</time>
      </trkpt>
      <trkpt lat="48.71379" lon="2.49254">
        <ele>97.3001</ele>
        <time>2018-12-08T12:48:49Z</time>
      </trkpt>
      <trkpt lat="48.71379" lon="2.49259">
        <ele>97.2514</ele>
        <time>2018-12-08T12:48:51Z</time>
      </trkpt>
      <trkpt lat="48.71379" lon="2.49266">
        <ele>97.1468</ele>
        <time>2018-12-08T12:48:55Z</time>
      </trkpt>
      <trkpt lat="48.71379" lon="2.49271">
        <ele>97.0439</ele>
        <time>2018-12-08T12:48:59Z</time>
      </trkpt>
      <trkpt lat="48.71379" lon="2.49276">
        <ele>96.9708</ele>
        <time>2018-12-08T12:49:02Z</time>
      </trkpt>
      <trkpt lat="48.71374" lon="2.49281">
        <ele>96.8324</ele>
        <time>2018-12-08T12:49:08Z</time>
      </trkpt>
      <trkpt lat="48.7137" lon="2.49285">
        <ele>96.723</ele>
        <time>2018-12-08T12:49:13Z</time>
      </trkpt>
      <trkpt lat="48.71367" lon="2.49287">
        <ele>96.6567</ele>
        <time>2018-12-08T12:49:16Z</time>
      </trkpt>
      <trkpt lat="48.71363" lon="2.49293">
        <ele>96.5667</ele>
        <time>2018-12-08T12:49:20Z</time>
      </trkpt>
      <trkpt lat="48.71361" lon="2.49297">
        <ele>96.5204</ele>
        <time>2018-12-08T12:49:22Z</time>
      </trkpt>
      <trkpt lat="48.71356" lon="2.49301">
        <ele>96.426</ele>
        <time>2018-12-08T12:49:26Z</time>
      </trkpt>
      <trkpt lat="48.71352" lon="2.49304">
        <ele>96.3542</ele>
        <time>2018-12-08T12:49:29Z</time>
      </trkpt>
      <trkpt lat="48.7135" lon="2.49306">
        <ele>96.2601</ele>
        <time>2018-12-08T12:49:33Z</time>
      </trkpt>
      <trkpt lat="48.71345" lon="2.49307">
        <ele>96.1453</ele>
        <time>2018-12-08T12:49:38Z</time>
      </trkpt>
      <trkpt lat="48.71341" lon="2.49302">
        <ele>95.9826</ele>
        <time>2018-12-08T12:49:45Z</time>
      </trkpt>
      <trkpt lat="48.71337" lon="2.49296">
        <ele>95.8247</ele>
        <time>2018-12-08T12:49:52Z</time>
      </trkpt>
      <trkpt lat="48.71331" lon="2.49295">
        <ele>95.7213</ele>
        <time>2018-12-08T12:49:57Z</time>
      </trkpt>
      <trkpt lat="48.71327" lon="2.49296">
        <ele>95.6623</ele>
        <time>2018-12-08T12:50:00Z</time>
      </trkpt>
      <trkpt lat="48.71322" lon="2.49298">
        <ele>95.6046</ele>
        <time>2018-12-08T12:50:03Z</time>
      </trkpt>
      <trkpt lat="48.7132" lon="2.49299">
        <ele>95.5297</ele>
        <time>2018-12-08T12:50:07Z</time>
      </trkpt>
      <trkpt lat="48.71315" lon="2.49303">
        <ele>95.4417</ele>
        <time>2018-12-08T12:50:12Z</time>
      </trkpt>
      <trkpt lat="48.71311" lon="2.49305">
        <ele>95.3935</ele>
        <time>2018-12-08T12:50:15Z</time>
      </trkpt>
      <trkpt lat="48.71306" lon="2.49307">
        <ele>95.3505</ele>
        <time>2018-12-08T12:50:18Z</time>
      </trkpt>
      <trkpt lat="48.71304" lon="2.49309">
        <ele>95.3221</ele>
        <time>2018-12-08T12:50:20Z</time>
      </trkpt>
      <trkpt lat="48.71299" lon="2.4931">
        <ele>95.2668</ele>
        <time>2018-12-08T12:50:24Z</time>
      </trkpt>
      <trkpt lat="48.71294" lon="2.49313">
        <ele>95.2114</ele>
        <time>2018-12-08T12:50:28Z</time>
      </trkpt>
      <trkpt lat="48.71292" lon="2.49315">
        <ele>95.1836</ele>
        <time>2018-12-08T12:50:30Z</time>
      </trkpt>
      <trkpt lat="48.7129" lon="2.4932">
        <ele>95.1279</ele>
        <time>2018-12-08T12:50:34Z</time>
      </trkpt>
      <trkpt lat="48.71288" lon="2.49324">
        <ele>95.086</ele>
        <time>2018-12-08T12:50:37Z</time>
      </trkpt>
      <trkpt lat="48.71287" lon="2.49327">
        <ele>95.0724</ele>
        <time>2018-12-08T12:50:38Z</time>
      </trkpt>
      <trkpt lat="48.71285" lon="2.49331">
        <ele>95.046</ele>
        <time>2018-12-08T12:50:40Z</time>
      </trkpt>
      <trkpt lat="48.71283" lon="2.49335">
        <ele>95.0208</ele>
        <time>2018-12-08T12:50:42Z</time>
      </trkpt>
      <trkpt lat="48.71281" lon="2.4934">
        <ele>94.9846</ele>
        <time>2018-12-08T12:50:45Z</time>
      </trkpt>
      <trkpt lat="48.71281" lon="2.49346">
        <ele>94.9115</ele>
        <time>2018-12-08T12:50:51Z</time>
      </trkpt>
      <trkpt lat="48.71281" lon="2.49351">
        <ele>94.8655</ele>
        <time>2018-12-08T12:50:55Z</time>
      </trkpt>
      <trkpt lat="48.71277" lon="2.49356">
        <ele>94.6402</ele>
        <time>2018-12-08T12:51:21Z</time>
      </trkpt>
      <trkpt lat="48.71275" lon="2.49364">
        <ele>94.5237</ele>
        <time>2018-12-08T12:51:26Z</time>
      </trkpt>
      <trkpt lat="48.7127" lon="2.49369">
        <ele>94.4217</ele>
        <time>2018-12-08T12:51:30Z</time>
      </trkpt>
      <trkpt lat="48.71268" lon="2.49371">
        <ele>94.3695</ele>
        <time>2018-12-08T12:51:32Z</time>
      </trkpt>
      <trkpt lat="48.71264" lon="2.49374">
        <ele>94.3161</ele>
        <time>2018-12-08T12:51:34Z</time>
      </trkpt>
      <trkpt lat="48.71261" lon="2.49376">
        <ele>94.2632</ele>
        <time>2018-12-08T12:51:36Z</time>
      </trkpt>
      <trkpt lat="48.71258" lon="2.49379">
        <ele>94.2104</ele>
        <time>2018-12-08T12:51:38Z</time>
      </trkpt>
      <trkpt lat="48.71256" lon="2.4938">
        <ele>94.1578</ele>
        <time>2018-12-08T12:51:40Z</time>
      </trkpt>
      <trkpt lat="48.71256" lon="2.4938">
        <ele>35.8</ele>
        <time>2018-12-08T12:51:47Z</time>
      </trkpt>
      <trkpt lat="48.71256" lon="2.4938">
        <ele>35.8</ele>
        <time>2018-12-08T12:53:39Z</time>
      </trkpt>
      <trkpt lat="48.7124" lon="2.49381">
        <ele>93.3315</ele>
        <time>2018-12-08T12:53:39Z</time>
      </trkpt>
      <trkpt lat="48.71235" lon="2.49386">
        <ele>93.3023</ele>
        <time>2018-12-08T12:53:42Z</time>
      </trkpt>
      <trkpt lat="48.71233" lon="2.49388">
        <ele>93.2668</ele>
        <time>2018-12-08T12:53:46Z</time>
      </trkpt>
      <trkpt lat="48.71228" lon="2.4939">
        <ele>93.2228</ele>
        <time>2018-12-08T12:53:51Z</time>
      </trkpt>
      <trkpt lat="48.71224" lon="2.49391">
        <ele>93.1964</ele>
        <time>2018-12-08T12:53:54Z</time>
      </trkpt>
      <trkpt lat="48.71221" lon="2.49393">
        <ele>93.1695</ele>
        <time>2018-12-08T12:53:57Z</time>
      </trkpt>
      <trkpt lat="48.71216" lon="2.49396">
        <ele>93.1331</ele>
        <time>2018-12-08T12:54:01Z</time>
      </trkpt>
      <trkpt lat="48.71212" lon="2.49399">
        <ele>93.0778</ele>
        <time>2018-12-08T12:54:06Z</time>
      </trkpt>
      <trkpt lat="48.71207" lon="2.49402">
        <ele>93.0312</ele>
        <time>2018-12-08T12:54:10Z</time>
      </trkpt>
      <trkpt lat="48.71203" lon="2.49407">
        <ele>92.9952</ele>
        <time>2018-12-08T12:54:13Z</time>
      </trkpt>
      <trkpt lat="48.712" lon="2.4941">
        <ele>92.9717</ele>
        <time>2018-12-08T12:54:15Z</time>
      </trkpt>
      <trkpt lat="48.71195" lon="2.49415">
        <ele>92.9117</ele>
        <time>2018-12-08T12:54:20Z</time>
      </trkpt>
      <trkpt lat="48.71191" lon="2.49419">
        <ele>92.8773</ele>
        <time>2018-12-08T12:54:23Z</time>
      </trkpt>
      <trkpt lat="48.71187" lon="2.49423">
        <ele>92.8471</ele>
        <time>2018-12-08T12:54:26Z</time>
      </trkpt>
      <trkpt lat="48.71183" lon="2.49426">
        <ele>92.8156</ele>
        <time>2018-12-08T12:54:30Z</time>
      </trkpt>
      <trkpt lat="48.71181" lon="2.49428">
        <ele>92.8044</ele>
        <time>2018-12-08T12:54:32Z</time>
      </trkpt>
      <trkpt lat="48.71175" lon="2.49432">
        <ele>92.7805</ele>
        <time>2018-12-08T12:54:37Z</time>
      </trkpt>
      <trkpt lat="48.71171" lon="2.49435">
        <ele>92.7634</ele>
        <time>2018-12-08T12:54:42Z</time>
      </trkpt>
      <trkpt lat="48.71169" lon="2.49437">
        <ele>92.7567</ele>
        <time>2018-12-08T12:54:44Z</time>
      </trkpt>
      <trkpt lat="48.71166" lon="2.49439">
        <ele>92.7493</ele>
        <time>2018-12-08T12:54:46Z</time>
      </trkpt>
      <trkpt lat="48.71164" lon="2.49442">
        <ele>92.7414</ele>
        <time>2018-12-08T12:54:48Z</time>
      </trkpt>
      <trkpt lat="48.71161" lon="2.49444">
        <ele>92.7318</ele>
        <time>2018-12-08T12:54:50Z</time>
      </trkpt>
      <trkpt lat="48.71158" lon="2.49447">
        <ele>92.72</ele>
        <time>2018-12-08T12:54:52Z</time>
      </trkpt>
      <trkpt lat="48.71156" lon="2.4945">
        <ele>92.7065</ele>
        <time>2018-12-08T12:54:54Z</time>
      </trkpt>
      <trkpt lat="48.71152" lon="2.49456">
        <ele>92.6752</ele>
        <time>2018-12-08T12:54:58Z</time>
      </trkpt>
      <trkpt lat="48.7115" lon="2.49461">
        <ele>92.6397</ele>
        <time>2018-12-08T12:55:02Z</time>
      </trkpt>
      <trkpt lat="48.71146" lon="2.49467">
        <ele>92.5789</ele>
        <time>2018-12-08T12:55:08Z</time>
      </trkpt>
      <trkpt lat="48.71142" lon="2.4947">
        <ele>92.5465</ele>
        <time>2018-12-08T12:55:11Z</time>
      </trkpt>
      <trkpt lat="48.71137" lon="2.49475">
        <ele>92.506</ele>
        <time>2018-12-08T12:55:15Z</time>
      </trkpt>
      <trkpt lat="48.71135" lon="2.49478">
        <ele>92.4888</ele>
        <time>2018-12-08T12:55:17Z</time>
      </trkpt>
      <trkpt lat="48.71133" lon="2.49479">
        <ele>92.473</ele>
        <time>2018-12-08T12:55:19Z</time>
      </trkpt>
      <trkpt lat="48.7113" lon="2.49482">
        <ele>92.4478</ele>
        <time>2018-12-08T12:55:22Z</time>
      </trkpt>
      <trkpt lat="48.71124" lon="2.49484">
        <ele>92.4132</ele>
        <time>2018-12-08T12:55:26Z</time>
      </trkpt>
      <trkpt lat="48.71119" lon="2.49489">
        <ele>92.3795</ele>
        <time>2018-12-08T12:55:30Z</time>
      </trkpt>
      <trkpt lat="48.71114" lon="2.49491">
        <ele>92.3444</ele>
        <time>2018-12-08T12:55:34Z</time>
      </trkpt>
      <trkpt lat="48.71112" lon="2.49492">
        <ele>92.3257</ele>
        <time>2018-12-08T12:55:36Z</time>
      </trkpt>
      <trkpt lat="48.71109" lon="2.49493">
        <ele>92.2965</ele>
        <time>2018-12-08T12:55:39Z</time>
      </trkpt>
      <trkpt lat="48.71106" lon="2.49494">
        <ele>92.276</ele>
        <time>2018-12-08T12:55:41Z</time>
      </trkpt>
      <trkpt lat="48.711" lon="2.49495">
        <ele>92.232</ele>
        <time>2018-12-08T12:55:45Z</time>
      </trkpt>
      <trkpt lat="48.71094" lon="2.49498">
        <ele>92.1867</ele>
        <time>2018-12-08T12:55:49Z</time>
      </trkpt>
      <trkpt lat="48.7109" lon="2.49501">
        <ele>92.1519</ele>
        <time>2018-12-08T12:55:52Z</time>
      </trkpt>
      <trkpt lat="48.71085" lon="2.49504">
        <ele>92.1037</ele>
        <time>2018-12-08T12:55:56Z</time>
      </trkpt>
      <trkpt lat="48.7108" lon="2.49505">
        <ele>92.0551</ele>
        <time>2018-12-08T12:56:00Z</time>
      </trkpt>
      <trkpt lat="48.71078" lon="2.49506">
        <ele>92.0296</ele>
        <time>2018-12-08T12:56:02Z</time>
      </trkpt>
      <trkpt lat="48.71073" lon="2.49507">
        <ele>91.9888</ele>
        <time>2018-12-08T12:56:05Z</time>
      </trkpt>
      <trkpt lat="48.71068" lon="2.49506">
        <ele>91.9471</ele>
        <time>2018-12-08T12:56:08Z</time>
      </trkpt>
      <trkpt lat="48.71064" lon="2.49506">
        <ele>91.9203</ele>
        <time>2018-12-08T12:56:10Z</time>
      </trkpt>
      <trkpt lat="48.71059" lon="2.49509">
        <ele>91.8665</ele>
        <time>2018-12-08T12:56:14Z</time>
      </trkpt>
      <trkpt lat="48.71054" lon="2.49514">
        <ele>91.8084</ele>
        <time>2018-12-08T12:56:18Z</time>
      </trkpt>
      <trkpt lat="48.7105" lon="2.4952">
        <ele>91.7599</ele>
        <time>2018-12-08T12:56:21Z</time>
      </trkpt>
      <trkpt lat="48.71048" lon="2.49523">
        <ele>91.7244</ele>
        <time>2018-12-08T12:56:23Z</time>
      </trkpt>
      <trkpt lat="48.71044" lon="2.49527">
        <ele>91.6687</ele>
        <time>2018-12-08T12:56:26Z</time>
      </trkpt>
      <trkpt lat="48.7104" lon="2.4953">
        <ele>91.5923</ele>
        <time>2018-12-08T12:56:30Z</time>
      </trkpt>
      <trkpt lat="48.71037" lon="2.49535">
        <ele>91.4959</ele>
        <time>2018-12-08T12:56:35Z</time>
      </trkpt>
      <trkpt lat="48.71033" lon="2.49542">
        <ele>91.4382</ele>
        <time>2018-12-08T12:56:38Z</time>
      </trkpt>
      <trkpt lat="48.71029" lon="2.49548">
        <ele>91.3626</ele>
        <time>2018-12-08T12:56:42Z</time>
      </trkpt>
      <trkpt lat="48.71025" lon="2.49554">
        <ele>91.3098</ele>
        <time>2018-12-08T12:56:45Z</time>
      </trkpt>
      <trkpt lat="48.71021" lon="2.49563">
        <ele>91.2286</ele>
        <time>2018-12-08T12:56:50Z</time>
      </trkpt>
      <trkpt lat="48.71019" lon="2.49569">
        <ele>91.1797</ele>
        <time>2018-12-08T12:56:53Z</time>
      </trkpt>
      <trkpt lat="48.71017" lon="2.49576">
        <ele>91.1314</ele>
        <time>2018-12-08T12:56:56Z</time>
      </trkpt>
      <trkpt lat="48.71014" lon="2.49583">
        <ele>91.0693</ele>
        <time>2018-12-08T12:57:00Z</time>
      </trkpt>
      <trkpt lat="48.71012" lon="2.49588">
        <ele>91.0249</ele>
        <time>2018-12-08T12:57:03Z</time>
      </trkpt>
      <trkpt lat="48.71011" lon="2.49592">
        <ele>90.9793</ele>
        <time>2018-12-08T12:57:06Z</time>
      </trkpt>
      <trkpt lat="48.71008" lon="2.49597">
        <ele>90.9018</ele>
        <time>2018-12-08T12:57:11Z</time>
      </trkpt>
      <trkpt lat="48.71004" lon="2.49604">
        <ele>90.8393</ele>
        <time>2018-12-08T12:57:15Z</time>
      </trkpt>
      <trkpt lat="48.71001" lon="2.4961">
        <ele>90.7786</ele>
        <time>2018-12-08T12:57:19Z</time>
      </trkpt>
      <trkpt lat="48.70997" lon="2.49614">
        <ele>90.733</ele>
        <time>2018-12-08T12:57:22Z</time>
      </trkpt>
      <trkpt lat="48.70993" lon="2.49619">
        <ele>90.6754</ele>
        <time>2018-12-08T12:57:26Z</time>
      </trkpt>
      <trkpt lat="48.70988" lon="2.49623">
        <ele>90.5947</ele>
        <time>2018-12-08T12:57:32Z</time>
      </trkpt>
      <trkpt lat="48.70984" lon="2.49629">
        <ele>90.5536</ele>
        <time>2018-12-08T12:57:35Z</time>
      </trkpt>
      <trkpt lat="48.70979" lon="2.49629">
        <ele>90.4971</ele>
        <time>2018-12-08T12:57:39Z</time>
      </trkpt>
      <trkpt lat="48.70974" lon="2.49632">
        <ele>90.4188</ele>
        <time>2018-12-08T12:57:45Z</time>
      </trkpt>
      <trkpt lat="48.70968" lon="2.49635">
        <ele>90.372</ele>
        <time>2018-12-08T12:57:49Z</time>
      </trkpt>
      <trkpt lat="48.70964" lon="2.49636">
        <ele>90.3285</ele>
        <time>2018-12-08T12:57:53Z</time>
      </trkpt>
      <trkpt lat="48.7096" lon="2.49639">
        <ele>90.2751</ele>
        <time>2018-12-08T12:57:58Z</time>
      </trkpt>
      <trkpt lat="48.70957" lon="2.4964">
        <ele>90.2424</ele>
        <time>2018-12-08T12:58:01Z</time>
      </trkpt>
      <trkpt lat="48.70951" lon="2.4964">
        <ele>90.2035</ele>
        <time>2018-12-08T12:58:05Z</time>
      </trkpt>
      <trkpt lat="48.70946" lon="2.49643">
        <ele>90.1771</ele>
        <time>2018-12-08T12:58:08Z</time>
      </trkpt>
      <trkpt lat="48.70941" lon="2.49643">
        <ele>90.1523</ele>
        <time>2018-12-08T12:58:11Z</time>
      </trkpt>
      <trkpt lat="48.70936" lon="2.49643">
        <ele>90.1143</ele>
        <time>2018-12-08T12:58:16Z</time>
      </trkpt>
      <trkpt lat="48.70931" lon="2.49643">
        <ele>90.0923</ele>
        <time>2018-12-08T12:58:19Z</time>
      </trkpt>
      <trkpt lat="48.70928" lon="2.49643">
        <ele>90.0773</ele>
        <time>2018-12-08T12:58:21Z</time>
      </trkpt>
      <trkpt lat="48.70925" lon="2.49643">
        <ele>90.0631</ele>
        <time>2018-12-08T12:58:23Z</time>
      </trkpt>
      <trkpt lat="48.70919" lon="2.49643">
        <ele>90.0357</ele>
        <time>2018-12-08T12:58:27Z</time>
      </trkpt>
      <trkpt lat="48.70916" lon="2.49643">
        <ele>90.0231</ele>
        <time>2018-12-08T12:58:29Z</time>
      </trkpt>
      <trkpt lat="48.70913" lon="2.49643">
        <ele>90.0116</ele>
        <time>2018-12-08T12:58:31Z</time>
      </trkpt>
      <trkpt lat="48.7091" lon="2.49643">
        <ele>89.9952</ele>
        <time>2018-12-08T12:58:34Z</time>
      </trkpt>
      <trkpt lat="48.70908" lon="2.49642">
        <ele>89.9849</ele>
        <time>2018-12-08T12:58:36Z</time>
      </trkpt>
      <trkpt lat="48.70903" lon="2.49643">
        <ele>89.9597</ele>
        <time>2018-12-08T12:58:41Z</time>
      </trkpt>
      <trkpt lat="48.70899" lon="2.49641">
        <ele>89.9439</ele>
        <time>2018-12-08T12:58:44Z</time>
      </trkpt>
      <trkpt lat="48.70895" lon="2.49639">
        <ele>89.934</ele>
        <time>2018-12-08T12:58:46Z</time>
      </trkpt>
      <trkpt lat="48.70891" lon="2.49638">
        <ele>89.9135</ele>
        <time>2018-12-08T12:58:50Z</time>
      </trkpt>
      <trkpt lat="48.70888" lon="2.49637">
        <ele>89.9035</ele>
        <time>2018-12-08T12:58:52Z</time>
      </trkpt>
      <trkpt lat="48.70884" lon="2.49635">
        <ele>89.8868</ele>
        <time>2018-12-08T12:58:55Z</time>
      </trkpt>
      <trkpt lat="48.70878" lon="2.49634">
        <ele>89.8611</ele>
        <time>2018-12-08T12:58:59Z</time>
      </trkpt>
      <trkpt lat="48.70875" lon="2.49633">
        <ele>89.8403</ele>
        <time>2018-12-08T12:59:02Z</time>
      </trkpt>
      <trkpt lat="48.7087" lon="2.49634">
        <ele>89.8117</ele>
        <time>2018-12-08T12:59:07Z</time>
      </trkpt>
      <trkpt lat="48.70865" lon="2.49635">
        <ele>89.791</ele>
        <time>2018-12-08T12:59:10Z</time>
      </trkpt>
      <trkpt lat="48.70859" lon="2.49638">
        <ele>89.7717</ele>
        <time>2018-12-08T12:59:13Z</time>
      </trkpt>
      <trkpt lat="48.70854" lon="2.49642">
        <ele>89.7446</ele>
        <time>2018-12-08T12:59:18Z</time>
      </trkpt>
      <trkpt lat="48.70852" lon="2.49645">
        <ele>89.7349</ele>
        <time>2018-12-08T12:59:20Z</time>
      </trkpt>
      <trkpt lat="48.70848" lon="2.49651">
        <ele>89.7209</ele>
        <time>2018-12-08T12:59:23Z</time>
      </trkpt>
      <trkpt lat="48.70845" lon="2.49657">
        <ele>89.6991</ele>
        <time>2018-12-08T12:59:27Z</time>
      </trkpt>
      <trkpt lat="48.70841" lon="2.4966">
        <ele>89.6684</ele>
        <time>2018-12-08T12:59:32Z</time>
      </trkpt>
      <trkpt lat="48.70835" lon="2.49666">
        <ele>89.6377</ele>
        <time>2018-12-08T12:59:38Z</time>
      </trkpt>
      <trkpt lat="48.70831" lon="2.4967">
        <ele>89.6222</ele>
        <time>2018-12-08T12:59:41Z</time>
      </trkpt>
      <trkpt lat="48.70828" lon="2.49673">
        <ele>89.6122</ele>
        <time>2018-12-08T12:59:43Z</time>
      </trkpt>
      <trkpt lat="48.70825" lon="2.49676">
        <ele>89.6015</ele>
        <time>2018-12-08T12:59:45Z</time>
      </trkpt>
      <trkpt lat="48.70822" lon="2.49679">
        <ele>89.5902</ele>
        <time>2018-12-08T12:59:47Z</time>
      </trkpt>
      <trkpt lat="48.70817" lon="2.4968">
        <ele>89.5649</ele>
        <time>2018-12-08T12:59:51Z</time>
      </trkpt>
      <trkpt lat="48.70817" lon="2.4968">
        <ele>36.5</ele>
        <time>2018-12-08T12:59:58Z</time>
      </trkpt>
      <trkpt lat="48.70817" lon="2.4968">
        <ele>36.5</ele>
        <time>2018-12-08T13:00:04Z</time>
      </trkpt>
      <trkpt lat="48.70808" lon="2.49675">
        <ele>89.4714</ele>
        <time>2018-12-08T13:00:04Z</time>
      </trkpt>
      <trkpt lat="48.70805" lon="2.49673">
        <ele>89.4558</ele>
        <time>2018-12-08T13:00:06Z</time>
      </trkpt>
      <trkpt lat="48.708" lon="2.49671">
        <ele>89.4131</ele>
        <time>2018-12-08T13:00:11Z</time>
      </trkpt>
      <trkpt lat="48.70795" lon="2.49669">
        <ele>89.3769</ele>
        <time>2018-12-08T13:00:15Z</time>
      </trkpt>
      <trkpt lat="48.70795" lon="2.49669">
        <ele>37.2</ele>
        <time>2018-12-08T13:00:22Z</time>
      </trkpt>
      <trkpt lat="48.70795" lon="2.49669">
        <ele>37.2</ele>
        <time>2018-12-08T13:00:27Z</time>
      </trkpt>
      <trkpt lat="48.70793" lon="2.4969">
        <ele>89.297</ele>
        <time>2018-12-08T13:00:27Z</time>
      </trkpt>
      <trkpt lat="48.70791" lon="2.49697">
        <ele>89.2703</ele>
        <time>2018-12-08T13:00:31Z</time>
      </trkpt>
      <trkpt lat="48.70791" lon="2.49705">
        <ele>89.2448</ele>
        <time>2018-12-08T13:00:35Z</time>
      </trkpt>
      <trkpt lat="48.70791" lon="2.4971">
        <ele>89.2316</ele>
        <time>2018-12-08T13:00:37Z</time>
      </trkpt>
      <trkpt lat="48.70789" lon="2.49718">
        <ele>89.205</ele>
        <time>2018-12-08T13:00:41Z</time>
      </trkpt>
      <trkpt lat="48.70787" lon="2.49723">
        <ele>89.1917</ele>
        <time>2018-12-08T13:00:43Z</time>
      </trkpt>
      <trkpt lat="48.70787" lon="2.49731">
        <ele>89.1604</ele>
        <time>2018-12-08T13:00:48Z</time>
      </trkpt>
      <trkpt lat="48.70784" lon="2.49737">
        <ele>89.1305</ele>
        <time>2018-12-08T13:00:53Z</time>
      </trkpt>
      <trkpt lat="48.70779" lon="2.49735">
        <ele>89.103</ele>
        <time>2018-12-08T13:00:59Z</time>
      </trkpt>
      <trkpt lat="48.70775" lon="2.49729">
        <ele>89.0832</ele>
        <time>2018-12-08T13:01:05Z</time>
      </trkpt>
      <trkpt lat="48.70771" lon="2.49725">
        <ele>89.0676</ele>
        <time>2018-12-08T13:01:10Z</time>
      </trkpt>
      <trkpt lat="48.70766" lon="2.49724">
        <ele>89.0537</ele>
        <time>2018-12-08T13:01:14Z</time>
      </trkpt>
      <trkpt lat="48.70763" lon="2.49723">
        <ele>89.0423</ele>
        <time>2018-12-08T13:01:17Z</time>
      </trkpt>
      <trkpt lat="48.70757" lon="2.4972">
        <ele>89.0262</ele>
        <time>2018-12-08T13:01:21Z</time>
      </trkpt>
      <trkpt lat="48.70753" lon="2.49717">
        <ele>89.0144</ele>
        <time>2018-12-08T13:01:24Z</time>
      </trkpt>
      <trkpt lat="48.70748" lon="2.49717">
        <ele>89.0011</ele>
        <time>2018-12-08T13:01:28Z</time>
      </trkpt>
      <trkpt lat="48.70743" lon="2.49716">
        <ele>88.9838</ele>
        <time>2018-12-08T13:01:33Z</time>
      </trkpt>
      <trkpt lat="48.70739" lon="2.49715">
        <ele>88.9675</ele>
        <time>2018-12-08T13:01:37Z</time>
      </trkpt>
      <trkpt lat="48.70736" lon="2.49715">
        <ele>88.9572</ele>
        <time>2018-12-08T13:01:39Z</time>
      </trkpt>
      <trkpt lat="48.70733" lon="2.49715">
        <ele>88.9464</ele>
        <time>2018-12-08T13:01:41Z</time>
      </trkpt>
      <trkpt lat="48.70728" lon="2.49717">
        <ele>88.923</ele>
        <time>2018-12-08T13:01:45Z</time>
      </trkpt>
      <trkpt lat="48.70726" lon="2.49718">
        <ele>88.9098</ele>
        <time>2018-12-08T13:01:47Z</time>
      </trkpt>
      <trkpt lat="48.70723" lon="2.49719">
        <ele>88.8957</ele>
        <time>2018-12-08T13:01:49Z</time>
      </trkpt>
      <trkpt lat="48.70721" lon="2.4972">
        <ele>88.8809</ele>
        <time>2018-12-08T13:01:51Z</time>
      </trkpt>
      <trkpt lat="48.70717" lon="2.49723">
        <ele>88.8502</ele>
        <time>2018-12-08T13:01:55Z</time>
      </trkpt>
      <trkpt lat="48.70715" lon="2.49732">
        <ele>88.8202</ele>
        <time>2018-12-08T13:01:59Z</time>
      </trkpt>
      <trkpt lat="48.70716" lon="2.4974">
        <ele>88.7912</ele>
        <time>2018-12-08T13:02:03Z</time>
      </trkpt>
      <trkpt lat="48.70717" lon="2.49746">
        <ele>88.7697</ele>
        <time>2018-12-08T13:02:06Z</time>
      </trkpt>
      <trkpt lat="48.70717" lon="2.49754">
        <ele>88.7153</ele>
        <time>2018-12-08T13:02:14Z</time>
      </trkpt>
      <trkpt lat="48.70721" lon="2.49761">
        <ele>88.6817</ele>
        <time>2018-12-08T13:02:19Z</time>
      </trkpt>
      <trkpt lat="48.70722" lon="2.49769">
        <ele>88.6475</ele>
        <time>2018-12-08T13:02:24Z</time>
      </trkpt>
      <trkpt lat="48.70725" lon="2.49777">
        <ele>88.6196</ele>
        <time>2018-12-08T13:02:28Z</time>
      </trkpt>
      <trkpt lat="48.70726" lon="2.49781">
        <ele>88.6056</ele>
        <time>2018-12-08T13:02:30Z</time>
      </trkpt>
      <trkpt lat="48.70728" lon="2.49788">
        <ele>88.5792</ele>
        <time>2018-12-08T13:02:34Z</time>
      </trkpt>
      <trkpt lat="48.70731" lon="2.49794">
        <ele>88.5611</ele>
        <time>2018-12-08T13:02:37Z</time>
      </trkpt>
      <trkpt lat="48.70734" lon="2.49801">
        <ele>88.5446</ele>
        <time>2018-12-08T13:02:40Z</time>
      </trkpt>
      <trkpt lat="48.70736" lon="2.49805">
        <ele>88.5274</ele>
        <time>2018-12-08T13:02:43Z</time>
      </trkpt>
      <trkpt lat="48.7073" lon="2.49812">
        <ele>88.4963</ele>
        <time>2018-12-08T13:02:48Z</time>
      </trkpt>
      <trkpt lat="48.70725" lon="2.4981">
        <ele>88.4752</ele>
        <time>2018-12-08T13:02:52Z</time>
      </trkpt>
      <trkpt lat="48.70721" lon="2.49814">
        <ele>88.4578</ele>
        <time>2018-12-08T13:02:56Z</time>
      </trkpt>
      <trkpt lat="48.70719" lon="2.49816">
        <ele>88.447</ele>
        <time>2018-12-08T13:02:59Z</time>
      </trkpt>
      <trkpt lat="48.70717" lon="2.49823">
        <ele>88.4312</ele>
        <time>2018-12-08T13:03:06Z</time>
      </trkpt>
      <trkpt lat="48.70718" lon="2.4983">
        <ele>88.4255</ele>
        <time>2018-12-08T13:03:10Z</time>
      </trkpt>
      <trkpt lat="48.70718" lon="2.49834">
        <ele>88.4245</ele>
        <time>2018-12-08T13:03:11Z</time>
      </trkpt>
      <trkpt lat="48.70718" lon="2.49839">
        <ele>88.4231</ele>
        <time>2018-12-08T13:03:13Z</time>
      </trkpt>
      <trkpt lat="48.70718" lon="2.49844">
        <ele>88.4225</ele>
        <time>2018-12-08T13:03:15Z</time>
      </trkpt>
      <trkpt lat="48.70719" lon="2.49849">
        <ele>88.4236</ele>
        <time>2018-12-08T13:03:18Z</time>
      </trkpt>
      <trkpt lat="48.70719" lon="2.49853">
        <ele>88.4253</ele>
        <time>2018-12-08T13:03:21Z</time>
      </trkpt>
      <trkpt lat="48.70719" lon="2.49857">
        <ele>88.4277</ele>
        <time>2018-12-08T13:03:24Z</time>
      </trkpt>
      <trkpt lat="48.7072" lon="2.49865">
        <ele>88.4306</ele>
        <time>2018-12-08T13:03:28Z</time>
      </trkpt>
      <trkpt lat="48.7072" lon="2.49865">
        <ele>39.8</ele>
        <time>2018-12-08T13:03:35Z</time>
      </trkpt>
      <trkpt lat="48.7072" lon="2.49865">
        <ele>39.8</ele>
        <time>2018-12-08T13:03:51Z</time>
      </trkpt>
      <trkpt lat="48.70715" lon="2.49845">
        <ele>88.4317</ele>
        <time>2018-12-08T13:03:51Z</time>
      </trkpt>
      <trkpt lat="48.70714" lon="2.4984">
        <ele>88.4263</ele>
        <time>2018-12-08T13:03:54Z</time>
      </trkpt>
      <trkpt lat="48.70713" lon="2.49833">
        <ele>88.4118</ele>
        <time>2018-12-08T13:03:59Z</time>
      </trkpt>
      <trkpt lat="48.70712" lon="2.49825">
        <ele>88.3964</ele>
        <time>2018-12-08T13:04:03Z</time>
      </trkpt>
      <trkpt lat="48.70712" lon="2.49821">
        <ele>88.3888</ele>
        <time>2018-12-08T13:04:05Z</time>
      </trkpt>
      <trkpt lat="48.7071" lon="2.49813">
        <ele>88.3732</ele>
        <time>2018-12-08T13:04:09Z</time>
      </trkpt>
      <trkpt lat="48.70707" lon="2.49806">
        <ele>88.3572</ele>
        <time>2018-12-08T13:04:13Z</time>
      </trkpt>
      <trkpt lat="48.70704" lon="2.498">
        <ele>88.3442</ele>
        <time>2018-12-08T13:04:16Z</time>
      </trkpt>
      <trkpt lat="48.70703" lon="2.49797">
        <ele>88.3347</ele>
        <time>2018-12-08T13:04:18Z</time>
      </trkpt>
      <trkpt lat="48.70702" lon="2.49789">
        <ele>88.3141</ele>
        <time>2018-12-08T13:04:22Z</time>
      </trkpt>
      <trkpt lat="48.70703" lon="2.49782">
        <ele>88.2846</ele>
        <time>2018-12-08T13:04:27Z</time>
      </trkpt>
      <trkpt lat="48.70701" lon="2.49774">
        <ele>88.2525</ele>
        <time>2018-12-08T13:04:32Z</time>
      </trkpt>
      <trkpt lat="48.70696" lon="2.49771">
        <ele>88.2327</ele>
        <time>2018-12-08T13:04:35Z</time>
      </trkpt>
      <trkpt lat="48.70692" lon="2.49767">
        <ele>88.197</ele>
        <time>2018-12-08T13:04:41Z</time>
      </trkpt>
      <trkpt lat="48.70687" lon="2.4977">
        <ele>88.1718</ele>
        <time>2018-12-08T13:04:46Z</time>
      </trkpt>
      <trkpt lat="48.70682" lon="2.49774">
        <ele>88.1541</ele>
        <time>2018-12-08T13:04:50Z</time>
      </trkpt>
      <trkpt lat="48.70678" lon="2.49779">
        <ele>88.1293</ele>
        <time>2018-12-08T13:04:55Z</time>
      </trkpt>
      <trkpt lat="48.70674" lon="2.49781">
        <ele>88.0952</ele>
        <time>2018-12-08T13:05:01Z</time>
      </trkpt>
      <trkpt lat="48.7067" lon="2.49777">
        <ele>88.0727</ele>
        <time>2018-12-08T13:05:06Z</time>
      </trkpt>
      <trkpt lat="48.70667" lon="2.49773">
        <ele>88.0448</ele>
        <time>2018-12-08T13:05:11Z</time>
      </trkpt>
      <trkpt lat="48.70663" lon="2.49769">
        <ele>88.0337</ele>
        <time>2018-12-08T13:05:13Z</time>
      </trkpt>
      <trkpt lat="48.70661" lon="2.49767">
        <ele>88.0282</ele>
        <time>2018-12-08T13:05:14Z</time>
      </trkpt>
      <trkpt lat="48.70657" lon="2.49765">
        <ele>88.0174</ele>
        <time>2018-12-08T13:05:16Z</time>
      </trkpt>
      <trkpt lat="48.70653" lon="2.49759">
        <ele>87.997</ele>
        <time>2018-12-08T13:05:20Z</time>
      </trkpt>
      <trkpt lat="48.70648" lon="2.49757">
        <ele>87.9791</ele>
        <time>2018-12-08T13:05:24Z</time>
      </trkpt>
      <trkpt lat="48.70642" lon="2.49757">
        <ele>87.9632</ele>
        <time>2018-12-08T13:05:28Z</time>
      </trkpt>
      <trkpt lat="48.7064" lon="2.49758">
        <ele>87.9518</ele>
        <time>2018-12-08T13:05:31Z</time>
      </trkpt>
      <trkpt lat="48.70634" lon="2.49759">
        <ele>87.934</ele>
        <time>2018-12-08T13:05:36Z</time>
      </trkpt>
      <trkpt lat="48.7063" lon="2.49763">
        <ele>87.9156</ele>
        <time>2018-12-08T13:05:41Z</time>
      </trkpt>
      <trkpt lat="48.70627" lon="2.4977">
        <ele>87.9006</ele>
        <time>2018-12-08T13:05:44Z</time>
      </trkpt>
      <trkpt lat="48.70625" lon="2.49774">
        <ele>87.8898</ele>
        <time>2018-12-08T13:05:46Z</time>
      </trkpt>
      <trkpt lat="48.70623" lon="2.49782">
        <ele>87.8737</ele>
        <time>2018-12-08T13:05:49Z</time>
      </trkpt>
      <trkpt lat="48.70622" lon="2.49789">
        <ele>87.8484</ele>
        <time>2018-12-08T13:05:54Z</time>
      </trkpt>
      <trkpt lat="48.7062" lon="2.49796">
        <ele>87.8302</ele>
        <time>2018-12-08T13:05:58Z</time>
      </trkpt>
      <trkpt lat="48.70617" lon="2.498">
        <ele>87.8188</ele>
        <time>2018-12-08T13:06:01Z</time>
      </trkpt>
      <trkpt lat="48.70614" lon="2.49807">
        <ele>87.8074</ele>
        <time>2018-12-08T13:06:05Z</time>
      </trkpt>
      <trkpt lat="48.70612" lon="2.49814">
        <ele>87.8019</ele>
        <time>2018-12-08T13:06:09Z</time>
      </trkpt>
      <trkpt lat="48.7061" lon="2.49821">
        <ele>87.8013</ele>
        <time>2018-12-08T13:06:13Z</time>
      </trkpt>
      <trkpt lat="48.70609" lon="2.49829">
        <ele>87.8069</ele>
        <time>2018-12-08T13:06:18Z</time>
      </trkpt>
      <trkpt lat="48.70606" lon="2.49837">
        <ele>87.8137</ele>
        <time>2018-12-08T13:06:22Z</time>
      </trkpt>
      <trkpt lat="48.70602" lon="2.49843">
        <ele>87.8247</ele>
        <time>2018-12-08T13:06:27Z</time>
      </trkpt>
      <trkpt lat="48.70597" lon="2.49846">
        <ele>87.8366</ele>
        <time>2018-12-08T13:06:33Z</time>
      </trkpt>
      <trkpt lat="48.70592" lon="2.49846">
        <ele>87.8461</ele>
        <time>2018-12-08T13:06:37Z</time>
      </trkpt>
      <trkpt lat="48.70589" lon="2.49846">
        <ele>87.8588</ele>
        <time>2018-12-08T13:06:40Z</time>
      </trkpt>
      <trkpt lat="48.70584" lon="2.49847">
        <ele>87.8771</ele>
        <time>2018-12-08T13:06:44Z</time>
      </trkpt>
      <trkpt lat="48.70581" lon="2.49847">
        <ele>87.8867</ele>
        <time>2018-12-08T13:06:46Z</time>
      </trkpt>
      <trkpt lat="48.70579" lon="2.49847">
        <ele>87.8951</ele>
        <time>2018-12-08T13:06:48Z</time>
      </trkpt>
      <trkpt lat="48.70574" lon="2.49846">
        <ele>87.9123</ele>
        <time>2018-12-08T13:06:52Z</time>
      </trkpt>
      <trkpt lat="48.70568" lon="2.49846">
        <ele>87.9298</ele>
        <time>2018-12-08T13:06:56Z</time>
      </trkpt>
      <trkpt lat="48.70563" lon="2.49845">
        <ele>87.9495</ele>
        <time>2018-12-08T13:07:01Z</time>
      </trkpt>
      <trkpt lat="48.70558" lon="2.49842">
        <ele>87.9643</ele>
        <time>2018-12-08T13:07:05Z</time>
      </trkpt>
      <trkpt lat="48.70555" lon="2.4984">
        <ele>87.9762</ele>
        <time>2018-12-08T13:07:08Z</time>
      </trkpt>
      <trkpt lat="48.70552" lon="2.49835">
        <ele>87.9941</ele>
        <time>2018-12-08T13:07:12Z</time>
      </trkpt>
      <trkpt lat="48.7055" lon="2.49827">
        <ele>88.0177</ele>
        <time>2018-12-08T13:07:18Z</time>
      </trkpt>
      <trkpt lat="48.70549" lon="2.49823">
        <ele>88.0254</ele>
        <time>2018-12-08T13:07:20Z</time>
      </trkpt>
      <trkpt lat="48.7055" lon="2.49816">
        <ele>88.0409</ele>
        <time>2018-12-08T13:07:24Z</time>
      </trkpt>
      <trkpt lat="48.70551" lon="2.49813">
        <ele>88.0488</ele>
        <time>2018-12-08T13:07:26Z</time>
      </trkpt>
      <trkpt lat="48.70553" lon="2.49806">
        <ele>88.0654</ele>
        <time>2018-12-08T13:07:31Z</time>
      </trkpt>
      <trkpt lat="48.70557" lon="2.49801">
        <ele>88.0762</ele>
        <time>2018-12-08T13:07:35Z</time>
      </trkpt>
      <trkpt lat="48.7056" lon="2.49795">
        <ele>88.0914</ele>
        <time>2018-12-08T13:07:41Z</time>
      </trkpt>
      <trkpt lat="48.70562" lon="2.49792">
        <ele>88.0957</ele>
        <time>2018-12-08T13:07:43Z</time>
      </trkpt>
      <trkpt lat="48.70563" lon="2.49789">
        <ele>88.0996</ele>
        <time>2018-12-08T13:07:45Z</time>
      </trkpt>
      <trkpt lat="48.70567" lon="2.49783">
        <ele>88.1119</ele>
        <time>2018-12-08T13:07:50Z</time>
      </trkpt>
      <trkpt lat="48.7057" lon="2.49778">
        <ele>88.1359</ele>
        <time>2018-12-08T13:07:57Z</time>
      </trkpt>
      <trkpt lat="48.70573" lon="2.49773">
        <ele>88.1421</ele>
        <time>2018-12-08T13:07:59Z</time>
      </trkpt>
      <trkpt lat="48.70578" lon="2.49767">
        <ele>88.1503</ele>
        <time>2018-12-08T13:08:02Z</time>
      </trkpt>
      <trkpt lat="48.7058" lon="2.49761">
        <ele>88.158</ele>
        <time>2018-12-08T13:08:05Z</time>
      </trkpt>
      <trkpt lat="48.70581" lon="2.49754">
        <ele>88.168</ele>
        <time>2018-12-08T13:08:09Z</time>
      </trkpt>
      <trkpt lat="48.70582" lon="2.49747">
        <ele>88.1778</ele>
        <time>2018-12-08T13:08:13Z</time>
      </trkpt>
      <trkpt lat="48.70586" lon="2.49742">
        <ele>88.1844</ele>
        <time>2018-12-08T13:08:16Z</time>
      </trkpt>
      <trkpt lat="48.70589" lon="2.49739">
        <ele>88.1891</ele>
        <time>2018-12-08T13:08:18Z</time>
      </trkpt>
      <trkpt lat="48.70592" lon="2.49731">
        <ele>88.2002</ele>
        <time>2018-12-08T13:08:23Z</time>
      </trkpt>
      <trkpt lat="48.70594" lon="2.49724">
        <ele>88.2065</ele>
        <time>2018-12-08T13:08:27Z</time>
      </trkpt>
      <trkpt lat="48.70592" lon="2.49718">
        <ele>88.213</ele>
        <time>2018-12-08T13:08:32Z</time>
      </trkpt>
      <trkpt lat="48.70589" lon="2.49713">
        <ele>88.2152</ele>
        <time>2018-12-08T13:08:35Z</time>
      </trkpt>
      <trkpt lat="48.70586" lon="2.4971">
        <ele>88.216</ele>
        <time>2018-12-08T13:08:37Z</time>
      </trkpt>
      <trkpt lat="48.70582" lon="2.49705">
        <ele>88.2162</ele>
        <time>2018-12-08T13:08:41Z</time>
      </trkpt>
      <trkpt lat="48.70578" lon="2.49701">
        <ele>88.2172</ele>
        <time>2018-12-08T13:08:45Z</time>
      </trkpt>
      <trkpt lat="48.70574" lon="2.49698">
        <ele>88.2179</ele>
        <time>2018-12-08T13:08:51Z</time>
      </trkpt>
      <trkpt lat="48.7057" lon="2.49694">
        <ele>88.2194</ele>
        <time>2018-12-08T13:08:54Z</time>
      </trkpt>
      <trkpt lat="48.70564" lon="2.49692">
        <ele>88.2253</ele>
        <time>2018-12-08T13:09:01Z</time>
      </trkpt>
      <trkpt lat="48.7056" lon="2.49692">
        <ele>88.2289</ele>
        <time>2018-12-08T13:09:04Z</time>
      </trkpt>
      <trkpt lat="48.70556" lon="2.4969">
        <ele>88.2329</ele>
        <time>2018-12-08T13:09:08Z</time>
      </trkpt>
      <trkpt lat="48.70552" lon="2.49689">
        <ele>88.2347</ele>
        <time>2018-12-08T13:09:11Z</time>
      </trkpt>
      <trkpt lat="48.70547" lon="2.49685">
        <ele>88.2364</ele>
        <time>2018-12-08T13:09:15Z</time>
      </trkpt>
      <trkpt lat="48.70544" lon="2.4968">
        <ele>88.236</ele>
        <time>2018-12-08T13:09:20Z</time>
      </trkpt>
      <trkpt lat="48.70541" lon="2.49673">
        <ele>88.2356</ele>
        <time>2018-12-08T13:09:24Z</time>
      </trkpt>
      <trkpt lat="48.70536" lon="2.4967">
        <ele>88.2378</ele>
        <time>2018-12-08T13:09:29Z</time>
      </trkpt>
      <trkpt lat="48.70532" lon="2.49667">
        <ele>88.2393</ele>
        <time>2018-12-08T13:09:32Z</time>
      </trkpt>
      <trkpt lat="48.70527" lon="2.49667">
        <ele>88.2433</ele>
        <time>2018-12-08T13:09:36Z</time>
      </trkpt>
      <trkpt lat="48.70522" lon="2.49668">
        <ele>88.2485</ele>
        <time>2018-12-08T13:09:40Z</time>
      </trkpt>
      <trkpt lat="48.70519" lon="2.49668">
        <ele>88.2509</ele>
        <time>2018-12-08T13:09:42Z</time>
      </trkpt>
      <trkpt lat="48.70516" lon="2.49669">
        <ele>88.253</ele>
        <time>2018-12-08T13:09:44Z</time>
      </trkpt>
      <trkpt lat="48.70514" lon="2.49669">
        <ele>88.2574</ele>
        <time>2018-12-08T13:09:47Z</time>
      </trkpt>
      <trkpt lat="48.70509" lon="2.49673">
        <ele>88.2635</ele>
        <time>2018-12-08T13:09:51Z</time>
      </trkpt>
      <trkpt lat="48.70503" lon="2.49674">
        <ele>88.2715</ele>
        <time>2018-12-08T13:09:56Z</time>
      </trkpt>
      <trkpt lat="48.70499" lon="2.49675">
        <ele>88.2743</ele>
        <time>2018-12-08T13:09:58Z</time>
      </trkpt>
      <trkpt lat="48.70494" lon="2.49674">
        <ele>88.2776</ele>
        <time>2018-12-08T13:10:01Z</time>
      </trkpt>
      <trkpt lat="48.70491" lon="2.49673">
        <ele>88.2794</ele>
        <time>2018-12-08T13:10:03Z</time>
      </trkpt>
      <trkpt lat="48.70488" lon="2.49671">
        <ele>88.2801</ele>
        <time>2018-12-08T13:10:05Z</time>
      </trkpt>
      <trkpt lat="48.70483" lon="2.4967">
        <ele>88.2773</ele>
        <time>2018-12-08T13:10:08Z</time>
      </trkpt>
      <trkpt lat="48.70478" lon="2.49668">
        <ele>88.2702</ele>
        <time>2018-12-08T13:10:11Z</time>
      </trkpt>
      <trkpt lat="48.70473" lon="2.49667">
        <ele>88.2546</ele>
        <time>2018-12-08T13:10:16Z</time>
      </trkpt>
      <trkpt lat="48.7047" lon="2.49666">
        <ele>88.2491</ele>
        <time>2018-12-08T13:10:18Z</time>
      </trkpt>
      <trkpt lat="48.70466" lon="2.49665">
        <ele>88.2436</ele>
        <time>2018-12-08T13:10:20Z</time>
      </trkpt>
      <trkpt lat="48.70463" lon="2.49664">
        <ele>88.2374</ele>
        <time>2018-12-08T13:10:22Z</time>
      </trkpt>
      <trkpt lat="48.70461" lon="2.49663">
        <ele>88.2317</ele>
        <time>2018-12-08T13:10:24Z</time>
      </trkpt>
      <trkpt lat="48.70456" lon="2.49663">
        <ele>88.2242</ele>
        <time>2018-12-08T13:10:27Z</time>
      </trkpt>
      <trkpt lat="48.7045" lon="2.49663">
        <ele>88.2089</ele>
        <time>2018-12-08T13:10:32Z</time>
      </trkpt>
      <trkpt lat="48.70448" lon="2.49662">
        <ele>88.1889</ele>
        <time>2018-12-08T13:10:36Z</time>
      </trkpt>
      <trkpt lat="48.70442" lon="2.49662">
        <ele>88.1581</ele>
        <time>2018-12-08T13:10:41Z</time>
      </trkpt>
      <trkpt lat="48.70437" lon="2.49661">
        <ele>88.1309</ele>
        <time>2018-12-08T13:10:45Z</time>
      </trkpt>
      <trkpt lat="48.70433" lon="2.49657">
        <ele>88.0896</ele>
        <time>2018-12-08T13:10:50Z</time>
      </trkpt>
      <trkpt lat="48.70431" lon="2.49654">
        <ele>88.0592</ele>
        <time>2018-12-08T13:10:53Z</time>
      </trkpt>
      <trkpt lat="48.70428" lon="2.49652">
        <ele>88.0287</ele>
        <time>2018-12-08T13:10:56Z</time>
      </trkpt>
      <trkpt lat="48.70426" lon="2.4965">
        <ele>88.0087</ele>
        <time>2018-12-08T13:10:58Z</time>
      </trkpt>
      <trkpt lat="48.70423" lon="2.49643">
        <ele>87.9681</ele>
        <time>2018-12-08T13:11:02Z</time>
      </trkpt>
      <trkpt lat="48.70421" lon="2.49637">
        <ele>87.9376</ele>
        <time>2018-12-08T13:11:05Z</time>
      </trkpt>
      <trkpt lat="48.70417" lon="2.49632">
        <ele>87.9082</ele>
        <time>2018-12-08T13:11:08Z</time>
      </trkpt>
      <trkpt lat="48.70415" lon="2.49628">
        <ele>87.8803</ele>
        <time>2018-12-08T13:11:11Z</time>
      </trkpt>
      <trkpt lat="48.7041" lon="2.49624">
        <ele>87.8395</ele>
        <time>2018-12-08T13:11:16Z</time>
      </trkpt>
      <trkpt lat="48.70407" lon="2.49622">
        <ele>87.8253</ele>
        <time>2018-12-08T13:11:18Z</time>
      </trkpt>
      <trkpt lat="48.70403" lon="2.49617">
        <ele>87.7919</ele>
        <time>2018-12-08T13:11:23Z</time>
      </trkpt>
      <trkpt lat="48.704" lon="2.49614">
        <ele>87.7793</ele>
        <time>2018-12-08T13:11:25Z</time>
      </trkpt>
      <trkpt lat="48.70397" lon="2.49611">
        <ele>87.7612</ele>
        <time>2018-12-08T13:11:28Z</time>
      </trkpt>
      <trkpt lat="48.70392" lon="2.49608">
        <ele>87.7344</ele>
        <time>2018-12-08T13:11:33Z</time>
      </trkpt>
      <trkpt lat="48.70387" lon="2.49607">
        <ele>87.7212</ele>
        <time>2018-12-08T13:11:36Z</time>
      </trkpt>
      <trkpt lat="48.70383" lon="2.49606">
        <ele>87.7142</ele>
        <time>2018-12-08T13:11:38Z</time>
      </trkpt>
      <trkpt lat="48.70378" lon="2.49607">
        <ele>87.7067</ele>
        <time>2018-12-08T13:11:41Z</time>
      </trkpt>
      <trkpt lat="48.70374" lon="2.49608">
        <ele>87.7006</ele>
        <time>2018-12-08T13:11:45Z</time>
      </trkpt>
      <trkpt lat="48.70368" lon="2.49608">
        <ele>87.6977</ele>
        <time>2018-12-08T13:11:49Z</time>
      </trkpt>
      <trkpt lat="48.70363" lon="2.49611">
        <ele>87.698</ele>
        <time>2018-12-08T13:11:53Z</time>
      </trkpt>
      <trkpt lat="48.70357" lon="2.49614">
        <ele>87.6918</ele>
        <time>2018-12-08T13:11:59Z</time>
      </trkpt>
      <trkpt lat="48.70352" lon="2.49614">
        <ele>87.6831</ele>
        <time>2018-12-08T13:12:04Z</time>
      </trkpt>
      <trkpt lat="48.7035" lon="2.49614">
        <ele>87.6796</ele>
        <time>2018-12-08T13:12:06Z</time>
      </trkpt>
      <trkpt lat="48.70346" lon="2.49614">
        <ele>87.674</ele>
        <time>2018-12-08T13:12:09Z</time>
      </trkpt>
      <trkpt lat="48.70341" lon="2.49613">
        <ele>87.6636</ele>
        <time>2018-12-08T13:12:14Z</time>
      </trkpt>
      <trkpt lat="48.70336" lon="2.49613">
        <ele>87.6551</ele>
        <time>2018-12-08T13:12:18Z</time>
      </trkpt>
      <trkpt lat="48.70332" lon="2.49614">
        <ele>87.6507</ele>
        <time>2018-12-08T13:12:21Z</time>
      </trkpt>
      <trkpt lat="48.70328" lon="2.49616">
        <ele>87.6465</ele>
        <time>2018-12-08T13:12:24Z</time>
      </trkpt>
      <trkpt lat="48.70322" lon="2.49618">
        <ele>87.6389</ele>
        <time>2018-12-08T13:12:28Z</time>
      </trkpt>
      <trkpt lat="48.7032" lon="2.49618">
        <ele>87.635</ele>
        <time>2018-12-08T13:12:30Z</time>
      </trkpt>
      <trkpt lat="48.70314" lon="2.49614">
        <ele>87.6238</ele>
        <time>2018-12-08T13:12:36Z</time>
      </trkpt>
      <trkpt lat="48.70311" lon="2.49609">
        <ele>87.6074</ele>
        <time>2018-12-08T13:12:41Z</time>
      </trkpt>
      <trkpt lat="48.70309" lon="2.49602">
        <ele>87.5885</ele>
        <time>2018-12-08T13:12:46Z</time>
      </trkpt>
      <trkpt lat="48.70308" lon="2.49594">
        <ele>87.5771</ele>
        <time>2018-12-08T13:12:50Z</time>
      </trkpt>
      <trkpt lat="48.70307" lon="2.4959">
        <ele>87.568</ele>
        <time>2018-12-08T13:12:54Z</time>
      </trkpt>
      <trkpt lat="48.70306" lon="2.49585">
        <ele>87.5663</ele>
        <time>2018-12-08T13:12:57Z</time>
      </trkpt>
      <trkpt lat="48.70306" lon="2.49578">
        <ele>87.5718</ele>
        <time>2018-12-08T13:13:03Z</time>
      </trkpt>
      <trkpt lat="48.70305" lon="2.49569">
        <ele>87.5887</ele>
        <time>2018-12-08T13:13:08Z</time>
      </trkpt>
      <trkpt lat="48.70305" lon="2.4956">
        <ele>87.6005</ele>
        <time>2018-12-08T13:13:11Z</time>
      </trkpt>
      <trkpt lat="48.70306" lon="2.49553">
        <ele>87.6155</ele>
        <time>2018-12-08T13:13:15Z</time>
      </trkpt>
      <trkpt lat="48.70306" lon="2.49546">
        <ele>87.6374</ele>
        <time>2018-12-08T13:13:21Z</time>
      </trkpt>
      <trkpt lat="48.70307" lon="2.49537">
        <ele>87.6543</ele>
        <time>2018-12-08T13:13:26Z</time>
      </trkpt>
      <trkpt lat="48.70308" lon="2.49529">
        <ele>87.6627</ele>
        <time>2018-12-08T13:13:29Z</time>
      </trkpt>
      <trkpt lat="48.70308" lon="2.49523">
        <ele>87.6679</ele>
        <time>2018-12-08T13:13:31Z</time>
      </trkpt>
      <trkpt lat="48.7031" lon="2.49515">
        <ele>87.6798</ele>
        <time>2018-12-08T13:13:36Z</time>
      </trkpt>
      <trkpt lat="48.7031" lon="2.49507">
        <ele>87.687</ele>
        <time>2018-12-08T13:13:39Z</time>
      </trkpt>
      <trkpt lat="48.7031" lon="2.495">
        <ele>87.6935</ele>
        <time>2018-12-08T13:13:43Z</time>
      </trkpt>
      <trkpt lat="48.70311" lon="2.49493">
        <ele>87.6959</ele>
        <time>2018-12-08T13:13:47Z</time>
      </trkpt>
      <trkpt lat="48.70311" lon="2.49485">
        <ele>87.6949</ele>
        <time>2018-12-08T13:13:52Z</time>
      </trkpt>
      <trkpt lat="48.70311" lon="2.49481">
        <ele>87.6943</ele>
        <time>2018-12-08T13:13:54Z</time>
      </trkpt>
      <trkpt lat="48.70311" lon="2.49477">
        <ele>87.6931</ele>
        <time>2018-12-08T13:13:56Z</time>
      </trkpt>
      <trkpt lat="48.70311" lon="2.4947">
        <ele>87.691</ele>
        <time>2018-12-08T13:14:01Z</time>
      </trkpt>
      <trkpt lat="48.70312" lon="2.49463">
        <ele>87.6918</ele>
        <time>2018-12-08T13:14:08Z</time>
      </trkpt>
      <trkpt lat="48.70317" lon="2.49459">
        <ele>87.6946</ele>
        <time>2018-12-08T13:14:13Z</time>
      </trkpt>
      <trkpt lat="48.70319" lon="2.49457">
        <ele>87.6936</ele>
        <time>2018-12-08T13:14:14Z</time>
      </trkpt>
      <trkpt lat="48.70322" lon="2.49454">
        <ele>87.6874</ele>
        <time>2018-12-08T13:14:17Z</time>
      </trkpt>
      <trkpt lat="48.70325" lon="2.49452">
        <ele>87.6693</ele>
        <time>2018-12-08T13:14:23Z</time>
      </trkpt>
      <trkpt lat="48.7033" lon="2.49454">
        <ele>87.6483</ele>
        <time>2018-12-08T13:14:29Z</time>
      </trkpt>
      <trkpt lat="48.70334" lon="2.49456">
        <ele>87.6348</ele>
        <time>2018-12-08T13:14:34Z</time>
      </trkpt>
      <trkpt lat="48.70338" lon="2.49458">
        <ele>87.63</ele>
        <time>2018-12-08T13:14:37Z</time>
      </trkpt>
      <trkpt lat="48.70341" lon="2.49459">
        <ele>87.6286</ele>
        <time>2018-12-08T13:14:39Z</time>
      </trkpt>
      <trkpt lat="48.70346" lon="2.49462">
        <ele>87.6225</ele>
        <time>2018-12-08T13:14:42Z</time>
      </trkpt>
      <trkpt lat="48.70351" lon="2.49462">
        <ele>87.6146</ele>
        <time>2018-12-08T13:14:45Z</time>
      </trkpt>
      <trkpt lat="48.70356" lon="2.4946">
        <ele>87.6001</ele>
        <time>2018-12-08T13:14:49Z</time>
      </trkpt>
      <trkpt lat="48.70358" lon="2.49459">
        <ele>87.5966</ele>
        <time>2018-12-08T13:14:50Z</time>
      </trkpt>
      <trkpt lat="48.70363" lon="2.49459">
        <ele>87.5863</ele>
        <time>2018-12-08T13:14:54Z</time>
      </trkpt>
      <trkpt lat="48.70366" lon="2.4946">
        <ele>87.58</ele>
        <time>2018-12-08T13:14:56Z</time>
      </trkpt>
      <trkpt lat="48.70371" lon="2.49462">
        <ele>87.5708</ele>
        <time>2018-12-08T13:14:59Z</time>
      </trkpt>
      <trkpt lat="48.70371" lon="2.49462">
        <ele>87.5708</ele>
        <time>2018-12-08T13:15:04Z</time>
      </trkpt>
      <trkpt lat="48.70371" lon="2.49462">
        <ele>36.6</ele>
        <time>2018-12-08T13:15:04Z</time>
      </trkpt>
      <trkpt lat="48.70371" lon="2.49462">
        <ele>36.6</ele>
        <time>2018-12-08T13:15:09Z</time>
      </trkpt>
      <trkpt lat="48.70379" lon="2.4947">
        <ele>87.5482</ele>
        <time>2018-12-08T13:15:09Z</time>
      </trkpt>
      <trkpt lat="48.70382" lon="2.49474">
        <ele>87.5378</ele>
        <time>2018-12-08T13:15:13Z</time>
      </trkpt>
      <trkpt lat="48.70385" lon="2.49479">
        <ele>87.5264</ele>
        <time>2018-12-08T13:15:17Z</time>
      </trkpt>
      <trkpt lat="48.70387" lon="2.49483">
        <ele>87.5173</ele>
        <time>2018-12-08T13:15:20Z</time>
      </trkpt>
      <trkpt lat="48.70389" lon="2.4949">
        <ele>87.5082</ele>
        <time>2018-12-08T13:15:24Z</time>
      </trkpt>
      <trkpt lat="48.70394" lon="2.49495">
        <ele>87.5011</ele>
        <time>2018-12-08T13:15:28Z</time>
      </trkpt>
      <trkpt lat="48.70396" lon="2.49498">
        <ele>87.4977</ele>
        <time>2018-12-08T13:15:30Z</time>
      </trkpt>
      <trkpt lat="48.70398" lon="2.49505">
        <ele>87.4893</ele>
        <time>2018-12-08T13:15:34Z</time>
      </trkpt>
      <trkpt lat="48.704" lon="2.49511">
        <ele>87.4776</ele>
        <time>2018-12-08T13:15:38Z</time>
      </trkpt>
      <trkpt lat="48.70402" lon="2.49515">
        <ele>87.4703</ele>
        <time>2018-12-08T13:15:40Z</time>
      </trkpt>
      <trkpt lat="48.70405" lon="2.49521">
        <ele>87.4551</ele>
        <time>2018-12-08T13:15:44Z</time>
      </trkpt>
      <trkpt lat="48.70406" lon="2.49528">
        <ele>87.4362</ele>
        <time>2018-12-08T13:15:48Z</time>
      </trkpt>
      <trkpt lat="48.70405" lon="2.49535">
        <ele>87.4137</ele>
        <time>2018-12-08T13:15:52Z</time>
      </trkpt>
      <trkpt lat="48.70404" lon="2.49542">
        <ele>87.3863</ele>
        <time>2018-12-08T13:15:57Z</time>
      </trkpt>
      <trkpt lat="48.70404" lon="2.49549">
        <ele>87.3588</ele>
        <time>2018-12-08T13:16:02Z</time>
      </trkpt>
      <trkpt lat="48.70403" lon="2.49556">
        <ele>87.3441</ele>
        <time>2018-12-08T13:16:06Z</time>
      </trkpt>
      <trkpt lat="48.70403" lon="2.49564">
        <ele>87.3367</ele>
        <time>2018-12-08T13:16:11Z</time>
      </trkpt>
      <trkpt lat="48.70401" lon="2.49573">
        <ele>87.3415</ele>
        <time>2018-12-08T13:16:14Z</time>
      </trkpt>
      <trkpt lat="48.704" lon="2.49576">
        <ele>87.3442</ele>
        <time>2018-12-08T13:16:15Z</time>
      </trkpt>
      <trkpt lat="48.70399" lon="2.49583">
        <ele>87.3583</ele>
        <time>2018-12-08T13:16:18Z</time>
      </trkpt>
      <trkpt lat="48.70399" lon="2.49589">
        <ele>87.3844</ele>
        <time>2018-12-08T13:16:22Z</time>
      </trkpt>
      <trkpt lat="48.70401" lon="2.49597">
        <ele>87.4299</ele>
        <time>2018-12-08T13:16:28Z</time>
      </trkpt>
      <trkpt lat="48.70401" lon="2.49601">
        <ele>87.4446</ele>
        <time>2018-12-08T13:16:30Z</time>
      </trkpt>
      <trkpt lat="48.70402" lon="2.49608">
        <ele>87.4705</ele>
        <time>2018-12-08T13:16:34Z</time>
      </trkpt>
      <trkpt lat="48.70402" lon="2.49613">
        <ele>87.495</ele>
        <time>2018-12-08T13:16:38Z</time>
      </trkpt>
      <trkpt lat="48.70406" lon="2.49618">
        <ele>87.5219</ele>
        <time>2018-12-08T13:16:43Z</time>
      </trkpt>
      <trkpt lat="48.7041" lon="2.49626">
        <ele>87.5573</ele>
        <time>2018-12-08T13:16:49Z</time>
      </trkpt>
      <trkpt lat="48.70413" lon="2.49631">
        <ele>87.5735</ele>
        <time>2018-12-08T13:16:52Z</time>
      </trkpt>
      <trkpt lat="48.70416" lon="2.49638">
        <ele>87.596</ele>
        <time>2018-12-08T13:16:56Z</time>
      </trkpt>
      <trkpt lat="48.70419" lon="2.49645">
        <ele>87.6199</ele>
        <time>2018-12-08T13:17:01Z</time>
      </trkpt>
      <trkpt lat="48.70423" lon="2.49651">
        <ele>87.6425</ele>
        <time>2018-12-08T13:17:05Z</time>
      </trkpt>
      <trkpt lat="48.70426" lon="2.49656">
        <ele>87.6599</ele>
        <time>2018-12-08T13:17:08Z</time>
      </trkpt>
      <trkpt lat="48.7043" lon="2.4966">
        <ele>87.6764</ele>
        <time>2018-12-08T13:17:11Z</time>
      </trkpt>
      <trkpt lat="48.70432" lon="2.49663">
        <ele>87.6871</ele>
        <time>2018-12-08T13:17:13Z</time>
      </trkpt>
      <trkpt lat="48.70437" lon="2.49668">
        <ele>87.7073</ele>
        <time>2018-12-08T13:17:17Z</time>
      </trkpt>
      <trkpt lat="48.70441" lon="2.49672">
        <ele>87.7252</ele>
        <time>2018-12-08T13:17:21Z</time>
      </trkpt>
      <trkpt lat="48.70446" lon="2.49673">
        <ele>87.7383</ele>
        <time>2018-12-08T13:17:24Z</time>
      </trkpt>
      <trkpt lat="48.70448" lon="2.49673">
        <ele>87.7512</ele>
        <time>2018-12-08T13:17:27Z</time>
      </trkpt>
      <trkpt lat="48.70452" lon="2.49673">
        <ele>87.7632</ele>
        <time>2018-12-08T13:17:30Z</time>
      </trkpt>
      <trkpt lat="48.70456" lon="2.49672">
        <ele>87.7735</ele>
        <time>2018-12-08T13:17:33Z</time>
      </trkpt>
      <trkpt lat="48.7046" lon="2.49671">
        <ele>87.7811</ele>
        <time>2018-12-08T13:17:36Z</time>
      </trkpt>
      <trkpt lat="48.70465" lon="2.49673">
        <ele>87.7855</ele>
        <time>2018-12-08T13:17:39Z</time>
      </trkpt>
      <trkpt lat="48.7047" lon="2.49674">
        <ele>87.7866</ele>
        <time>2018-12-08T13:17:41Z</time>
      </trkpt>
      <trkpt lat="48.70473" lon="2.49675">
        <ele>87.7866</ele>
        <time>2018-12-08T13:17:43Z</time>
      </trkpt>
      <trkpt lat="48.70478" lon="2.49677">
        <ele>87.7867</ele>
        <time>2018-12-08T13:17:47Z</time>
      </trkpt>
      <trkpt lat="48.7048" lon="2.49678">
        <ele>87.7874</ele>
        <time>2018-12-08T13:17:48Z</time>
      </trkpt>
      <trkpt lat="48.70485" lon="2.49682">
        <ele>87.7932</ele>
        <time>2018-12-08T13:17:52Z</time>
      </trkpt>
      <trkpt lat="48.7049" lon="2.49684">
        <ele>87.8081</ele>
        <time>2018-12-08T13:17:57Z</time>
      </trkpt>
      <trkpt lat="48.70495" lon="2.49682">
        <ele>87.8202</ele>
        <time>2018-12-08T13:18:01Z</time>
      </trkpt>
      <trkpt lat="48.70498" lon="2.49681">
        <ele>87.8288</ele>
        <time>2018-12-08T13:18:04Z</time>
      </trkpt>
      <trkpt lat="48.70502" lon="2.49678">
        <ele>87.8383</ele>
        <time>2018-12-08T13:18:08Z</time>
      </trkpt>
      <trkpt lat="48.70505" lon="2.49676">
        <ele>87.8438</ele>
        <time>2018-12-08T13:18:10Z</time>
      </trkpt>
      <trkpt lat="48.7051" lon="2.49673">
        <ele>87.8567</ele>
        <time>2018-12-08T13:18:14Z</time>
      </trkpt>
      <trkpt lat="48.70514" lon="2.49672">
        <ele>87.8679</ele>
        <time>2018-12-08T13:18:17Z</time>
      </trkpt>
      <trkpt lat="48.70519" lon="2.49672">
        <ele>87.8851</ele>
        <time>2018-12-08T13:18:21Z</time>
      </trkpt>
      <trkpt lat="48.70522" lon="2.49673">
        <ele>87.8927</ele>
        <time>2018-12-08T13:18:23Z</time>
      </trkpt>
      <trkpt lat="48.70528" lon="2.49675">
        <ele>87.9081</ele>
        <time>2018-12-08T13:18:27Z</time>
      </trkpt>
      <trkpt lat="48.70532" lon="2.49677">
        <ele>87.9201</ele>
        <time>2018-12-08T13:18:30Z</time>
      </trkpt>
      <trkpt lat="48.70537" lon="2.49678">
        <ele>87.9366</ele>
        <time>2018-12-08T13:18:34Z</time>
      </trkpt>
      <trkpt lat="48.70542" lon="2.49679">
        <ele>87.9638</ele>
        <time>2018-12-08T13:18:41Z</time>
      </trkpt>
      <trkpt lat="48.70547" lon="2.49685">
        <ele>87.9845</ele>
        <time>2018-12-08T13:18:45Z</time>
      </trkpt>
      <trkpt lat="48.70549" lon="2.49688">
        <ele>87.9942</ele>
        <time>2018-12-08T13:18:47Z</time>
      </trkpt>
      <trkpt lat="48.70553" lon="2.49692">
        <ele>88.0171</ele>
        <time>2018-12-08T13:18:52Z</time>
      </trkpt>
      <trkpt lat="48.70557" lon="2.49697">
        <ele>88.0301</ele>
        <time>2018-12-08T13:18:55Z</time>
      </trkpt>
      <trkpt lat="48.70562" lon="2.49694">
        <ele>88.0383</ele>
        <time>2018-12-08T13:18:57Z</time>
      </trkpt>
      <trkpt lat="48.70566" lon="2.49699">
        <ele>88.0553</ele>
        <time>2018-12-08T13:19:02Z</time>
      </trkpt>
      <trkpt lat="48.70569" lon="2.49701">
        <ele>88.0656</ele>
        <time>2018-12-08T13:19:05Z</time>
      </trkpt>
      <trkpt lat="48.70573" lon="2.49704">
        <ele>88.0795</ele>
        <time>2018-12-08T13:19:09Z</time>
      </trkpt>
      <trkpt lat="48.70578" lon="2.49709">
        <ele>88.0993</ele>
        <time>2018-12-08T13:19:15Z</time>
      </trkpt>
      <trkpt lat="48.70582" lon="2.49711">
        <ele>88.1073</ele>
        <time>2018-12-08T13:19:19Z</time>
      </trkpt>
      <trkpt lat="48.70588" lon="2.49716">
        <ele>88.1092</ele>
        <time>2018-12-08T13:19:23Z</time>
      </trkpt>
      <trkpt lat="48.70592" lon="2.49721">
        <ele>88.107</ele>
        <time>2018-12-08T13:19:27Z</time>
      </trkpt>
      <trkpt lat="48.70597" lon="2.49723">
        <ele>88.1027</ele>
        <time>2018-12-08T13:19:32Z</time>
      </trkpt>
      <trkpt lat="48.70602" lon="2.49721">
        <ele>88.0945</ele>
        <time>2018-12-08T13:19:37Z</time>
      </trkpt>
      <trkpt lat="48.70606" lon="2.49719">
        <ele>88.0846</ele>
        <time>2018-12-08T13:19:41Z</time>
      </trkpt>
      <trkpt lat="48.70611" lon="2.49719">
        <ele>88.0699</ele>
        <time>2018-12-08T13:19:45Z</time>
      </trkpt>
      <trkpt lat="48.70616" lon="2.49722">
        <ele>88.057</ele>
        <time>2018-12-08T13:19:50Z</time>
      </trkpt>
      <trkpt lat="48.7062" lon="2.49728">
        <ele>88.052</ele>
        <time>2018-12-08T13:19:54Z</time>
      </trkpt>
      <trkpt lat="48.70622" lon="2.49734">
        <ele>88.0479</ele>
        <time>2018-12-08T13:19:58Z</time>
      </trkpt>
      <trkpt lat="48.70626" lon="2.49739">
        <ele>88.0437</ele>
        <time>2018-12-08T13:20:01Z</time>
      </trkpt>
      <trkpt lat="48.70629" lon="2.49745">
        <ele>88.0381</ele>
        <time>2018-12-08T13:20:04Z</time>
      </trkpt>
      <trkpt lat="48.70631" lon="2.49751">
        <ele>88.0222</ele>
        <time>2018-12-08T13:20:10Z</time>
      </trkpt>
      <trkpt lat="48.70632" lon="2.49758">
        <ele>88.0099</ele>
        <time>2018-12-08T13:20:15Z</time>
      </trkpt>
      <trkpt lat="48.70636" lon="2.49764">
        <ele>88.0053</ele>
        <time>2018-12-08T13:20:19Z</time>
      </trkpt>
      <trkpt lat="48.70641" lon="2.49764">
        <ele>88.0044</ele>
        <time>2018-12-08T13:20:24Z</time>
      </trkpt>
      <trkpt lat="48.70646" lon="2.49766">
        <ele>87.9961</ele>
        <time>2018-12-08T13:20:31Z</time>
      </trkpt>
      <trkpt lat="48.70651" lon="2.4977">
        <ele>87.9938</ele>
        <time>2018-12-08T13:20:36Z</time>
      </trkpt>
      <trkpt lat="48.70654" lon="2.49774">
        <ele>87.9934</ele>
        <time>2018-12-08T13:20:39Z</time>
      </trkpt>
      <trkpt lat="48.70659" lon="2.49776">
        <ele>87.9944</ele>
        <time>2018-12-08T13:20:42Z</time>
      </trkpt>
      <trkpt lat="48.70663" lon="2.4978">
        <ele>87.9942</ele>
        <time>2018-12-08T13:20:45Z</time>
      </trkpt>
      <trkpt lat="48.70666" lon="2.49787">
        <ele>87.9927</ele>
        <time>2018-12-08T13:20:49Z</time>
      </trkpt>
      <trkpt lat="48.70668" lon="2.4979">
        <ele>87.9923</ele>
        <time>2018-12-08T13:20:51Z</time>
      </trkpt>
      <trkpt lat="48.70671" lon="2.49795">
        <ele>87.9954</ele>
        <time>2018-12-08T13:20:54Z</time>
      </trkpt>
      <trkpt lat="48.70671" lon="2.49795">
        <ele>87.9954</ele>
        <time>2018-12-08T13:20:59Z</time>
      </trkpt>
      <trkpt lat="48.70671" lon="2.49795">
        <ele>37</ele>
        <time>2018-12-08T13:20:59Z</time>
      </trkpt>
      <trkpt lat="48.70671" lon="2.49795">
        <ele>37</ele>
        <time>2018-12-08T13:21:03Z</time>
      </trkpt>
      <trkpt lat="48.7068" lon="2.49771">
        <ele>88.0106</ele>
        <time>2018-12-08T13:21:03Z</time>
      </trkpt>
      <trkpt lat="48.70682" lon="2.49765">
        <ele>88.0158</ele>
        <time>2018-12-08T13:21:07Z</time>
      </trkpt>
      <trkpt lat="48.70682" lon="2.49765">
        <ele>37.3</ele>
        <time>2018-12-08T13:21:12Z</time>
      </trkpt>
      <trkpt lat="48.70682" lon="2.49765">
        <ele>37.3</ele>
        <time>2018-12-08T13:21:17Z</time>
      </trkpt>
      <trkpt lat="48.7069" lon="2.49763">
        <ele>88.0245</ele>
        <time>2018-12-08T13:21:17Z</time>
      </trkpt>
      <trkpt lat="48.70694" lon="2.49768">
        <ele>88.0277</ele>
        <time>2018-12-08T13:21:21Z</time>
      </trkpt>
      <trkpt lat="48.70698" lon="2.49776">
        <ele>88.0365</ele>
        <time>2018-12-08T13:21:27Z</time>
      </trkpt>
      <trkpt lat="48.70701" lon="2.49782">
        <ele>88.0429</ele>
        <time>2018-12-08T13:21:31Z</time>
      </trkpt>
      <trkpt lat="48.70704" lon="2.49789">
        <ele>88.0456</ele>
        <time>2018-12-08T13:21:35Z</time>
      </trkpt>
      <trkpt lat="48.70707" lon="2.49795">
        <ele>88.0429</ele>
        <time>2018-12-08T13:21:39Z</time>
      </trkpt>
      <trkpt lat="48.70708" lon="2.49803">
        <ele>88.0316</ele>
        <time>2018-12-08T13:21:44Z</time>
      </trkpt>
      <trkpt lat="48.70709" lon="2.4981">
        <ele>88.0193</ele>
        <time>2018-12-08T13:21:48Z</time>
      </trkpt>
      <trkpt lat="48.7071" lon="2.49817">
        <ele>88.0028</ele>
        <time>2018-12-08T13:21:52Z</time>
      </trkpt>
      <trkpt lat="48.70711" lon="2.49824">
        <ele>87.9803</ele>
        <time>2018-12-08T13:21:57Z</time>
      </trkpt>
      <trkpt lat="48.70713" lon="2.49832">
        <ele>87.949</ele>
        <time>2018-12-08T13:22:03Z</time>
      </trkpt>
      <trkpt lat="48.70713" lon="2.49836">
        <ele>87.9325</ele>
        <time>2018-12-08T13:22:06Z</time>
      </trkpt>
      <trkpt lat="48.70714" lon="2.49846">
        <ele>87.9145</ele>
        <time>2018-12-08T13:22:10Z</time>
      </trkpt>
      <trkpt lat="48.70716" lon="2.49853">
        <ele>87.9042</ele>
        <time>2018-12-08T13:22:15Z</time>
      </trkpt>
      <trkpt lat="48.70718" lon="2.4986">
        <ele>87.9013</ele>
        <time>2018-12-08T13:22:20Z</time>
      </trkpt>
      <trkpt lat="48.70719" lon="2.49865">
        <ele>87.9015</ele>
        <time>2018-12-08T13:22:24Z</time>
      </trkpt>
      <trkpt lat="48.7072" lon="2.49841">
        <ele>87.925</ele>
        <time>2018-12-08T13:22:43Z</time>
      </trkpt>
      <trkpt lat="48.7072" lon="2.49838">
        <ele>87.9296</ele>
        <time>2018-12-08T13:22:45Z</time>
      </trkpt>
      <trkpt lat="48.7072" lon="2.49834">
        <ele>87.9373</ele>
        <time>2018-12-08T13:22:48Z</time>
      </trkpt>
      <trkpt lat="48.7072" lon="2.49827">
        <ele>87.9503</ele>
        <time>2018-12-08T13:22:54Z</time>
      </trkpt>
      <trkpt lat="48.70719" lon="2.4982">
        <ele>87.9566</ele>
        <time>2018-12-08T13:22:57Z</time>
      </trkpt>
      <trkpt lat="48.70722" lon="2.49813">
        <ele>87.9629</ele>
        <time>2018-12-08T13:23:00Z</time>
      </trkpt>
      <trkpt lat="48.70726" lon="2.4981">
        <ele>87.9698</ele>
        <time>2018-12-08T13:23:04Z</time>
      </trkpt>
      <trkpt lat="48.70729" lon="2.49808">
        <ele>87.9758</ele>
        <time>2018-12-08T13:23:10Z</time>
      </trkpt>
      <trkpt lat="48.70733" lon="2.49805">
        <ele>87.9765</ele>
        <time>2018-12-08T13:23:13Z</time>
      </trkpt>
      <trkpt lat="48.70737" lon="2.49801">
        <ele>87.9778</ele>
        <time>2018-12-08T13:23:17Z</time>
      </trkpt>
      <trkpt lat="48.70737" lon="2.49793">
        <ele>87.9755</ele>
        <time>2018-12-08T13:23:24Z</time>
      </trkpt>
      <trkpt lat="48.70732" lon="2.49788">
        <ele>87.9683</ele>
        <time>2018-12-08T13:23:27Z</time>
      </trkpt>
      <trkpt lat="48.70728" lon="2.49783">
        <ele>87.9548</ele>
        <time>2018-12-08T13:23:31Z</time>
      </trkpt>
      <trkpt lat="48.70726" lon="2.49776">
        <ele>87.9385</ele>
        <time>2018-12-08T13:23:35Z</time>
      </trkpt>
      <trkpt lat="48.70723" lon="2.4977">
        <ele>87.9232</ele>
        <time>2018-12-08T13:23:39Z</time>
      </trkpt>
      <trkpt lat="48.7072" lon="2.49764">
        <ele>87.9114</ele>
        <time>2018-12-08T13:23:43Z</time>
      </trkpt>
      <trkpt lat="48.70718" lon="2.49756">
        <ele>87.9116</ele>
        <time>2018-12-08T13:23:48Z</time>
      </trkpt>
      <trkpt lat="48.70718" lon="2.49751">
        <ele>87.9168</ele>
        <time>2018-12-08T13:23:51Z</time>
      </trkpt>
      <trkpt lat="48.70717" lon="2.49747">
        <ele>87.9224</ele>
        <time>2018-12-08T13:23:53Z</time>
      </trkpt>
      <trkpt lat="48.70716" lon="2.49743">
        <ele>87.93</ele>
        <time>2018-12-08T13:23:55Z</time>
      </trkpt>
      <trkpt lat="48.70714" lon="2.49736">
        <ele>87.9554</ele>
        <time>2018-12-08T13:24:00Z</time>
      </trkpt>
      <trkpt lat="48.70714" lon="2.49728">
        <ele>87.9818</ele>
        <time>2018-12-08T13:24:05Z</time>
      </trkpt>
      <trkpt lat="48.70717" lon="2.49722">
        <ele>88.0076</ele>
        <time>2018-12-08T13:24:10Z</time>
      </trkpt>
      <trkpt lat="48.70722" lon="2.49719">
        <ele>88.0323</ele>
        <time>2018-12-08T13:24:14Z</time>
      </trkpt>
      <trkpt lat="48.70727" lon="2.49716">
        <ele>88.0598</ele>
        <time>2018-12-08T13:24:18Z</time>
      </trkpt>
      <trkpt lat="48.70731" lon="2.49716">
        <ele>88.0933</ele>
        <time>2018-12-08T13:24:23Z</time>
      </trkpt>
      <trkpt lat="48.70737" lon="2.49716">
        <ele>88.1257</ele>
        <time>2018-12-08T13:24:28Z</time>
      </trkpt>
      <trkpt lat="48.70743" lon="2.49716">
        <ele>88.153</ele>
        <time>2018-12-08T13:24:33Z</time>
      </trkpt>
      <trkpt lat="48.70748" lon="2.49717">
        <ele>88.1699</ele>
        <time>2018-12-08T13:24:38Z</time>
      </trkpt>
      <trkpt lat="48.70752" lon="2.49718">
        <ele>88.1744</ele>
        <time>2018-12-08T13:24:41Z</time>
      </trkpt>
      <trkpt lat="48.70756" lon="2.49719">
        <ele>88.1756</ele>
        <time>2018-12-08T13:24:44Z</time>
      </trkpt>
      <trkpt lat="48.7076" lon="2.49721">
        <ele>88.1728</ele>
        <time>2018-12-08T13:24:47Z</time>
      </trkpt>
      <trkpt lat="48.70764" lon="2.49722">
        <ele>88.1682</ele>
        <time>2018-12-08T13:24:50Z</time>
      </trkpt>
      <trkpt lat="48.70768" lon="2.49725">
        <ele>88.1622</ele>
        <time>2018-12-08T13:24:54Z</time>
      </trkpt>
      <trkpt lat="48.70772" lon="2.4973">
        <ele>88.1562</ele>
        <time>2018-12-08T13:24:57Z</time>
      </trkpt>
      <trkpt lat="48.70778" lon="2.49733">
        <ele>88.1475</ele>
        <time>2018-12-08T13:25:00Z</time>
      </trkpt>
      <trkpt lat="48.70782" lon="2.49736">
        <ele>88.1382</ele>
        <time>2018-12-08T13:25:03Z</time>
      </trkpt>
      <trkpt lat="48.70786" lon="2.49735">
        <ele>88.1227</ele>
        <time>2018-12-08T13:25:07Z</time>
      </trkpt>
      <trkpt lat="48.70789" lon="2.49729">
        <ele>88.1068</ele>
        <time>2018-12-08T13:25:10Z</time>
      </trkpt>
      <trkpt lat="48.7079" lon="2.49719">
        <ele>88.0802</ele>
        <time>2018-12-08T13:25:14Z</time>
      </trkpt>
      <trkpt lat="48.70793" lon="2.49712">
        <ele>88.0584</ele>
        <time>2018-12-08T13:25:17Z</time>
      </trkpt>
      <trkpt lat="48.70794" lon="2.49704">
        <ele>88.0248</ele>
        <time>2018-12-08T13:25:21Z</time>
      </trkpt>
      <trkpt lat="48.70795" lon="2.497">
        <ele>88.0077</ele>
        <time>2018-12-08T13:25:23Z</time>
      </trkpt>
      <trkpt lat="48.70796" lon="2.49696">
        <ele>87.9831</ele>
        <time>2018-12-08T13:25:26Z</time>
      </trkpt>
      <trkpt lat="48.70797" lon="2.49688">
        <ele>87.9501</ele>
        <time>2018-12-08T13:25:31Z</time>
      </trkpt>
      <trkpt lat="48.70796" lon="2.49681">
        <ele>87.93</ele>
        <time>2018-12-08T13:25:36Z</time>
      </trkpt>
      <trkpt lat="48.70799" lon="2.49675">
        <ele>87.9122</ele>
        <time>2018-12-08T13:25:41Z</time>
      </trkpt>
      <trkpt lat="48.70799" lon="2.49675">
        <ele>36.8</ele>
        <time>2018-12-08T13:25:48Z</time>
      </trkpt>
      <trkpt lat="48.70799" lon="2.49675">
        <ele>36.8</ele>
        <time>2018-12-08T13:34:25Z</time>
      </trkpt>
      <trkpt lat="48.7082" lon="2.49684">
        <ele>86.7781</ele>
        <time>2018-12-08T13:34:25Z</time>
      </trkpt>
      <trkpt lat="48.70828" lon="2.49678">
        <ele>86.7124</ele>
        <time>2018-12-08T13:34:34Z</time>
      </trkpt>
      <trkpt lat="48.70831" lon="2.49676">
        <ele>86.702</ele>
        <time>2018-12-08T13:34:36Z</time>
      </trkpt>
      <trkpt lat="48.70833" lon="2.49674">
        <ele>86.6928</ele>
        <time>2018-12-08T13:34:38Z</time>
      </trkpt>
      <trkpt lat="48.70837" lon="2.49669">
        <ele>86.6786</ele>
        <time>2018-12-08T13:34:42Z</time>
      </trkpt>
      <trkpt lat="48.70841" lon="2.49661">
        <ele>86.6615</ele>
        <time>2018-12-08T13:34:47Z</time>
      </trkpt>
      <trkpt lat="48.70843" lon="2.49658">
        <ele>86.6528</ele>
        <time>2018-12-08T13:34:49Z</time>
      </trkpt>
      <trkpt lat="48.70849" lon="2.49656">
        <ele>86.6433</ele>
        <time>2018-12-08T13:34:51Z</time>
      </trkpt>
      <trkpt lat="48.70853" lon="2.49652">
        <ele>86.629</ele>
        <time>2018-12-08T13:34:54Z</time>
      </trkpt>
      <trkpt lat="48.70857" lon="2.49649">
        <ele>86.6103</ele>
        <time>2018-12-08T13:34:57Z</time>
      </trkpt>
      <trkpt lat="48.7086" lon="2.49646">
        <ele>86.5956</ele>
        <time>2018-12-08T13:34:59Z</time>
      </trkpt>
      <trkpt lat="48.70862" lon="2.49643">
        <ele>86.5693</ele>
        <time>2018-12-08T13:35:02Z</time>
      </trkpt>
      <trkpt lat="48.70864" lon="2.49635">
        <ele>86.5413</ele>
        <time>2018-12-08T13:35:05Z</time>
      </trkpt>
      <trkpt lat="48.70865" lon="2.49628">
        <ele>86.5131</ele>
        <time>2018-12-08T13:35:08Z</time>
      </trkpt>
      <trkpt lat="48.70865" lon="2.49621">
        <ele>86.4851</ele>
        <time>2018-12-08T13:35:11Z</time>
      </trkpt>
      <trkpt lat="48.70865" lon="2.49614">
        <ele>86.4584</ele>
        <time>2018-12-08T13:35:14Z</time>
      </trkpt>
      <trkpt lat="48.70863" lon="2.49606">
        <ele>86.426</ele>
        <time>2018-12-08T13:35:18Z</time>
      </trkpt>
      <trkpt lat="48.70863" lon="2.49598">
        <ele>86.3828</ele>
        <time>2018-12-08T13:35:24Z</time>
      </trkpt>
      <trkpt lat="48.70864" lon="2.4959">
        <ele>86.3442</ele>
        <time>2018-12-08T13:35:30Z</time>
      </trkpt>
      <trkpt lat="48.70867" lon="2.49582">
        <ele>86.3228</ele>
        <time>2018-12-08T13:35:34Z</time>
      </trkpt>
      <trkpt lat="48.70868" lon="2.49579">
        <ele>86.3099</ele>
        <time>2018-12-08T13:35:37Z</time>
      </trkpt>
      <trkpt lat="48.7087" lon="2.49575">
        <ele>86.2982</ele>
        <time>2018-12-08T13:35:40Z</time>
      </trkpt>
      <trkpt lat="48.70875" lon="2.49569">
        <ele>86.2763</ele>
        <time>2018-12-08T13:35:46Z</time>
      </trkpt>
      <trkpt lat="48.7088" lon="2.49566">
        <ele>86.2653</ele>
        <time>2018-12-08T13:35:49Z</time>
      </trkpt>
      <trkpt lat="48.70885" lon="2.49565">
        <ele>86.2516</ele>
        <time>2018-12-08T13:35:53Z</time>
      </trkpt>
      <trkpt lat="48.70888" lon="2.49564">
        <ele>86.2456</ele>
        <time>2018-12-08T13:35:55Z</time>
      </trkpt>
      <trkpt lat="48.70892" lon="2.49562">
        <ele>86.2381</ele>
        <time>2018-12-08T13:35:59Z</time>
      </trkpt>
      <trkpt lat="48.70896" lon="2.4956">
        <ele>86.236</ele>
        <time>2018-12-08T13:36:01Z</time>
      </trkpt>
      <trkpt lat="48.70901" lon="2.49556">
        <ele>86.2339</ele>
        <time>2018-12-08T13:36:04Z</time>
      </trkpt>
      <trkpt lat="48.70903" lon="2.4955">
        <ele>86.2304</ele>
        <time>2018-12-08T13:36:09Z</time>
      </trkpt>
      <trkpt lat="48.70907" lon="2.49546">
        <ele>86.2263</ele>
        <time>2018-12-08T13:36:12Z</time>
      </trkpt>
      <trkpt lat="48.7091" lon="2.4954">
        <ele>86.2217</ele>
        <time>2018-12-08T13:36:15Z</time>
      </trkpt>
      <trkpt lat="48.70912" lon="2.49537">
        <ele>86.2157</ele>
        <time>2018-12-08T13:36:18Z</time>
      </trkpt>
      <trkpt lat="48.70915" lon="2.4953">
        <ele>86.2035</ele>
        <time>2018-12-08T13:36:23Z</time>
      </trkpt>
      <trkpt lat="48.70919" lon="2.49524">
        <ele>86.1893</ele>
        <time>2018-12-08T13:36:28Z</time>
      </trkpt>
      <trkpt lat="48.70921" lon="2.49521">
        <ele>86.1827</ele>
        <time>2018-12-08T13:36:30Z</time>
      </trkpt>
      <trkpt lat="48.70923" lon="2.49518">
        <ele>86.1732</ele>
        <time>2018-12-08T13:36:33Z</time>
      </trkpt>
      <trkpt lat="48.70927" lon="2.49516">
        <ele>86.1628</ele>
        <time>2018-12-08T13:36:36Z</time>
      </trkpt>
      <trkpt lat="48.70931" lon="2.49514">
        <ele>86.1553</ele>
        <time>2018-12-08T13:36:38Z</time>
      </trkpt>
      <trkpt lat="48.70935" lon="2.4951">
        <ele>86.1411</ele>
        <time>2018-12-08T13:36:42Z</time>
      </trkpt>
      <trkpt lat="48.70939" lon="2.49507">
        <ele>86.1259</ele>
        <time>2018-12-08T13:36:47Z</time>
      </trkpt>
      <trkpt lat="48.70942" lon="2.49503">
        <ele>86.1184</ele>
        <time>2018-12-08T13:36:50Z</time>
      </trkpt>
      <trkpt lat="48.70948" lon="2.49499">
        <ele>86.1087</ele>
        <time>2018-12-08T13:36:54Z</time>
      </trkpt>
      <trkpt lat="48.7095" lon="2.49497">
        <ele>86.1044</ele>
        <time>2018-12-08T13:36:56Z</time>
      </trkpt>
      <trkpt lat="48.70955" lon="2.49494">
        <ele>86.0955</ele>
        <time>2018-12-08T13:37:01Z</time>
      </trkpt>
      <trkpt lat="48.70957" lon="2.49492">
        <ele>86.0907</ele>
        <time>2018-12-08T13:37:04Z</time>
      </trkpt>
      <trkpt lat="48.7096" lon="2.4949">
        <ele>86.0866</ele>
        <time>2018-12-08T13:37:07Z</time>
      </trkpt>
      <trkpt lat="48.70965" lon="2.49489">
        <ele>86.0828</ele>
        <time>2018-12-08T13:37:10Z</time>
      </trkpt>
      <trkpt lat="48.7097" lon="2.49483">
        <ele>86.0805</ele>
        <time>2018-12-08T13:37:13Z</time>
      </trkpt>
      <trkpt lat="48.70973" lon="2.49479">
        <ele>86.0805</ele>
        <time>2018-12-08T13:37:15Z</time>
      </trkpt>
      <trkpt lat="48.70981" lon="2.49477">
        <ele>86.0778</ele>
        <time>2018-12-08T13:37:18Z</time>
      </trkpt>
      <trkpt lat="48.70984" lon="2.49476">
        <ele>86.0767</ele>
        <time>2018-12-08T13:37:20Z</time>
      </trkpt>
      <trkpt lat="48.70987" lon="2.49475">
        <ele>86.0788</ele>
        <time>2018-12-08T13:37:22Z</time>
      </trkpt>
      <trkpt lat="48.70992" lon="2.49473">
        <ele>86.0821</ele>
        <time>2018-12-08T13:37:25Z</time>
      </trkpt>
      <trkpt lat="48.70996" lon="2.49468">
        <ele>86.0823</ele>
        <time>2018-12-08T13:37:30Z</time>
      </trkpt>
      <trkpt lat="48.70996" lon="2.49468">
        <ele>35.3</ele>
        <time>2018-12-08T13:37:35Z</time>
      </trkpt>
      <trkpt lat="48.70996" lon="2.49468">
        <ele>35.3</ele>
        <time>2018-12-08T13:37:42Z</time>
      </trkpt>
      <trkpt lat="48.71003" lon="2.4946">
        <ele>86.1157</ele>
        <time>2018-12-08T13:37:42Z</time>
      </trkpt>
      <trkpt lat="48.71006" lon="2.49455">
        <ele>86.1304</ele>
        <time>2018-12-08T13:37:45Z</time>
      </trkpt>
      <trkpt lat="48.7101" lon="2.49449">
        <ele>86.1457</ele>
        <time>2018-12-08T13:37:49Z</time>
      </trkpt>
      <trkpt lat="48.71014" lon="2.49444">
        <ele>86.1398</ele>
        <time>2018-12-08T13:37:55Z</time>
      </trkpt>
      <trkpt lat="48.71017" lon="2.4944">
        <ele>86.1313</ele>
        <time>2018-12-08T13:37:59Z</time>
      </trkpt>
      <trkpt lat="48.71018" lon="2.49433">
        <ele>86.1166</ele>
        <time>2018-12-08T13:38:03Z</time>
      </trkpt>
      <trkpt lat="48.7102" lon="2.49426">
        <ele>86.095</ele>
        <time>2018-12-08T13:38:08Z</time>
      </trkpt>
      <trkpt lat="48.71023" lon="2.4942">
        <ele>86.0803</ele>
        <time>2018-12-08T13:38:11Z</time>
      </trkpt>
      <trkpt lat="48.71028" lon="2.49416">
        <ele>86.0659</ele>
        <time>2018-12-08T13:38:14Z</time>
      </trkpt>
      <trkpt lat="48.71033" lon="2.49414">
        <ele>86.0538</ele>
        <time>2018-12-08T13:38:17Z</time>
      </trkpt>
      <trkpt lat="48.71035" lon="2.49413">
        <ele>86.0469</ele>
        <time>2018-12-08T13:38:19Z</time>
      </trkpt>
      <trkpt lat="48.71037" lon="2.49412">
        <ele>86.0409</ele>
        <time>2018-12-08T13:38:21Z</time>
      </trkpt>
      <trkpt lat="48.71042" lon="2.49408">
        <ele>86.0294</ele>
        <time>2018-12-08T13:38:25Z</time>
      </trkpt>
      <trkpt lat="48.71046" lon="2.49404">
        <ele>86.0167</ele>
        <time>2018-12-08T13:38:29Z</time>
      </trkpt>
      <trkpt lat="48.71052" lon="2.49401">
        <ele>86.0042</ele>
        <time>2018-12-08T13:38:32Z</time>
      </trkpt>
      <trkpt lat="48.71056" lon="2.49399">
        <ele>85.9874</ele>
        <time>2018-12-08T13:38:36Z</time>
      </trkpt>
      <trkpt lat="48.71058" lon="2.49398">
        <ele>85.978</ele>
        <time>2018-12-08T13:38:38Z</time>
      </trkpt>
      <trkpt lat="48.71063" lon="2.49394">
        <ele>85.961</ele>
        <time>2018-12-08T13:38:41Z</time>
      </trkpt>
      <trkpt lat="48.71067" lon="2.49389">
        <ele>85.9297</ele>
        <time>2018-12-08T13:38:46Z</time>
      </trkpt>
      <trkpt lat="48.71072" lon="2.49385">
        <ele>85.9004</ele>
        <time>2018-12-08T13:38:50Z</time>
      </trkpt>
      <trkpt lat="48.71077" lon="2.49383">
        <ele>85.8784</ele>
        <time>2018-12-08T13:38:53Z</time>
      </trkpt>
      <trkpt lat="48.71088" lon="2.49382">
        <ele>85.8487</ele>
        <time>2018-12-08T13:38:57Z</time>
      </trkpt>
      <trkpt lat="48.71093" lon="2.4938">
        <ele>85.83</ele>
        <time>2018-12-08T13:39:00Z</time>
      </trkpt>
      <trkpt lat="48.71097" lon="2.49376">
        <ele>85.8138</ele>
        <time>2018-12-08T13:39:05Z</time>
      </trkpt>
      <trkpt lat="48.711" lon="2.49373">
        <ele>85.811</ele>
        <time>2018-12-08T13:39:08Z</time>
      </trkpt>
      <trkpt lat="48.71103" lon="2.49368">
        <ele>85.8155</ele>
        <time>2018-12-08T13:39:13Z</time>
      </trkpt>
      <trkpt lat="48.71109" lon="2.49368">
        <ele>85.8227</ele>
        <time>2018-12-08T13:39:17Z</time>
      </trkpt>
      <trkpt lat="48.71113" lon="2.49372">
        <ele>85.8294</ele>
        <time>2018-12-08T13:39:21Z</time>
      </trkpt>
      <trkpt lat="48.71117" lon="2.49375">
        <ele>85.8378</ele>
        <time>2018-12-08T13:39:27Z</time>
      </trkpt>
      <trkpt lat="48.71121" lon="2.49383">
        <ele>85.8553</ele>
        <time>2018-12-08T13:39:32Z</time>
      </trkpt>
      <trkpt lat="48.71124" lon="2.49388">
        <ele>85.9068</ele>
        <time>2018-12-08T13:39:39Z</time>
      </trkpt>
      <trkpt lat="48.71127" lon="2.49394">
        <ele>85.9518</ele>
        <time>2018-12-08T13:39:43Z</time>
      </trkpt>
      <trkpt lat="48.71132" lon="2.49398">
        <ele>86</ele>
        <time>2018-12-08T13:39:47Z</time>
      </trkpt>
      <trkpt lat="48.71135" lon="2.49404">
        <ele>86.0515</ele>
        <time>2018-12-08T13:39:51Z</time>
      </trkpt>
      <trkpt lat="48.71137" lon="2.49409">
        <ele>86.0958</ele>
        <time>2018-12-08T13:39:54Z</time>
      </trkpt>
      <trkpt lat="48.71138" lon="2.49412">
        <ele>86.1278</ele>
        <time>2018-12-08T13:39:56Z</time>
      </trkpt>
      <trkpt lat="48.7114" lon="2.49419">
        <ele>86.2179</ele>
        <time>2018-12-08T13:40:01Z</time>
      </trkpt>
      <trkpt lat="48.71141" lon="2.49423">
        <ele>86.281</ele>
        <time>2018-12-08T13:40:04Z</time>
      </trkpt>
      <trkpt lat="48.71143" lon="2.49429">
        <ele>86.3958</ele>
        <time>2018-12-08T13:40:09Z</time>
      </trkpt>
      <trkpt lat="48.71146" lon="2.49435">
        <ele>86.491</ele>
        <time>2018-12-08T13:40:13Z</time>
      </trkpt>
      <trkpt lat="48.71148" lon="2.49439">
        <ele>86.5634</ele>
        <time>2018-12-08T13:40:16Z</time>
      </trkpt>
      <trkpt lat="48.71149" lon="2.49444">
        <ele>86.637</ele>
        <time>2018-12-08T13:40:19Z</time>
      </trkpt>
      <trkpt lat="48.71151" lon="2.49451">
        <ele>86.6863</ele>
        <time>2018-12-08T13:40:21Z</time>
      </trkpt>
      <trkpt lat="48.71159" lon="2.49449">
        <ele>86.7834</ele>
        <time>2018-12-08T13:40:25Z</time>
      </trkpt>
      <trkpt lat="48.71163" lon="2.49445">
        <ele>86.8289</ele>
        <time>2018-12-08T13:40:27Z</time>
      </trkpt>
      <trkpt lat="48.71169" lon="2.49441">
        <ele>86.8942</ele>
        <time>2018-12-08T13:40:30Z</time>
      </trkpt>
      <trkpt lat="48.71175" lon="2.49438">
        <ele>86.9339</ele>
        <time>2018-12-08T13:40:32Z</time>
      </trkpt>
      <trkpt lat="48.7118" lon="2.49438">
        <ele>86.9895</ele>
        <time>2018-12-08T13:40:35Z</time>
      </trkpt>
      <trkpt lat="48.71185" lon="2.49435">
        <ele>87.0553</ele>
        <time>2018-12-08T13:40:39Z</time>
      </trkpt>
      <trkpt lat="48.71189" lon="2.4943">
        <ele>87.1108</ele>
        <time>2018-12-08T13:40:43Z</time>
      </trkpt>
      <trkpt lat="48.71192" lon="2.49427">
        <ele>87.134</ele>
        <time>2018-12-08T13:40:45Z</time>
      </trkpt>
      <trkpt lat="48.71196" lon="2.49424">
        <ele>87.1781</ele>
        <time>2018-12-08T13:40:49Z</time>
      </trkpt>
      <trkpt lat="48.712" lon="2.49421">
        <ele>87.1993</ele>
        <time>2018-12-08T13:40:51Z</time>
      </trkpt>
      <trkpt lat="48.71203" lon="2.4942">
        <ele>87.2201</ele>
        <time>2018-12-08T13:40:53Z</time>
      </trkpt>
      <trkpt lat="48.71207" lon="2.49417">
        <ele>87.2567</ele>
        <time>2018-12-08T13:40:57Z</time>
      </trkpt>
      <trkpt lat="48.7121" lon="2.49413">
        <ele>87.2882</ele>
        <time>2018-12-08T13:41:02Z</time>
      </trkpt>
      <trkpt lat="48.71212" lon="2.4941">
        <ele>87.2954</ele>
        <time>2018-12-08T13:41:04Z</time>
      </trkpt>
      <trkpt lat="48.71215" lon="2.49407">
        <ele>87.3026</ele>
        <time>2018-12-08T13:41:07Z</time>
      </trkpt>
      <trkpt lat="48.71218" lon="2.49402">
        <ele>87.3047</ele>
        <time>2018-12-08T13:41:12Z</time>
      </trkpt>
      <trkpt lat="48.71223" lon="2.494">
        <ele>87.3002</ele>
        <time>2018-12-08T13:41:15Z</time>
      </trkpt>
      <trkpt lat="48.71228" lon="2.49398">
        <ele>87.2913</ele>
        <time>2018-12-08T13:41:19Z</time>
      </trkpt>
      <trkpt lat="48.7123" lon="2.49396">
        <ele>87.2802</ele>
        <time>2018-12-08T13:41:22Z</time>
      </trkpt>
      <trkpt lat="48.71235" lon="2.49395">
        <ele>87.2629</ele>
        <time>2018-12-08T13:41:26Z</time>
      </trkpt>
      <trkpt lat="48.7124" lon="2.49394">
        <ele>87.2497</ele>
        <time>2018-12-08T13:41:30Z</time>
      </trkpt>
      <trkpt lat="48.71246" lon="2.49391">
        <ele>87.2454</ele>
        <time>2018-12-08T13:41:34Z</time>
      </trkpt>
      <trkpt lat="48.71248" lon="2.49389">
        <ele>87.2466</ele>
        <time>2018-12-08T13:41:36Z</time>
      </trkpt>
      <trkpt lat="48.71251" lon="2.49387">
        <ele>87.2537</ele>
        <time>2018-12-08T13:41:39Z</time>
      </trkpt>
      <trkpt lat="48.71254" lon="2.49385">
        <ele>87.2639</ele>
        <time>2018-12-08T13:41:42Z</time>
      </trkpt>
      <trkpt lat="48.7126" lon="2.49384">
        <ele>87.286</ele>
        <time>2018-12-08T13:41:47Z</time>
      </trkpt>
      <trkpt lat="48.71262" lon="2.49383">
        <ele>87.2966</ele>
        <time>2018-12-08T13:41:49Z</time>
      </trkpt>
      <trkpt lat="48.71266" lon="2.49381">
        <ele>87.3157</ele>
        <time>2018-12-08T13:41:52Z</time>
      </trkpt>
      <trkpt lat="48.71271" lon="2.49379">
        <ele>87.3454</ele>
        <time>2018-12-08T13:41:56Z</time>
      </trkpt>
      <trkpt lat="48.71275" lon="2.49374">
        <ele>87.3778</ele>
        <time>2018-12-08T13:42:01Z</time>
      </trkpt>
      <trkpt lat="48.71279" lon="2.49368">
        <ele>87.4131</ele>
        <time>2018-12-08T13:42:05Z</time>
      </trkpt>
      <trkpt lat="48.71282" lon="2.49361">
        <ele>87.4388</ele>
        <time>2018-12-08T13:42:08Z</time>
      </trkpt>
      <trkpt lat="48.71285" lon="2.49358">
        <ele>87.4544</ele>
        <time>2018-12-08T13:42:10Z</time>
      </trkpt>
      <trkpt lat="48.71288" lon="2.49353">
        <ele>87.4717</ele>
        <time>2018-12-08T13:42:12Z</time>
      </trkpt>
      <trkpt lat="48.71293" lon="2.49343">
        <ele>87.5012</ele>
        <time>2018-12-08T13:42:15Z</time>
      </trkpt>
      <trkpt lat="48.71298" lon="2.49338">
        <ele>87.5306</ele>
        <time>2018-12-08T13:42:18Z</time>
      </trkpt>
      <trkpt lat="48.71301" lon="2.49332">
        <ele>87.5617</ele>
        <time>2018-12-08T13:42:22Z</time>
      </trkpt>
      <trkpt lat="48.71304" lon="2.49326">
        <ele>87.5977</ele>
        <time>2018-12-08T13:42:29Z</time>
      </trkpt>
      <trkpt lat="48.71305" lon="2.49323">
        <ele>87.6088</ele>
        <time>2018-12-08T13:42:31Z</time>
      </trkpt>
      <trkpt lat="48.71309" lon="2.49319">
        <ele>87.6459</ele>
        <time>2018-12-08T13:42:37Z</time>
      </trkpt>
      <trkpt lat="48.71312" lon="2.49318">
        <ele>87.6737</ele>
        <time>2018-12-08T13:42:41Z</time>
      </trkpt>
      <trkpt lat="48.71317" lon="2.49316">
        <ele>87.7141</ele>
        <time>2018-12-08T13:42:46Z</time>
      </trkpt>
      <trkpt lat="48.71322" lon="2.49312">
        <ele>87.7492</ele>
        <time>2018-12-08T13:42:50Z</time>
      </trkpt>
      <trkpt lat="48.71324" lon="2.4931">
        <ele>87.7666</ele>
        <time>2018-12-08T13:42:52Z</time>
      </trkpt>
      <trkpt lat="48.71327" lon="2.49307">
        <ele>87.784</ele>
        <time>2018-12-08T13:42:54Z</time>
      </trkpt>
      <trkpt lat="48.71329" lon="2.49305">
        <ele>87.8096</ele>
        <time>2018-12-08T13:42:57Z</time>
      </trkpt>
      <trkpt lat="48.71329" lon="2.49305">
        <ele>34.4</ele>
        <time>2018-12-08T13:43:04Z</time>
      </trkpt>
      <trkpt lat="48.71329" lon="2.49305">
        <ele>34.4</ele>
        <time>2018-12-08T13:43:11Z</time>
      </trkpt>
      <trkpt lat="48.71336" lon="2.49309">
        <ele>87.9456</ele>
        <time>2018-12-08T13:43:11Z</time>
      </trkpt>
      <trkpt lat="48.7134" lon="2.49315">
        <ele>87.9986</ele>
        <time>2018-12-08T13:43:15Z</time>
      </trkpt>
      <trkpt lat="48.71343" lon="2.49321">
        <ele>88.0563</ele>
        <time>2018-12-08T13:43:19Z</time>
      </trkpt>
      <trkpt lat="48.71348" lon="2.49324">
        <ele>88.1156</ele>
        <time>2018-12-08T13:43:23Z</time>
      </trkpt>
      <trkpt lat="48.71352" lon="2.49321">
        <ele>88.1746</ele>
        <time>2018-12-08T13:43:28Z</time>
      </trkpt>
      <trkpt lat="48.71354" lon="2.49319">
        <ele>88.2022</ele>
        <time>2018-12-08T13:43:30Z</time>
      </trkpt>
      <trkpt lat="48.71358" lon="2.49315">
        <ele>88.2553</ele>
        <time>2018-12-08T13:43:34Z</time>
      </trkpt>
      <trkpt lat="48.7136" lon="2.49309">
        <ele>88.3375</ele>
        <time>2018-12-08T13:43:40Z</time>
      </trkpt>
      <trkpt lat="48.71364" lon="2.49304">
        <ele>88.3949</ele>
        <time>2018-12-08T13:43:44Z</time>
      </trkpt>
      <trkpt lat="48.71366" lon="2.49301">
        <ele>88.4085</ele>
        <time>2018-12-08T13:43:45Z</time>
      </trkpt>
      <trkpt lat="48.71368" lon="2.49299">
        <ele>88.4215</ele>
        <time>2018-12-08T13:43:46Z</time>
      </trkpt>
      <trkpt lat="48.71371" lon="2.49293">
        <ele>88.4592</ele>
        <time>2018-12-08T13:43:49Z</time>
      </trkpt>
      <trkpt lat="48.71375" lon="2.4929">
        <ele>88.4816</ele>
        <time>2018-12-08T13:43:51Z</time>
      </trkpt>
      <trkpt lat="48.71379" lon="2.49288">
        <ele>88.5005</ele>
        <time>2018-12-08T13:43:53Z</time>
      </trkpt>
      <trkpt lat="48.7138" lon="2.4928">
        <ele>88.5375</ele>
        <time>2018-12-08T13:43:58Z</time>
      </trkpt>
      <trkpt lat="48.71377" lon="2.49273">
        <ele>88.5579</ele>
        <time>2018-12-08T13:44:01Z</time>
      </trkpt>
      <trkpt lat="48.71375" lon="2.49265">
        <ele>88.5715</ele>
        <time>2018-12-08T13:44:03Z</time>
      </trkpt>
      <trkpt lat="48.71375" lon="2.49257">
        <ele>88.5925</ele>
        <time>2018-12-08T13:44:06Z</time>
      </trkpt>
      <trkpt lat="48.71375" lon="2.49253">
        <ele>88.6055</ele>
        <time>2018-12-08T13:44:08Z</time>
      </trkpt>
      <trkpt lat="48.71375" lon="2.49247">
        <ele>88.6241</ele>
        <time>2018-12-08T13:44:11Z</time>
      </trkpt>
      <trkpt lat="48.71374" lon="2.4924">
        <ele>88.6406</ele>
        <time>2018-12-08T13:44:14Z</time>
      </trkpt>
      <trkpt lat="48.71372" lon="2.49233">
        <ele>88.6623</ele>
        <time>2018-12-08T13:44:18Z</time>
      </trkpt>
      <trkpt lat="48.7138" lon="2.49229">
        <ele>88.6773</ele>
        <time>2018-12-08T13:44:21Z</time>
      </trkpt>
      <trkpt lat="48.71383" lon="2.49228">
        <ele>88.6815</ele>
        <time>2018-12-08T13:44:22Z</time>
      </trkpt>
      <trkpt lat="48.71388" lon="2.49224">
        <ele>88.685</ele>
        <time>2018-12-08T13:44:23Z</time>
      </trkpt>
      <trkpt lat="48.7139" lon="2.49218">
        <ele>88.6904</ele>
        <time>2018-12-08T13:44:25Z</time>
      </trkpt>
      <trkpt lat="48.7139" lon="2.4921">
        <ele>88.6971</ele>
        <time>2018-12-08T13:44:32Z</time>
      </trkpt>
      <trkpt lat="48.7139" lon="2.49202">
        <ele>88.7002</ele>
        <time>2018-12-08T13:44:37Z</time>
      </trkpt>
      <trkpt lat="48.7139" lon="2.49198">
        <ele>88.7008</ele>
        <time>2018-12-08T13:44:39Z</time>
      </trkpt>
      <trkpt lat="48.71391" lon="2.49191">
        <ele>88.7033</ele>
        <time>2018-12-08T13:44:44Z</time>
      </trkpt>
      <trkpt lat="48.7139" lon="2.49184">
        <ele>88.7036</ele>
        <time>2018-12-08T13:44:49Z</time>
      </trkpt>
      <trkpt lat="48.71392" lon="2.49177">
        <ele>88.7058</ele>
        <time>2018-12-08T13:44:55Z</time>
      </trkpt>
      <trkpt lat="48.71396" lon="2.49172">
        <ele>88.7045</ele>
        <time>2018-12-08T13:44:59Z</time>
      </trkpt>
      <trkpt lat="48.714" lon="2.49169">
        <ele>88.7016</ele>
        <time>2018-12-08T13:45:02Z</time>
      </trkpt>
      <trkpt lat="48.71403" lon="2.49161">
        <ele>88.6969</ele>
        <time>2018-12-08T13:45:08Z</time>
      </trkpt>
      <trkpt lat="48.71405" lon="2.49154">
        <ele>88.694</ele>
        <time>2018-12-08T13:45:13Z</time>
      </trkpt>
      <trkpt lat="48.71406" lon="2.49147">
        <ele>88.6876</ele>
        <time>2018-12-08T13:45:17Z</time>
      </trkpt>
      <trkpt lat="48.7141" lon="2.49142">
        <ele>88.6796</ele>
        <time>2018-12-08T13:45:22Z</time>
      </trkpt>
      <trkpt lat="48.71413" lon="2.49137">
        <ele>88.6746</ele>
        <time>2018-12-08T13:45:25Z</time>
      </trkpt>
      <trkpt lat="48.71417" lon="2.49131">
        <ele>88.6626</ele>
        <time>2018-12-08T13:45:29Z</time>
      </trkpt>
      <trkpt lat="48.71421" lon="2.49123">
        <ele>88.6431</ele>
        <time>2018-12-08T13:45:34Z</time>
      </trkpt>
      <trkpt lat="48.71422" lon="2.4912">
        <ele>88.6392</ele>
        <time>2018-12-08T13:45:35Z</time>
      </trkpt>
      <trkpt lat="48.71424" lon="2.49116">
        <ele>88.6318</ele>
        <time>2018-12-08T13:45:37Z</time>
      </trkpt>
      <trkpt lat="48.71426" lon="2.49113">
        <ele>88.6251</ele>
        <time>2018-12-08T13:45:39Z</time>
      </trkpt>
      <trkpt lat="48.7143" lon="2.49107">
        <ele>88.6123</ele>
        <time>2018-12-08T13:45:42Z</time>
      </trkpt>
      <trkpt lat="48.71432" lon="2.49099">
        <ele>88.5976</ele>
        <time>2018-12-08T13:45:45Z</time>
      </trkpt>
      <trkpt lat="48.71432" lon="2.49091">
        <ele>88.5815</ele>
        <time>2018-12-08T13:45:49Z</time>
      </trkpt>
      <trkpt lat="48.71434" lon="2.49085">
        <ele>88.5755</ele>
        <time>2018-12-08T13:45:52Z</time>
      </trkpt>
      <trkpt lat="48.71437" lon="2.49078">
        <ele>88.5692</ele>
        <time>2018-12-08T13:45:55Z</time>
      </trkpt>
      <trkpt lat="48.71439" lon="2.49072">
        <ele>88.5556</ele>
        <time>2018-12-08T13:46:00Z</time>
      </trkpt>
      <trkpt lat="48.71441" lon="2.49068">
        <ele>88.5438</ele>
        <time>2018-12-08T13:46:04Z</time>
      </trkpt>
      <trkpt lat="48.71442" lon="2.49061">
        <ele>88.5349</ele>
        <time>2018-12-08T13:46:09Z</time>
      </trkpt>
      <trkpt lat="48.71443" lon="2.49057">
        <ele>88.5332</ele>
        <time>2018-12-08T13:46:11Z</time>
      </trkpt>
      <trkpt lat="48.71445" lon="2.49052">
        <ele>88.5319</ele>
        <time>2018-12-08T13:46:14Z</time>
      </trkpt>
      <trkpt lat="48.71448" lon="2.49047">
        <ele>88.5311</ele>
        <time>2018-12-08T13:46:17Z</time>
      </trkpt>
      <trkpt lat="48.7145" lon="2.4904">
        <ele>88.5292</ele>
        <time>2018-12-08T13:46:20Z</time>
      </trkpt>
      <trkpt lat="48.71452" lon="2.49036">
        <ele>88.5258</ele>
        <time>2018-12-08T13:46:24Z</time>
      </trkpt>
      <trkpt lat="48.71453" lon="2.49033">
        <ele>88.5241</ele>
        <time>2018-12-08T13:46:26Z</time>
      </trkpt>
      <trkpt lat="48.71454" lon="2.49025">
        <ele>88.5148</ele>
        <time>2018-12-08T13:46:32Z</time>
      </trkpt>
      <trkpt lat="48.71454" lon="2.49017">
        <ele>88.5027</ele>
        <time>2018-12-08T13:46:35Z</time>
      </trkpt>
      <trkpt lat="48.71454" lon="2.49009">
        <ele>88.4838</ele>
        <time>2018-12-08T13:46:38Z</time>
      </trkpt>
      <trkpt lat="48.71456" lon="2.49001">
        <ele>88.4614</ele>
        <time>2018-12-08T13:46:42Z</time>
      </trkpt>
      <trkpt lat="48.71454" lon="2.48994">
        <ele>88.4395</ele>
        <time>2018-12-08T13:46:45Z</time>
      </trkpt>
      <trkpt lat="48.71453" lon="2.48987">
        <ele>88.4192</ele>
        <time>2018-12-08T13:46:48Z</time>
      </trkpt>
      <trkpt lat="48.71452" lon="2.48978">
        <ele>88.3935</ele>
        <time>2018-12-08T13:46:52Z</time>
      </trkpt>
      <trkpt lat="48.71451" lon="2.48974">
        <ele>88.3814</ele>
        <time>2018-12-08T13:46:54Z</time>
      </trkpt>
      <trkpt lat="48.71449" lon="2.48967">
        <ele>88.3521</ele>
        <time>2018-12-08T13:46:59Z</time>
      </trkpt>
      <trkpt lat="48.71449" lon="2.48958">
        <ele>88.3149</ele>
        <time>2018-12-08T13:47:06Z</time>
      </trkpt>
      <trkpt lat="48.71449" lon="2.4895">
        <ele>88.3001</ele>
        <time>2018-12-08T13:47:09Z</time>
      </trkpt>
      <trkpt lat="48.71451" lon="2.48938">
        <ele>88.2905</ele>
        <time>2018-12-08T13:47:11Z</time>
      </trkpt>
      <trkpt lat="48.71455" lon="2.48934">
        <ele>88.286</ele>
        <time>2018-12-08T13:47:12Z</time>
      </trkpt>
      <trkpt lat="48.71451" lon="2.48923">
        <ele>88.2576</ele>
        <time>2018-12-08T13:47:20Z</time>
      </trkpt>
      <trkpt lat="48.71464" lon="2.48934">
        <ele>88.2303</ele>
        <time>2018-12-08T13:47:28Z</time>
      </trkpt>
      <trkpt lat="48.71467" lon="2.4894">
        <ele>88.2199</ele>
        <time>2018-12-08T13:47:31Z</time>
      </trkpt>
      <trkpt lat="48.71469" lon="2.48943">
        <ele>88.2127</ele>
        <time>2018-12-08T13:47:33Z</time>
      </trkpt>
      <trkpt lat="48.71473" lon="2.48947">
        <ele>88.1936</ele>
        <time>2018-12-08T13:47:39Z</time>
      </trkpt>
      <trkpt lat="48.71476" lon="2.48952">
        <ele>88.1827</ele>
        <time>2018-12-08T13:47:45Z</time>
      </trkpt>
      <trkpt lat="48.7148" lon="2.48955">
        <ele>88.1862</ele>
        <time>2018-12-08T13:47:51Z</time>
      </trkpt>
      <trkpt lat="48.7148" lon="2.48955">
        <ele>38.8</ele>
        <time>2018-12-08T13:47:58Z</time>
      </trkpt>
      <trkpt lat="48.7148" lon="2.48955">
        <ele>38.8</ele>
        <time>2018-12-08T13:48:15Z</time>
      </trkpt>
      <trkpt lat="48.71464" lon="2.48955">
        <ele>88.2588</ele>
        <time>2018-12-08T13:48:15Z</time>
      </trkpt>
      <trkpt lat="48.71462" lon="2.48954">
        <ele>88.2674</ele>
        <time>2018-12-08T13:48:17Z</time>
      </trkpt>
      <trkpt lat="48.71457" lon="2.48953">
        <ele>88.2883</ele>
        <time>2018-12-08T13:48:22Z</time>
      </trkpt>
      <trkpt lat="48.71453" lon="2.48951">
        <ele>88.3067</ele>
        <time>2018-12-08T13:48:26Z</time>
      </trkpt>
      <trkpt lat="48.7145" lon="2.48949">
        <ele>88.3174</ele>
        <time>2018-12-08T13:48:28Z</time>
      </trkpt>
      <trkpt lat="48.71445" lon="2.48945">
        <ele>88.3393</ele>
        <time>2018-12-08T13:48:31Z</time>
      </trkpt>
      <trkpt lat="48.71442" lon="2.48943">
        <ele>88.3642</ele>
        <time>2018-12-08T13:48:34Z</time>
      </trkpt>
      <trkpt lat="48.71439" lon="2.48939">
        <ele>88.3954</ele>
        <time>2018-12-08T13:48:37Z</time>
      </trkpt>
      <trkpt lat="48.71434" lon="2.48935">
        <ele>88.4477</ele>
        <time>2018-12-08T13:48:41Z</time>
      </trkpt>
      <trkpt lat="48.71431" lon="2.48933">
        <ele>88.4918</ele>
        <time>2018-12-08T13:48:44Z</time>
      </trkpt>
      <trkpt lat="48.71426" lon="2.48928">
        <ele>88.5507</ele>
        <time>2018-12-08T13:48:48Z</time>
      </trkpt>
      <trkpt lat="48.71421" lon="2.48926">
        <ele>88.6075</ele>
        <time>2018-12-08T13:48:52Z</time>
      </trkpt>
      <trkpt lat="48.71419" lon="2.48925">
        <ele>88.6345</ele>
        <time>2018-12-08T13:48:54Z</time>
      </trkpt>
      <trkpt lat="48.71414" lon="2.48923">
        <ele>88.6857</ele>
        <time>2018-12-08T13:48:59Z</time>
      </trkpt>
      <trkpt lat="48.71409" lon="2.48921">
        <ele>88.7329</ele>
        <time>2018-12-08T13:49:03Z</time>
      </trkpt>
      <trkpt lat="48.71404" lon="2.48919">
        <ele>88.7781</ele>
        <time>2018-12-08T13:49:07Z</time>
      </trkpt>
      <trkpt lat="48.71401" lon="2.48918">
        <ele>88.8132</ele>
        <time>2018-12-08T13:49:11Z</time>
      </trkpt>
      <trkpt lat="48.71397" lon="2.48913">
        <ele>88.8689</ele>
        <time>2018-12-08T13:49:16Z</time>
      </trkpt>
      <trkpt lat="48.71395" lon="2.4891">
        <ele>88.8994</ele>
        <time>2018-12-08T13:49:19Z</time>
      </trkpt>
      <trkpt lat="48.7139" lon="2.48907">
        <ele>88.9277</ele>
        <time>2018-12-08T13:49:22Z</time>
      </trkpt>
      <trkpt lat="48.71385" lon="2.48906">
        <ele>88.9626</ele>
        <time>2018-12-08T13:49:26Z</time>
      </trkpt>
      <trkpt lat="48.71381" lon="2.48906">
        <ele>88.9948</ele>
        <time>2018-12-08T13:49:30Z</time>
      </trkpt>
      <trkpt lat="48.71379" lon="2.48905">
        <ele>89.024</ele>
        <time>2018-12-08T13:49:34Z</time>
      </trkpt>
      <trkpt lat="48.71374" lon="2.48901">
        <ele>89.0445</ele>
        <time>2018-12-08T13:49:37Z</time>
      </trkpt>
      <trkpt lat="48.71369" lon="2.48897">
        <ele>89.0706</ele>
        <time>2018-12-08T13:49:41Z</time>
      </trkpt>
      <trkpt lat="48.71367" lon="2.48895">
        <ele>89.0827</ele>
        <time>2018-12-08T13:49:43Z</time>
      </trkpt>
      <trkpt lat="48.71361" lon="2.48895">
        <ele>89.1068</ele>
        <time>2018-12-08T13:49:47Z</time>
      </trkpt>
      <trkpt lat="48.71356" lon="2.48892">
        <ele>89.1421</ele>
        <time>2018-12-08T13:49:53Z</time>
      </trkpt>
      <trkpt lat="48.71352" lon="2.48888">
        <ele>89.1678</ele>
        <time>2018-12-08T13:49:58Z</time>
      </trkpt>
      <trkpt lat="48.71347" lon="2.48885">
        <ele>89.1872</ele>
        <time>2018-12-08T13:50:02Z</time>
      </trkpt>
      <trkpt lat="48.71344" lon="2.48882">
        <ele>89.2028</ele>
        <time>2018-12-08T13:50:05Z</time>
      </trkpt>
      <trkpt lat="48.71341" lon="2.48877">
        <ele>89.225</ele>
        <time>2018-12-08T13:50:09Z</time>
      </trkpt>
      <trkpt lat="48.71339" lon="2.48875">
        <ele>89.2363</ele>
        <time>2018-12-08T13:50:11Z</time>
      </trkpt>
      <trkpt lat="48.71336" lon="2.4887">
        <ele>89.2598</ele>
        <time>2018-12-08T13:50:15Z</time>
      </trkpt>
      <trkpt lat="48.71333" lon="2.48864">
        <ele>89.3003</ele>
        <time>2018-12-08T13:50:22Z</time>
      </trkpt>
      <trkpt lat="48.7133" lon="2.48856">
        <ele>89.3139</ele>
        <time>2018-12-08T13:50:25Z</time>
      </trkpt>
      <trkpt lat="48.71325" lon="2.48853">
        <ele>89.3248</ele>
        <time>2018-12-08T13:50:28Z</time>
      </trkpt>
      <trkpt lat="48.71322" lon="2.48851">
        <ele>89.3317</ele>
        <time>2018-12-08T13:50:30Z</time>
      </trkpt>
      <trkpt lat="48.71317" lon="2.48849">
        <ele>89.3441</ele>
        <time>2018-12-08T13:50:34Z</time>
      </trkpt>
      <trkpt lat="48.71314" lon="2.48844">
        <ele>89.3584</ele>
        <time>2018-12-08T13:50:39Z</time>
      </trkpt>
      <trkpt lat="48.7131" lon="2.48841">
        <ele>89.3791</ele>
        <time>2018-12-08T13:50:45Z</time>
      </trkpt>
      <trkpt lat="48.71305" lon="2.48837">
        <ele>89.3919</ele>
        <time>2018-12-08T13:50:49Z</time>
      </trkpt>
      <trkpt lat="48.71301" lon="2.48831">
        <ele>89.4157</ele>
        <time>2018-12-08T13:50:54Z</time>
      </trkpt>
      <trkpt lat="48.71298" lon="2.48825">
        <ele>89.4319</ele>
        <time>2018-12-08T13:50:57Z</time>
      </trkpt>
      <trkpt lat="48.71295" lon="2.4882">
        <ele>89.4543</ele>
        <time>2018-12-08T13:51:01Z</time>
      </trkpt>
      <trkpt lat="48.71291" lon="2.48814">
        <ele>89.4766</ele>
        <time>2018-12-08T13:51:05Z</time>
      </trkpt>
      <trkpt lat="48.71289" lon="2.48811">
        <ele>89.4873</ele>
        <time>2018-12-08T13:51:07Z</time>
      </trkpt>
      <trkpt lat="48.71284" lon="2.48808">
        <ele>89.5166</ele>
        <time>2018-12-08T13:51:13Z</time>
      </trkpt>
      <trkpt lat="48.7128" lon="2.48806">
        <ele>89.5347</ele>
        <time>2018-12-08T13:51:17Z</time>
      </trkpt>
      <trkpt lat="48.71277" lon="2.488">
        <ele>89.5474</ele>
        <time>2018-12-08T13:51:20Z</time>
      </trkpt>
      <trkpt lat="48.71272" lon="2.48795">
        <ele>89.57</ele>
        <time>2018-12-08T13:51:25Z</time>
      </trkpt>
      <trkpt lat="48.71267" lon="2.48792">
        <ele>89.5883</ele>
        <time>2018-12-08T13:51:29Z</time>
      </trkpt>
      <trkpt lat="48.71262" lon="2.48788">
        <ele>89.6012</ele>
        <time>2018-12-08T13:51:32Z</time>
      </trkpt>
      <trkpt lat="48.71257" lon="2.48788">
        <ele>89.6185</ele>
        <time>2018-12-08T13:51:36Z</time>
      </trkpt>
      <trkpt lat="48.71252" lon="2.48785">
        <ele>89.642</ele>
        <time>2018-12-08T13:51:41Z</time>
      </trkpt>
      <trkpt lat="48.7125" lon="2.48783">
        <ele>89.6532</ele>
        <time>2018-12-08T13:51:43Z</time>
      </trkpt>
      <trkpt lat="48.71247" lon="2.48782">
        <ele>89.6709</ele>
        <time>2018-12-08T13:51:46Z</time>
      </trkpt>
      <trkpt lat="48.71243" lon="2.48776">
        <ele>89.7041</ele>
        <time>2018-12-08T13:51:51Z</time>
      </trkpt>
      <trkpt lat="48.71239" lon="2.48774">
        <ele>89.7477</ele>
        <time>2018-12-08T13:51:57Z</time>
      </trkpt>
      <trkpt lat="48.71239" lon="2.48774">
        <ele>89.7477</ele>
        <time>2018-12-08T13:54:43Z</time>
      </trkpt>
      <trkpt lat="48.71228" lon="2.48769">
        <ele>91.4481</ele>
        <time>2018-12-08T13:54:46Z</time>
      </trkpt>
      <trkpt lat="48.71225" lon="2.48762">
        <ele>91.5726</ele>
        <time>2018-12-08T13:54:52Z</time>
      </trkpt>
      <trkpt lat="48.71223" lon="2.48758">
        <ele>91.611</ele>
        <time>2018-12-08T13:54:54Z</time>
      </trkpt>
      <trkpt lat="48.71219" lon="2.48753">
        <ele>91.6682</ele>
        <time>2018-12-08T13:54:57Z</time>
      </trkpt>
      <trkpt lat="48.71215" lon="2.48745">
        <ele>91.7421</ele>
        <time>2018-12-08T13:55:01Z</time>
      </trkpt>
      <trkpt lat="48.71213" lon="2.48739">
        <ele>91.8038</ele>
        <time>2018-12-08T13:55:05Z</time>
      </trkpt>
      <trkpt lat="48.71213" lon="2.48732">
        <ele>91.8457</ele>
        <time>2018-12-08T13:55:09Z</time>
      </trkpt>
      <trkpt lat="48.71212" lon="2.48724">
        <ele>91.8757</ele>
        <time>2018-12-08T13:55:13Z</time>
      </trkpt>
      <trkpt lat="48.71212" lon="2.48724">
        <ele>46.4</ele>
        <time>2018-12-08T13:55:21Z</time>
      </trkpt>
      <trkpt lat="48.71212" lon="2.48724">
        <ele>46.4</ele>
        <time>2018-12-08T13:55:30Z</time>
      </trkpt>
      <trkpt lat="48.71225" lon="2.48732">
        <ele>91.9818</ele>
        <time>2018-12-08T13:55:30Z</time>
      </trkpt>
      <trkpt lat="48.71225" lon="2.48732">
        <ele>91.9818</ele>
        <time>2018-12-08T13:55:37Z</time>
      </trkpt>
      <trkpt lat="48.71225" lon="2.48732">
        <ele>45.9</ele>
        <time>2018-12-08T13:55:37Z</time>
      </trkpt>
      <trkpt lat="48.71225" lon="2.48732">
        <ele>45.9</ele>
        <time>2018-12-08T14:01:15Z</time>
      </trkpt>
      <trkpt lat="48.71244" lon="2.48738">
        <ele>96.157</ele>
        <time>2018-12-08T14:01:15Z</time>
      </trkpt>
      <trkpt lat="48.71247" lon="2.48742">
        <ele>96.2027</ele>
        <time>2018-12-08T14:01:18Z</time>
      </trkpt>
      <trkpt lat="48.71247" lon="2.48742">
        <ele>45.7</ele>
        <time>2018-12-08T14:01:23Z</time>
      </trkpt>
      <trkpt lat="48.71247" lon="2.48742">
        <ele>45.7</ele>
        <time>2018-12-08T14:01:51Z</time>
      </trkpt>
      <trkpt lat="48.71259" lon="2.48762">
        <ele>96.7608</ele>
        <time>2018-12-08T14:01:51Z</time>
      </trkpt>
      <trkpt lat="48.7126" lon="2.48764">
        <ele>96.8475</ele>
        <time>2018-12-08T14:01:55Z</time>
      </trkpt>
      <trkpt lat="48.71263" lon="2.4877">
        <ele>96.9257</ele>
        <time>2018-12-08T14:02:00Z</time>
      </trkpt>
      <trkpt lat="48.71266" lon="2.48775">
        <ele>96.9677</ele>
        <time>2018-12-08T14:02:03Z</time>
      </trkpt>
      <trkpt lat="48.71268" lon="2.48782">
        <ele>97.0222</ele>
        <time>2018-12-08T14:02:07Z</time>
      </trkpt>
      <trkpt lat="48.71272" lon="2.48787">
        <ele>97.0886</ele>
        <time>2018-12-08T14:02:12Z</time>
      </trkpt>
      <trkpt lat="48.71274" lon="2.48793">
        <ele>97.1518</ele>
        <time>2018-12-08T14:02:17Z</time>
      </trkpt>
      <trkpt lat="48.71276" lon="2.48797">
        <ele>97.1829</ele>
        <time>2018-12-08T14:02:20Z</time>
      </trkpt>
      <trkpt lat="48.71279" lon="2.48803">
        <ele>97.2308</ele>
        <time>2018-12-08T14:02:25Z</time>
      </trkpt>
      <trkpt lat="48.71281" lon="2.48805">
        <ele>97.2482</ele>
        <time>2018-12-08T14:02:27Z</time>
      </trkpt>
      <trkpt lat="48.71285" lon="2.48808">
        <ele>97.2794</ele>
        <time>2018-12-08T14:02:31Z</time>
      </trkpt>
      <trkpt lat="48.71289" lon="2.48812">
        <ele>97.3067</ele>
        <time>2018-12-08T14:02:35Z</time>
      </trkpt>
      <trkpt lat="48.71291" lon="2.48814">
        <ele>97.3241</ele>
        <time>2018-12-08T14:02:38Z</time>
      </trkpt>
      <trkpt lat="48.71291" lon="2.48814">
        <ele>43</ele>
        <time>2018-12-08T14:02:46Z</time>
      </trkpt>
      <trkpt lat="48.71291" lon="2.48814">
        <ele>43</ele>
        <time>2018-12-08T14:03:26Z</time>
      </trkpt>
      <trkpt lat="48.71319" lon="2.48837">
        <ele>97.2825</ele>
        <time>2018-12-08T14:03:26Z</time>
      </trkpt>
      <trkpt lat="48.71321" lon="2.48844">
        <ele>97.2587</ele>
        <time>2018-12-08T14:03:31Z</time>
      </trkpt>
      <trkpt lat="48.71322" lon="2.4885">
        <ele>97.2315</ele>
        <time>2018-12-08T14:03:36Z</time>
      </trkpt>
      <trkpt lat="48.71326" lon="2.48856">
        <ele>97.2099</ele>
        <time>2018-12-08T14:03:40Z</time>
      </trkpt>
      <trkpt lat="48.71328" lon="2.48858">
        <ele>97.1988</ele>
        <time>2018-12-08T14:03:42Z</time>
      </trkpt>
      <trkpt lat="48.71333" lon="2.48855">
        <ele>97.1591</ele>
        <time>2018-12-08T14:03:49Z</time>
      </trkpt>
      <trkpt lat="48.71335" lon="2.48847">
        <ele>97.1413</ele>
        <time>2018-12-08T14:03:52Z</time>
      </trkpt>
      <trkpt lat="48.71335" lon="2.48847">
        <ele>40.9</ele>
        <time>2018-12-08T14:04:00Z</time>
      </trkpt>
      <trkpt lat="48.71335" lon="2.48847">
        <ele>40.9</ele>
        <time>2018-12-08T14:04:25Z</time>
      </trkpt>
      <trkpt lat="48.71364" lon="2.48851">
        <ele>96.7957</ele>
        <time>2018-12-08T14:04:25Z</time>
      </trkpt>
      <trkpt lat="48.71368" lon="2.48847">
        <ele>96.7448</ele>
        <time>2018-12-08T14:04:29Z</time>
      </trkpt>
      <trkpt lat="48.71373" lon="2.48846">
        <ele>96.6782</ele>
        <time>2018-12-08T14:04:34Z</time>
      </trkpt>
      <trkpt lat="48.71379" lon="2.4885">
        <ele>96.6021</ele>
        <time>2018-12-08T14:04:40Z</time>
      </trkpt>
      <trkpt lat="48.71383" lon="2.48854">
        <ele>96.5639</ele>
        <time>2018-12-08T14:04:43Z</time>
      </trkpt>
      <trkpt lat="48.7139" lon="2.48857">
        <ele>96.5284</ele>
        <time>2018-12-08T14:04:46Z</time>
      </trkpt>
      <trkpt lat="48.71392" lon="2.48858">
        <ele>96.5173</ele>
        <time>2018-12-08T14:04:47Z</time>
      </trkpt>
      <trkpt lat="48.71398" lon="2.48857">
        <ele>96.4677</ele>
        <time>2018-12-08T14:04:51Z</time>
      </trkpt>
      <trkpt lat="48.71402" lon="2.48852">
        <ele>96.4098</ele>
        <time>2018-12-08T14:04:55Z</time>
      </trkpt>
      <trkpt lat="48.71403" lon="2.48846">
        <ele>96.3348</ele>
        <time>2018-12-08T14:05:01Z</time>
      </trkpt>
      <trkpt lat="48.71404" lon="2.48841">
        <ele>96.3114</ele>
        <time>2018-12-08T14:05:03Z</time>
      </trkpt>
      <trkpt lat="48.71405" lon="2.48837">
        <ele>96.2453</ele>
        <time>2018-12-08T14:05:06Z</time>
      </trkpt>
      <trkpt lat="48.71408" lon="2.4883">
        <ele>96.1316</ele>
        <time>2018-12-08T14:05:11Z</time>
      </trkpt>
      <trkpt lat="48.71409" lon="2.48821">
        <ele>96.0166</ele>
        <time>2018-12-08T14:05:17Z</time>
      </trkpt>
      <trkpt lat="48.71413" lon="2.48814">
        <ele>95.9472</ele>
        <time>2018-12-08T14:05:20Z</time>
      </trkpt>
      <trkpt lat="48.71416" lon="2.48809">
        <ele>95.877</ele>
        <time>2018-12-08T14:05:23Z</time>
      </trkpt>
      <trkpt lat="48.71417" lon="2.48802">
        <ele>95.8142</ele>
        <time>2018-12-08T14:05:26Z</time>
      </trkpt>
      <trkpt lat="48.71414" lon="2.48794">
        <ele>95.7072</ele>
        <time>2018-12-08T14:05:32Z</time>
      </trkpt>
      <trkpt lat="48.71412" lon="2.48786">
        <ele>95.6442</ele>
        <time>2018-12-08T14:05:36Z</time>
      </trkpt>
      <trkpt lat="48.71413" lon="2.48779">
        <ele>95.563</ele>
        <time>2018-12-08T14:05:41Z</time>
      </trkpt>
      <trkpt lat="48.71414" lon="2.48775">
        <ele>95.5108</ele>
        <time>2018-12-08T14:05:44Z</time>
      </trkpt>
      <trkpt lat="48.71417" lon="2.48768">
        <ele>95.4468</ele>
        <time>2018-12-08T14:05:48Z</time>
      </trkpt>
      <trkpt lat="48.71418" lon="2.48764">
        <ele>95.4184</ele>
        <time>2018-12-08T14:05:50Z</time>
      </trkpt>
      <trkpt lat="48.7142" lon="2.48757">
        <ele>95.3788</ele>
        <time>2018-12-08T14:05:53Z</time>
      </trkpt>
      <trkpt lat="48.7142" lon="2.48757">
        <ele>37.6</ele>
        <time>2018-12-08T14:06:01Z</time>
      </trkpt>
      <trkpt lat="48.7142" lon="2.48757">
        <ele>37.6</ele>
        <time>2018-12-08T14:06:09Z</time>
      </trkpt>
      <trkpt lat="48.7143" lon="2.48757">
        <ele>95.1922</ele>
        <time>2018-12-08T14:06:09Z</time>
      </trkpt>
      <trkpt lat="48.7143" lon="2.48757">
        <ele>95.1922</ele>
        <time>2018-12-08T14:06:17Z</time>
      </trkpt>
      <trkpt lat="48.7143" lon="2.48757">
        <ele>36.9</ele>
        <time>2018-12-08T14:06:17Z</time>
      </trkpt>
      <trkpt lat="48.7143" lon="2.48757">
        <ele>36.9</ele>
        <time>2018-12-08T14:06:27Z</time>
      </trkpt>
      <trkpt lat="48.71445" lon="2.48733">
        <ele>94.9639</ele>
        <time>2018-12-08T14:06:27Z</time>
      </trkpt>
      <trkpt lat="48.7145" lon="2.48725">
        <ele>94.9252</ele>
        <time>2018-12-08T14:06:30Z</time>
      </trkpt>
      <trkpt lat="48.71452" lon="2.48723">
        <ele>94.9124</ele>
        <time>2018-12-08T14:06:31Z</time>
      </trkpt>
      <trkpt lat="48.71455" lon="2.48718">
        <ele>94.8632</ele>
        <time>2018-12-08T14:06:35Z</time>
      </trkpt>
      <trkpt lat="48.7146" lon="2.48716">
        <ele>94.8368</ele>
        <time>2018-12-08T14:06:38Z</time>
      </trkpt>
      <trkpt lat="48.71465" lon="2.48714">
        <ele>94.8062</ele>
        <time>2018-12-08T14:06:40Z</time>
      </trkpt>
      <trkpt lat="48.71469" lon="2.48712">
        <ele>94.7356</ele>
        <time>2018-12-08T14:06:44Z</time>
      </trkpt>
      <trkpt lat="48.71473" lon="2.48707">
        <ele>94.657</ele>
        <time>2018-12-08T14:06:48Z</time>
      </trkpt>
      <trkpt lat="48.71476" lon="2.48704">
        <ele>94.5967</ele>
        <time>2018-12-08T14:06:51Z</time>
      </trkpt>
      <trkpt lat="48.7148" lon="2.48698">
        <ele>94.5151</ele>
        <time>2018-12-08T14:06:55Z</time>
      </trkpt>
      <trkpt lat="48.71481" lon="2.48689">
        <ele>94.4363</ele>
        <time>2018-12-08T14:06:59Z</time>
      </trkpt>
      <trkpt lat="48.71486" lon="2.48685">
        <ele>94.3284</ele>
        <time>2018-12-08T14:07:05Z</time>
      </trkpt>
      <trkpt lat="48.71488" lon="2.48682">
        <ele>94.2754</ele>
        <time>2018-12-08T14:07:08Z</time>
      </trkpt>
      <trkpt lat="48.71489" lon="2.48675">
        <ele>94.2422</ele>
        <time>2018-12-08T14:07:10Z</time>
      </trkpt>
      <trkpt lat="48.71488" lon="2.48667">
        <ele>94.1772</ele>
        <time>2018-12-08T14:07:14Z</time>
      </trkpt>
      <trkpt lat="48.71487" lon="2.48657">
        <ele>94.1316</ele>
        <time>2018-12-08T14:07:17Z</time>
      </trkpt>
      <trkpt lat="48.71489" lon="2.4865">
        <ele>94.0868</ele>
        <time>2018-12-08T14:07:20Z</time>
      </trkpt>
      <trkpt lat="48.71485" lon="2.4864">
        <ele>94.0571</ele>
        <time>2018-12-08T14:07:23Z</time>
      </trkpt>
      <trkpt lat="48.71485" lon="2.48632">
        <ele>94.0291</ele>
        <time>2018-12-08T14:07:26Z</time>
      </trkpt>
      <trkpt lat="48.71485" lon="2.48627">
        <ele>94.0084</ele>
        <time>2018-12-08T14:07:29Z</time>
      </trkpt>
      <trkpt lat="48.71488" lon="2.48621">
        <ele>93.9921</ele>
        <time>2018-12-08T14:07:32Z</time>
      </trkpt>
      <trkpt lat="48.71492" lon="2.48616">
        <ele>93.9821</ele>
        <time>2018-12-08T14:07:36Z</time>
      </trkpt>
      <trkpt lat="48.71493" lon="2.48604">
        <ele>93.9737</ele>
        <time>2018-12-08T14:07:41Z</time>
      </trkpt>
      <trkpt lat="48.71493" lon="2.48599">
        <ele>93.9668</ele>
        <time>2018-12-08T14:07:43Z</time>
      </trkpt>
      <trkpt lat="48.71494" lon="2.48593">
        <ele>93.944</ele>
        <time>2018-12-08T14:07:48Z</time>
      </trkpt>
      <trkpt lat="48.71498" lon="2.48589">
        <ele>93.8995</ele>
        <time>2018-12-08T14:07:56Z</time>
      </trkpt>
      <trkpt lat="48.71501" lon="2.48583">
        <ele>93.8429</ele>
        <time>2018-12-08T14:08:04Z</time>
      </trkpt>
      <trkpt lat="48.71499" lon="2.48576">
        <ele>93.8157</ele>
        <time>2018-12-08T14:08:07Z</time>
      </trkpt>
      <trkpt lat="48.71497" lon="2.48571">
        <ele>93.8001</ele>
        <time>2018-12-08T14:08:09Z</time>
      </trkpt>
      <trkpt lat="48.71498" lon="2.4856">
        <ele>93.7604</ele>
        <time>2018-12-08T14:08:14Z</time>
      </trkpt>
      <trkpt lat="48.71499" lon="2.48557">
        <ele>93.7333</ele>
        <time>2018-12-08T14:08:18Z</time>
      </trkpt>
      <trkpt lat="48.71498" lon="2.48549">
        <ele>93.7004</ele>
        <time>2018-12-08T14:08:22Z</time>
      </trkpt>
      <trkpt lat="48.71495" lon="2.48542">
        <ele>93.6791</ele>
        <time>2018-12-08T14:08:24Z</time>
      </trkpt>
      <trkpt lat="48.71493" lon="2.48537">
        <ele>93.658</ele>
        <time>2018-12-08T14:08:26Z</time>
      </trkpt>
      <trkpt lat="48.71493" lon="2.48537">
        <ele>36</ele>
        <time>2018-12-08T14:08:33Z</time>
      </trkpt>
      <trkpt lat="48.71493" lon="2.48537">
        <ele>36</ele>
        <time>2018-12-08T14:08:40Z</time>
      </trkpt>
      <trkpt lat="48.71495" lon="2.48523">
        <ele>93.5607</ele>
        <time>2018-12-08T14:08:40Z</time>
      </trkpt>
      <trkpt lat="48.71499" lon="2.485">
        <ele>93.5249</ele>
        <time>2018-12-08T14:08:44Z</time>
      </trkpt>
      <trkpt lat="48.71501" lon="2.48493">
        <ele>93.4979</ele>
        <time>2018-12-08T14:08:48Z</time>
      </trkpt>
      <trkpt lat="48.71502" lon="2.48487">
        <ele>93.4868</ele>
        <time>2018-12-08T14:08:51Z</time>
      </trkpt>
      <trkpt lat="48.71501" lon="2.48478">
        <ele>93.4729</ele>
        <time>2018-12-08T14:08:55Z</time>
      </trkpt>
      <trkpt lat="48.71503" lon="2.48471">
        <ele>93.4568</ele>
        <time>2018-12-08T14:09:00Z</time>
      </trkpt>
      <trkpt lat="48.71502" lon="2.48463">
        <ele>93.4447</ele>
        <time>2018-12-08T14:09:07Z</time>
      </trkpt>
      <trkpt lat="48.715" lon="2.48455">
        <ele>93.4335</ele>
        <time>2018-12-08T14:09:12Z</time>
      </trkpt>
      <trkpt lat="48.71498" lon="2.48449">
        <ele>93.428</ele>
        <time>2018-12-08T14:09:14Z</time>
      </trkpt>
      <trkpt lat="48.71496" lon="2.48443">
        <ele>93.4086</ele>
        <time>2018-12-08T14:09:20Z</time>
      </trkpt>
      <trkpt lat="48.71494" lon="2.48436">
        <ele>93.3966</ele>
        <time>2018-12-08T14:09:23Z</time>
      </trkpt>
      <trkpt lat="48.71494" lon="2.48436">
        <ele>35.9</ele>
        <time>2018-12-08T14:09:30Z</time>
      </trkpt>
      <trkpt lat="48.71494" lon="2.48436">
        <ele>35.9</ele>
        <time>2018-12-08T14:09:43Z</time>
      </trkpt>
      <trkpt lat="48.7151" lon="2.48443">
        <ele>93.3079</ele>
        <time>2018-12-08T14:09:43Z</time>
      </trkpt>
      <trkpt lat="48.71519" lon="2.48445">
        <ele>93.2711</ele>
        <time>2018-12-08T14:09:47Z</time>
      </trkpt>
      <trkpt lat="48.71524" lon="2.48443">
        <ele>93.2384</ele>
        <time>2018-12-08T14:09:50Z</time>
      </trkpt>
      <trkpt lat="48.7153" lon="2.48438">
        <ele>93.1977</ele>
        <time>2018-12-08T14:09:55Z</time>
      </trkpt>
      <trkpt lat="48.71536" lon="2.4843">
        <ele>93.1546</ele>
        <time>2018-12-08T14:09:58Z</time>
      </trkpt>
      <trkpt lat="48.71532" lon="2.48421">
        <ele>93.0542</ele>
        <time>2018-12-08T14:10:04Z</time>
      </trkpt>
      <trkpt lat="48.71532" lon="2.48414">
        <ele>92.9999</ele>
        <time>2018-12-08T14:10:07Z</time>
      </trkpt>
      <trkpt lat="48.71537" lon="2.48407">
        <ele>92.9436</ele>
        <time>2018-12-08T14:10:11Z</time>
      </trkpt>
      <trkpt lat="48.7154" lon="2.48403">
        <ele>92.9262</ele>
        <time>2018-12-08T14:10:12Z</time>
      </trkpt>
      <trkpt lat="48.71544" lon="2.48397">
        <ele>92.9095</ele>
        <time>2018-12-08T14:10:13Z</time>
      </trkpt>
      <trkpt lat="48.71546" lon="2.48393">
        <ele>92.8936</ele>
        <time>2018-12-08T14:10:14Z</time>
      </trkpt>
      <trkpt lat="48.7155" lon="2.48387">
        <ele>92.8479</ele>
        <time>2018-12-08T14:10:17Z</time>
      </trkpt>
      <trkpt lat="48.71553" lon="2.4838">
        <ele>92.7633</ele>
        <time>2018-12-08T14:10:23Z</time>
      </trkpt>
      <trkpt lat="48.71554" lon="2.48375">
        <ele>92.707</ele>
        <time>2018-12-08T14:10:28Z</time>
      </trkpt>
      <trkpt lat="48.71556" lon="2.48367">
        <ele>92.662</ele>
        <time>2018-12-08T14:10:33Z</time>
      </trkpt>
      <trkpt lat="48.71557" lon="2.48362">
        <ele>92.6388</ele>
        <time>2018-12-08T14:10:35Z</time>
      </trkpt>
      <trkpt lat="48.71558" lon="2.48344">
        <ele>92.59</ele>
        <time>2018-12-08T14:10:39Z</time>
      </trkpt>
      <trkpt lat="48.71559" lon="2.48336">
        <ele>92.5428</ele>
        <time>2018-12-08T14:10:44Z</time>
      </trkpt>
      <trkpt lat="48.71558" lon="2.48329">
        <ele>92.4794</ele>
        <time>2018-12-08T14:10:50Z</time>
      </trkpt>
      <trkpt lat="48.71558" lon="2.48329">
        <ele>92.4794</ele>
        <time>2018-12-08T14:10:57Z</time>
      </trkpt>
      <trkpt lat="48.71558" lon="2.48329">
        <ele>35</ele>
        <time>2018-12-08T14:10:57Z</time>
      </trkpt>
      <trkpt lat="48.71558" lon="2.48329">
        <ele>35</ele>
        <time>2018-12-08T14:11:06Z</time>
      </trkpt>
      <trkpt lat="48.71573" lon="2.4832">
        <ele>92.3134</ele>
        <time>2018-12-08T14:11:06Z</time>
      </trkpt>
      <trkpt lat="48.71577" lon="2.48317">
        <ele>92.2831</ele>
        <time>2018-12-08T14:11:09Z</time>
      </trkpt>
      <trkpt lat="48.71578" lon="2.48306">
        <ele>92.2215</ele>
        <time>2018-12-08T14:11:14Z</time>
      </trkpt>
      <trkpt lat="48.71579" lon="2.48297">
        <ele>92.1942</ele>
        <time>2018-12-08T14:11:16Z</time>
      </trkpt>
      <trkpt lat="48.71578" lon="2.48289">
        <ele>92.1298</ele>
        <time>2018-12-08T14:11:21Z</time>
      </trkpt>
      <trkpt lat="48.71575" lon="2.48284">
        <ele>92.0823</ele>
        <time>2018-12-08T14:11:25Z</time>
      </trkpt>
      <trkpt lat="48.71574" lon="2.48274">
        <ele>92.0274</ele>
        <time>2018-12-08T14:11:31Z</time>
      </trkpt>
      <trkpt lat="48.71575" lon="2.48266">
        <ele>91.9951</ele>
        <time>2018-12-08T14:11:34Z</time>
      </trkpt>
      <trkpt lat="48.71577" lon="2.48259">
        <ele>91.9625</ele>
        <time>2018-12-08T14:11:37Z</time>
      </trkpt>
      <trkpt lat="48.71578" lon="2.48251">
        <ele>91.9106</ele>
        <time>2018-12-08T14:11:42Z</time>
      </trkpt>
      <trkpt lat="48.7158" lon="2.48244">
        <ele>91.8802</ele>
        <time>2018-12-08T14:11:45Z</time>
      </trkpt>
      <trkpt lat="48.71581" lon="2.48237">
        <ele>91.8518</ele>
        <time>2018-12-08T14:11:48Z</time>
      </trkpt>
      <trkpt lat="48.71581" lon="2.48232">
        <ele>91.8434</ele>
        <time>2018-12-08T14:11:49Z</time>
      </trkpt>
      <trkpt lat="48.71581" lon="2.48227">
        <ele>91.8276</ele>
        <time>2018-12-08T14:11:51Z</time>
      </trkpt>
      <trkpt lat="48.71581" lon="2.48218">
        <ele>91.7869</ele>
        <time>2018-12-08T14:11:56Z</time>
      </trkpt>
      <trkpt lat="48.7158" lon="2.4821">
        <ele>91.748</ele>
        <time>2018-12-08T14:12:01Z</time>
      </trkpt>
      <trkpt lat="48.71579" lon="2.48202">
        <ele>91.7209</ele>
        <time>2018-12-08T14:12:05Z</time>
      </trkpt>
      <trkpt lat="48.7158" lon="2.48192">
        <ele>91.7008</ele>
        <time>2018-12-08T14:12:08Z</time>
      </trkpt>
      <trkpt lat="48.71579" lon="2.48184">
        <ele>91.6835</ele>
        <time>2018-12-08T14:12:11Z</time>
      </trkpt>
      <trkpt lat="48.71579" lon="2.4818">
        <ele>91.6789</ele>
        <time>2018-12-08T14:12:13Z</time>
      </trkpt>
      <trkpt lat="48.71579" lon="2.48175">
        <ele>91.6715</ele>
        <time>2018-12-08T14:12:16Z</time>
      </trkpt>
      <trkpt lat="48.71579" lon="2.48171">
        <ele>91.6594</ele>
        <time>2018-12-08T14:12:20Z</time>
      </trkpt>
      <trkpt lat="48.71578" lon="2.48162">
        <ele>91.6515</ele>
        <time>2018-12-08T14:12:23Z</time>
      </trkpt>
      <trkpt lat="48.71578" lon="2.48156">
        <ele>91.6475</ele>
        <time>2018-12-08T14:12:25Z</time>
      </trkpt>
      <trkpt lat="48.71577" lon="2.48151">
        <ele>91.6337</ele>
        <time>2018-12-08T14:12:30Z</time>
      </trkpt>
      <trkpt lat="48.71577" lon="2.48147">
        <ele>91.6272</ele>
        <time>2018-12-08T14:12:32Z</time>
      </trkpt>
      <trkpt lat="48.71578" lon="2.48139">
        <ele>91.6151</ele>
        <time>2018-12-08T14:12:36Z</time>
      </trkpt>
      <trkpt lat="48.71577" lon="2.48133">
        <ele>91.6023</ele>
        <time>2018-12-08T14:12:40Z</time>
      </trkpt>
      <trkpt lat="48.71576" lon="2.48128">
        <ele>91.591</ele>
        <time>2018-12-08T14:12:43Z</time>
      </trkpt>
      <trkpt lat="48.71575" lon="2.48124">
        <ele>91.5788</ele>
        <time>2018-12-08T14:12:46Z</time>
      </trkpt>
      <trkpt lat="48.71574" lon="2.4812">
        <ele>91.5704</ele>
        <time>2018-12-08T14:12:48Z</time>
      </trkpt>
      <trkpt lat="48.71573" lon="2.48114">
        <ele>91.5594</ele>
        <time>2018-12-08T14:12:51Z</time>
      </trkpt>
      <trkpt lat="48.71572" lon="2.4811">
        <ele>91.5499</ele>
        <time>2018-12-08T14:12:54Z</time>
      </trkpt>
      <trkpt lat="48.71575" lon="2.48104">
        <ele>91.5238</ele>
        <time>2018-12-08T14:13:00Z</time>
      </trkpt>
      <trkpt lat="48.71575" lon="2.48096">
        <ele>91.497</ele>
        <time>2018-12-08T14:13:05Z</time>
      </trkpt>
      <trkpt lat="48.71576" lon="2.48092">
        <ele>91.4914</ele>
        <time>2018-12-08T14:13:06Z</time>
      </trkpt>
      <trkpt lat="48.71574" lon="2.48084">
        <ele>91.4698</ele>
        <time>2018-12-08T14:13:10Z</time>
      </trkpt>
      <trkpt lat="48.71573" lon="2.48079">
        <ele>91.4586</ele>
        <time>2018-12-08T14:13:12Z</time>
      </trkpt>
      <trkpt lat="48.71572" lon="2.48071">
        <ele>91.4415</ele>
        <time>2018-12-08T14:13:15Z</time>
      </trkpt>
      <trkpt lat="48.71569" lon="2.48066">
        <ele>91.4317</ele>
        <time>2018-12-08T14:13:17Z</time>
      </trkpt>
      <trkpt lat="48.71566" lon="2.4806">
        <ele>91.4178</ele>
        <time>2018-12-08T14:13:20Z</time>
      </trkpt>
      <trkpt lat="48.71565" lon="2.48051">
        <ele>91.3949</ele>
        <time>2018-12-08T14:13:25Z</time>
      </trkpt>
      <trkpt lat="48.71565" lon="2.48044">
        <ele>91.3658</ele>
        <time>2018-12-08T14:13:30Z</time>
      </trkpt>
      <trkpt lat="48.71563" lon="2.48037">
        <ele>91.3457</ele>
        <time>2018-12-08T14:13:33Z</time>
      </trkpt>
      <trkpt lat="48.71562" lon="2.48034">
        <ele>91.3332</ele>
        <time>2018-12-08T14:13:35Z</time>
      </trkpt>
      <trkpt lat="48.7156" lon="2.48029">
        <ele>91.3214</ele>
        <time>2018-12-08T14:13:38Z</time>
      </trkpt>
      <trkpt lat="48.7156" lon="2.48029">
        <ele>91.3214</ele>
        <time>2018-12-08T14:13:45Z</time>
      </trkpt>
      <trkpt lat="48.7156" lon="2.48029">
        <ele>34.8</ele>
        <time>2018-12-08T14:13:45Z</time>
      </trkpt>
      <trkpt lat="48.7156" lon="2.48029">
        <ele>34.8</ele>
        <time>2018-12-08T14:13:50Z</time>
      </trkpt>
      <trkpt lat="48.71556" lon="2.48014">
        <ele>91.2499</ele>
        <time>2018-12-08T14:13:50Z</time>
      </trkpt>
      <trkpt lat="48.71554" lon="2.48006">
        <ele>91.2309</ele>
        <time>2018-12-08T14:13:54Z</time>
      </trkpt>
      <trkpt lat="48.71553" lon="2.47997">
        <ele>91.2102</ele>
        <time>2018-12-08T14:13:59Z</time>
      </trkpt>
      <trkpt lat="48.71549" lon="2.4799">
        <ele>91.2009</ele>
        <time>2018-12-08T14:14:02Z</time>
      </trkpt>
      <trkpt lat="48.71548" lon="2.47983">
        <ele>91.1901</ele>
        <time>2018-12-08T14:14:07Z</time>
      </trkpt>
      <trkpt lat="48.71545" lon="2.47975">
        <ele>91.1746</ele>
        <time>2018-12-08T14:14:14Z</time>
      </trkpt>
      <trkpt lat="48.71545" lon="2.47975">
        <ele>91.1746</ele>
        <time>2018-12-08T14:14:21Z</time>
      </trkpt>
      <trkpt lat="48.71545" lon="2.47975">
        <ele>35</ele>
        <time>2018-12-08T14:14:21Z</time>
      </trkpt>
      <trkpt lat="48.71545" lon="2.47975">
        <ele>35</ele>
        <time>2018-12-08T14:14:35Z</time>
      </trkpt>
      <trkpt lat="48.71542" lon="2.4795">
        <ele>91.0977</ele>
        <time>2018-12-08T14:14:35Z</time>
      </trkpt>
      <trkpt lat="48.71539" lon="2.47936">
        <ele>91.0696</ele>
        <time>2018-12-08T14:14:39Z</time>
      </trkpt>
      <trkpt lat="48.71538" lon="2.47932">
        <ele>91.0556</ele>
        <time>2018-12-08T14:14:41Z</time>
      </trkpt>
      <trkpt lat="48.71535" lon="2.47924">
        <ele>91.0238</ele>
        <time>2018-12-08T14:14:46Z</time>
      </trkpt>
      <trkpt lat="48.71534" lon="2.47917">
        <ele>91.0075</ele>
        <time>2018-12-08T14:14:49Z</time>
      </trkpt>
      <trkpt lat="48.71532" lon="2.47911">
        <ele>90.9936</ele>
        <time>2018-12-08T14:14:52Z</time>
      </trkpt>
      <trkpt lat="48.7153" lon="2.47902">
        <ele>90.9782</ele>
        <time>2018-12-08T14:14:56Z</time>
      </trkpt>
      <trkpt lat="48.7153" lon="2.47895">
        <ele>90.9685</ele>
        <time>2018-12-08T14:14:59Z</time>
      </trkpt>
      <trkpt lat="48.71527" lon="2.47889">
        <ele>90.957</ele>
        <time>2018-12-08T14:15:03Z</time>
      </trkpt>
      <trkpt lat="48.71525" lon="2.47885">
        <ele>90.9526</ele>
        <time>2018-12-08T14:15:05Z</time>
      </trkpt>
      <trkpt lat="48.71523" lon="2.47881">
        <ele>90.945</ele>
        <time>2018-12-08T14:15:09Z</time>
      </trkpt>
      <trkpt lat="48.71522" lon="2.47877">
        <ele>90.9397</ele>
        <time>2018-12-08T14:15:15Z</time>
      </trkpt>
      <trkpt lat="48.7152" lon="2.47873">
        <ele>90.9382</ele>
        <time>2018-12-08T14:15:17Z</time>
      </trkpt>
      <trkpt lat="48.71522" lon="2.47866">
        <ele>90.9313</ele>
        <time>2018-12-08T14:15:24Z</time>
      </trkpt>
      <trkpt lat="48.71529" lon="2.47866">
        <ele>90.9217</ele>
        <time>2018-12-08T14:15:29Z</time>
      </trkpt>
      <trkpt lat="48.71535" lon="2.47865">
        <ele>90.9156</ele>
        <time>2018-12-08T14:15:32Z</time>
      </trkpt>
      <trkpt lat="48.71538" lon="2.47865">
        <ele>90.911</ele>
        <time>2018-12-08T14:15:34Z</time>
      </trkpt>
      <trkpt lat="48.71542" lon="2.47865">
        <ele>90.9031</ele>
        <time>2018-12-08T14:15:37Z</time>
      </trkpt>
      <trkpt lat="48.71545" lon="2.47865">
        <ele>90.8968</ele>
        <time>2018-12-08T14:15:39Z</time>
      </trkpt>
      <trkpt lat="48.71549" lon="2.47865">
        <ele>90.8828</ele>
        <time>2018-12-08T14:15:43Z</time>
      </trkpt>
      <trkpt lat="48.71554" lon="2.47864">
        <ele>90.8625</ele>
        <time>2018-12-08T14:15:47Z</time>
      </trkpt>
      <trkpt lat="48.71558" lon="2.47864">
        <ele>90.8509</ele>
        <time>2018-12-08T14:15:49Z</time>
      </trkpt>
      <trkpt lat="48.71561" lon="2.47863">
        <ele>90.839</ele>
        <time>2018-12-08T14:15:51Z</time>
      </trkpt>
      <trkpt lat="48.71565" lon="2.47863">
        <ele>90.8148</ele>
        <time>2018-12-08T14:15:55Z</time>
      </trkpt>
      <trkpt lat="48.71565" lon="2.47863">
        <ele>36.9</ele>
        <time>2018-12-08T14:16:03Z</time>
      </trkpt>
      <trkpt lat="48.71565" lon="2.47863">
        <ele>36.9</ele>
        <time>2018-12-08T14:16:08Z</time>
      </trkpt>
      <trkpt lat="48.71573" lon="2.47869">
        <ele>90.7127</ele>
        <time>2018-12-08T14:16:08Z</time>
      </trkpt>
      <trkpt lat="48.71573" lon="2.47869">
        <ele>90.7127</ele>
        <time>2018-12-08T14:16:13Z</time>
      </trkpt>
      <trkpt lat="48.71573" lon="2.47869">
        <ele>36.8</ele>
        <time>2018-12-08T14:16:13Z</time>
      </trkpt>
      <trkpt lat="48.71573" lon="2.47869">
        <ele>36.8</ele>
        <time>2018-12-08T14:17:07Z</time>
      </trkpt>
      <trkpt lat="48.71587" lon="2.4786">
        <ele>90.3193</ele>
        <time>2018-12-08T14:17:07Z</time>
      </trkpt>
      <trkpt lat="48.71593" lon="2.47858">
        <ele>90.253</ele>
        <time>2018-12-08T14:17:11Z</time>
      </trkpt>
      <trkpt lat="48.71597" lon="2.47852">
        <ele>90.1504</ele>
        <time>2018-12-08T14:17:18Z</time>
      </trkpt>
      <trkpt lat="48.71603" lon="2.47849">
        <ele>90.0994</ele>
        <time>2018-12-08T14:17:21Z</time>
      </trkpt>
      <trkpt lat="48.71606" lon="2.47847">
        <ele>90.0662</ele>
        <time>2018-12-08T14:17:23Z</time>
      </trkpt>
      <trkpt lat="48.71611" lon="2.47846">
        <ele>90.0024</ele>
        <time>2018-12-08T14:17:27Z</time>
      </trkpt>
      <trkpt lat="48.71613" lon="2.47846">
        <ele>89.9732</ele>
        <time>2018-12-08T14:17:29Z</time>
      </trkpt>
      <trkpt lat="48.71617" lon="2.47845">
        <ele>89.9321</ele>
        <time>2018-12-08T14:17:32Z</time>
      </trkpt>
      <trkpt lat="48.7162" lon="2.47845">
        <ele>89.8927</ele>
        <time>2018-12-08T14:17:35Z</time>
      </trkpt>
      <trkpt lat="48.71625" lon="2.47843">
        <ele>89.8282</ele>
        <time>2018-12-08T14:17:40Z</time>
      </trkpt>
      <trkpt lat="48.7163" lon="2.47842">
        <ele>89.792</ele>
        <time>2018-12-08T14:17:43Z</time>
      </trkpt>
      <trkpt lat="48.71635" lon="2.4784">
        <ele>89.746</ele>
        <time>2018-12-08T14:17:47Z</time>
      </trkpt>
      <trkpt lat="48.71638" lon="2.4784">
        <ele>89.724</ele>
        <time>2018-12-08T14:17:49Z</time>
      </trkpt>
      <trkpt lat="48.71643" lon="2.47837">
        <ele>89.681</ele>
        <time>2018-12-08T14:17:53Z</time>
      </trkpt>
      <trkpt lat="48.71648" lon="2.47835">
        <ele>89.6351</ele>
        <time>2018-12-08T14:17:57Z</time>
      </trkpt>
      <trkpt lat="48.71654" lon="2.47832">
        <ele>89.5859</ele>
        <time>2018-12-08T14:18:01Z</time>
      </trkpt>
      <trkpt lat="48.71658" lon="2.47831">
        <ele>89.5463</ele>
        <time>2018-12-08T14:18:04Z</time>
      </trkpt>
      <trkpt lat="48.71661" lon="2.47829">
        <ele>89.5075</ele>
        <time>2018-12-08T14:18:07Z</time>
      </trkpt>
      <trkpt lat="48.71666" lon="2.4783">
        <ele>89.4451</ele>
        <time>2018-12-08T14:18:12Z</time>
      </trkpt>
      <trkpt lat="48.71672" lon="2.47829">
        <ele>89.4101</ele>
        <time>2018-12-08T14:18:16Z</time>
      </trkpt>
      <trkpt lat="48.71675" lon="2.47828">
        <ele>89.4047</ele>
        <time>2018-12-08T14:18:18Z</time>
      </trkpt>
      <trkpt lat="48.71678" lon="2.47828">
        <ele>89.4068</ele>
        <time>2018-12-08T14:18:20Z</time>
      </trkpt>
      <trkpt lat="48.71682" lon="2.47828">
        <ele>89.4366</ele>
        <time>2018-12-08T14:18:25Z</time>
      </trkpt>
      <trkpt lat="48.71688" lon="2.47825">
        <ele>89.4774</ele>
        <time>2018-12-08T14:18:29Z</time>
      </trkpt>
      <trkpt lat="48.71692" lon="2.47823">
        <ele>89.5332</ele>
        <time>2018-12-08T14:18:33Z</time>
      </trkpt>
      <trkpt lat="48.71698" lon="2.4782">
        <ele>89.6015</ele>
        <time>2018-12-08T14:18:37Z</time>
      </trkpt>
      <trkpt lat="48.71703" lon="2.47818">
        <ele>89.6868</ele>
        <time>2018-12-08T14:18:41Z</time>
      </trkpt>
      <trkpt lat="48.71708" lon="2.47818">
        <ele>89.7598</ele>
        <time>2018-12-08T14:18:44Z</time>
      </trkpt>
      <trkpt lat="48.71712" lon="2.47813">
        <ele>89.8391</ele>
        <time>2018-12-08T14:18:47Z</time>
      </trkpt>
      <trkpt lat="48.71716" lon="2.47809">
        <ele>89.9492</ele>
        <time>2018-12-08T14:18:51Z</time>
      </trkpt>
      <trkpt lat="48.71718" lon="2.47807">
        <ele>90.0074</ele>
        <time>2018-12-08T14:18:53Z</time>
      </trkpt>
      <trkpt lat="48.71717" lon="2.47799">
        <ele>90.1737</ele>
        <time>2018-12-08T14:18:58Z</time>
      </trkpt>
      <trkpt lat="48.71713" lon="2.47795">
        <ele>90.3424</ele>
        <time>2018-12-08T14:19:03Z</time>
      </trkpt>
      <trkpt lat="48.71709" lon="2.47787">
        <ele>90.5349</ele>
        <time>2018-12-08T14:19:09Z</time>
      </trkpt>
      <trkpt lat="48.71708" lon="2.4778">
        <ele>90.668</ele>
        <time>2018-12-08T14:19:13Z</time>
      </trkpt>
      <trkpt lat="48.71707" lon="2.47774">
        <ele>90.8051</ele>
        <time>2018-12-08T14:19:17Z</time>
      </trkpt>
      <trkpt lat="48.71707" lon="2.47774">
        <ele>90.8051</ele>
        <time>2018-12-08T14:19:25Z</time>
      </trkpt>
      <trkpt lat="48.71707" lon="2.47774">
        <ele>58.6</ele>
        <time>2018-12-08T14:19:25Z</time>
      </trkpt>
      <trkpt lat="48.71707" lon="2.47774">
        <ele>58.6</ele>
        <time>2018-12-08T14:19:37Z</time>
      </trkpt>
      <trkpt lat="48.71703" lon="2.47752">
        <ele>91.4153</ele>
        <time>2018-12-08T14:19:37Z</time>
      </trkpt>
      <trkpt lat="48.71703" lon="2.47745">
        <ele>91.5374</ele>
        <time>2018-12-08T14:19:41Z</time>
      </trkpt>
      <trkpt lat="48.71701" lon="2.4774">
        <ele>91.6255</ele>
        <time>2018-12-08T14:19:44Z</time>
      </trkpt>
      <trkpt lat="48.71699" lon="2.47733">
        <ele>91.7113</ele>
        <time>2018-12-08T14:19:47Z</time>
      </trkpt>
      <trkpt lat="48.71697" lon="2.47729">
        <ele>91.7664</ele>
        <time>2018-12-08T14:19:49Z</time>
      </trkpt>
      <trkpt lat="48.71696" lon="2.47724">
        <ele>91.8197</ele>
        <time>2018-12-08T14:19:51Z</time>
      </trkpt>
      <trkpt lat="48.71692" lon="2.47717">
        <ele>91.9214</ele>
        <time>2018-12-08T14:19:55Z</time>
      </trkpt>
      <trkpt lat="48.7169" lon="2.4771">
        <ele>92.0163</ele>
        <time>2018-12-08T14:19:59Z</time>
      </trkpt>
      <trkpt lat="48.71689" lon="2.47706">
        <ele>92.062</ele>
        <time>2018-12-08T14:20:01Z</time>
      </trkpt>
      <trkpt lat="48.71687" lon="2.47701">
        <ele>92.1285</ele>
        <time>2018-12-08T14:20:04Z</time>
      </trkpt>
      <trkpt lat="48.71686" lon="2.47696">
        <ele>92.1953</ele>
        <time>2018-12-08T14:20:07Z</time>
      </trkpt>
      <trkpt lat="48.71685" lon="2.47693">
        <ele>92.2629</ele>
        <time>2018-12-08T14:20:10Z</time>
      </trkpt>
      <trkpt lat="48.71683" lon="2.47687">
        <ele>92.377</ele>
        <time>2018-12-08T14:20:15Z</time>
      </trkpt>
      <trkpt lat="48.71682" lon="2.4768">
        <ele>92.4832</ele>
        <time>2018-12-08T14:20:20Z</time>
      </trkpt>
      <trkpt lat="48.71682" lon="2.47674">
        <ele>92.5431</ele>
        <time>2018-12-08T14:20:23Z</time>
      </trkpt>
      <trkpt lat="48.71681" lon="2.47667">
        <ele>92.6462</ele>
        <time>2018-12-08T14:20:28Z</time>
      </trkpt>
      <trkpt lat="48.71682" lon="2.47659">
        <ele>92.7472</ele>
        <time>2018-12-08T14:20:32Z</time>
      </trkpt>
      <trkpt lat="48.7168" lon="2.47652">
        <ele>92.8642</ele>
        <time>2018-12-08T14:20:36Z</time>
      </trkpt>
      <trkpt lat="48.71679" lon="2.47649">
        <ele>92.9224</ele>
        <time>2018-12-08T14:20:38Z</time>
      </trkpt>
      <trkpt lat="48.71677" lon="2.47643">
        <ele>93.0086</ele>
        <time>2018-12-08T14:20:41Z</time>
      </trkpt>
      <trkpt lat="48.71675" lon="2.47637">
        <ele>93.1204</ele>
        <time>2018-12-08T14:20:45Z</time>
      </trkpt>
      <trkpt lat="48.71672" lon="2.4763">
        <ele>93.2581</ele>
        <time>2018-12-08T14:20:50Z</time>
      </trkpt>
      <trkpt lat="48.71671" lon="2.47626">
        <ele>93.3133</ele>
        <time>2018-12-08T14:20:52Z</time>
      </trkpt>
      <trkpt lat="48.7167" lon="2.4762">
        <ele>93.3983</ele>
        <time>2018-12-08T14:20:55Z</time>
      </trkpt>
      <trkpt lat="48.7167" lon="2.47616">
        <ele>93.457</ele>
        <time>2018-12-08T14:20:57Z</time>
      </trkpt>
      <trkpt lat="48.71667" lon="2.47608">
        <ele>93.5738</ele>
        <time>2018-12-08T14:21:01Z</time>
      </trkpt>
      <trkpt lat="48.71665" lon="2.47603">
        <ele>93.6606</ele>
        <time>2018-12-08T14:21:04Z</time>
      </trkpt>
      <trkpt lat="48.71662" lon="2.47596">
        <ele>93.8071</ele>
        <time>2018-12-08T14:21:09Z</time>
      </trkpt>
      <trkpt lat="48.7166" lon="2.4759">
        <ele>93.9233</ele>
        <time>2018-12-08T14:21:13Z</time>
      </trkpt>
      <trkpt lat="48.71669" lon="2.47585">
        <ele>94.0674</ele>
        <time>2018-12-08T14:21:18Z</time>
      </trkpt>
      <trkpt lat="48.71671" lon="2.47584">
        <ele>94.0985</ele>
        <time>2018-12-08T14:21:19Z</time>
      </trkpt>
      <trkpt lat="48.71675" lon="2.47579">
        <ele>94.1984</ele>
        <time>2018-12-08T14:21:22Z</time>
      </trkpt>
      <trkpt lat="48.7168" lon="2.47578">
        <ele>94.335</ele>
        <time>2018-12-08T14:21:26Z</time>
      </trkpt>
      <trkpt lat="48.71683" lon="2.47576">
        <ele>94.4361</ele>
        <time>2018-12-08T14:21:29Z</time>
      </trkpt>
      <trkpt lat="48.71686" lon="2.47575">
        <ele>94.5809</ele>
        <time>2018-12-08T14:21:33Z</time>
      </trkpt>
      <trkpt lat="48.71689" lon="2.47573">
        <ele>94.7</ele>
        <time>2018-12-08T14:21:36Z</time>
      </trkpt>
      <trkpt lat="48.71693" lon="2.47569">
        <ele>94.8697</ele>
        <time>2018-12-08T14:21:40Z</time>
      </trkpt>
      <trkpt lat="48.71699" lon="2.47567">
        <ele>95.0547</ele>
        <time>2018-12-08T14:21:44Z</time>
      </trkpt>
      <trkpt lat="48.71701" lon="2.47566">
        <ele>95.1507</ele>
        <time>2018-12-08T14:21:46Z</time>
      </trkpt>
      <trkpt lat="48.71704" lon="2.47565">
        <ele>95.2955</ele>
        <time>2018-12-08T14:21:49Z</time>
      </trkpt>
      <trkpt lat="48.71709" lon="2.47564">
        <ele>95.4964</ele>
        <time>2018-12-08T14:21:53Z</time>
      </trkpt>
      <trkpt lat="48.71714" lon="2.47562">
        <ele>95.8075</ele>
        <time>2018-12-08T14:21:59Z</time>
      </trkpt>
      <trkpt lat="48.71718" lon="2.47559">
        <ele>96.0913</ele>
        <time>2018-12-08T14:22:04Z</time>
      </trkpt>
      <trkpt lat="48.71722" lon="2.47555">
        <ele>96.3404</ele>
        <time>2018-12-08T14:22:08Z</time>
      </trkpt>
      <trkpt lat="48.71725" lon="2.47552">
        <ele>96.6744</ele>
        <time>2018-12-08T14:22:13Z</time>
      </trkpt>
      <trkpt lat="48.71728" lon="2.47551">
        <ele>96.8131</ele>
        <time>2018-12-08T14:22:15Z</time>
      </trkpt>
      <trkpt lat="48.7173" lon="2.47549">
        <ele>97.0277</ele>
        <time>2018-12-08T14:22:18Z</time>
      </trkpt>
      <trkpt lat="48.7173" lon="2.47549">
        <ele>76</ele>
        <time>2018-12-08T14:22:25Z</time>
      </trkpt>
      <trkpt lat="48.7173" lon="2.47549">
        <ele>76</ele>
        <time>2018-12-08T14:22:32Z</time>
      </trkpt>
      <trkpt lat="48.71737" lon="2.47544">
        <ele>98.0467</ele>
        <time>2018-12-08T14:22:32Z</time>
      </trkpt>
      <trkpt lat="48.7174" lon="2.47539">
        <ele>98.6945</ele>
        <time>2018-12-08T14:22:41Z</time>
      </trkpt>
      <trkpt lat="48.71742" lon="2.47537">
        <ele>99.0474</ele>
        <time>2018-12-08T14:22:46Z</time>
      </trkpt>
      <trkpt lat="48.71747" lon="2.47534">
        <ele>99.798</ele>
        <time>2018-12-08T14:22:57Z</time>
      </trkpt>
      <trkpt lat="48.7175" lon="2.47532">
        <ele>99.9375</ele>
        <time>2018-12-08T14:22:59Z</time>
      </trkpt>
      <trkpt lat="48.71754" lon="2.47531">
        <ele>100.156</ele>
        <time>2018-12-08T14:23:02Z</time>
      </trkpt>
      <trkpt lat="48.71758" lon="2.47529">
        <ele>100.813</ele>
        <time>2018-12-08T14:23:11Z</time>
      </trkpt>
      <trkpt lat="48.71763" lon="2.47528">
        <ele>101.06</ele>
        <time>2018-12-08T14:23:14Z</time>
      </trkpt>
      <trkpt lat="48.71768" lon="2.47527">
        <ele>101.314</ele>
        <time>2018-12-08T14:23:17Z</time>
      </trkpt>
      <trkpt lat="48.71772" lon="2.47525">
        <ele>101.489</ele>
        <time>2018-12-08T14:23:19Z</time>
      </trkpt>
      <trkpt lat="48.71775" lon="2.47525">
        <ele>101.583</ele>
        <time>2018-12-08T14:23:20Z</time>
      </trkpt>
      <trkpt lat="48.71781" lon="2.47525">
        <ele>101.879</ele>
        <time>2018-12-08T14:23:23Z</time>
      </trkpt>
      <trkpt lat="48.71786" lon="2.47527">
        <ele>102.302</ele>
        <time>2018-12-08T14:23:27Z</time>
      </trkpt>
      <trkpt lat="48.71791" lon="2.47528">
        <ele>102.739</ele>
        <time>2018-12-08T14:23:31Z</time>
      </trkpt>
      <trkpt lat="48.71795" lon="2.47528">
        <ele>103.4</ele>
        <time>2018-12-08T14:23:37Z</time>
      </trkpt>
      <trkpt lat="48.718" lon="2.47532">
        <ele>103.838</ele>
        <time>2018-12-08T14:23:41Z</time>
      </trkpt>
      <trkpt lat="48.71805" lon="2.47533">
        <ele>104.385</ele>
        <time>2018-12-08T14:23:46Z</time>
      </trkpt>
      <trkpt lat="48.71809" lon="2.47535">
        <ele>104.707</ele>
        <time>2018-12-08T14:23:49Z</time>
      </trkpt>
      <trkpt lat="48.71813" lon="2.47536">
        <ele>104.918</ele>
        <time>2018-12-08T14:23:51Z</time>
      </trkpt>
      <trkpt lat="48.71816" lon="2.47536">
        <ele>105.126</ele>
        <time>2018-12-08T14:23:53Z</time>
      </trkpt>
      <trkpt lat="48.71822" lon="2.47537">
        <ele>105.533</ele>
        <time>2018-12-08T14:23:57Z</time>
      </trkpt>
      <trkpt lat="48.71825" lon="2.47538">
        <ele>105.734</ele>
        <time>2018-12-08T14:23:59Z</time>
      </trkpt>
      <trkpt lat="48.71831" lon="2.47538">
        <ele>106.141</ele>
        <time>2018-12-08T14:24:03Z</time>
      </trkpt>
      <trkpt lat="48.71835" lon="2.47543">
        <ele>106.834</ele>
        <time>2018-12-08T14:24:10Z</time>
      </trkpt>
      <trkpt lat="48.71838" lon="2.47545">
        <ele>107.212</ele>
        <time>2018-12-08T14:24:14Z</time>
      </trkpt>
      <trkpt lat="48.71843" lon="2.47547">
        <ele>107.786</ele>
        <time>2018-12-08T14:24:20Z</time>
      </trkpt>
      <trkpt lat="48.71847" lon="2.4755">
        <ele>108.179</ele>
        <time>2018-12-08T14:24:24Z</time>
      </trkpt>
      <trkpt lat="48.7185" lon="2.47553">
        <ele>108.471</ele>
        <time>2018-12-08T14:24:27Z</time>
      </trkpt>
      <trkpt lat="48.71854" lon="2.47556">
        <ele>108.765</ele>
        <time>2018-12-08T14:24:30Z</time>
      </trkpt>
      <trkpt lat="48.71858" lon="2.47557">
        <ele>108.96</ele>
        <time>2018-12-08T14:24:32Z</time>
      </trkpt>
      <trkpt lat="48.7186" lon="2.47559">
        <ele>109.152</ele>
        <time>2018-12-08T14:24:34Z</time>
      </trkpt>
      <trkpt lat="48.71865" lon="2.47558">
        <ele>109.53</ele>
        <time>2018-12-08T14:24:38Z</time>
      </trkpt>
      <trkpt lat="48.71868" lon="2.47558">
        <ele>109.718</ele>
        <time>2018-12-08T14:24:40Z</time>
      </trkpt>
      <trkpt lat="48.71873" lon="2.47559">
        <ele>110.177</ele>
        <time>2018-12-08T14:24:45Z</time>
      </trkpt>
      <trkpt lat="48.71878" lon="2.47562">
        <ele>110.795</ele>
        <time>2018-12-08T14:24:52Z</time>
      </trkpt>
      <trkpt lat="48.71882" lon="2.47565">
        <ele>111.203</ele>
        <time>2018-12-08T14:24:57Z</time>
      </trkpt>
      <trkpt lat="48.71887" lon="2.47567">
        <ele>111.437</ele>
        <time>2018-12-08T14:25:00Z</time>
      </trkpt>
      <trkpt lat="48.71891" lon="2.47567">
        <ele>111.594</ele>
        <time>2018-12-08T14:25:02Z</time>
      </trkpt>
      <trkpt lat="48.71895" lon="2.47568">
        <ele>111.754</ele>
        <time>2018-12-08T14:25:04Z</time>
      </trkpt>
      <trkpt lat="48.719" lon="2.47571">
        <ele>112</ele>
        <time>2018-12-08T14:25:07Z</time>
      </trkpt>
      <trkpt lat="48.71904" lon="2.47574">
        <ele>112.256</ele>
        <time>2018-12-08T14:25:10Z</time>
      </trkpt>
      <trkpt lat="48.71908" lon="2.47577">
        <ele>112.611</ele>
        <time>2018-12-08T14:25:14Z</time>
      </trkpt>
      <trkpt lat="48.71914" lon="2.47579">
        <ele>112.982</ele>
        <time>2018-12-08T14:25:18Z</time>
      </trkpt>
      <trkpt lat="48.71917" lon="2.47579">
        <ele>113.167</ele>
        <time>2018-12-08T14:25:20Z</time>
      </trkpt>
      <trkpt lat="48.71922" lon="2.47582">
        <ele>113.626</ele>
        <time>2018-12-08T14:25:25Z</time>
      </trkpt>
      <trkpt lat="48.71924" lon="2.47584">
        <ele>113.81</ele>
        <time>2018-12-08T14:25:27Z</time>
      </trkpt>
      <trkpt lat="48.71928" lon="2.47585">
        <ele>114.084</ele>
        <time>2018-12-08T14:25:30Z</time>
      </trkpt>
      <trkpt lat="48.7193" lon="2.47586">
        <ele>114.262</ele>
        <time>2018-12-08T14:25:32Z</time>
      </trkpt>
      <trkpt lat="48.71935" lon="2.47586">
        <ele>114.609</ele>
        <time>2018-12-08T14:25:36Z</time>
      </trkpt>
      <trkpt lat="48.71939" lon="2.4759">
        <ele>114.965</ele>
        <time>2018-12-08T14:25:40Z</time>
      </trkpt>
      <trkpt lat="48.71945" lon="2.47591">
        <ele>115.366</ele>
        <time>2018-12-08T14:25:44Z</time>
      </trkpt>
      <trkpt lat="48.7195" lon="2.47593">
        <ele>115.688</ele>
        <time>2018-12-08T14:25:47Z</time>
      </trkpt>
      <trkpt lat="48.71955" lon="2.47593">
        <ele>116.125</ele>
        <time>2018-12-08T14:25:51Z</time>
      </trkpt>
      <trkpt lat="48.71955" lon="2.47593">
        <ele>89.7</ele>
        <time>2018-12-08T14:25:58Z</time>
      </trkpt>
      <trkpt lat="48.71955" lon="2.47593">
        <ele>89.7</ele>
        <time>2018-12-08T14:26:04Z</time>
      </trkpt>
      <trkpt lat="48.71964" lon="2.47591">
        <ele>117.537</ele>
        <time>2018-12-08T14:26:04Z</time>
      </trkpt>
      <trkpt lat="48.71967" lon="2.47592">
        <ele>117.848</ele>
        <time>2018-12-08T14:26:07Z</time>
      </trkpt>
      <trkpt lat="48.71971" lon="2.47589">
        <ele>118.157</ele>
        <time>2018-12-08T14:26:10Z</time>
      </trkpt>
      <trkpt lat="48.71976" lon="2.47591">
        <ele>118.669</ele>
        <time>2018-12-08T14:26:15Z</time>
      </trkpt>
      <trkpt lat="48.71979" lon="2.47598">
        <ele>118.98</ele>
        <time>2018-12-08T14:26:18Z</time>
      </trkpt>
      <trkpt lat="48.71982" lon="2.47604">
        <ele>119.396</ele>
        <time>2018-12-08T14:26:22Z</time>
      </trkpt>
      <trkpt lat="48.71983" lon="2.47607">
        <ele>119.606</ele>
        <time>2018-12-08T14:26:24Z</time>
      </trkpt>
      <trkpt lat="48.71987" lon="2.47611">
        <ele>120.332</ele>
        <time>2018-12-08T14:26:31Z</time>
      </trkpt>
      <trkpt lat="48.7199" lon="2.47614">
        <ele>120.626</ele>
        <time>2018-12-08T14:26:34Z</time>
      </trkpt>
      <trkpt lat="48.71992" lon="2.47616">
        <ele>121.005</ele>
        <time>2018-12-08T14:26:38Z</time>
      </trkpt>
      <trkpt lat="48.71997" lon="2.47623">
        <ele>121.715</ele>
        <time>2018-12-08T14:26:46Z</time>
      </trkpt>
      <trkpt lat="48.72001" lon="2.47629">
        <ele>122.121</ele>
        <time>2018-12-08T14:26:51Z</time>
      </trkpt>
      <trkpt lat="48.72004" lon="2.47636">
        <ele>122.354</ele>
        <time>2018-12-08T14:26:54Z</time>
      </trkpt>
      <trkpt lat="48.72006" lon="2.47639">
        <ele>122.506</ele>
        <time>2018-12-08T14:26:56Z</time>
      </trkpt>
      <trkpt lat="48.7201" lon="2.47643">
        <ele>122.728</ele>
        <time>2018-12-08T14:26:59Z</time>
      </trkpt>
      <trkpt lat="48.72013" lon="2.47645">
        <ele>122.872</ele>
        <time>2018-12-08T14:27:01Z</time>
      </trkpt>
      <trkpt lat="48.7202" lon="2.47651">
        <ele>123.279</ele>
        <time>2018-12-08T14:27:07Z</time>
      </trkpt>
      <trkpt lat="48.72024" lon="2.47658">
        <ele>123.471</ele>
        <time>2018-12-08T14:27:10Z</time>
      </trkpt>
      <trkpt lat="48.72026" lon="2.47663">
        <ele>123.653</ele>
        <time>2018-12-08T14:27:13Z</time>
      </trkpt>
      <trkpt lat="48.72028" lon="2.47666">
        <ele>123.772</ele>
        <time>2018-12-08T14:27:15Z</time>
      </trkpt>
      <trkpt lat="48.72032" lon="2.4767">
        <ele>123.999</ele>
        <time>2018-12-08T14:27:19Z</time>
      </trkpt>
      <trkpt lat="48.72035" lon="2.47675">
        <ele>124.219</ele>
        <time>2018-12-08T14:27:23Z</time>
      </trkpt>
      <trkpt lat="48.72037" lon="2.47678">
        <ele>124.437</ele>
        <time>2018-12-08T14:27:27Z</time>
      </trkpt>
      <trkpt lat="48.72042" lon="2.47682">
        <ele>124.645</ele>
        <time>2018-12-08T14:27:31Z</time>
      </trkpt>
      <trkpt lat="48.72044" lon="2.47684">
        <ele>124.796</ele>
        <time>2018-12-08T14:27:34Z</time>
      </trkpt>
      <trkpt lat="48.72047" lon="2.47689">
        <ele>125.082</ele>
        <time>2018-12-08T14:27:40Z</time>
      </trkpt>
      <trkpt lat="48.72052" lon="2.47695">
        <ele>125.264</ele>
        <time>2018-12-08T14:27:44Z</time>
      </trkpt>
      <trkpt lat="48.72055" lon="2.47702">
        <ele>125.4</ele>
        <time>2018-12-08T14:27:47Z</time>
      </trkpt>
      <trkpt lat="48.72056" lon="2.47705">
        <ele>125.49</ele>
        <time>2018-12-08T14:27:49Z</time>
      </trkpt>
      <trkpt lat="48.72059" lon="2.47711">
        <ele>125.669</ele>
        <time>2018-12-08T14:27:53Z</time>
      </trkpt>
      <trkpt lat="48.72061" lon="2.47717">
        <ele>125.804</ele>
        <time>2018-12-08T14:27:56Z</time>
      </trkpt>
      <trkpt lat="48.72066" lon="2.47722">
        <ele>125.985</ele>
        <time>2018-12-08T14:28:00Z</time>
      </trkpt>
      <trkpt lat="48.72068" lon="2.47725">
        <ele>126.073</ele>
        <time>2018-12-08T14:28:02Z</time>
      </trkpt>
      <trkpt lat="48.72072" lon="2.4773">
        <ele>126.308</ele>
        <time>2018-12-08T14:28:07Z</time>
      </trkpt>
      <trkpt lat="48.72075" lon="2.47734">
        <ele>126.455</ele>
        <time>2018-12-08T14:28:10Z</time>
      </trkpt>
      <trkpt lat="48.72077" lon="2.47738">
        <ele>126.553</ele>
        <time>2018-12-08T14:28:12Z</time>
      </trkpt>
      <trkpt lat="48.72081" lon="2.47743">
        <ele>126.863</ele>
        <time>2018-12-08T14:28:18Z</time>
      </trkpt>
      <trkpt lat="48.72084" lon="2.47747">
        <ele>127.079</ele>
        <time>2018-12-08T14:28:22Z</time>
      </trkpt>
      <trkpt lat="48.72086" lon="2.4775">
        <ele>127.237</ele>
        <time>2018-12-08T14:28:25Z</time>
      </trkpt>
      <trkpt lat="48.72088" lon="2.47753">
        <ele>127.397</ele>
        <time>2018-12-08T14:28:28Z</time>
      </trkpt>
      <trkpt lat="48.72093" lon="2.47756">
        <ele>127.615</ele>
        <time>2018-12-08T14:28:32Z</time>
      </trkpt>
      <trkpt lat="48.72096" lon="2.47761">
        <ele>127.838</ele>
        <time>2018-12-08T14:28:36Z</time>
      </trkpt>
      <trkpt lat="48.72099" lon="2.47767">
        <ele>128.12</ele>
        <time>2018-12-08T14:28:41Z</time>
      </trkpt>
      <trkpt lat="48.72101" lon="2.47771">
        <ele>128.233</ele>
        <time>2018-12-08T14:28:43Z</time>
      </trkpt>
      <trkpt lat="48.72106" lon="2.47775">
        <ele>128.464</ele>
        <time>2018-12-08T14:28:47Z</time>
      </trkpt>
      <trkpt lat="48.7211" lon="2.47781">
        <ele>128.706</ele>
        <time>2018-12-08T14:28:51Z</time>
      </trkpt>
      <trkpt lat="48.72113" lon="2.47786">
        <ele>128.887</ele>
        <time>2018-12-08T14:28:54Z</time>
      </trkpt>
      <trkpt lat="48.72116" lon="2.4779">
        <ele>129.008</ele>
        <time>2018-12-08T14:28:56Z</time>
      </trkpt>
      <trkpt lat="48.72119" lon="2.47795">
        <ele>129.188</ele>
        <time>2018-12-08T14:28:59Z</time>
      </trkpt>
      <trkpt lat="48.72122" lon="2.478">
        <ele>129.368</ele>
        <time>2018-12-08T14:29:02Z</time>
      </trkpt>
      <trkpt lat="48.72127" lon="2.47803">
        <ele>129.713</ele>
        <time>2018-12-08T14:29:08Z</time>
      </trkpt>
      <trkpt lat="48.7213" lon="2.47811">
        <ele>129.929</ele>
        <time>2018-12-08T14:29:12Z</time>
      </trkpt>
      <trkpt lat="48.72132" lon="2.47816">
        <ele>130.085</ele>
        <time>2018-12-08T14:29:15Z</time>
      </trkpt>
      <trkpt lat="48.72136" lon="2.47821">
        <ele>130.241</ele>
        <time>2018-12-08T14:29:18Z</time>
      </trkpt>
      <trkpt lat="48.72138" lon="2.47823">
        <ele>130.342</ele>
        <time>2018-12-08T14:29:20Z</time>
      </trkpt>
      <trkpt lat="48.7214" lon="2.47826">
        <ele>130.495</ele>
        <time>2018-12-08T14:29:23Z</time>
      </trkpt>
      <trkpt lat="48.72142" lon="2.47829">
        <ele>130.644</ele>
        <time>2018-12-08T14:29:26Z</time>
      </trkpt>
      <trkpt lat="48.72145" lon="2.47832">
        <ele>130.744</ele>
        <time>2018-12-08T14:29:28Z</time>
      </trkpt>
      <trkpt lat="48.72148" lon="2.47837">
        <ele>130.996</ele>
        <time>2018-12-08T14:29:33Z</time>
      </trkpt>
      <trkpt lat="48.72151" lon="2.47842">
        <ele>131.312</ele>
        <time>2018-12-08T14:29:39Z</time>
      </trkpt>
      <trkpt lat="48.72156" lon="2.47848">
        <ele>131.51</ele>
        <time>2018-12-08T14:29:43Z</time>
      </trkpt>
      <trkpt lat="48.72159" lon="2.47851">
        <ele>131.608</ele>
        <time>2018-12-08T14:29:45Z</time>
      </trkpt>
      <trkpt lat="48.72162" lon="2.47857">
        <ele>131.758</ele>
        <time>2018-12-08T14:29:48Z</time>
      </trkpt>
      <trkpt lat="48.72164" lon="2.47861">
        <ele>131.86</ele>
        <time>2018-12-08T14:29:50Z</time>
      </trkpt>
      <trkpt lat="48.72168" lon="2.47865">
        <ele>132.105</ele>
        <time>2018-12-08T14:29:55Z</time>
      </trkpt>
      <trkpt lat="48.72173" lon="2.47868">
        <ele>132.303</ele>
        <time>2018-12-08T14:29:59Z</time>
      </trkpt>
      <trkpt lat="48.72177" lon="2.47873">
        <ele>132.453</ele>
        <time>2018-12-08T14:30:02Z</time>
      </trkpt>
      <trkpt lat="48.72179" lon="2.47877">
        <ele>132.613</ele>
        <time>2018-12-08T14:30:05Z</time>
      </trkpt>
      <trkpt lat="48.7218" lon="2.47879">
        <ele>132.723</ele>
        <time>2018-12-08T14:30:07Z</time>
      </trkpt>
      <trkpt lat="48.72185" lon="2.47884">
        <ele>132.957</ele>
        <time>2018-12-08T14:30:11Z</time>
      </trkpt>
      <trkpt lat="48.72188" lon="2.47891">
        <ele>133.293</ele>
        <time>2018-12-08T14:30:16Z</time>
      </trkpt>
      <trkpt lat="48.72192" lon="2.47896">
        <ele>133.669</ele>
        <time>2018-12-08T14:30:21Z</time>
      </trkpt>
      <trkpt lat="48.72194" lon="2.47899">
        <ele>133.901</ele>
        <time>2018-12-08T14:30:24Z</time>
      </trkpt>
      <trkpt lat="48.72196" lon="2.47902">
        <ele>134.13</ele>
        <time>2018-12-08T14:30:27Z</time>
      </trkpt>
      <trkpt lat="48.72197" lon="2.47905">
        <ele>134.29</ele>
        <time>2018-12-08T14:30:29Z</time>
      </trkpt>
      <trkpt lat="48.72202" lon="2.47908">
        <ele>134.693</ele>
        <time>2018-12-08T14:30:34Z</time>
      </trkpt>
      <trkpt lat="48.72206" lon="2.47913">
        <ele>135.059</ele>
        <time>2018-12-08T14:30:39Z</time>
      </trkpt>
      <trkpt lat="48.72209" lon="2.47917">
        <ele>135.342</ele>
        <time>2018-12-08T14:30:43Z</time>
      </trkpt>
      <trkpt lat="48.72211" lon="2.47924">
        <ele>135.549</ele>
        <time>2018-12-08T14:30:46Z</time>
      </trkpt>
      <trkpt lat="48.72212" lon="2.47928">
        <ele>135.687</ele>
        <time>2018-12-08T14:30:48Z</time>
      </trkpt>
      <trkpt lat="48.72213" lon="2.47936">
        <ele>136.036</ele>
        <time>2018-12-08T14:30:53Z</time>
      </trkpt>
      <trkpt lat="48.7221" lon="2.47941">
        <ele>136.453</ele>
        <time>2018-12-08T14:30:59Z</time>
      </trkpt>
      <trkpt lat="48.7221" lon="2.47948">
        <ele>136.735</ele>
        <time>2018-12-08T14:31:03Z</time>
      </trkpt>
      <trkpt lat="48.72212" lon="2.47957">
        <ele>137.102</ele>
        <time>2018-12-08T14:31:08Z</time>
      </trkpt>
      <trkpt lat="48.72211" lon="2.47964">
        <ele>137.616</ele>
        <time>2018-12-08T14:31:15Z</time>
      </trkpt>
      <trkpt lat="48.7221" lon="2.47969">
        <ele>137.831</ele>
        <time>2018-12-08T14:31:18Z</time>
      </trkpt>
      <trkpt lat="48.72211" lon="2.47976">
        <ele>138.11</ele>
        <time>2018-12-08T14:31:22Z</time>
      </trkpt>
      <trkpt lat="48.72212" lon="2.47982">
        <ele>138.247</ele>
        <time>2018-12-08T14:31:24Z</time>
      </trkpt>
      <trkpt lat="48.72213" lon="2.47986">
        <ele>138.317</ele>
        <time>2018-12-08T14:31:25Z</time>
      </trkpt>
      <trkpt lat="48.72212" lon="2.47993">
        <ele>138.601</ele>
        <time>2018-12-08T14:31:29Z</time>
      </trkpt>
      <trkpt lat="48.72211" lon="2.47999">
        <ele>138.971</ele>
        <time>2018-12-08T14:31:34Z</time>
      </trkpt>
      <trkpt lat="48.72212" lon="2.48007">
        <ele>139.263</ele>
        <time>2018-12-08T14:31:38Z</time>
      </trkpt>
      <trkpt lat="48.7221" lon="2.48014">
        <ele>139.562</ele>
        <time>2018-12-08T14:31:42Z</time>
      </trkpt>
      <trkpt lat="48.7221" lon="2.48022">
        <ele>140.011</ele>
        <time>2018-12-08T14:31:48Z</time>
      </trkpt>
      <trkpt lat="48.72211" lon="2.4803">
        <ele>140.458</ele>
        <time>2018-12-08T14:31:55Z</time>
      </trkpt>
      <trkpt lat="48.72211" lon="2.48037">
        <ele>140.833</ele>
        <time>2018-12-08T14:32:00Z</time>
      </trkpt>
      <trkpt lat="48.72211" lon="2.48044">
        <ele>141.15</ele>
        <time>2018-12-08T14:32:04Z</time>
      </trkpt>
      <trkpt lat="48.72212" lon="2.48051">
        <ele>141.715</ele>
        <time>2018-12-08T14:32:11Z</time>
      </trkpt>
      <trkpt lat="48.72212" lon="2.48059">
        <ele>142.029</ele>
        <time>2018-12-08T14:32:15Z</time>
      </trkpt>
      <trkpt lat="48.72212" lon="2.48068">
        <ele>142.343</ele>
        <time>2018-12-08T14:32:19Z</time>
      </trkpt>
      <trkpt lat="48.72211" lon="2.48076">
        <ele>142.667</ele>
        <time>2018-12-08T14:32:23Z</time>
      </trkpt>
      <trkpt lat="48.7221" lon="2.48084">
        <ele>143.002</ele>
        <time>2018-12-08T14:32:27Z</time>
      </trkpt>
      <trkpt lat="48.7221" lon="2.4809">
        <ele>143.252</ele>
        <time>2018-12-08T14:32:30Z</time>
      </trkpt>
      <trkpt lat="48.7221" lon="2.48098">
        <ele>143.653</ele>
        <time>2018-12-08T14:32:35Z</time>
      </trkpt>
      <trkpt lat="48.7221" lon="2.48105">
        <ele>144.046</ele>
        <time>2018-12-08T14:32:40Z</time>
      </trkpt>
      <trkpt lat="48.72211" lon="2.48111">
        <ele>144.279</ele>
        <time>2018-12-08T14:32:43Z</time>
      </trkpt>
      <trkpt lat="48.72211" lon="2.48118">
        <ele>144.673</ele>
        <time>2018-12-08T14:32:49Z</time>
      </trkpt>
      <trkpt lat="48.72213" lon="2.48129">
        <ele>144.825</ele>
        <time>2018-12-08T14:32:51Z</time>
      </trkpt>
      <trkpt lat="48.72212" lon="2.48136">
        <ele>145.208</ele>
        <time>2018-12-08T14:32:58Z</time>
      </trkpt>
      <trkpt lat="48.72212" lon="2.48145">
        <ele>145.625</ele>
        <time>2018-12-08T14:33:04Z</time>
      </trkpt>
      <trkpt lat="48.72211" lon="2.48149">
        <ele>145.826</ele>
        <time>2018-12-08T14:33:07Z</time>
      </trkpt>
      <trkpt lat="48.72211" lon="2.48154">
        <ele>146.023</ele>
        <time>2018-12-08T14:33:10Z</time>
      </trkpt>
      <trkpt lat="48.72211" lon="2.48159">
        <ele>146.154</ele>
        <time>2018-12-08T14:33:12Z</time>
      </trkpt>
      <trkpt lat="48.72209" lon="2.48167">
        <ele>146.477</ele>
        <time>2018-12-08T14:33:17Z</time>
      </trkpt>
      <trkpt lat="48.72208" lon="2.48176">
        <ele>146.867</ele>
        <time>2018-12-08T14:33:23Z</time>
      </trkpt>
      <trkpt lat="48.72208" lon="2.48176">
        <ele>146.867</ele>
        <time>2018-12-08T14:33:30Z</time>
      </trkpt>
      <trkpt lat="48.72208" lon="2.48176">
        <ele>115.5</ele>
        <time>2018-12-08T14:33:30Z</time>
      </trkpt>
      <trkpt lat="48.72208" lon="2.48176">
        <ele>115.5</ele>
        <time>2018-12-08T14:34:06Z</time>
      </trkpt>
      <trkpt lat="48.72211" lon="2.48222">
        <ele>149.812</ele>
        <time>2018-12-08T14:34:06Z</time>
      </trkpt>
      <trkpt lat="48.72211" lon="2.4823">
        <ele>149.924</ele>
        <time>2018-12-08T14:34:08Z</time>
      </trkpt>
      <trkpt lat="48.72211" lon="2.48237">
        <ele>150.14</ele>
        <time>2018-12-08T14:34:12Z</time>
      </trkpt>
      <trkpt lat="48.7221" lon="2.48244">
        <ele>150.405</ele>
        <time>2018-12-08T14:34:18Z</time>
      </trkpt>
      <trkpt lat="48.72211" lon="2.48256">
        <ele>150.666</ele>
        <time>2018-12-08T14:34:23Z</time>
      </trkpt>
      <trkpt lat="48.72213" lon="2.48266">
        <ele>150.939</ele>
        <time>2018-12-08T14:34:29Z</time>
      </trkpt>
      <trkpt lat="48.72214" lon="2.4827">
        <ele>151.044</ele>
        <time>2018-12-08T14:34:31Z</time>
      </trkpt>
      <trkpt lat="48.72214" lon="2.48278">
        <ele>151.269</ele>
        <time>2018-12-08T14:34:37Z</time>
      </trkpt>
      <trkpt lat="48.72214" lon="2.48284">
        <ele>151.479</ele>
        <time>2018-12-08T14:34:41Z</time>
      </trkpt>
      <trkpt lat="48.72214" lon="2.48292">
        <ele>151.583</ele>
        <time>2018-12-08T14:34:43Z</time>
      </trkpt>
      <trkpt lat="48.72212" lon="2.48298">
        <ele>151.789</ele>
        <time>2018-12-08T14:34:47Z</time>
      </trkpt>
      <trkpt lat="48.72214" lon="2.48306">
        <ele>152.045</ele>
        <time>2018-12-08T14:34:52Z</time>
      </trkpt>
      <trkpt lat="48.72216" lon="2.48316">
        <ele>152.292</ele>
        <time>2018-12-08T14:34:57Z</time>
      </trkpt>
      <trkpt lat="48.72215" lon="2.48325">
        <ele>152.389</ele>
        <time>2018-12-08T14:34:59Z</time>
      </trkpt>
      <trkpt lat="48.7221" lon="2.48329">
        <ele>152.628</ele>
        <time>2018-12-08T14:35:05Z</time>
      </trkpt>
      <trkpt lat="48.72208" lon="2.48336">
        <ele>152.803</ele>
        <time>2018-12-08T14:35:10Z</time>
      </trkpt>
      <trkpt lat="48.72209" lon="2.48343">
        <ele>152.885</ele>
        <time>2018-12-08T14:35:12Z</time>
      </trkpt>
      <trkpt lat="48.72211" lon="2.48352">
        <ele>153.005</ele>
        <time>2018-12-08T14:35:15Z</time>
      </trkpt>
      <trkpt lat="48.72211" lon="2.48359">
        <ele>153.047</ele>
        <time>2018-12-08T14:35:16Z</time>
      </trkpt>
      <trkpt lat="48.72213" lon="2.48366">
        <ele>153.181</ele>
        <time>2018-12-08T14:35:19Z</time>
      </trkpt>
      <trkpt lat="48.72214" lon="2.4837">
        <ele>153.186</ele>
        <time>2018-12-08T14:35:20Z</time>
      </trkpt>
      <trkpt lat="48.72211" lon="2.48377">
        <ele>153.442</ele>
        <time>2018-12-08T14:35:27Z</time>
      </trkpt>
      <trkpt lat="48.72212" lon="2.48385">
        <ele>153.594</ele>
        <time>2018-12-08T14:35:31Z</time>
      </trkpt>
      <trkpt lat="48.72211" lon="2.48393">
        <ele>153.702</ele>
        <time>2018-12-08T14:35:34Z</time>
      </trkpt>
      <trkpt lat="48.7221" lon="2.48397">
        <ele>153.773</ele>
        <time>2018-12-08T14:35:37Z</time>
      </trkpt>
      <trkpt lat="48.72208" lon="2.48403">
        <ele>153.93</ele>
        <time>2018-12-08T14:35:44Z</time>
      </trkpt>
      <trkpt lat="48.72207" lon="2.48407">
        <ele>153.98</ele>
        <time>2018-12-08T14:35:46Z</time>
      </trkpt>
      <trkpt lat="48.72209" lon="2.48414">
        <ele>154.113</ele>
        <time>2018-12-08T14:35:53Z</time>
      </trkpt>
      <trkpt lat="48.7221" lon="2.48418">
        <ele>154.152</ele>
        <time>2018-12-08T14:35:55Z</time>
      </trkpt>
      <trkpt lat="48.72208" lon="2.48426">
        <ele>154.241</ele>
        <time>2018-12-08T14:36:00Z</time>
      </trkpt>
      <trkpt lat="48.72209" lon="2.48434">
        <ele>154.273</ele>
        <time>2018-12-08T14:36:02Z</time>
      </trkpt>
      <trkpt lat="48.72209" lon="2.4844">
        <ele>154.288</ele>
        <time>2018-12-08T14:36:03Z</time>
      </trkpt>
      <trkpt lat="48.72211" lon="2.48447">
        <ele>154.335</ele>
        <time>2018-12-08T14:36:06Z</time>
      </trkpt>
      <trkpt lat="48.72211" lon="2.48454">
        <ele>154.396</ele>
        <time>2018-12-08T14:36:12Z</time>
      </trkpt>
      <trkpt lat="48.7221" lon="2.48461">
        <ele>154.435</ele>
        <time>2018-12-08T14:36:16Z</time>
      </trkpt>
      <trkpt lat="48.72208" lon="2.48468">
        <ele>154.471</ele>
        <time>2018-12-08T14:36:19Z</time>
      </trkpt>
      <trkpt lat="48.72208" lon="2.48477">
        <ele>154.503</ele>
        <time>2018-12-08T14:36:22Z</time>
      </trkpt>
      <trkpt lat="48.72209" lon="2.48487">
        <ele>154.536</ele>
        <time>2018-12-08T14:36:25Z</time>
      </trkpt>
      <trkpt lat="48.72209" lon="2.48496">
        <ele>154.552</ele>
        <time>2018-12-08T14:36:27Z</time>
      </trkpt>
      <trkpt lat="48.72211" lon="2.48505">
        <ele>154.597</ele>
        <time>2018-12-08T14:36:31Z</time>
      </trkpt>
      <trkpt lat="48.72211" lon="2.48515">
        <ele>154.67</ele>
        <time>2018-12-08T14:36:36Z</time>
      </trkpt>
      <trkpt lat="48.7221" lon="2.48519">
        <ele>154.729</ele>
        <time>2018-12-08T14:36:40Z</time>
      </trkpt>
      <trkpt lat="48.7221" lon="2.48523">
        <ele>154.759</ele>
        <time>2018-12-08T14:36:42Z</time>
      </trkpt>
      <trkpt lat="48.72212" lon="2.4853">
        <ele>154.791</ele>
        <time>2018-12-08T14:36:44Z</time>
      </trkpt>
      <trkpt lat="48.72213" lon="2.48538">
        <ele>154.838</ele>
        <time>2018-12-08T14:36:47Z</time>
      </trkpt>
      <trkpt lat="48.72213" lon="2.48548">
        <ele>154.88</ele>
        <time>2018-12-08T14:36:50Z</time>
      </trkpt>
      <trkpt lat="48.72214" lon="2.48554">
        <ele>154.913</ele>
        <time>2018-12-08T14:36:53Z</time>
      </trkpt>
      <trkpt lat="48.72214" lon="2.48563">
        <ele>154.962</ele>
        <time>2018-12-08T14:36:56Z</time>
      </trkpt>
      <trkpt lat="48.72214" lon="2.48566">
        <ele>155.011</ele>
        <time>2018-12-08T14:36:59Z</time>
      </trkpt>
      <trkpt lat="48.72215" lon="2.48573">
        <ele>155.095</ele>
        <time>2018-12-08T14:37:05Z</time>
      </trkpt>
      <trkpt lat="48.72213" lon="2.4858">
        <ele>155.123</ele>
        <time>2018-12-08T14:37:07Z</time>
      </trkpt>
      <trkpt lat="48.72213" lon="2.48587">
        <ele>155.18</ele>
        <time>2018-12-08T14:37:11Z</time>
      </trkpt>
      <trkpt lat="48.72214" lon="2.48594">
        <ele>155.195</ele>
        <time>2018-12-08T14:37:13Z</time>
      </trkpt>
      <trkpt lat="48.72215" lon="2.48602">
        <ele>155.244</ele>
        <time>2018-12-08T14:37:17Z</time>
      </trkpt>
      <trkpt lat="48.72216" lon="2.48606">
        <ele>155.282</ele>
        <time>2018-12-08T14:37:22Z</time>
      </trkpt>
      <trkpt lat="48.72215" lon="2.48613">
        <ele>155.338</ele>
        <time>2018-12-08T14:37:28Z</time>
      </trkpt>
      <trkpt lat="48.72215" lon="2.4862">
        <ele>155.36</ele>
        <time>2018-12-08T14:37:30Z</time>
      </trkpt>
      <trkpt lat="48.72216" lon="2.4863">
        <ele>155.387</ele>
        <time>2018-12-08T14:37:33Z</time>
      </trkpt>
      <trkpt lat="48.72216" lon="2.48638">
        <ele>155.443</ele>
        <time>2018-12-08T14:37:37Z</time>
      </trkpt>
      <trkpt lat="48.72215" lon="2.48645">
        <ele>155.519</ele>
        <time>2018-12-08T14:37:43Z</time>
      </trkpt>
      <trkpt lat="48.72214" lon="2.4865">
        <ele>155.542</ele>
        <time>2018-12-08T14:37:45Z</time>
      </trkpt>
      <trkpt lat="48.72212" lon="2.48659">
        <ele>155.577</ele>
        <time>2018-12-08T14:37:49Z</time>
      </trkpt>
      <trkpt lat="48.72213" lon="2.48667">
        <ele>155.61</ele>
        <time>2018-12-08T14:37:54Z</time>
      </trkpt>
      <trkpt lat="48.72214" lon="2.48678">
        <ele>155.639</ele>
        <time>2018-12-08T14:37:57Z</time>
      </trkpt>
      <trkpt lat="48.72212" lon="2.48684">
        <ele>155.679</ele>
        <time>2018-12-08T14:38:03Z</time>
      </trkpt>
      <trkpt lat="48.7221" lon="2.48692">
        <ele>155.7</ele>
        <time>2018-12-08T14:38:08Z</time>
      </trkpt>
      <trkpt lat="48.72209" lon="2.48698">
        <ele>155.715</ele>
        <time>2018-12-08T14:38:12Z</time>
      </trkpt>
      <trkpt lat="48.72209" lon="2.48702">
        <ele>155.727</ele>
        <time>2018-12-08T14:38:15Z</time>
      </trkpt>
      <trkpt lat="48.72209" lon="2.4871">
        <ele>155.738</ele>
        <time>2018-12-08T14:38:19Z</time>
      </trkpt>
      <trkpt lat="48.72208" lon="2.48719">
        <ele>155.746</ele>
        <time>2018-12-08T14:38:21Z</time>
      </trkpt>
      <trkpt lat="48.72209" lon="2.48726">
        <ele>155.756</ele>
        <time>2018-12-08T14:38:24Z</time>
      </trkpt>
      <trkpt lat="48.72209" lon="2.48732">
        <ele>155.77</ele>
        <time>2018-12-08T14:38:31Z</time>
      </trkpt>
      <trkpt lat="48.72209" lon="2.4874">
        <ele>155.779</ele>
        <time>2018-12-08T14:38:36Z</time>
      </trkpt>
      <trkpt lat="48.72208" lon="2.48748">
        <ele>155.782</ele>
        <time>2018-12-08T14:38:41Z</time>
      </trkpt>
      <trkpt lat="48.72209" lon="2.48756">
        <ele>155.783</ele>
        <time>2018-12-08T14:38:44Z</time>
      </trkpt>
      <trkpt lat="48.72209" lon="2.48765">
        <ele>155.783</ele>
        <time>2018-12-08T14:38:48Z</time>
      </trkpt>
      <trkpt lat="48.72207" lon="2.48772">
        <ele>155.775</ele>
        <time>2018-12-08T14:38:53Z</time>
      </trkpt>
      <trkpt lat="48.72206" lon="2.48781">
        <ele>155.755</ele>
        <time>2018-12-08T14:38:58Z</time>
      </trkpt>
      <trkpt lat="48.72208" lon="2.48788">
        <ele>155.742</ele>
        <time>2018-12-08T14:39:02Z</time>
      </trkpt>
      <trkpt lat="48.72209" lon="2.48792">
        <ele>155.734</ele>
        <time>2018-12-08T14:39:04Z</time>
      </trkpt>
      <trkpt lat="48.72209" lon="2.48795">
        <ele>155.727</ele>
        <time>2018-12-08T14:39:06Z</time>
      </trkpt>
      <trkpt lat="48.72208" lon="2.48802">
        <ele>155.718</ele>
        <time>2018-12-08T14:39:10Z</time>
      </trkpt>
      <trkpt lat="48.72208" lon="2.48809">
        <ele>155.714</ele>
        <time>2018-12-08T14:39:12Z</time>
      </trkpt>
      <trkpt lat="48.72205" lon="2.48815">
        <ele>155.705</ele>
        <time>2018-12-08T14:39:15Z</time>
      </trkpt>
      <trkpt lat="48.72205" lon="2.48824">
        <ele>155.693</ele>
        <time>2018-12-08T14:39:19Z</time>
      </trkpt>
      <trkpt lat="48.72205" lon="2.48829">
        <ele>155.688</ele>
        <time>2018-12-08T14:39:21Z</time>
      </trkpt>
      <trkpt lat="48.72203" lon="2.48835">
        <ele>155.675</ele>
        <time>2018-12-08T14:39:27Z</time>
      </trkpt>
      <trkpt lat="48.72197" lon="2.48838">
        <ele>155.664</ele>
        <time>2018-12-08T14:39:32Z</time>
      </trkpt>
      <trkpt lat="48.72192" lon="2.48837">
        <ele>155.651</ele>
        <time>2018-12-08T14:39:37Z</time>
      </trkpt>
      <trkpt lat="48.72188" lon="2.48841">
        <ele>155.628</ele>
        <time>2018-12-08T14:39:43Z</time>
      </trkpt>
      <trkpt lat="48.72184" lon="2.48845">
        <ele>155.604</ele>
        <time>2018-12-08T14:39:49Z</time>
      </trkpt>
      <trkpt lat="48.7218" lon="2.4885">
        <ele>155.538</ele>
        <time>2018-12-08T14:39:56Z</time>
      </trkpt>
      <trkpt lat="48.72175" lon="2.48848">
        <ele>155.515</ele>
        <time>2018-12-08T14:39:58Z</time>
      </trkpt>
      <trkpt lat="48.7217" lon="2.48849">
        <ele>155.461</ele>
        <time>2018-12-08T14:40:05Z</time>
      </trkpt>
      <trkpt lat="48.72164" lon="2.48853">
        <ele>155.427</ele>
        <time>2018-12-08T14:40:08Z</time>
      </trkpt>
      <trkpt lat="48.72158" lon="2.48855">
        <ele>155.378</ele>
        <time>2018-12-08T14:40:13Z</time>
      </trkpt>
      <trkpt lat="48.72152" lon="2.48858">
        <ele>155.367</ele>
        <time>2018-12-08T14:40:15Z</time>
      </trkpt>
      <trkpt lat="48.72148" lon="2.4886">
        <ele>155.338</ele>
        <time>2018-12-08T14:40:18Z</time>
      </trkpt>
      <trkpt lat="48.72143" lon="2.48857">
        <ele>155.294</ele>
        <time>2018-12-08T14:40:22Z</time>
      </trkpt>
      <trkpt lat="48.72138" lon="2.48858">
        <ele>155.26</ele>
        <time>2018-12-08T14:40:26Z</time>
      </trkpt>
      <trkpt lat="48.72134" lon="2.48861">
        <ele>155.223</ele>
        <time>2018-12-08T14:40:30Z</time>
      </trkpt>
      <trkpt lat="48.72132" lon="2.48864">
        <ele>155.159</ele>
        <time>2018-12-08T14:40:36Z</time>
      </trkpt>
      <trkpt lat="48.72132" lon="2.48864">
        <ele>90.5</ele>
        <time>2018-12-08T14:40:43Z</time>
      </trkpt>
      <trkpt lat="48.72132" lon="2.48864">
        <ele>90.5</ele>
        <time>2018-12-08T14:41:40Z</time>
      </trkpt>
      <trkpt lat="48.72096" lon="2.48867">
        <ele>154.223</ele>
        <time>2018-12-08T14:41:40Z</time>
      </trkpt>
      <trkpt lat="48.72092" lon="2.48869">
        <ele>154.153</ele>
        <time>2018-12-08T14:41:44Z</time>
      </trkpt>
      <trkpt lat="48.72086" lon="2.48872">
        <ele>154.085</ele>
        <time>2018-12-08T14:41:47Z</time>
      </trkpt>
      <trkpt lat="48.72083" lon="2.48872">
        <ele>154.038</ele>
        <time>2018-12-08T14:41:50Z</time>
      </trkpt>
      <trkpt lat="48.72078" lon="2.48871">
        <ele>153.931</ele>
        <time>2018-12-08T14:41:55Z</time>
      </trkpt>
      <trkpt lat="48.72074" lon="2.48869">
        <ele>153.872</ele>
        <time>2018-12-08T14:41:58Z</time>
      </trkpt>
      <trkpt lat="48.72071" lon="2.48868">
        <ele>153.833</ele>
        <time>2018-12-08T14:42:00Z</time>
      </trkpt>
      <trkpt lat="48.72065" lon="2.48866">
        <ele>153.772</ele>
        <time>2018-12-08T14:42:04Z</time>
      </trkpt>
      <trkpt lat="48.7206" lon="2.48866">
        <ele>153.712</ele>
        <time>2018-12-08T14:42:07Z</time>
      </trkpt>
      <trkpt lat="48.7206" lon="2.48866">
        <ele>153.712</ele>
        <time>2018-12-08T14:42:12Z</time>
      </trkpt>
      <trkpt lat="48.7206" lon="2.48866">
        <ele>84.5</ele>
        <time>2018-12-08T14:42:12Z</time>
      </trkpt>
      <trkpt lat="48.7206" lon="2.48866">
        <ele>84.5</ele>
        <time>2018-12-08T14:42:18Z</time>
      </trkpt>
      <trkpt lat="48.72051" lon="2.48868">
        <ele>153.535</ele>
        <time>2018-12-08T14:42:18Z</time>
      </trkpt>
      <trkpt lat="48.72045" lon="2.48867">
        <ele>153.457</ele>
        <time>2018-12-08T14:42:24Z</time>
      </trkpt>
      <trkpt lat="48.72042" lon="2.48867">
        <ele>153.418</ele>
        <time>2018-12-08T14:42:26Z</time>
      </trkpt>
      <trkpt lat="48.7204" lon="2.48866">
        <ele>153.377</ele>
        <time>2018-12-08T14:42:28Z</time>
      </trkpt>
      <trkpt lat="48.72034" lon="2.4887">
        <ele>153.243</ele>
        <time>2018-12-08T14:42:35Z</time>
      </trkpt>
      <trkpt lat="48.72029" lon="2.48871">
        <ele>153.151</ele>
        <time>2018-12-08T14:42:40Z</time>
      </trkpt>
      <trkpt lat="48.72025" lon="2.48867">
        <ele>153.076</ele>
        <time>2018-12-08T14:42:45Z</time>
      </trkpt>
      <trkpt lat="48.7202" lon="2.48866">
        <ele>152.986</ele>
        <time>2018-12-08T14:42:50Z</time>
      </trkpt>
      <trkpt lat="48.7202" lon="2.48866">
        <ele>152.986</ele>
        <time>2018-12-08T14:42:57Z</time>
      </trkpt>
      <trkpt lat="48.7202" lon="2.48866">
        <ele>82.1</ele>
        <time>2018-12-08T14:42:57Z</time>
      </trkpt>
      <trkpt lat="48.7202" lon="2.48866">
        <ele>82.1</ele>
        <time>2018-12-08T14:43:09Z</time>
      </trkpt>
      <trkpt lat="48.72004" lon="2.48862">
        <ele>152.72</ele>
        <time>2018-12-08T14:43:09Z</time>
      </trkpt>
      <trkpt lat="48.72" lon="2.48858">
        <ele>152.679</ele>
        <time>2018-12-08T14:43:13Z</time>
      </trkpt>
      <trkpt lat="48.71995" lon="2.48862">
        <ele>152.578</ele>
        <time>2018-12-08T14:43:20Z</time>
      </trkpt>
      <trkpt lat="48.71989" lon="2.48862">
        <ele>152.537</ele>
        <time>2018-12-08T14:43:23Z</time>
      </trkpt>
      <trkpt lat="48.71985" lon="2.48866">
        <ele>152.478</ele>
        <time>2018-12-08T14:43:26Z</time>
      </trkpt>
      <trkpt lat="48.71966" lon="2.48872">
        <ele>152.384</ele>
        <time>2018-12-08T14:43:31Z</time>
      </trkpt>
      <trkpt lat="48.71961" lon="2.48878">
        <ele>152.365</ele>
        <time>2018-12-08T14:43:32Z</time>
      </trkpt>
      <trkpt lat="48.71956" lon="2.48879">
        <ele>152.309</ele>
        <time>2018-12-08T14:43:36Z</time>
      </trkpt>
      <trkpt lat="48.71953" lon="2.4888">
        <ele>152.273</ele>
        <time>2018-12-08T14:43:38Z</time>
      </trkpt>
      <trkpt lat="48.71947" lon="2.48875">
        <ele>152.199</ele>
        <time>2018-12-08T14:43:42Z</time>
      </trkpt>
      <trkpt lat="48.71943" lon="2.48869">
        <ele>152.154</ele>
        <time>2018-12-08T14:43:48Z</time>
      </trkpt>
      <trkpt lat="48.71941" lon="2.48861">
        <ele>152.1</ele>
        <time>2018-12-08T14:43:51Z</time>
      </trkpt>
      <trkpt lat="48.71937" lon="2.48858">
        <ele>152.059</ele>
        <time>2018-12-08T14:43:55Z</time>
      </trkpt>
      <trkpt lat="48.71932" lon="2.48857">
        <ele>151.973</ele>
        <time>2018-12-08T14:44:00Z</time>
      </trkpt>
      <trkpt lat="48.71932" lon="2.48857">
        <ele>74.5</ele>
        <time>2018-12-08T14:44:07Z</time>
      </trkpt>
      <trkpt lat="48.71932" lon="2.48857">
        <ele>74.5</ele>
        <time>2018-12-08T14:44:14Z</time>
      </trkpt>
      <trkpt lat="48.71926" lon="2.48848">
        <ele>151.815</ele>
        <time>2018-12-08T14:44:14Z</time>
      </trkpt>
      <trkpt lat="48.71918" lon="2.48852">
        <ele>151.686</ele>
        <time>2018-12-08T14:44:26Z</time>
      </trkpt>
      <trkpt lat="48.71912" lon="2.48849">
        <ele>151.501</ele>
        <time>2018-12-08T14:44:50Z</time>
      </trkpt>
      <trkpt lat="48.71905" lon="2.48848">
        <ele>151.489</ele>
        <time>2018-12-08T14:44:52Z</time>
      </trkpt>
      <trkpt lat="48.71898" lon="2.48847">
        <ele>150.806</ele>
        <time>2018-12-08T14:45:43Z</time>
      </trkpt>
      <trkpt lat="48.71888" lon="2.48844">
        <ele>150.715</ele>
        <time>2018-12-08T14:45:47Z</time>
      </trkpt>
      <trkpt lat="48.71884" lon="2.48842">
        <ele>150.67</ele>
        <time>2018-12-08T14:45:49Z</time>
      </trkpt>
      <trkpt lat="48.71878" lon="2.4884">
        <ele>150.567</ele>
        <time>2018-12-08T14:45:54Z</time>
      </trkpt>
      <trkpt lat="48.71876" lon="2.48838">
        <ele>150.47</ele>
        <time>2018-12-08T14:46:01Z</time>
      </trkpt>
      <trkpt lat="48.7187" lon="2.48838">
        <ele>150.453</ele>
        <time>2018-12-08T14:46:02Z</time>
      </trkpt>
      <trkpt lat="48.71866" lon="2.48835">
        <ele>150.421</ele>
        <time>2018-12-08T14:46:04Z</time>
      </trkpt>
      <trkpt lat="48.71863" lon="2.48829">
        <ele>150.374</ele>
        <time>2018-12-08T14:46:08Z</time>
      </trkpt>
      <trkpt lat="48.71857" lon="2.48838">
        <ele>150.253</ele>
        <time>2018-12-08T14:46:16Z</time>
      </trkpt>
      <trkpt lat="48.71853" lon="2.48844">
        <ele>150.166</ele>
        <time>2018-12-08T14:46:21Z</time>
      </trkpt>
      <trkpt lat="48.7185" lon="2.48852">
        <ele>150.1</ele>
        <time>2018-12-08T14:46:24Z</time>
      </trkpt>
      <trkpt lat="48.71848" lon="2.48859">
        <ele>150.021</ele>
        <time>2018-12-08T14:46:27Z</time>
      </trkpt>
      <trkpt lat="48.71845" lon="2.48866">
        <ele>149.905</ele>
        <time>2018-12-08T14:46:30Z</time>
      </trkpt>
      <trkpt lat="48.71841" lon="2.48869">
        <ele>149.828</ele>
        <time>2018-12-08T14:46:32Z</time>
      </trkpt>
      <trkpt lat="48.71836" lon="2.48867">
        <ele>149.644</ele>
        <time>2018-12-08T14:46:37Z</time>
      </trkpt>
      <trkpt lat="48.71832" lon="2.48866">
        <ele>149.507</ele>
        <time>2018-12-08T14:46:41Z</time>
      </trkpt>
      <trkpt lat="48.71827" lon="2.48856">
        <ele>149.201</ele>
        <time>2018-12-08T14:46:51Z</time>
      </trkpt>
      <trkpt lat="48.71824" lon="2.48849">
        <ele>149.044</ele>
        <time>2018-12-08T14:46:57Z</time>
      </trkpt>
      <trkpt lat="48.71816" lon="2.48853">
        <ele>148.932</ele>
        <time>2018-12-08T14:47:02Z</time>
      </trkpt>
      <trkpt lat="48.71812" lon="2.48853">
        <ele>148.849</ele>
        <time>2018-12-08T14:47:06Z</time>
      </trkpt>
      <trkpt lat="48.71807" lon="2.48851">
        <ele>148.788</ele>
        <time>2018-12-08T14:47:10Z</time>
      </trkpt>
      <trkpt lat="48.71801" lon="2.48851">
        <ele>148.71</ele>
        <time>2018-12-08T14:47:16Z</time>
      </trkpt>
      <trkpt lat="48.71797" lon="2.48852">
        <ele>148.656</ele>
        <time>2018-12-08T14:47:19Z</time>
      </trkpt>
      <trkpt lat="48.71792" lon="2.48849">
        <ele>148.621</ele>
        <time>2018-12-08T14:47:22Z</time>
      </trkpt>
      <trkpt lat="48.71785" lon="2.48848">
        <ele>148.518</ele>
        <time>2018-12-08T14:47:30Z</time>
      </trkpt>
      <trkpt lat="48.71771" lon="2.48852">
        <ele>148.428</ele>
        <time>2018-12-08T14:47:34Z</time>
      </trkpt>
      <trkpt lat="48.71767" lon="2.48856">
        <ele>148.399</ele>
        <time>2018-12-08T14:47:36Z</time>
      </trkpt>
      <trkpt lat="48.71762" lon="2.48859">
        <ele>148.275</ele>
        <time>2018-12-08T14:47:41Z</time>
      </trkpt>
      <trkpt lat="48.71756" lon="2.48862">
        <ele>148.209</ele>
        <time>2018-12-08T14:47:44Z</time>
      </trkpt>
      <trkpt lat="48.71753" lon="2.48863">
        <ele>148.177</ele>
        <time>2018-12-08T14:47:45Z</time>
      </trkpt>
      <trkpt lat="48.71751" lon="2.48864">
        <ele>148.143</ele>
        <time>2018-12-08T14:47:46Z</time>
      </trkpt>
      <trkpt lat="48.71745" lon="2.48865">
        <ele>148.076</ele>
        <time>2018-12-08T14:47:48Z</time>
      </trkpt>
      <trkpt lat="48.7174" lon="2.48868">
        <ele>147.968</ele>
        <time>2018-12-08T14:47:51Z</time>
      </trkpt>
      <trkpt lat="48.71738" lon="2.48869">
        <ele>147.893</ele>
        <time>2018-12-08T14:47:53Z</time>
      </trkpt>
      <trkpt lat="48.71734" lon="2.48873">
        <ele>147.735</ele>
        <time>2018-12-08T14:47:57Z</time>
      </trkpt>
      <trkpt lat="48.7173" lon="2.48879">
        <ele>147.47</ele>
        <time>2018-12-08T14:48:03Z</time>
      </trkpt>
      <trkpt lat="48.71727" lon="2.48884">
        <ele>147.327</ele>
        <time>2018-12-08T14:48:06Z</time>
      </trkpt>
      <trkpt lat="48.71723" lon="2.4889">
        <ele>147.125</ele>
        <time>2018-12-08T14:48:10Z</time>
      </trkpt>
      <trkpt lat="48.71717" lon="2.48896">
        <ele>146.927</ele>
        <time>2018-12-08T14:48:14Z</time>
      </trkpt>
      <trkpt lat="48.71714" lon="2.48902">
        <ele>146.782</ele>
        <time>2018-12-08T14:48:17Z</time>
      </trkpt>
      <trkpt lat="48.71712" lon="2.4891">
        <ele>146.64</ele>
        <time>2018-12-08T14:48:20Z</time>
      </trkpt>
      <trkpt lat="48.71711" lon="2.48913">
        <ele>146.502</ele>
        <time>2018-12-08T14:48:23Z</time>
      </trkpt>
      <trkpt lat="48.71711" lon="2.48913">
        <ele>54.2</ele>
        <time>2018-12-08T14:48:28Z</time>
      </trkpt>
      <trkpt lat="48.71711" lon="2.48913">
        <ele>54.2</ele>
        <time>2018-12-08T14:48:35Z</time>
      </trkpt>
      <trkpt lat="48.717" lon="2.4891">
        <ele>145.989</ele>
        <time>2018-12-08T14:48:35Z</time>
      </trkpt>
      <trkpt lat="48.71694" lon="2.48908">
        <ele>145.871</ele>
        <time>2018-12-08T14:48:38Z</time>
      </trkpt>
      <trkpt lat="48.7169" lon="2.48911">
        <ele>145.711</ele>
        <time>2018-12-08T14:48:42Z</time>
      </trkpt>
      <trkpt lat="48.7169" lon="2.48911">
        <ele>52.5</ele>
        <time>2018-12-08T14:48:49Z</time>
      </trkpt>
      <trkpt lat="48.7169" lon="2.48911">
        <ele>52.5</ele>
        <time>2018-12-08T14:48:54Z</time>
      </trkpt>
      <trkpt lat="48.71682" lon="2.48919">
        <ele>145.208</ele>
        <time>2018-12-08T14:48:54Z</time>
      </trkpt>
      <trkpt lat="48.7168" lon="2.48922">
        <ele>145.115</ele>
        <time>2018-12-08T14:48:56Z</time>
      </trkpt>
      <trkpt lat="48.71677" lon="2.48928">
        <ele>144.873</ele>
        <time>2018-12-08T14:49:01Z</time>
      </trkpt>
      <trkpt lat="48.71676" lon="2.48936">
        <ele>144.669</ele>
        <time>2018-12-08T14:49:05Z</time>
      </trkpt>
      <trkpt lat="48.71677" lon="2.48944">
        <ele>144.456</ele>
        <time>2018-12-08T14:49:09Z</time>
      </trkpt>
      <trkpt lat="48.71679" lon="2.48951">
        <ele>144.229</ele>
        <time>2018-12-08T14:49:13Z</time>
      </trkpt>
      <trkpt lat="48.71677" lon="2.48957">
        <ele>143.987</ele>
        <time>2018-12-08T14:49:17Z</time>
      </trkpt>
      <trkpt lat="48.71674" lon="2.48962">
        <ele>143.678</ele>
        <time>2018-12-08T14:49:22Z</time>
      </trkpt>
      <trkpt lat="48.71674" lon="2.48972">
        <ele>143.193</ele>
        <time>2018-12-08T14:49:30Z</time>
      </trkpt>
      <trkpt lat="48.71675" lon="2.48978">
        <ele>143.017</ele>
        <time>2018-12-08T14:49:33Z</time>
      </trkpt>
      <trkpt lat="48.71678" lon="2.48985">
        <ele>142.679</ele>
        <time>2018-12-08T14:49:39Z</time>
      </trkpt>
      <trkpt lat="48.71679" lon="2.48993">
        <ele>142.512</ele>
        <time>2018-12-08T14:49:42Z</time>
      </trkpt>
      <trkpt lat="48.71676" lon="2.49004">
        <ele>142.338</ele>
        <time>2018-12-08T14:49:45Z</time>
      </trkpt>
      <trkpt lat="48.71672" lon="2.49011">
        <ele>142.096</ele>
        <time>2018-12-08T14:49:49Z</time>
      </trkpt>
      <trkpt lat="48.71669" lon="2.49018">
        <ele>141.842</ele>
        <time>2018-12-08T14:49:53Z</time>
      </trkpt>
      <trkpt lat="48.71667" lon="2.49024">
        <ele>141.425</ele>
        <time>2018-12-08T14:49:59Z</time>
      </trkpt>
      <trkpt lat="48.71666" lon="2.49031">
        <ele>141.192</ele>
        <time>2018-12-08T14:50:03Z</time>
      </trkpt>
      <trkpt lat="48.71663" lon="2.49039">
        <ele>140.882</ele>
        <time>2018-12-08T14:50:07Z</time>
      </trkpt>
      <trkpt lat="48.71662" lon="2.49046">
        <ele>140.485</ele>
        <time>2018-12-08T14:50:12Z</time>
      </trkpt>
      <trkpt lat="48.7166" lon="2.49053">
        <ele>140.083</ele>
        <time>2018-12-08T14:50:17Z</time>
      </trkpt>
      <trkpt lat="48.71657" lon="2.49059">
        <ele>139.668</ele>
        <time>2018-12-08T14:50:22Z</time>
      </trkpt>
      <trkpt lat="48.71656" lon="2.49067">
        <ele>139.152</ele>
        <time>2018-12-08T14:50:28Z</time>
      </trkpt>
      <trkpt lat="48.71655" lon="2.49072">
        <ele>138.893</ele>
        <time>2018-12-08T14:50:31Z</time>
      </trkpt>
      <trkpt lat="48.71655" lon="2.49076">
        <ele>138.638</ele>
        <time>2018-12-08T14:50:34Z</time>
      </trkpt>
      <trkpt lat="48.71655" lon="2.49076">
        <ele>49.8</ele>
        <time>2018-12-08T14:50:42Z</time>
      </trkpt>
      <trkpt lat="48.71655" lon="2.49076">
        <ele>49.8</ele>
        <time>2018-12-08T14:50:46Z</time>
      </trkpt>
      <trkpt lat="48.71655" lon="2.49088">
        <ele>137.106</ele>
        <time>2018-12-08T14:50:46Z</time>
      </trkpt>
      <trkpt lat="48.71653" lon="2.49099">
        <ele>136.938</ele>
        <time>2018-12-08T14:50:49Z</time>
      </trkpt>
      <trkpt lat="48.71649" lon="2.49105">
        <ele>136.824</ele>
        <time>2018-12-08T14:50:51Z</time>
      </trkpt>
      <trkpt lat="48.71647" lon="2.49108">
        <ele>136.766</ele>
        <time>2018-12-08T14:50:52Z</time>
      </trkpt>
      <trkpt lat="48.71645" lon="2.49116">
        <ele>136.646</ele>
        <time>2018-12-08T14:50:54Z</time>
      </trkpt>
      <trkpt lat="48.7164" lon="2.49119">
        <ele>136.468</ele>
        <time>2018-12-08T14:50:57Z</time>
      </trkpt>
      <trkpt lat="48.71635" lon="2.49115">
        <ele>136.187</ele>
        <time>2018-12-08T14:51:02Z</time>
      </trkpt>
      <trkpt lat="48.71632" lon="2.49113">
        <ele>135.964</ele>
        <time>2018-12-08T14:51:07Z</time>
      </trkpt>
      <trkpt lat="48.71629" lon="2.4911">
        <ele>135.652</ele>
        <time>2018-12-08T14:51:13Z</time>
      </trkpt>
      <trkpt lat="48.71626" lon="2.49108">
        <ele>135.499</ele>
        <time>2018-12-08T14:51:16Z</time>
      </trkpt>
      <trkpt lat="48.71626" lon="2.49108">
        <ele>135.499</ele>
        <time>2018-12-08T14:51:23Z</time>
      </trkpt>
      <trkpt lat="48.71626" lon="2.49108">
        <ele>48</ele>
        <time>2018-12-08T14:51:23Z</time>
      </trkpt>
      <trkpt lat="48.71626" lon="2.49108">
        <ele>48</ele>
        <time>2018-12-08T14:51:41Z</time>
      </trkpt>
      <trkpt lat="48.71621" lon="2.49085">
        <ele>134.274</ele>
        <time>2018-12-08T14:51:41Z</time>
      </trkpt>
      <trkpt lat="48.71617" lon="2.49077">
        <ele>133.783</ele>
        <time>2018-12-08T14:51:51Z</time>
      </trkpt>
      <trkpt lat="48.71615" lon="2.49069">
        <ele>133.586</ele>
        <time>2018-12-08T14:51:56Z</time>
      </trkpt>
      <trkpt lat="48.71615" lon="2.49061">
        <ele>133.287</ele>
        <time>2018-12-08T14:52:02Z</time>
      </trkpt>
      <trkpt lat="48.71607" lon="2.49062">
        <ele>132.727</ele>
        <time>2018-12-08T14:52:15Z</time>
      </trkpt>
      <trkpt lat="48.71602" lon="2.49059">
        <ele>132.262</ele>
        <time>2018-12-08T14:52:25Z</time>
      </trkpt>
      <trkpt lat="48.716" lon="2.49052">
        <ele>131.91</ele>
        <time>2018-12-08T14:52:32Z</time>
      </trkpt>
      <trkpt lat="48.71596" lon="2.49048">
        <ele>131.753</ele>
        <time>2018-12-08T14:52:36Z</time>
      </trkpt>
      <trkpt lat="48.71593" lon="2.49043">
        <ele>131.546</ele>
        <time>2018-12-08T14:52:41Z</time>
      </trkpt>
      <trkpt lat="48.71588" lon="2.49043">
        <ele>131.403</ele>
        <time>2018-12-08T14:52:44Z</time>
      </trkpt>
      <trkpt lat="48.71582" lon="2.49039">
        <ele>131.266</ele>
        <time>2018-12-08T14:52:47Z</time>
      </trkpt>
      <trkpt lat="48.71577" lon="2.49036">
        <ele>131.175</ele>
        <time>2018-12-08T14:52:49Z</time>
      </trkpt>
      <trkpt lat="48.71572" lon="2.49034">
        <ele>131.083</ele>
        <time>2018-12-08T14:52:51Z</time>
      </trkpt>
      <trkpt lat="48.71568" lon="2.49031">
        <ele>130.947</ele>
        <time>2018-12-08T14:52:54Z</time>
      </trkpt>
      <trkpt lat="48.71566" lon="2.49025">
        <ele>130.734</ele>
        <time>2018-12-08T14:52:59Z</time>
      </trkpt>
      <trkpt lat="48.71562" lon="2.49019">
        <ele>130.525</ele>
        <time>2018-12-08T14:53:04Z</time>
      </trkpt>
      <trkpt lat="48.71558" lon="2.49016">
        <ele>130.227</ele>
        <time>2018-12-08T14:53:11Z</time>
      </trkpt>
      <trkpt lat="48.71552" lon="2.49015">
        <ele>130.048</ele>
        <time>2018-12-08T14:53:16Z</time>
      </trkpt>
      <trkpt lat="48.71549" lon="2.49015">
        <ele>129.959</ele>
        <time>2018-12-08T14:53:18Z</time>
      </trkpt>
      <trkpt lat="48.71544" lon="2.49012">
        <ele>129.822</ele>
        <time>2018-12-08T14:53:21Z</time>
      </trkpt>
      <trkpt lat="48.71539" lon="2.4901">
        <ele>129.681</ele>
        <time>2018-12-08T14:53:24Z</time>
      </trkpt>
      <trkpt lat="48.71536" lon="2.49008">
        <ele>129.586</ele>
        <time>2018-12-08T14:53:26Z</time>
      </trkpt>
      <trkpt lat="48.7153" lon="2.49005">
        <ele>129.395</ele>
        <time>2018-12-08T14:53:30Z</time>
      </trkpt>
      <trkpt lat="48.71526" lon="2.49002">
        <ele>129.191</ele>
        <time>2018-12-08T14:53:35Z</time>
      </trkpt>
      <trkpt lat="48.71522" lon="2.48996">
        <ele>129.014</ele>
        <time>2018-12-08T14:53:41Z</time>
      </trkpt>
      <trkpt lat="48.71522" lon="2.48996">
        <ele>129.014</ele>
        <time>2018-12-08T14:53:48Z</time>
      </trkpt>
      <trkpt lat="48.71522" lon="2.48996">
        <ele>39.6</ele>
        <time>2018-12-08T14:53:48Z</time>
      </trkpt>
      <trkpt lat="48.71522" lon="2.48996">
        <ele>39.6</ele>
        <time>2018-12-08T14:54:10Z</time>
      </trkpt>
      <trkpt lat="48.71501" lon="2.48979">
        <ele>127.592</ele>
        <time>2018-12-08T14:54:10Z</time>
      </trkpt>
      <trkpt lat="48.71499" lon="2.48978">
        <ele>127.587</ele>
        <time>2018-12-08T14:54:11Z</time>
      </trkpt>
      <trkpt lat="48.71495" lon="2.48974">
        <ele>127.433</ele>
        <time>2018-12-08T14:54:14Z</time>
      </trkpt>
      <trkpt lat="48.7149" lon="2.48967">
        <ele>127.334</ele>
        <time>2018-12-08T14:54:16Z</time>
      </trkpt>
      <trkpt lat="48.71485" lon="2.48963">
        <ele>127.188</ele>
        <time>2018-12-08T14:54:19Z</time>
      </trkpt>
      <trkpt lat="48.71478" lon="2.4896">
        <ele>127.041</ele>
        <time>2018-12-08T14:54:22Z</time>
      </trkpt>
      <trkpt lat="48.71475" lon="2.48958">
        <ele>126.892</ele>
        <time>2018-12-08T14:54:25Z</time>
      </trkpt>
      <trkpt lat="48.71471" lon="2.48956">
        <ele>126.547</ele>
        <time>2018-12-08T14:54:33Z</time>
      </trkpt>
      <trkpt lat="48.71466" lon="2.48952">
        <ele>126.349</ele>
        <time>2018-12-08T14:54:39Z</time>
      </trkpt>
      <trkpt lat="48.71461" lon="2.48951">
        <ele>126.164</ele>
        <time>2018-12-08T14:54:43Z</time>
      </trkpt>
      <trkpt lat="48.71457" lon="2.48948">
        <ele>126.019</ele>
        <time>2018-12-08T14:54:48Z</time>
      </trkpt>
      <trkpt lat="48.71451" lon="2.48946">
        <ele>125.884</ele>
        <time>2018-12-08T14:54:51Z</time>
      </trkpt>
      <trkpt lat="48.71447" lon="2.48941">
        <ele>125.791</ele>
        <time>2018-12-08T14:54:54Z</time>
      </trkpt>
      <trkpt lat="48.71445" lon="2.48938">
        <ele>125.703</ele>
        <time>2018-12-08T14:54:56Z</time>
      </trkpt>
      <trkpt lat="48.7144" lon="2.48937">
        <ele>125.478</ele>
        <time>2018-12-08T14:55:02Z</time>
      </trkpt>
      <trkpt lat="48.71437" lon="2.48936">
        <ele>125.208</ele>
        <time>2018-12-08T14:55:08Z</time>
      </trkpt>
      <trkpt lat="48.71429" lon="2.48933">
        <ele>125.071</ele>
        <time>2018-12-08T14:55:12Z</time>
      </trkpt>
      <trkpt lat="48.71425" lon="2.48936">
        <ele>124.928</ele>
        <time>2018-12-08T14:55:16Z</time>
      </trkpt>
      <trkpt lat="48.7142" lon="2.48934">
        <ele>124.472</ele>
        <time>2018-12-08T14:55:26Z</time>
      </trkpt>
      <trkpt lat="48.71418" lon="2.48928">
        <ele>124.325</ele>
        <time>2018-12-08T14:55:29Z</time>
      </trkpt>
      <trkpt lat="48.71413" lon="2.48925">
        <ele>124.137</ele>
        <time>2018-12-08T14:55:33Z</time>
      </trkpt>
      <trkpt lat="48.71408" lon="2.48921">
        <ele>123.951</ele>
        <time>2018-12-08T14:55:37Z</time>
      </trkpt>
      <trkpt lat="48.71403" lon="2.48921">
        <ele>123.768</ele>
        <time>2018-12-08T14:55:41Z</time>
      </trkpt>
      <trkpt lat="48.71398" lon="2.48922">
        <ele>123.544</ele>
        <time>2018-12-08T14:55:46Z</time>
      </trkpt>
      <trkpt lat="48.71395" lon="2.48914">
        <ele>123.322</ele>
        <time>2018-12-08T14:55:51Z</time>
      </trkpt>
      <trkpt lat="48.71392" lon="2.48909">
        <ele>123.109</ele>
        <time>2018-12-08T14:55:56Z</time>
      </trkpt>
      <trkpt lat="48.71385" lon="2.48909">
        <ele>122.909</ele>
        <time>2018-12-08T14:56:01Z</time>
      </trkpt>
      <trkpt lat="48.71381" lon="2.4891">
        <ele>122.788</ele>
        <time>2018-12-08T14:56:04Z</time>
      </trkpt>
      <trkpt lat="48.71374" lon="2.48908">
        <ele>122.664</ele>
        <time>2018-12-08T14:56:07Z</time>
      </trkpt>
      <trkpt lat="48.71369" lon="2.48906">
        <ele>122.497</ele>
        <time>2018-12-08T14:56:11Z</time>
      </trkpt>
      <trkpt lat="48.71364" lon="2.48902">
        <ele>122.373</ele>
        <time>2018-12-08T14:56:14Z</time>
      </trkpt>
      <trkpt lat="48.71361" lon="2.489">
        <ele>122.289</ele>
        <time>2018-12-08T14:56:16Z</time>
      </trkpt>
      <trkpt lat="48.71357" lon="2.48898">
        <ele>122.166</ele>
        <time>2018-12-08T14:56:19Z</time>
      </trkpt>
      <trkpt lat="48.71353" lon="2.48896">
        <ele>122.045</ele>
        <time>2018-12-08T14:56:22Z</time>
      </trkpt>
      <trkpt lat="48.71348" lon="2.48891">
        <ele>121.809</ele>
        <time>2018-12-08T14:56:28Z</time>
      </trkpt>
      <trkpt lat="48.71348" lon="2.48891">
        <ele>38.4</ele>
        <time>2018-12-08T14:56:35Z</time>
      </trkpt>
      <trkpt lat="48.71348" lon="2.48891">
        <ele>38.4</ele>
        <time>2018-12-08T14:57:00Z</time>
      </trkpt>
      <trkpt lat="48.7133" lon="2.48853">
        <ele>120.623</ele>
        <time>2018-12-08T14:57:00Z</time>
      </trkpt>
      <trkpt lat="48.71327" lon="2.48847">
        <ele>120.548</ele>
        <time>2018-12-08T14:57:02Z</time>
      </trkpt>
      <trkpt lat="48.71324" lon="2.48841">
        <ele>120.473</ele>
        <time>2018-12-08T14:57:04Z</time>
      </trkpt>
      <trkpt lat="48.71324" lon="2.48841">
        <ele>41.3</ele>
        <time>2018-12-08T14:57:09Z</time>
      </trkpt>
      <trkpt lat="48.71324" lon="2.48841">
        <ele>41.3</ele>
        <time>2018-12-08T14:57:14Z</time>
      </trkpt>
      <trkpt lat="48.71318" lon="2.4883">
        <ele>120.13</ele>
        <time>2018-12-08T14:57:14Z</time>
      </trkpt>
      <trkpt lat="48.71317" lon="2.48827">
        <ele>120.018</ele>
        <time>2018-12-08T14:57:17Z</time>
      </trkpt>
      <trkpt lat="48.71317" lon="2.4882">
        <ele>119.829</ele>
        <time>2018-12-08T14:57:22Z</time>
      </trkpt>
      <trkpt lat="48.71315" lon="2.48812">
        <ele>119.743</ele>
        <time>2018-12-08T14:57:26Z</time>
      </trkpt>
      <trkpt lat="48.71314" lon="2.48809">
        <ele>119.664</ele>
        <time>2018-12-08T14:57:28Z</time>
      </trkpt>
      <trkpt lat="48.7131" lon="2.48804">
        <ele>119.554</ele>
        <time>2018-12-08T14:57:31Z</time>
      </trkpt>
      <trkpt lat="48.71308" lon="2.48796">
        <ele>119.48</ele>
        <time>2018-12-08T14:57:33Z</time>
      </trkpt>
      <trkpt lat="48.71306" lon="2.48791">
        <ele>119.34</ele>
        <time>2018-12-08T14:57:37Z</time>
      </trkpt>
      <trkpt lat="48.71305" lon="2.48788">
        <ele>119.337</ele>
        <time>2018-12-08T14:57:38Z</time>
      </trkpt>
      <trkpt lat="48.71304" lon="2.48781">
        <ele>119.174</ele>
        <time>2018-12-08T14:57:44Z</time>
      </trkpt>
      <trkpt lat="48.71303" lon="2.48777">
        <ele>119.11</ele>
        <time>2018-12-08T14:57:47Z</time>
      </trkpt>
      <trkpt lat="48.713" lon="2.48771">
        <ele>118.992</ele>
        <time>2018-12-08T14:57:51Z</time>
      </trkpt>
      <trkpt lat="48.71298" lon="2.48763">
        <ele>118.932</ele>
        <time>2018-12-08T14:57:54Z</time>
      </trkpt>
      <trkpt lat="48.71297" lon="2.48756">
        <ele>118.848</ele>
        <time>2018-12-08T14:57:57Z</time>
      </trkpt>
      <trkpt lat="48.71297" lon="2.48756">
        <ele>44.9</ele>
        <time>2018-12-08T14:58:03Z</time>
      </trkpt>
      <trkpt lat="48.71297" lon="2.48756">
        <ele>44.9</ele>
        <time>2018-12-08T14:58:19Z</time>
      </trkpt>
      <trkpt lat="48.71283" lon="2.48738">
        <ele>118.334</ele>
        <time>2018-12-08T14:58:19Z</time>
      </trkpt>
      <trkpt lat="48.71279" lon="2.48745">
        <ele>118.235</ele>
        <time>2018-12-08T14:58:23Z</time>
      </trkpt>
      <trkpt lat="48.71279" lon="2.48745">
        <ele>45</ele>
        <time>2018-12-08T14:58:29Z</time>
      </trkpt>
      <trkpt lat="48.71279" lon="2.48745">
        <ele>45</ele>
        <time>2018-12-08T14:58:36Z</time>
      </trkpt>
      <trkpt lat="48.71271" lon="2.48733">
        <ele>117.956</ele>
        <time>2018-12-08T14:58:36Z</time>
      </trkpt>
      <trkpt lat="48.71267" lon="2.48731">
        <ele>117.85</ele>
        <time>2018-12-08T14:58:40Z</time>
      </trkpt>
      <trkpt lat="48.71262" lon="2.4873">
        <ele>117.795</ele>
        <time>2018-12-08T14:58:42Z</time>
      </trkpt>
      <trkpt lat="48.71256" lon="2.48728">
        <ele>117.709</ele>
        <time>2018-12-08T14:58:45Z</time>
      </trkpt>
      <trkpt lat="48.7125" lon="2.48723">
        <ele>117.648</ele>
        <time>2018-12-08T14:58:48Z</time>
      </trkpt>
      <trkpt lat="48.71247" lon="2.48719">
        <ele>117.538</ele>
        <time>2018-12-08T14:58:52Z</time>
      </trkpt>
      <trkpt lat="48.71247" lon="2.48719">
        <ele>117.538</ele>
        <time>2018-12-08T14:58:59Z</time>
      </trkpt>
      <trkpt lat="48.71247" lon="2.48719">
        <ele>45.1</ele>
        <time>2018-12-08T14:58:59Z</time>
      </trkpt>
      <trkpt lat="48.71247" lon="2.48719">
        <ele>45.1</ele>
        <time>2018-12-08T15:00:52Z</time>
      </trkpt>
      <trkpt lat="48.71247" lon="2.48719">
        <ele>45.1</ele>
        <time>2018-12-08T15:00:56Z</time>
      </trkpt>
      <trkpt lat="48.71247" lon="2.48719">
        <ele>45.1</ele>
        <time>2018-12-08T15:00:57Z</time>
      </trkpt>
    </trkseg>
  </trk>
</gpx>